<?xml version="1.0" encoding="UTF-8" standalone="no" ?>
<gpx xmlns="http://www.topografix.com/GPX/1/1" xmlns:xsi="http://www.w3.org/2001/XMLSchema-instance" xsi:schemaLocation="http://www.topografix.com/GPX/1/1 http://www.topografix.com/GPX/1/1/gpx.xsd" version="1.1" creator="VisuGPX - https://www.visugpx.com">
  <metadata>
    <name>Randonnées Biertoises : du col de Port à Biert par les crêtes</name>
    <desc><![CDATA[Randonnée près de Biert et Massat, dans le Couserans en Ariège (Pyrénées).
Départ : col de Port.
Montée plein Nord vers Roc Blanc ;
Sarrat des Sémalous ;
Pic de Razels ;
Cap du Carmil ;
Col de Péguère ;
Cap de Campets ;
Roc de Peyre-Caussile ;
Carabas ;
Joulieu ;
Arrivée à Biert.
La voiture laissée au col de Port sera récupérée plus tard avec l'aide d'un voisin]]></desc>
  </metadata>
  <trk>
    <name><![CDATA[12/08/2015 8:36]]></name>
    <desc><![CDATA[]]></desc>
    <trkseg>
      <trkpt lat="42.89929" lon="1.45258">
        <ele>1232.4</ele>
        <time>2015-08-12T06:36:34.558Z</time>
      </trkpt>
      <trkpt lat="42.89932" lon="1.45269">
        <ele>1245.2</ele>
        <time>2015-08-12T06:39:17.170Z</time>
      </trkpt>
      <trkpt lat="42.89931" lon="1.4527">
        <ele>1245.1</ele>
        <time>2015-08-12T06:39:18.146Z</time>
      </trkpt>
      <trkpt lat="42.89925" lon="1.45279">
        <ele>1245.1</ele>
        <time>2015-08-12T06:39:24.283Z</time>
      </trkpt>
      <trkpt lat="42.89925" lon="1.4528">
        <ele>1245.2</ele>
        <time>2015-08-12T06:39:25.147Z</time>
      </trkpt>
      <trkpt lat="42.89923" lon="1.4529">
        <ele>1247.8</ele>
        <time>2015-08-12T06:39:32.169Z</time>
      </trkpt>
      <trkpt lat="42.89922" lon="1.45292">
        <ele>1247.8</ele>
        <time>2015-08-12T06:39:33.148Z</time>
      </trkpt>
      <trkpt lat="42.89925" lon="1.45303">
        <ele>1249</ele>
        <time>2015-08-12T06:39:45.170Z</time>
      </trkpt>
      <trkpt lat="42.89926" lon="1.45304">
        <ele>1249.3</ele>
        <time>2015-08-12T06:39:46.145Z</time>
      </trkpt>
      <trkpt lat="42.89933" lon="1.45311">
        <ele>1250.5</ele>
        <time>2015-08-12T06:39:54.170Z</time>
      </trkpt>
      <trkpt lat="42.89934" lon="1.45312">
        <ele>1250.6</ele>
        <time>2015-08-12T06:39:55.145Z</time>
      </trkpt>
      <trkpt lat="42.89942" lon="1.45314">
        <ele>1252.8</ele>
        <time>2015-08-12T06:40:06.168Z</time>
      </trkpt>
      <trkpt lat="42.89943" lon="1.45314">
        <ele>1252.9</ele>
        <time>2015-08-12T06:40:07.181Z</time>
      </trkpt>
      <trkpt lat="42.89949" lon="1.45321">
        <ele>1254.3</ele>
        <time>2015-08-12T06:40:19.169Z</time>
      </trkpt>
      <trkpt lat="42.8995" lon="1.45321">
        <ele>1254.3</ele>
        <time>2015-08-12T06:40:20.146Z</time>
      </trkpt>
      <trkpt lat="42.89957" lon="1.45328">
        <ele>1254.7</ele>
        <time>2015-08-12T06:40:31.168Z</time>
      </trkpt>
      <trkpt lat="42.89958" lon="1.45328">
        <ele>1254.8</ele>
        <time>2015-08-12T06:40:32.145Z</time>
      </trkpt>
      <trkpt lat="42.89966" lon="1.45331">
        <ele>1256.1</ele>
        <time>2015-08-12T06:40:42.168Z</time>
      </trkpt>
      <trkpt lat="42.89967" lon="1.45332">
        <ele>1256.3</ele>
        <time>2015-08-12T06:40:43.146Z</time>
      </trkpt>
      <trkpt lat="42.89976" lon="1.45336">
        <ele>1258.9</ele>
        <time>2015-08-12T06:40:56.168Z</time>
      </trkpt>
      <trkpt lat="42.89976" lon="1.45336">
        <ele>1259</ele>
        <time>2015-08-12T06:40:57.148Z</time>
      </trkpt>
      <trkpt lat="42.89983" lon="1.45344">
        <ele>1261</ele>
        <time>2015-08-12T06:41:11.181Z</time>
      </trkpt>
      <trkpt lat="42.89983" lon="1.45344">
        <ele>1261.1</ele>
        <time>2015-08-12T06:41:12.254Z</time>
      </trkpt>
      <trkpt lat="42.89989" lon="1.45353">
        <ele>1262.8</ele>
        <time>2015-08-12T06:41:23.168Z</time>
      </trkpt>
      <trkpt lat="42.89989" lon="1.45353">
        <ele>1262.9</ele>
        <time>2015-08-12T06:41:24.145Z</time>
      </trkpt>
      <trkpt lat="42.89995" lon="1.45362">
        <ele>1264.2</ele>
        <time>2015-08-12T06:41:34.168Z</time>
      </trkpt>
      <trkpt lat="42.89995" lon="1.45363">
        <ele>1264.3</ele>
        <time>2015-08-12T06:41:35.145Z</time>
      </trkpt>
      <trkpt lat="42.89999" lon="1.45373">
        <ele>1265.9</ele>
        <time>2015-08-12T06:41:46.168Z</time>
      </trkpt>
      <trkpt lat="42.9" lon="1.45374">
        <ele>1266.1</ele>
        <time>2015-08-12T06:41:47.145Z</time>
      </trkpt>
      <trkpt lat="42.90001" lon="1.45385">
        <ele>1267.4</ele>
        <time>2015-08-12T06:41:57.170Z</time>
      </trkpt>
      <trkpt lat="42.90001" lon="1.45386">
        <ele>1267.5</ele>
        <time>2015-08-12T06:41:58.146Z</time>
      </trkpt>
      <trkpt lat="42.90004" lon="1.45397">
        <ele>1269.4</ele>
        <time>2015-08-12T06:42:09.185Z</time>
      </trkpt>
      <trkpt lat="42.90004" lon="1.45398">
        <ele>1269.5</ele>
        <time>2015-08-12T06:42:10.146Z</time>
      </trkpt>
      <trkpt lat="42.90012" lon="1.45395">
        <ele>1271.8</ele>
        <time>2015-08-12T06:42:28.168Z</time>
      </trkpt>
      <trkpt lat="42.90013" lon="1.45394">
        <ele>1271.9</ele>
        <time>2015-08-12T06:42:29.146Z</time>
      </trkpt>
      <trkpt lat="42.90018" lon="1.45385">
        <ele>1273.6</ele>
        <time>2015-08-12T06:42:41.182Z</time>
      </trkpt>
      <trkpt lat="42.90018" lon="1.45384">
        <ele>1273.7</ele>
        <time>2015-08-12T06:42:42.145Z</time>
      </trkpt>
      <trkpt lat="42.90027" lon="1.45379">
        <ele>1275.3</ele>
        <time>2015-08-12T06:42:56.167Z</time>
      </trkpt>
      <trkpt lat="42.90027" lon="1.4538">
        <ele>1275.4</ele>
        <time>2015-08-12T06:42:57.147Z</time>
      </trkpt>
      <trkpt lat="42.90033" lon="1.45389">
        <ele>1277.4</ele>
        <time>2015-08-12T06:43:12.168Z</time>
      </trkpt>
      <trkpt lat="42.90033" lon="1.45389">
        <ele>1277.5</ele>
        <time>2015-08-12T06:43:13.145Z</time>
      </trkpt>
      <trkpt lat="42.90039" lon="1.45397">
        <ele>1279.4</ele>
        <time>2015-08-12T06:43:31.168Z</time>
      </trkpt>
      <trkpt lat="42.9004" lon="1.45397">
        <ele>1279.6</ele>
        <time>2015-08-12T06:43:32.145Z</time>
      </trkpt>
      <trkpt lat="42.90045" lon="1.45406">
        <ele>1281.4</ele>
        <time>2015-08-12T06:43:46.168Z</time>
      </trkpt>
      <trkpt lat="42.90045" lon="1.45407">
        <ele>1281.5</ele>
        <time>2015-08-12T06:43:47.145Z</time>
      </trkpt>
      <trkpt lat="42.90051" lon="1.45417">
        <ele>1283.7</ele>
        <time>2015-08-12T06:44:03.170Z</time>
      </trkpt>
      <trkpt lat="42.90051" lon="1.45417">
        <ele>1283.8</ele>
        <time>2015-08-12T06:44:04.145Z</time>
      </trkpt>
      <trkpt lat="42.90057" lon="1.45426">
        <ele>1287.2</ele>
        <time>2015-08-12T06:44:27.169Z</time>
      </trkpt>
      <trkpt lat="42.90058" lon="1.45425">
        <ele>1287.7</ele>
        <time>2015-08-12T06:44:28.145Z</time>
      </trkpt>
      <trkpt lat="42.90062" lon="1.45436">
        <ele>1290.2</ele>
        <time>2015-08-12T06:44:43.167Z</time>
      </trkpt>
      <trkpt lat="42.90062" lon="1.45437">
        <ele>1290.6</ele>
        <time>2015-08-12T06:44:44.146Z</time>
      </trkpt>
      <trkpt lat="42.90066" lon="1.45448">
        <ele>1294</ele>
        <time>2015-08-12T06:45:03.169Z</time>
      </trkpt>
      <trkpt lat="42.90066" lon="1.45448">
        <ele>1294.2</ele>
        <time>2015-08-12T06:45:04.145Z</time>
      </trkpt>
      <trkpt lat="42.90071" lon="1.45458">
        <ele>1295.8</ele>
        <time>2015-08-12T06:45:14.181Z</time>
      </trkpt>
      <trkpt lat="42.90071" lon="1.45459">
        <ele>1295.9</ele>
        <time>2015-08-12T06:45:15.147Z</time>
      </trkpt>
      <trkpt lat="42.90073" lon="1.4547">
        <ele>1297.8</ele>
        <time>2015-08-12T06:45:30.180Z</time>
      </trkpt>
      <trkpt lat="42.90073" lon="1.45471">
        <ele>1297.9</ele>
        <time>2015-08-12T06:45:31.145Z</time>
      </trkpt>
      <trkpt lat="42.90078" lon="1.45481">
        <ele>1299.3</ele>
        <time>2015-08-12T06:45:45.174Z</time>
      </trkpt>
      <trkpt lat="42.90079" lon="1.45482">
        <ele>1299.4</ele>
        <time>2015-08-12T06:45:46.169Z</time>
      </trkpt>
      <trkpt lat="42.90084" lon="1.45492">
        <ele>1301.6</ele>
        <time>2015-08-12T06:46:02.182Z</time>
      </trkpt>
      <trkpt lat="42.90084" lon="1.45493">
        <ele>1301.7</ele>
        <time>2015-08-12T06:46:03.148Z</time>
      </trkpt>
      <trkpt lat="42.90089" lon="1.45483">
        <ele>1305.8</ele>
        <time>2015-08-12T06:46:27.170Z</time>
      </trkpt>
      <trkpt lat="42.90089" lon="1.45482">
        <ele>1306</ele>
        <time>2015-08-12T06:46:28.146Z</time>
      </trkpt>
      <trkpt lat="42.90096" lon="1.45476">
        <ele>1306.6</ele>
        <time>2015-08-12T06:46:55.169Z</time>
      </trkpt>
      <trkpt lat="42.90097" lon="1.45476">
        <ele>1306.6</ele>
        <time>2015-08-12T06:46:56.145Z</time>
      </trkpt>
      <trkpt lat="42.90098" lon="1.45476">
        <ele>1306.7</ele>
        <time>2015-08-12T06:46:57.172Z</time>
      </trkpt>
      <trkpt lat="42.90103" lon="1.45459">
        <ele>1321.1</ele>
        <time>2015-08-12T06:47:09.944Z</time>
      </trkpt>
      <trkpt lat="42.90109" lon="1.45467">
        <ele>1312.4</ele>
        <time>2015-08-12T06:47:23.167Z</time>
      </trkpt>
      <trkpt lat="42.9011" lon="1.45468">
        <ele>1312.7</ele>
        <time>2015-08-12T06:47:24.146Z</time>
      </trkpt>
      <trkpt lat="42.90114" lon="1.45477">
        <ele>1313.7</ele>
        <time>2015-08-12T06:47:30.167Z</time>
      </trkpt>
      <trkpt lat="42.90115" lon="1.45479">
        <ele>1313.4</ele>
        <time>2015-08-12T06:47:31.145Z</time>
      </trkpt>
      <trkpt lat="42.90119" lon="1.45488">
        <ele>1312.8</ele>
        <time>2015-08-12T06:47:46.168Z</time>
      </trkpt>
      <trkpt lat="42.9012" lon="1.4549">
        <ele>1312.7</ele>
        <time>2015-08-12T06:47:47.160Z</time>
      </trkpt>
      <trkpt lat="42.90125" lon="1.45499">
        <ele>1314.1</ele>
        <time>2015-08-12T06:48:03.171Z</time>
      </trkpt>
      <trkpt lat="42.90126" lon="1.455">
        <ele>1314</ele>
        <time>2015-08-12T06:48:04.146Z</time>
      </trkpt>
      <trkpt lat="42.9013" lon="1.4551">
        <ele>1314</ele>
        <time>2015-08-12T06:48:18.181Z</time>
      </trkpt>
      <trkpt lat="42.90131" lon="1.45511">
        <ele>1314</ele>
        <time>2015-08-12T06:48:19.146Z</time>
      </trkpt>
      <trkpt lat="42.90133" lon="1.45523">
        <ele>1314.4</ele>
        <time>2015-08-12T06:48:33.169Z</time>
      </trkpt>
      <trkpt lat="42.90133" lon="1.45524">
        <ele>1314.4</ele>
        <time>2015-08-12T06:48:34.167Z</time>
      </trkpt>
      <trkpt lat="42.90136" lon="1.45536">
        <ele>1315.7</ele>
        <time>2015-08-12T06:48:47.168Z</time>
      </trkpt>
      <trkpt lat="42.90136" lon="1.45537">
        <ele>1315.8</ele>
        <time>2015-08-12T06:48:48.146Z</time>
      </trkpt>
      <trkpt lat="42.90138" lon="1.45549">
        <ele>1317.6</ele>
        <time>2015-08-12T06:49:00.183Z</time>
      </trkpt>
      <trkpt lat="42.90138" lon="1.45549">
        <ele>1317.8</ele>
        <time>2015-08-12T06:49:01.146Z</time>
      </trkpt>
      <trkpt lat="42.90141" lon="1.4556">
        <ele>1319.5</ele>
        <time>2015-08-12T06:49:13.169Z</time>
      </trkpt>
      <trkpt lat="42.90141" lon="1.45561">
        <ele>1319.7</ele>
        <time>2015-08-12T06:49:14.146Z</time>
      </trkpt>
      <trkpt lat="42.9014" lon="1.45573">
        <ele>1320.9</ele>
        <time>2015-08-12T06:49:28.168Z</time>
      </trkpt>
      <trkpt lat="42.9014" lon="1.45574">
        <ele>1321</ele>
        <time>2015-08-12T06:49:29.146Z</time>
      </trkpt>
      <trkpt lat="42.90143" lon="1.45584">
        <ele>1325.5</ele>
        <time>2015-08-12T06:49:46.208Z</time>
      </trkpt>
      <trkpt lat="42.90144" lon="1.45585">
        <ele>1325.6</ele>
        <time>2015-08-12T06:49:47.146Z</time>
      </trkpt>
      <trkpt lat="42.90145" lon="1.45596">
        <ele>1328.2</ele>
        <time>2015-08-12T06:50:00.279Z</time>
      </trkpt>
      <trkpt lat="42.90145" lon="1.45597">
        <ele>1328.3</ele>
        <time>2015-08-12T06:50:01.145Z</time>
      </trkpt>
      <trkpt lat="42.90143" lon="1.45609">
        <ele>1332</ele>
        <time>2015-08-12T06:50:14.181Z</time>
      </trkpt>
      <trkpt lat="42.90143" lon="1.4561">
        <ele>1332.1</ele>
        <time>2015-08-12T06:50:15.148Z</time>
      </trkpt>
      <trkpt lat="42.90145" lon="1.45622">
        <ele>1333.7</ele>
        <time>2015-08-12T06:50:23.190Z</time>
      </trkpt>
      <trkpt lat="42.90145" lon="1.45623">
        <ele>1333.9</ele>
        <time>2015-08-12T06:50:24.144Z</time>
      </trkpt>
      <trkpt lat="42.90151" lon="1.45614">
        <ele>1337.1</ele>
        <time>2015-08-12T06:50:38.166Z</time>
      </trkpt>
      <trkpt lat="42.90151" lon="1.45614">
        <ele>1337.4</ele>
        <time>2015-08-12T06:50:39.148Z</time>
      </trkpt>
      <trkpt lat="42.90156" lon="1.45604">
        <ele>1340.1</ele>
        <time>2015-08-12T06:50:53.167Z</time>
      </trkpt>
      <trkpt lat="42.90157" lon="1.45604">
        <ele>1340.2</ele>
        <time>2015-08-12T06:50:54.145Z</time>
      </trkpt>
      <trkpt lat="42.90163" lon="1.45595">
        <ele>1342.1</ele>
        <time>2015-08-12T06:51:07.166Z</time>
      </trkpt>
      <trkpt lat="42.90163" lon="1.45594">
        <ele>1342.2</ele>
        <time>2015-08-12T06:51:08.145Z</time>
      </trkpt>
      <trkpt lat="42.90169" lon="1.45585">
        <ele>1344.6</ele>
        <time>2015-08-12T06:51:20.174Z</time>
      </trkpt>
      <trkpt lat="42.9017" lon="1.45584">
        <ele>1344.8</ele>
        <time>2015-08-12T06:51:21.147Z</time>
      </trkpt>
      <trkpt lat="42.90175" lon="1.45576">
        <ele>1346.9</ele>
        <time>2015-08-12T06:51:33.170Z</time>
      </trkpt>
      <trkpt lat="42.90176" lon="1.45575">
        <ele>1347</ele>
        <time>2015-08-12T06:51:34.145Z</time>
      </trkpt>
      <trkpt lat="42.90184" lon="1.45571">
        <ele>1348.6</ele>
        <time>2015-08-12T06:51:45.169Z</time>
      </trkpt>
      <trkpt lat="42.90185" lon="1.45571">
        <ele>1348.8</ele>
        <time>2015-08-12T06:51:46.144Z</time>
      </trkpt>
      <trkpt lat="42.90192" lon="1.45564">
        <ele>1350.8</ele>
        <time>2015-08-12T06:51:58.278Z</time>
      </trkpt>
      <trkpt lat="42.90192" lon="1.45564">
        <ele>1351</ele>
        <time>2015-08-12T06:51:59.145Z</time>
      </trkpt>
      <trkpt lat="42.90199" lon="1.45556">
        <ele>1353.3</ele>
        <time>2015-08-12T06:52:12.166Z</time>
      </trkpt>
      <trkpt lat="42.90199" lon="1.45556">
        <ele>1353.5</ele>
        <time>2015-08-12T06:52:13.145Z</time>
      </trkpt>
      <trkpt lat="42.90204" lon="1.45546">
        <ele>1356.2</ele>
        <time>2015-08-12T06:52:26.166Z</time>
      </trkpt>
      <trkpt lat="42.90205" lon="1.45545">
        <ele>1356.4</ele>
        <time>2015-08-12T06:52:27.147Z</time>
      </trkpt>
      <trkpt lat="42.90212" lon="1.4554">
        <ele>1359.3</ele>
        <time>2015-08-12T06:52:41.166Z</time>
      </trkpt>
      <trkpt lat="42.90213" lon="1.4554">
        <ele>1359.5</ele>
        <time>2015-08-12T06:52:42.145Z</time>
      </trkpt>
      <trkpt lat="42.90221" lon="1.45533">
        <ele>1362</ele>
        <time>2015-08-12T06:52:56.191Z</time>
      </trkpt>
      <trkpt lat="42.90221" lon="1.45533">
        <ele>1362.2</ele>
        <time>2015-08-12T06:52:57.148Z</time>
      </trkpt>
      <trkpt lat="42.90228" lon="1.45527">
        <ele>1364.8</ele>
        <time>2015-08-12T06:53:10.166Z</time>
      </trkpt>
      <trkpt lat="42.90229" lon="1.45527">
        <ele>1365.1</ele>
        <time>2015-08-12T06:53:11.145Z</time>
      </trkpt>
      <trkpt lat="42.90236" lon="1.45535">
        <ele>1370.2</ele>
        <time>2015-08-12T06:53:35.226Z</time>
      </trkpt>
      <trkpt lat="42.90236" lon="1.45536">
        <ele>1370.4</ele>
        <time>2015-08-12T06:53:36.144Z</time>
      </trkpt>
      <trkpt lat="42.90235" lon="1.45547">
        <ele>1374.5</ele>
        <time>2015-08-12T06:53:56.175Z</time>
      </trkpt>
      <trkpt lat="42.90235" lon="1.45548">
        <ele>1374.7</ele>
        <time>2015-08-12T06:53:57.147Z</time>
      </trkpt>
      <trkpt lat="42.90238" lon="1.4556">
        <ele>1377.5</ele>
        <time>2015-08-12T06:54:11.166Z</time>
      </trkpt>
      <trkpt lat="42.90238" lon="1.4556">
        <ele>1377.6</ele>
        <time>2015-08-12T06:54:12.145Z</time>
      </trkpt>
      <trkpt lat="42.90241" lon="1.45571">
        <ele>1381</ele>
        <time>2015-08-12T06:54:29.166Z</time>
      </trkpt>
      <trkpt lat="42.90241" lon="1.45572">
        <ele>1381.2</ele>
        <time>2015-08-12T06:54:30.144Z</time>
      </trkpt>
      <trkpt lat="42.90245" lon="1.45582">
        <ele>1383.8</ele>
        <time>2015-08-12T06:54:42.166Z</time>
      </trkpt>
      <trkpt lat="42.90245" lon="1.45583">
        <ele>1384</ele>
        <time>2015-08-12T06:54:43.145Z</time>
      </trkpt>
      <trkpt lat="42.90248" lon="1.45594">
        <ele>1387</ele>
        <time>2015-08-12T06:54:58.199Z</time>
      </trkpt>
      <trkpt lat="42.90248" lon="1.45595">
        <ele>1387.2</ele>
        <time>2015-08-12T06:54:59.145Z</time>
      </trkpt>
      <trkpt lat="42.90248" lon="1.45607">
        <ele>1393</ele>
        <time>2015-08-12T06:55:23.167Z</time>
      </trkpt>
      <trkpt lat="42.90249" lon="1.45607">
        <ele>1393.3</ele>
        <time>2015-08-12T06:55:24.144Z</time>
      </trkpt>
      <trkpt lat="42.90254" lon="1.45617">
        <ele>1396.6</ele>
        <time>2015-08-12T06:55:39.169Z</time>
      </trkpt>
      <trkpt lat="42.90254" lon="1.45617">
        <ele>1396.9</ele>
        <time>2015-08-12T06:55:40.145Z</time>
      </trkpt>
      <trkpt lat="42.90259" lon="1.45627">
        <ele>1399.7</ele>
        <time>2015-08-12T06:55:53.166Z</time>
      </trkpt>
      <trkpt lat="42.90259" lon="1.45627">
        <ele>1399.8</ele>
        <time>2015-08-12T06:55:54.144Z</time>
      </trkpt>
      <trkpt lat="42.90262" lon="1.45638">
        <ele>1402.3</ele>
        <time>2015-08-12T06:56:07.166Z</time>
      </trkpt>
      <trkpt lat="42.90263" lon="1.45639">
        <ele>1402.4</ele>
        <time>2015-08-12T06:56:08.145Z</time>
      </trkpt>
      <trkpt lat="42.90267" lon="1.45649">
        <ele>1404.7</ele>
        <time>2015-08-12T06:56:22.166Z</time>
      </trkpt>
      <trkpt lat="42.90267" lon="1.4565">
        <ele>1404.9</ele>
        <time>2015-08-12T06:56:23.145Z</time>
      </trkpt>
      <trkpt lat="42.90272" lon="1.45661">
        <ele>1407.6</ele>
        <time>2015-08-12T06:56:37.166Z</time>
      </trkpt>
      <trkpt lat="42.90272" lon="1.45661">
        <ele>1407.8</ele>
        <time>2015-08-12T06:56:38.145Z</time>
      </trkpt>
      <trkpt lat="42.90276" lon="1.45671">
        <ele>1409.9</ele>
        <time>2015-08-12T06:56:49.166Z</time>
      </trkpt>
      <trkpt lat="42.90276" lon="1.45672">
        <ele>1410.1</ele>
        <time>2015-08-12T06:56:50.145Z</time>
      </trkpt>
      <trkpt lat="42.90283" lon="1.45665">
        <ele>1411.6</ele>
        <time>2015-08-12T06:57:00.167Z</time>
      </trkpt>
      <trkpt lat="42.90284" lon="1.45664">
        <ele>1411.8</ele>
        <time>2015-08-12T06:57:01.158Z</time>
      </trkpt>
      <trkpt lat="42.90287" lon="1.45654">
        <ele>1413.9</ele>
        <time>2015-08-12T06:57:15.169Z</time>
      </trkpt>
      <trkpt lat="42.90287" lon="1.45652">
        <ele>1414</ele>
        <time>2015-08-12T06:57:16.145Z</time>
      </trkpt>
      <trkpt lat="42.90295" lon="1.45648">
        <ele>1415.7</ele>
        <time>2015-08-12T06:57:29.166Z</time>
      </trkpt>
      <trkpt lat="42.90296" lon="1.45647">
        <ele>1415.9</ele>
        <time>2015-08-12T06:57:30.145Z</time>
      </trkpt>
      <trkpt lat="42.90301" lon="1.45637">
        <ele>1418.2</ele>
        <time>2015-08-12T06:57:46.166Z</time>
      </trkpt>
      <trkpt lat="42.90302" lon="1.45637">
        <ele>1418.4</ele>
        <time>2015-08-12T06:57:47.146Z</time>
      </trkpt>
      <trkpt lat="42.90306" lon="1.45627">
        <ele>1420.6</ele>
        <time>2015-08-12T06:58:00.188Z</time>
      </trkpt>
      <trkpt lat="42.90307" lon="1.45627">
        <ele>1420.8</ele>
        <time>2015-08-12T06:58:01.145Z</time>
      </trkpt>
      <trkpt lat="42.90313" lon="1.45618">
        <ele>1423.7</ele>
        <time>2015-08-12T06:58:20.166Z</time>
      </trkpt>
      <trkpt lat="42.90313" lon="1.45618">
        <ele>1423.9</ele>
        <time>2015-08-12T06:58:21.147Z</time>
      </trkpt>
      <trkpt lat="42.90321" lon="1.45613">
        <ele>1425.9</ele>
        <time>2015-08-12T06:58:33.169Z</time>
      </trkpt>
      <trkpt lat="42.90322" lon="1.45613">
        <ele>1426</ele>
        <time>2015-08-12T06:58:34.145Z</time>
      </trkpt>
      <trkpt lat="42.90329" lon="1.45607">
        <ele>1428.2</ele>
        <time>2015-08-12T06:58:49.167Z</time>
      </trkpt>
      <trkpt lat="42.9033" lon="1.45606">
        <ele>1428.4</ele>
        <time>2015-08-12T06:58:50.145Z</time>
      </trkpt>
      <trkpt lat="42.90334" lon="1.45595">
        <ele>1430.1</ele>
        <time>2015-08-12T06:59:02.166Z</time>
      </trkpt>
      <trkpt lat="42.90335" lon="1.45594">
        <ele>1430.2</ele>
        <time>2015-08-12T06:59:03.147Z</time>
      </trkpt>
      <trkpt lat="42.90338" lon="1.45605">
        <ele>1432.1</ele>
        <time>2015-08-12T06:59:16.166Z</time>
      </trkpt>
      <trkpt lat="42.90339" lon="1.45607">
        <ele>1432.2</ele>
        <time>2015-08-12T06:59:17.145Z</time>
      </trkpt>
      <trkpt lat="42.90343" lon="1.45617">
        <ele>1433.2</ele>
        <time>2015-08-12T06:59:32.167Z</time>
      </trkpt>
      <trkpt lat="42.90344" lon="1.45617">
        <ele>1433.3</ele>
        <time>2015-08-12T06:59:33.243Z</time>
      </trkpt>
      <trkpt lat="42.90345" lon="1.45629">
        <ele>1434.9</ele>
        <time>2015-08-12T06:59:49.180Z</time>
      </trkpt>
      <trkpt lat="42.90345" lon="1.4563">
        <ele>1435</ele>
        <time>2015-08-12T06:59:50.150Z</time>
      </trkpt>
      <trkpt lat="42.90347" lon="1.45641">
        <ele>1436.7</ele>
        <time>2015-08-12T07:00:03.168Z</time>
      </trkpt>
      <trkpt lat="42.90348" lon="1.45642">
        <ele>1436.8</ele>
        <time>2015-08-12T07:00:04.145Z</time>
      </trkpt>
      <trkpt lat="42.90351" lon="1.45654">
        <ele>1440.3</ele>
        <time>2015-08-12T07:00:20.166Z</time>
      </trkpt>
      <trkpt lat="42.90353" lon="1.45654">
        <ele>1440.4</ele>
        <time>2015-08-12T07:00:21.147Z</time>
      </trkpt>
      <trkpt lat="42.90361" lon="1.45649">
        <ele>1442.5</ele>
        <time>2015-08-12T07:00:32.166Z</time>
      </trkpt>
      <trkpt lat="42.90361" lon="1.45649">
        <ele>1442.5</ele>
        <time>2015-08-12T07:00:33.255Z</time>
      </trkpt>
      <trkpt lat="42.90368" lon="1.45642">
        <ele>1444.7</ele>
        <time>2015-08-12T07:00:46.167Z</time>
      </trkpt>
      <trkpt lat="42.90369" lon="1.45642">
        <ele>1445</ele>
        <time>2015-08-12T07:00:47.193Z</time>
      </trkpt>
      <trkpt lat="42.90377" lon="1.45637">
        <ele>1446.8</ele>
        <time>2015-08-12T07:01:01.167Z</time>
      </trkpt>
      <trkpt lat="42.90377" lon="1.45637">
        <ele>1446.9</ele>
        <time>2015-08-12T07:01:02.145Z</time>
      </trkpt>
      <trkpt lat="42.90383" lon="1.45627">
        <ele>1449.1</ele>
        <time>2015-08-12T07:01:17.167Z</time>
      </trkpt>
      <trkpt lat="42.90384" lon="1.45626">
        <ele>1449.3</ele>
        <time>2015-08-12T07:01:18.149Z</time>
      </trkpt>
      <trkpt lat="42.9039" lon="1.45635">
        <ele>1453.2</ele>
        <time>2015-08-12T07:01:38.225Z</time>
      </trkpt>
      <trkpt lat="42.9039" lon="1.45636">
        <ele>1453.4</ele>
        <time>2015-08-12T07:01:39.147Z</time>
      </trkpt>
      <trkpt lat="42.90391" lon="1.45647">
        <ele>1456.8</ele>
        <time>2015-08-12T07:01:57.169Z</time>
      </trkpt>
      <trkpt lat="42.90391" lon="1.45648">
        <ele>1457</ele>
        <time>2015-08-12T07:01:58.145Z</time>
      </trkpt>
      <trkpt lat="42.90395" lon="1.45657">
        <ele>1459.3</ele>
        <time>2015-08-12T07:02:09.169Z</time>
      </trkpt>
      <trkpt lat="42.90396" lon="1.45658">
        <ele>1459.5</ele>
        <time>2015-08-12T07:02:10.145Z</time>
      </trkpt>
      <trkpt lat="42.90396" lon="1.4567">
        <ele>1462.1</ele>
        <time>2015-08-12T07:02:24.167Z</time>
      </trkpt>
      <trkpt lat="42.90396" lon="1.45671">
        <ele>1462.5</ele>
        <time>2015-08-12T07:02:25.145Z</time>
      </trkpt>
      <trkpt lat="42.90397" lon="1.45682">
        <ele>1464.7</ele>
        <time>2015-08-12T07:02:37.218Z</time>
      </trkpt>
      <trkpt lat="42.90398" lon="1.45683">
        <ele>1464.9</ele>
        <time>2015-08-12T07:02:38.145Z</time>
      </trkpt>
      <trkpt lat="42.90406" lon="1.45678">
        <ele>1466.9</ele>
        <time>2015-08-12T07:02:49.167Z</time>
      </trkpt>
      <trkpt lat="42.90406" lon="1.45677">
        <ele>1467</ele>
        <time>2015-08-12T07:02:50.146Z</time>
      </trkpt>
      <trkpt lat="42.90412" lon="1.45667">
        <ele>1469.7</ele>
        <time>2015-08-12T07:03:05.226Z</time>
      </trkpt>
      <trkpt lat="42.90412" lon="1.45666">
        <ele>1469.9</ele>
        <time>2015-08-12T07:03:06.145Z</time>
      </trkpt>
      <trkpt lat="42.90419" lon="1.4566">
        <ele>1473</ele>
        <time>2015-08-12T07:03:23.167Z</time>
      </trkpt>
      <trkpt lat="42.9042" lon="1.4566">
        <ele>1473.1</ele>
        <time>2015-08-12T07:03:24.145Z</time>
      </trkpt>
      <trkpt lat="42.90427" lon="1.45667">
        <ele>1477</ele>
        <time>2015-08-12T07:03:49.167Z</time>
      </trkpt>
      <trkpt lat="42.90427" lon="1.45668">
        <ele>1477.2</ele>
        <time>2015-08-12T07:03:50.145Z</time>
      </trkpt>
      <trkpt lat="42.90431" lon="1.45678">
        <ele>1481.8</ele>
        <time>2015-08-12T07:04:11.278Z</time>
      </trkpt>
      <trkpt lat="42.90431" lon="1.45679">
        <ele>1482.1</ele>
        <time>2015-08-12T07:04:12.159Z</time>
      </trkpt>
      <trkpt lat="42.90437" lon="1.45687">
        <ele>1485.8</ele>
        <time>2015-08-12T07:04:27.170Z</time>
      </trkpt>
      <trkpt lat="42.90438" lon="1.45688">
        <ele>1486</ele>
        <time>2015-08-12T07:04:28.158Z</time>
      </trkpt>
      <trkpt lat="42.90443" lon="1.45697">
        <ele>1488.3</ele>
        <time>2015-08-12T07:04:40.280Z</time>
      </trkpt>
      <trkpt lat="42.90443" lon="1.45698">
        <ele>1488.5</ele>
        <time>2015-08-12T07:04:41.145Z</time>
      </trkpt>
      <trkpt lat="42.90451" lon="1.45695">
        <ele>1492.7</ele>
        <time>2015-08-12T07:05:02.198Z</time>
      </trkpt>
      <trkpt lat="42.90452" lon="1.45694">
        <ele>1493</ele>
        <time>2015-08-12T07:05:03.147Z</time>
      </trkpt>
      <trkpt lat="42.90455" lon="1.45683">
        <ele>1495.8</ele>
        <time>2015-08-12T07:05:17.167Z</time>
      </trkpt>
      <trkpt lat="42.90456" lon="1.45682">
        <ele>1496</ele>
        <time>2015-08-12T07:05:18.145Z</time>
      </trkpt>
      <trkpt lat="42.90463" lon="1.45688">
        <ele>1500.3</ele>
        <time>2015-08-12T07:05:37.167Z</time>
      </trkpt>
      <trkpt lat="42.90463" lon="1.4569">
        <ele>1500.5</ele>
        <time>2015-08-12T07:05:38.145Z</time>
      </trkpt>
      <trkpt lat="42.90468" lon="1.45699">
        <ele>1504.5</ele>
        <time>2015-08-12T07:05:57.169Z</time>
      </trkpt>
      <trkpt lat="42.90469" lon="1.457">
        <ele>1504.7</ele>
        <time>2015-08-12T07:05:58.145Z</time>
      </trkpt>
      <trkpt lat="42.90474" lon="1.4571">
        <ele>1506.9</ele>
        <time>2015-08-12T07:06:09.169Z</time>
      </trkpt>
      <trkpt lat="42.90475" lon="1.4571">
        <ele>1507.1</ele>
        <time>2015-08-12T07:06:10.145Z</time>
      </trkpt>
      <trkpt lat="42.9048" lon="1.4572">
        <ele>1510</ele>
        <time>2015-08-12T07:06:23.167Z</time>
      </trkpt>
      <trkpt lat="42.9048" lon="1.45721">
        <ele>1510.2</ele>
        <time>2015-08-12T07:06:24.145Z</time>
      </trkpt>
      <trkpt lat="42.90487" lon="1.45713">
        <ele>1514.3</ele>
        <time>2015-08-12T07:06:45.169Z</time>
      </trkpt>
      <trkpt lat="42.90487" lon="1.45713">
        <ele>1514.5</ele>
        <time>2015-08-12T07:06:46.145Z</time>
      </trkpt>
      <trkpt lat="42.90493" lon="1.45704">
        <ele>1517.5</ele>
        <time>2015-08-12T07:07:01.167Z</time>
      </trkpt>
      <trkpt lat="42.90494" lon="1.45704">
        <ele>1517.7</ele>
        <time>2015-08-12T07:07:02.146Z</time>
      </trkpt>
      <trkpt lat="42.90496" lon="1.45702">
        <ele>1519.1</ele>
        <time>2015-08-12T07:07:09.282Z</time>
      </trkpt>
      <trkpt lat="42.90516" lon="1.45731">
        <ele>1527.4</ele>
        <time>2015-08-12T07:07:52.937Z</time>
      </trkpt>
      <trkpt lat="42.9052" lon="1.45741">
        <ele>1530.7</ele>
        <time>2015-08-12T07:08:05.167Z</time>
      </trkpt>
      <trkpt lat="42.9052" lon="1.45741">
        <ele>1530.9</ele>
        <time>2015-08-12T07:08:06.145Z</time>
      </trkpt>
      <trkpt lat="42.90525" lon="1.4575">
        <ele>1531.8</ele>
        <time>2015-08-12T07:08:15.169Z</time>
      </trkpt>
      <trkpt lat="42.90526" lon="1.45751">
        <ele>1531.9</ele>
        <time>2015-08-12T07:08:16.145Z</time>
      </trkpt>
      <trkpt lat="42.9053" lon="1.4576">
        <ele>1533.1</ele>
        <time>2015-08-12T07:08:22.167Z</time>
      </trkpt>
      <trkpt lat="42.90531" lon="1.45762">
        <ele>1533.3</ele>
        <time>2015-08-12T07:08:23.146Z</time>
      </trkpt>
      <trkpt lat="42.90535" lon="1.45772">
        <ele>1535.2</ele>
        <time>2015-08-12T07:08:30.187Z</time>
      </trkpt>
      <trkpt lat="42.90536" lon="1.45773">
        <ele>1535.4</ele>
        <time>2015-08-12T07:08:31.145Z</time>
      </trkpt>
      <trkpt lat="42.9054" lon="1.45783">
        <ele>1536.2</ele>
        <time>2015-08-12T07:08:37.168Z</time>
      </trkpt>
      <trkpt lat="42.90541" lon="1.45784">
        <ele>1536.3</ele>
        <time>2015-08-12T07:08:38.145Z</time>
      </trkpt>
      <trkpt lat="42.90545" lon="1.45793">
        <ele>1537.2</ele>
        <time>2015-08-12T07:08:45.181Z</time>
      </trkpt>
      <trkpt lat="42.90546" lon="1.45794">
        <ele>1537.4</ele>
        <time>2015-08-12T07:08:46.144Z</time>
      </trkpt>
      <trkpt lat="42.9055" lon="1.45804">
        <ele>1537.4</ele>
        <time>2015-08-12T07:08:52.186Z</time>
      </trkpt>
      <trkpt lat="42.9055" lon="1.45805">
        <ele>1537.4</ele>
        <time>2015-08-12T07:08:53.145Z</time>
      </trkpt>
      <trkpt lat="42.90556" lon="1.45812">
        <ele>1537.1</ele>
        <time>2015-08-12T07:08:59.167Z</time>
      </trkpt>
      <trkpt lat="42.90557" lon="1.45813">
        <ele>1536.9</ele>
        <time>2015-08-12T07:09:00.145Z</time>
      </trkpt>
      <trkpt lat="42.90565" lon="1.45819">
        <ele>1536.7</ele>
        <time>2015-08-12T07:09:09.169Z</time>
      </trkpt>
      <trkpt lat="42.90565" lon="1.4582">
        <ele>1536.8</ele>
        <time>2015-08-12T07:09:10.145Z</time>
      </trkpt>
      <trkpt lat="42.90565" lon="1.4581">
        <ele>1537.2</ele>
        <time>2015-08-12T07:10:42.167Z</time>
      </trkpt>
      <trkpt lat="42.90565" lon="1.45808">
        <ele>1537.2</ele>
        <time>2015-08-12T07:10:43.200Z</time>
      </trkpt>
      <trkpt lat="42.90565" lon="1.45797">
        <ele>1537</ele>
        <time>2015-08-12T07:10:49.167Z</time>
      </trkpt>
      <trkpt lat="42.90565" lon="1.45795">
        <ele>1537.1</ele>
        <time>2015-08-12T07:10:50.145Z</time>
      </trkpt>
      <trkpt lat="42.90563" lon="1.45784">
        <ele>1537.5</ele>
        <time>2015-08-12T07:10:58.167Z</time>
      </trkpt>
      <trkpt lat="42.90563" lon="1.45783">
        <ele>1537.6</ele>
        <time>2015-08-12T07:10:59.146Z</time>
      </trkpt>
      <trkpt lat="42.90562" lon="1.45771">
        <ele>1538.1</ele>
        <time>2015-08-12T07:11:07.167Z</time>
      </trkpt>
      <trkpt lat="42.90562" lon="1.45769">
        <ele>1538.2</ele>
        <time>2015-08-12T07:11:08.145Z</time>
      </trkpt>
      <trkpt lat="42.90561" lon="1.45757">
        <ele>1538.5</ele>
        <time>2015-08-12T07:11:15.222Z</time>
      </trkpt>
      <trkpt lat="42.9056" lon="1.45756">
        <ele>1538.6</ele>
        <time>2015-08-12T07:11:16.145Z</time>
      </trkpt>
      <trkpt lat="42.9056" lon="1.45743">
        <ele>1539.1</ele>
        <time>2015-08-12T07:11:22.167Z</time>
      </trkpt>
      <trkpt lat="42.90561" lon="1.45742">
        <ele>1539.1</ele>
        <time>2015-08-12T07:11:23.146Z</time>
      </trkpt>
      <trkpt lat="42.90562" lon="1.45731">
        <ele>1538.7</ele>
        <time>2015-08-12T07:11:29.170Z</time>
      </trkpt>
      <trkpt lat="42.90562" lon="1.45729">
        <ele>1538.5</ele>
        <time>2015-08-12T07:11:30.145Z</time>
      </trkpt>
      <trkpt lat="42.90565" lon="1.45719">
        <ele>1538.4</ele>
        <time>2015-08-12T07:11:35.168Z</time>
      </trkpt>
      <trkpt lat="42.90565" lon="1.45717">
        <ele>1538.4</ele>
        <time>2015-08-12T07:11:36.145Z</time>
      </trkpt>
      <trkpt lat="42.90568" lon="1.45707">
        <ele>1538.7</ele>
        <time>2015-08-12T07:11:41.167Z</time>
      </trkpt>
      <trkpt lat="42.90568" lon="1.45704">
        <ele>1538.8</ele>
        <time>2015-08-12T07:11:42.157Z</time>
      </trkpt>
      <trkpt lat="42.9057" lon="1.45693">
        <ele>1538.7</ele>
        <time>2015-08-12T07:11:48.280Z</time>
      </trkpt>
      <trkpt lat="42.9057" lon="1.45691">
        <ele>1538.8</ele>
        <time>2015-08-12T07:11:49.145Z</time>
      </trkpt>
      <trkpt lat="42.90572" lon="1.4568">
        <ele>1539</ele>
        <time>2015-08-12T07:11:54.168Z</time>
      </trkpt>
      <trkpt lat="42.90573" lon="1.45678">
        <ele>1539</ele>
        <time>2015-08-12T07:11:55.145Z</time>
      </trkpt>
      <trkpt lat="42.90576" lon="1.45668">
        <ele>1538.9</ele>
        <time>2015-08-12T07:12:00.168Z</time>
      </trkpt>
      <trkpt lat="42.90576" lon="1.45665">
        <ele>1539</ele>
        <time>2015-08-12T07:12:01.145Z</time>
      </trkpt>
      <trkpt lat="42.9058" lon="1.45655">
        <ele>1539.3</ele>
        <time>2015-08-12T07:12:06.168Z</time>
      </trkpt>
      <trkpt lat="42.90581" lon="1.45653">
        <ele>1539.3</ele>
        <time>2015-08-12T07:12:07.145Z</time>
      </trkpt>
      <trkpt lat="42.90584" lon="1.45643">
        <ele>1539.4</ele>
        <time>2015-08-12T07:12:13.168Z</time>
      </trkpt>
      <trkpt lat="42.90586" lon="1.45642">
        <ele>1539.3</ele>
        <time>2015-08-12T07:12:14.145Z</time>
      </trkpt>
      <trkpt lat="42.90589" lon="1.45632">
        <ele>1539.2</ele>
        <time>2015-08-12T07:12:20.167Z</time>
      </trkpt>
      <trkpt lat="42.90589" lon="1.4563">
        <ele>1539.2</ele>
        <time>2015-08-12T07:12:21.147Z</time>
      </trkpt>
      <trkpt lat="42.90592" lon="1.4562">
        <ele>1539.4</ele>
        <time>2015-08-12T07:12:27.170Z</time>
      </trkpt>
      <trkpt lat="42.90594" lon="1.45619">
        <ele>1539.4</ele>
        <time>2015-08-12T07:12:28.145Z</time>
      </trkpt>
      <trkpt lat="42.90597" lon="1.45608">
        <ele>1539.4</ele>
        <time>2015-08-12T07:12:34.168Z</time>
      </trkpt>
      <trkpt lat="42.90597" lon="1.45606">
        <ele>1539.4</ele>
        <time>2015-08-12T07:12:35.145Z</time>
      </trkpt>
      <trkpt lat="42.90599" lon="1.45595">
        <ele>1538.9</ele>
        <time>2015-08-12T07:12:41.167Z</time>
      </trkpt>
      <trkpt lat="42.906" lon="1.45593">
        <ele>1538.8</ele>
        <time>2015-08-12T07:12:42.145Z</time>
      </trkpt>
      <trkpt lat="42.90604" lon="1.45584">
        <ele>1538.3</ele>
        <time>2015-08-12T07:12:47.168Z</time>
      </trkpt>
      <trkpt lat="42.90605" lon="1.45582">
        <ele>1538.3</ele>
        <time>2015-08-12T07:12:48.145Z</time>
      </trkpt>
      <trkpt lat="42.90609" lon="1.45571">
        <ele>1537.5</ele>
        <time>2015-08-12T07:12:55.167Z</time>
      </trkpt>
      <trkpt lat="42.90609" lon="1.4557">
        <ele>1537.4</ele>
        <time>2015-08-12T07:12:56.145Z</time>
      </trkpt>
      <trkpt lat="42.90611" lon="1.45558">
        <ele>1537</ele>
        <time>2015-08-12T07:13:04.179Z</time>
      </trkpt>
      <trkpt lat="42.90612" lon="1.45557">
        <ele>1536.9</ele>
        <time>2015-08-12T07:13:05.145Z</time>
      </trkpt>
      <trkpt lat="42.90615" lon="1.45546">
        <ele>1536.2</ele>
        <time>2015-08-12T07:13:13.167Z</time>
      </trkpt>
      <trkpt lat="42.90615" lon="1.45544">
        <ele>1536</ele>
        <time>2015-08-12T07:13:14.145Z</time>
      </trkpt>
      <trkpt lat="42.90618" lon="1.45533">
        <ele>1535.5</ele>
        <time>2015-08-12T07:13:19.172Z</time>
      </trkpt>
      <trkpt lat="42.90619" lon="1.45531">
        <ele>1535.4</ele>
        <time>2015-08-12T07:13:20.145Z</time>
      </trkpt>
      <trkpt lat="42.90624" lon="1.45523">
        <ele>1535.1</ele>
        <time>2015-08-12T07:13:27.169Z</time>
      </trkpt>
      <trkpt lat="42.90625" lon="1.45522">
        <ele>1535</ele>
        <time>2015-08-12T07:13:28.145Z</time>
      </trkpt>
      <trkpt lat="42.90626" lon="1.4551">
        <ele>1534.7</ele>
        <time>2015-08-12T07:13:34.168Z</time>
      </trkpt>
      <trkpt lat="42.90625" lon="1.45508">
        <ele>1534.7</ele>
        <time>2015-08-12T07:13:35.145Z</time>
      </trkpt>
      <trkpt lat="42.90628" lon="1.45497">
        <ele>1534</ele>
        <time>2015-08-12T07:13:40.179Z</time>
      </trkpt>
      <trkpt lat="42.90629" lon="1.45495">
        <ele>1534</ele>
        <time>2015-08-12T07:13:41.145Z</time>
      </trkpt>
      <trkpt lat="42.90632" lon="1.45484">
        <ele>1533.6</ele>
        <time>2015-08-12T07:13:47.168Z</time>
      </trkpt>
      <trkpt lat="42.90633" lon="1.45482">
        <ele>1533.5</ele>
        <time>2015-08-12T07:13:48.145Z</time>
      </trkpt>
      <trkpt lat="42.90638" lon="1.45476">
        <ele>1533.3</ele>
        <time>2015-08-12T07:13:52.167Z</time>
      </trkpt>
      <trkpt lat="42.90639" lon="1.45474">
        <ele>1533.2</ele>
        <time>2015-08-12T07:13:53.145Z</time>
      </trkpt>
      <trkpt lat="42.90645" lon="1.45465">
        <ele>1532.8</ele>
        <time>2015-08-12T07:13:57.168Z</time>
      </trkpt>
      <trkpt lat="42.90646" lon="1.45463">
        <ele>1532.7</ele>
        <time>2015-08-12T07:13:58.145Z</time>
      </trkpt>
      <trkpt lat="42.90651" lon="1.45455">
        <ele>1532.1</ele>
        <time>2015-08-12T07:14:03.170Z</time>
      </trkpt>
      <trkpt lat="42.90652" lon="1.45452">
        <ele>1532</ele>
        <time>2015-08-12T07:14:04.145Z</time>
      </trkpt>
      <trkpt lat="42.90657" lon="1.45444">
        <ele>1531.3</ele>
        <time>2015-08-12T07:14:09.168Z</time>
      </trkpt>
      <trkpt lat="42.90658" lon="1.45442">
        <ele>1531.1</ele>
        <time>2015-08-12T07:14:10.145Z</time>
      </trkpt>
      <trkpt lat="42.90665" lon="1.45437">
        <ele>1530.5</ele>
        <time>2015-08-12T07:14:16.167Z</time>
      </trkpt>
      <trkpt lat="42.90666" lon="1.45437">
        <ele>1530.4</ele>
        <time>2015-08-12T07:14:17.145Z</time>
      </trkpt>
      <trkpt lat="42.90675" lon="1.45436">
        <ele>1529.5</ele>
        <time>2015-08-12T07:14:24.167Z</time>
      </trkpt>
      <trkpt lat="42.90677" lon="1.45435">
        <ele>1529.3</ele>
        <time>2015-08-12T07:14:25.145Z</time>
      </trkpt>
      <trkpt lat="42.90685" lon="1.45433">
        <ele>1528.9</ele>
        <time>2015-08-12T07:14:29.175Z</time>
      </trkpt>
      <trkpt lat="42.90688" lon="1.45432">
        <ele>1528.7</ele>
        <time>2015-08-12T07:14:30.145Z</time>
      </trkpt>
      <trkpt lat="42.90696" lon="1.4543">
        <ele>1528.1</ele>
        <time>2015-08-12T07:14:36.167Z</time>
      </trkpt>
      <trkpt lat="42.90697" lon="1.45431">
        <ele>1528</ele>
        <time>2015-08-12T07:14:37.145Z</time>
      </trkpt>
      <trkpt lat="42.90705" lon="1.45425">
        <ele>1527.2</ele>
        <time>2015-08-12T07:14:45.169Z</time>
      </trkpt>
      <trkpt lat="42.90706" lon="1.45424">
        <ele>1527.1</ele>
        <time>2015-08-12T07:14:46.145Z</time>
      </trkpt>
      <trkpt lat="42.90713" lon="1.45418">
        <ele>1526.6</ele>
        <time>2015-08-12T07:14:50.168Z</time>
      </trkpt>
      <trkpt lat="42.90717" lon="1.45416">
        <ele>1526.3</ele>
        <time>2015-08-12T07:14:51.147Z</time>
      </trkpt>
      <trkpt lat="42.90723" lon="1.4541">
        <ele>1525.6</ele>
        <time>2015-08-12T07:14:54.167Z</time>
      </trkpt>
      <trkpt lat="42.90725" lon="1.45408">
        <ele>1525.3</ele>
        <time>2015-08-12T07:14:55.145Z</time>
      </trkpt>
      <trkpt lat="42.90731" lon="1.454">
        <ele>1524.8</ele>
        <time>2015-08-12T07:15:00.168Z</time>
      </trkpt>
      <trkpt lat="42.90733" lon="1.45398">
        <ele>1524.6</ele>
        <time>2015-08-12T07:15:01.145Z</time>
      </trkpt>
      <trkpt lat="42.90739" lon="1.45393">
        <ele>1524.3</ele>
        <time>2015-08-12T07:15:04.167Z</time>
      </trkpt>
      <trkpt lat="42.90741" lon="1.4539">
        <ele>1524.1</ele>
        <time>2015-08-12T07:15:05.252Z</time>
      </trkpt>
      <trkpt lat="42.90745" lon="1.45381">
        <ele>1523.6</ele>
        <time>2015-08-12T07:15:10.167Z</time>
      </trkpt>
      <trkpt lat="42.90746" lon="1.45379">
        <ele>1523.5</ele>
        <time>2015-08-12T07:15:11.467Z</time>
      </trkpt>
      <trkpt lat="42.90749" lon="1.4537">
        <ele>1523.4</ele>
        <time>2015-08-12T07:15:15.170Z</time>
      </trkpt>
      <trkpt lat="42.9075" lon="1.45367">
        <ele>1523.4</ele>
        <time>2015-08-12T07:15:16.145Z</time>
      </trkpt>
      <trkpt lat="42.90755" lon="1.45359">
        <ele>1523.4</ele>
        <time>2015-08-12T07:15:20.167Z</time>
      </trkpt>
      <trkpt lat="42.90756" lon="1.45358">
        <ele>1523.3</ele>
        <time>2015-08-12T07:15:21.147Z</time>
      </trkpt>
      <trkpt lat="42.90758" lon="1.45346">
        <ele>1523.7</ele>
        <time>2015-08-12T07:15:27.169Z</time>
      </trkpt>
      <trkpt lat="42.90759" lon="1.45344">
        <ele>1523.7</ele>
        <time>2015-08-12T07:15:28.145Z</time>
      </trkpt>
      <trkpt lat="42.90765" lon="1.45338">
        <ele>1524</ele>
        <time>2015-08-12T07:15:33.279Z</time>
      </trkpt>
      <trkpt lat="42.90766" lon="1.45336">
        <ele>1524.1</ele>
        <time>2015-08-12T07:15:34.145Z</time>
      </trkpt>
      <trkpt lat="42.90772" lon="1.45329">
        <ele>1524</ele>
        <time>2015-08-12T07:15:38.168Z</time>
      </trkpt>
      <trkpt lat="42.90773" lon="1.45327">
        <ele>1524</ele>
        <time>2015-08-12T07:15:39.146Z</time>
      </trkpt>
      <trkpt lat="42.90778" lon="1.45319">
        <ele>1523.8</ele>
        <time>2015-08-12T07:15:43.179Z</time>
      </trkpt>
      <trkpt lat="42.9078" lon="1.45317">
        <ele>1523.8</ele>
        <time>2015-08-12T07:15:44.145Z</time>
      </trkpt>
      <trkpt lat="42.90782" lon="1.45307">
        <ele>1523.2</ele>
        <time>2015-08-12T07:15:49.177Z</time>
      </trkpt>
      <trkpt lat="42.90782" lon="1.45305">
        <ele>1523.2</ele>
        <time>2015-08-12T07:15:50.145Z</time>
      </trkpt>
      <trkpt lat="42.90782" lon="1.45294">
        <ele>1522.2</ele>
        <time>2015-08-12T07:15:55.167Z</time>
      </trkpt>
      <trkpt lat="42.90782" lon="1.45292">
        <ele>1521.8</ele>
        <time>2015-08-12T07:15:56.145Z</time>
      </trkpt>
      <trkpt lat="42.90781" lon="1.4528">
        <ele>1521.3</ele>
        <time>2015-08-12T07:16:00.221Z</time>
      </trkpt>
      <trkpt lat="42.90782" lon="1.45277">
        <ele>1521.2</ele>
        <time>2015-08-12T07:16:01.145Z</time>
      </trkpt>
      <trkpt lat="42.90785" lon="1.45266">
        <ele>1520.7</ele>
        <time>2015-08-12T07:16:07.167Z</time>
      </trkpt>
      <trkpt lat="42.90787" lon="1.45263">
        <ele>1520.5</ele>
        <time>2015-08-12T07:16:08.145Z</time>
      </trkpt>
      <trkpt lat="42.90788" lon="1.45252">
        <ele>1520.5</ele>
        <time>2015-08-12T07:16:13.168Z</time>
      </trkpt>
      <trkpt lat="42.90789" lon="1.45251">
        <ele>1520.6</ele>
        <time>2015-08-12T07:16:14.145Z</time>
      </trkpt>
      <trkpt lat="42.90793" lon="1.45242">
        <ele>1520.1</ele>
        <time>2015-08-12T07:16:19.168Z</time>
      </trkpt>
      <trkpt lat="42.90794" lon="1.4524">
        <ele>1520</ele>
        <time>2015-08-12T07:16:20.146Z</time>
      </trkpt>
      <trkpt lat="42.90796" lon="1.4523">
        <ele>1519.3</ele>
        <time>2015-08-12T07:16:25.167Z</time>
      </trkpt>
      <trkpt lat="42.90796" lon="1.45227">
        <ele>1519.3</ele>
        <time>2015-08-12T07:16:26.145Z</time>
      </trkpt>
      <trkpt lat="42.90797" lon="1.45215">
        <ele>1519.2</ele>
        <time>2015-08-12T07:16:32.221Z</time>
      </trkpt>
      <trkpt lat="42.90799" lon="1.45214">
        <ele>1519.2</ele>
        <time>2015-08-12T07:16:33.147Z</time>
      </trkpt>
      <trkpt lat="42.90801" lon="1.45203">
        <ele>1518.4</ele>
        <time>2015-08-12T07:16:38.167Z</time>
      </trkpt>
      <trkpt lat="42.90801" lon="1.45202">
        <ele>1518.3</ele>
        <time>2015-08-12T07:16:39.146Z</time>
      </trkpt>
      <trkpt lat="42.90804" lon="1.45191">
        <ele>1517.6</ele>
        <time>2015-08-12T07:16:45.169Z</time>
      </trkpt>
      <trkpt lat="42.90804" lon="1.4519">
        <ele>1517.4</ele>
        <time>2015-08-12T07:16:46.145Z</time>
      </trkpt>
      <trkpt lat="42.90808" lon="1.45179">
        <ele>1516.3</ele>
        <time>2015-08-12T07:16:52.168Z</time>
      </trkpt>
      <trkpt lat="42.90808" lon="1.45177">
        <ele>1516</ele>
        <time>2015-08-12T07:16:53.145Z</time>
      </trkpt>
      <trkpt lat="42.90808" lon="1.45167">
        <ele>1515.1</ele>
        <time>2015-08-12T07:16:58.167Z</time>
      </trkpt>
      <trkpt lat="42.90808" lon="1.45164">
        <ele>1514.8</ele>
        <time>2015-08-12T07:16:59.146Z</time>
      </trkpt>
      <trkpt lat="42.90809" lon="1.45153">
        <ele>1514</ele>
        <time>2015-08-12T07:17:04.164Z</time>
      </trkpt>
      <trkpt lat="42.9081" lon="1.4515">
        <ele>1513.8</ele>
        <time>2015-08-12T07:17:05.145Z</time>
      </trkpt>
      <trkpt lat="42.90813" lon="1.45139">
        <ele>1512.9</ele>
        <time>2015-08-12T07:17:10.184Z</time>
      </trkpt>
      <trkpt lat="42.90815" lon="1.45137">
        <ele>1512.7</ele>
        <time>2015-08-12T07:17:11.145Z</time>
      </trkpt>
      <trkpt lat="42.90819" lon="1.45127">
        <ele>1511.9</ele>
        <time>2015-08-12T07:17:16.167Z</time>
      </trkpt>
      <trkpt lat="42.9082" lon="1.45125">
        <ele>1511.8</ele>
        <time>2015-08-12T07:17:17.145Z</time>
      </trkpt>
      <trkpt lat="42.90825" lon="1.45116">
        <ele>1511.4</ele>
        <time>2015-08-12T07:17:22.167Z</time>
      </trkpt>
      <trkpt lat="42.90826" lon="1.45114">
        <ele>1511.2</ele>
        <time>2015-08-12T07:17:23.145Z</time>
      </trkpt>
      <trkpt lat="42.9083" lon="1.45106">
        <ele>1511</ele>
        <time>2015-08-12T07:17:26.167Z</time>
      </trkpt>
      <trkpt lat="42.90832" lon="1.45103">
        <ele>1510.9</ele>
        <time>2015-08-12T07:17:27.147Z</time>
      </trkpt>
      <trkpt lat="42.90836" lon="1.45092">
        <ele>1510.5</ele>
        <time>2015-08-12T07:17:32.167Z</time>
      </trkpt>
      <trkpt lat="42.90836" lon="1.4509">
        <ele>1510.5</ele>
        <time>2015-08-12T07:17:33.147Z</time>
      </trkpt>
      <trkpt lat="42.90834" lon="1.4508">
        <ele>1509.6</ele>
        <time>2015-08-12T07:17:39.181Z</time>
      </trkpt>
      <trkpt lat="42.90834" lon="1.45077">
        <ele>1509.4</ele>
        <time>2015-08-12T07:17:40.145Z</time>
      </trkpt>
      <trkpt lat="42.90836" lon="1.45067">
        <ele>1508.7</ele>
        <time>2015-08-12T07:17:45.170Z</time>
      </trkpt>
      <trkpt lat="42.90836" lon="1.45064">
        <ele>1508.5</ele>
        <time>2015-08-12T07:17:46.145Z</time>
      </trkpt>
      <trkpt lat="42.90837" lon="1.45052">
        <ele>1507.8</ele>
        <time>2015-08-12T07:17:50.167Z</time>
      </trkpt>
      <trkpt lat="42.90837" lon="1.45049">
        <ele>1507.5</ele>
        <time>2015-08-12T07:17:51.147Z</time>
      </trkpt>
      <trkpt lat="42.90837" lon="1.45039">
        <ele>1507</ele>
        <time>2015-08-12T07:17:55.167Z</time>
      </trkpt>
      <trkpt lat="42.90837" lon="1.45037">
        <ele>1506.9</ele>
        <time>2015-08-12T07:17:56.145Z</time>
      </trkpt>
      <trkpt lat="42.9084" lon="1.45027">
        <ele>1506.1</ele>
        <time>2015-08-12T07:18:01.167Z</time>
      </trkpt>
      <trkpt lat="42.9084" lon="1.45024">
        <ele>1505.9</ele>
        <time>2015-08-12T07:18:02.145Z</time>
      </trkpt>
      <trkpt lat="42.90842" lon="1.45014">
        <ele>1505.1</ele>
        <time>2015-08-12T07:18:06.167Z</time>
      </trkpt>
      <trkpt lat="42.90841" lon="1.45011">
        <ele>1504.9</ele>
        <time>2015-08-12T07:18:07.145Z</time>
      </trkpt>
      <trkpt lat="42.90843" lon="1.45001">
        <ele>1503.9</ele>
        <time>2015-08-12T07:18:11.167Z</time>
      </trkpt>
      <trkpt lat="42.90843" lon="1.44998">
        <ele>1503.7</ele>
        <time>2015-08-12T07:18:12.145Z</time>
      </trkpt>
      <trkpt lat="42.90843" lon="1.44986">
        <ele>1502.5</ele>
        <time>2015-08-12T07:18:18.167Z</time>
      </trkpt>
      <trkpt lat="42.90845" lon="1.44984">
        <ele>1502.4</ele>
        <time>2015-08-12T07:18:19.144Z</time>
      </trkpt>
      <trkpt lat="42.90845" lon="1.44972">
        <ele>1501.3</ele>
        <time>2015-08-12T07:18:26.167Z</time>
      </trkpt>
      <trkpt lat="42.90845" lon="1.44969">
        <ele>1501.1</ele>
        <time>2015-08-12T07:18:27.147Z</time>
      </trkpt>
      <trkpt lat="42.90844" lon="1.44958">
        <ele>1500.4</ele>
        <time>2015-08-12T07:18:32.167Z</time>
      </trkpt>
      <trkpt lat="42.90845" lon="1.44957">
        <ele>1500.3</ele>
        <time>2015-08-12T07:18:33.147Z</time>
      </trkpt>
      <trkpt lat="42.90848" lon="1.44947">
        <ele>1499.4</ele>
        <time>2015-08-12T07:18:37.167Z</time>
      </trkpt>
      <trkpt lat="42.90848" lon="1.44943">
        <ele>1499.2</ele>
        <time>2015-08-12T07:18:38.145Z</time>
      </trkpt>
      <trkpt lat="42.90848" lon="1.44932">
        <ele>1498.4</ele>
        <time>2015-08-12T07:18:43.167Z</time>
      </trkpt>
      <trkpt lat="42.90849" lon="1.4493">
        <ele>1498.2</ele>
        <time>2015-08-12T07:18:44.145Z</time>
      </trkpt>
      <trkpt lat="42.90852" lon="1.4492">
        <ele>1497.8</ele>
        <time>2015-08-12T07:18:49.167Z</time>
      </trkpt>
      <trkpt lat="42.90853" lon="1.44917">
        <ele>1497.8</ele>
        <time>2015-08-12T07:18:50.145Z</time>
      </trkpt>
      <trkpt lat="42.90854" lon="1.44907">
        <ele>1497.2</ele>
        <time>2015-08-12T07:18:56.167Z</time>
      </trkpt>
      <trkpt lat="42.90854" lon="1.44905">
        <ele>1497.1</ele>
        <time>2015-08-12T07:18:57.147Z</time>
      </trkpt>
      <trkpt lat="42.90857" lon="1.44896">
        <ele>1496.7</ele>
        <time>2015-08-12T07:19:01.167Z</time>
      </trkpt>
      <trkpt lat="42.90858" lon="1.44894">
        <ele>1496.5</ele>
        <time>2015-08-12T07:19:02.145Z</time>
      </trkpt>
      <trkpt lat="42.9086" lon="1.44883">
        <ele>1496</ele>
        <time>2015-08-12T07:19:08.167Z</time>
      </trkpt>
      <trkpt lat="42.90861" lon="1.44881">
        <ele>1495.9</ele>
        <time>2015-08-12T07:19:09.147Z</time>
      </trkpt>
      <trkpt lat="42.90861" lon="1.44869">
        <ele>1495</ele>
        <time>2015-08-12T07:19:15.169Z</time>
      </trkpt>
      <trkpt lat="42.90861" lon="1.44867">
        <ele>1494.8</ele>
        <time>2015-08-12T07:19:16.145Z</time>
      </trkpt>
      <trkpt lat="42.90861" lon="1.44855">
        <ele>1494</ele>
        <time>2015-08-12T07:19:21.169Z</time>
      </trkpt>
      <trkpt lat="42.90861" lon="1.44853">
        <ele>1493.8</ele>
        <time>2015-08-12T07:19:22.145Z</time>
      </trkpt>
      <trkpt lat="42.90863" lon="1.44842">
        <ele>1493.1</ele>
        <time>2015-08-12T07:19:26.167Z</time>
      </trkpt>
      <trkpt lat="42.90864" lon="1.4484">
        <ele>1493</ele>
        <time>2015-08-12T07:19:27.146Z</time>
      </trkpt>
      <trkpt lat="42.90867" lon="1.44829">
        <ele>1492.2</ele>
        <time>2015-08-12T07:19:33.184Z</time>
      </trkpt>
      <trkpt lat="42.90868" lon="1.44828">
        <ele>1492.1</ele>
        <time>2015-08-12T07:19:34.145Z</time>
      </trkpt>
      <trkpt lat="42.90871" lon="1.44818">
        <ele>1490.8</ele>
        <time>2015-08-12T07:19:40.167Z</time>
      </trkpt>
      <trkpt lat="42.90872" lon="1.44816">
        <ele>1490.6</ele>
        <time>2015-08-12T07:19:41.144Z</time>
      </trkpt>
      <trkpt lat="42.90872" lon="1.44804">
        <ele>1489.6</ele>
        <time>2015-08-12T07:19:47.167Z</time>
      </trkpt>
      <trkpt lat="42.90872" lon="1.44802">
        <ele>1489.5</ele>
        <time>2015-08-12T07:19:48.180Z</time>
      </trkpt>
      <trkpt lat="42.90875" lon="1.44791">
        <ele>1488.2</ele>
        <time>2015-08-12T07:19:54.290Z</time>
      </trkpt>
      <trkpt lat="42.90875" lon="1.44789">
        <ele>1488</ele>
        <time>2015-08-12T07:19:55.164Z</time>
      </trkpt>
      <trkpt lat="42.90879" lon="1.4478">
        <ele>1486.9</ele>
        <time>2015-08-12T07:20:01.167Z</time>
      </trkpt>
      <trkpt lat="42.9088" lon="1.44778">
        <ele>1486.9</ele>
        <time>2015-08-12T07:20:02.144Z</time>
      </trkpt>
      <trkpt lat="42.90883" lon="1.4477">
        <ele>1486.3</ele>
        <time>2015-08-12T07:20:06.167Z</time>
      </trkpt>
      <trkpt lat="42.90885" lon="1.44766">
        <ele>1486.1</ele>
        <time>2015-08-12T07:20:07.145Z</time>
      </trkpt>
      <trkpt lat="42.90887" lon="1.44756">
        <ele>1485.4</ele>
        <time>2015-08-12T07:20:11.168Z</time>
      </trkpt>
      <trkpt lat="42.90888" lon="1.44754">
        <ele>1485.2</ele>
        <time>2015-08-12T07:20:12.145Z</time>
      </trkpt>
      <trkpt lat="42.9089" lon="1.44753">
        <ele>1485</ele>
        <time>2015-08-12T07:20:13.278Z</time>
      </trkpt>
      <trkpt lat="42.90932" lon="1.4474">
        <ele>1479.3</ele>
        <time>2015-08-12T07:20:53.146Z</time>
      </trkpt>
      <trkpt lat="42.90932" lon="1.4474">
        <ele>1479.3</ele>
        <time>2015-08-12T07:20:53.177Z</time>
      </trkpt>
      <trkpt lat="42.90908" lon="1.44684">
        <ele>1480.2</ele>
        <time>2015-08-12T07:20:54.144Z</time>
      </trkpt>
      <trkpt lat="42.90908" lon="1.44684">
        <ele>1480.2</ele>
        <time>2015-08-12T07:20:54.169Z</time>
      </trkpt>
      <trkpt lat="42.9092" lon="1.44683">
        <ele>1465.1</ele>
        <time>2015-08-12T07:20:55.144Z</time>
      </trkpt>
      <trkpt lat="42.90926" lon="1.44681">
        <ele>1461.3</ele>
        <time>2015-08-12T07:20:57.166Z</time>
      </trkpt>
      <trkpt lat="42.90935" lon="1.44689">
        <ele>1471.8</ele>
        <time>2015-08-12T07:20:58.145Z</time>
      </trkpt>
      <trkpt lat="42.90936" lon="1.44678">
        <ele>1471.7</ele>
        <time>2015-08-12T07:21:06.167Z</time>
      </trkpt>
      <trkpt lat="42.90936" lon="1.44676">
        <ele>1472.1</ele>
        <time>2015-08-12T07:21:07.145Z</time>
      </trkpt>
      <trkpt lat="42.90942" lon="1.44667">
        <ele>1473.7</ele>
        <time>2015-08-12T07:21:13.168Z</time>
      </trkpt>
      <trkpt lat="42.90942" lon="1.44666">
        <ele>1473.6</ele>
        <time>2015-08-12T07:21:14.144Z</time>
      </trkpt>
      <trkpt lat="42.90948" lon="1.44657">
        <ele>1474.4</ele>
        <time>2015-08-12T07:21:25.167Z</time>
      </trkpt>
      <trkpt lat="42.90948" lon="1.44656">
        <ele>1474.4</ele>
        <time>2015-08-12T07:21:26.145Z</time>
      </trkpt>
      <trkpt lat="42.90955" lon="1.44649">
        <ele>1476.3</ele>
        <time>2015-08-12T07:21:36.167Z</time>
      </trkpt>
      <trkpt lat="42.90956" lon="1.44649">
        <ele>1476.5</ele>
        <time>2015-08-12T07:21:37.145Z</time>
      </trkpt>
      <trkpt lat="42.90963" lon="1.44643">
        <ele>1477.7</ele>
        <time>2015-08-12T07:21:46.167Z</time>
      </trkpt>
      <trkpt lat="42.90963" lon="1.4464">
        <ele>1477.9</ele>
        <time>2015-08-12T07:21:47.145Z</time>
      </trkpt>
      <trkpt lat="42.90971" lon="1.44634">
        <ele>1480.1</ele>
        <time>2015-08-12T07:21:54.167Z</time>
      </trkpt>
      <trkpt lat="42.90971" lon="1.44633">
        <ele>1480.2</ele>
        <time>2015-08-12T07:21:55.145Z</time>
      </trkpt>
      <trkpt lat="42.90979" lon="1.44628">
        <ele>1481.8</ele>
        <time>2015-08-12T07:22:03.169Z</time>
      </trkpt>
      <trkpt lat="42.9098" lon="1.44627">
        <ele>1482.1</ele>
        <time>2015-08-12T07:22:04.145Z</time>
      </trkpt>
      <trkpt lat="42.90986" lon="1.4462">
        <ele>1483.5</ele>
        <time>2015-08-12T07:22:12.168Z</time>
      </trkpt>
      <trkpt lat="42.90986" lon="1.44619">
        <ele>1483.7</ele>
        <time>2015-08-12T07:22:13.145Z</time>
      </trkpt>
      <trkpt lat="42.9099" lon="1.44608">
        <ele>1485.9</ele>
        <time>2015-08-12T07:22:25.173Z</time>
      </trkpt>
      <trkpt lat="42.90991" lon="1.44607">
        <ele>1486</ele>
        <time>2015-08-12T07:22:26.145Z</time>
      </trkpt>
      <trkpt lat="42.90996" lon="1.44598">
        <ele>1487.3</ele>
        <time>2015-08-12T07:22:32.168Z</time>
      </trkpt>
      <trkpt lat="42.90997" lon="1.44597">
        <ele>1487.6</ele>
        <time>2015-08-12T07:22:33.147Z</time>
      </trkpt>
      <trkpt lat="42.91003" lon="1.4459">
        <ele>1488.3</ele>
        <time>2015-08-12T07:22:36.168Z</time>
      </trkpt>
      <trkpt lat="42.91004" lon="1.44588">
        <ele>1488.5</ele>
        <time>2015-08-12T07:22:37.145Z</time>
      </trkpt>
      <trkpt lat="42.9101" lon="1.44579">
        <ele>1491.7</ele>
        <time>2015-08-12T07:22:48.180Z</time>
      </trkpt>
      <trkpt lat="42.91011" lon="1.44579">
        <ele>1492</ele>
        <time>2015-08-12T07:22:49.145Z</time>
      </trkpt>
      <trkpt lat="42.91018" lon="1.44573">
        <ele>1495.8</ele>
        <time>2015-08-12T07:23:12.226Z</time>
      </trkpt>
      <trkpt lat="42.91019" lon="1.44572">
        <ele>1495.7</ele>
        <time>2015-08-12T07:23:13.145Z</time>
      </trkpt>
      <trkpt lat="42.91025" lon="1.44568">
        <ele>1495.8</ele>
        <time>2015-08-12T07:23:21.170Z</time>
      </trkpt>
      <trkpt lat="42.91027" lon="1.44566">
        <ele>1495.9</ele>
        <time>2015-08-12T07:23:22.145Z</time>
      </trkpt>
      <trkpt lat="42.91035" lon="1.4456">
        <ele>1496</ele>
        <time>2015-08-12T07:23:31.168Z</time>
      </trkpt>
      <trkpt lat="42.91035" lon="1.4456">
        <ele>1496.1</ele>
        <time>2015-08-12T07:23:32.145Z</time>
      </trkpt>
      <trkpt lat="42.91044" lon="1.44557">
        <ele>1496.7</ele>
        <time>2015-08-12T07:23:44.167Z</time>
      </trkpt>
      <trkpt lat="42.91045" lon="1.44556">
        <ele>1496.7</ele>
        <time>2015-08-12T07:23:45.147Z</time>
      </trkpt>
      <trkpt lat="42.91051" lon="1.4455">
        <ele>1498.3</ele>
        <time>2015-08-12T07:23:59.168Z</time>
      </trkpt>
      <trkpt lat="42.91053" lon="1.44549">
        <ele>1498.6</ele>
        <time>2015-08-12T07:24:00.145Z</time>
      </trkpt>
      <trkpt lat="42.91058" lon="1.4454">
        <ele>1500.2</ele>
        <time>2015-08-12T07:24:12.168Z</time>
      </trkpt>
      <trkpt lat="42.9106" lon="1.44539">
        <ele>1500.4</ele>
        <time>2015-08-12T07:24:13.145Z</time>
      </trkpt>
      <trkpt lat="42.91067" lon="1.44532">
        <ele>1502.3</ele>
        <time>2015-08-12T07:24:33.170Z</time>
      </trkpt>
      <trkpt lat="42.91068" lon="1.44532">
        <ele>1502.4</ele>
        <time>2015-08-12T07:24:34.145Z</time>
      </trkpt>
      <trkpt lat="42.91076" lon="1.44527">
        <ele>1503.4</ele>
        <time>2015-08-12T07:24:44.168Z</time>
      </trkpt>
      <trkpt lat="42.91076" lon="1.44527">
        <ele>1503.5</ele>
        <time>2015-08-12T07:24:45.147Z</time>
      </trkpt>
      <trkpt lat="42.91084" lon="1.44525">
        <ele>1504.9</ele>
        <time>2015-08-12T07:25:09.169Z</time>
      </trkpt>
      <trkpt lat="42.91085" lon="1.44523">
        <ele>1505.2</ele>
        <time>2015-08-12T07:25:10.145Z</time>
      </trkpt>
      <trkpt lat="42.91094" lon="1.44523">
        <ele>1506.2</ele>
        <time>2015-08-12T07:25:17.180Z</time>
      </trkpt>
      <trkpt lat="42.91094" lon="1.44522">
        <ele>1506.2</ele>
        <time>2015-08-12T07:25:18.145Z</time>
      </trkpt>
      <trkpt lat="42.91101" lon="1.44522">
        <ele>1508.8</ele>
        <time>2015-08-12T07:25:43.181Z</time>
      </trkpt>
      <trkpt lat="42.91105" lon="1.44521">
        <ele>1510</ele>
        <time>2015-08-12T07:25:44.146Z</time>
      </trkpt>
      <trkpt lat="42.9111" lon="1.44516">
        <ele>1511.3</ele>
        <time>2015-08-12T07:25:54.168Z</time>
      </trkpt>
      <trkpt lat="42.91112" lon="1.44514">
        <ele>1511.8</ele>
        <time>2015-08-12T07:25:55.145Z</time>
      </trkpt>
      <trkpt lat="42.91121" lon="1.44513">
        <ele>1512.8</ele>
        <time>2015-08-12T07:26:06.226Z</time>
      </trkpt>
      <trkpt lat="42.91122" lon="1.44514">
        <ele>1513.1</ele>
        <time>2015-08-12T07:26:07.145Z</time>
      </trkpt>
      <trkpt lat="42.9113" lon="1.4451">
        <ele>1514.3</ele>
        <time>2015-08-12T07:26:17.168Z</time>
      </trkpt>
      <trkpt lat="42.91131" lon="1.4451">
        <ele>1514.6</ele>
        <time>2015-08-12T07:26:18.146Z</time>
      </trkpt>
      <trkpt lat="42.91139" lon="1.44504">
        <ele>1516.7</ele>
        <time>2015-08-12T07:26:31.168Z</time>
      </trkpt>
      <trkpt lat="42.9114" lon="1.44503">
        <ele>1516.9</ele>
        <time>2015-08-12T07:26:32.146Z</time>
      </trkpt>
      <trkpt lat="42.91147" lon="1.44497">
        <ele>1519.2</ele>
        <time>2015-08-12T07:26:48.168Z</time>
      </trkpt>
      <trkpt lat="42.91148" lon="1.44496">
        <ele>1519.3</ele>
        <time>2015-08-12T07:26:49.145Z</time>
      </trkpt>
      <trkpt lat="42.91154" lon="1.44488">
        <ele>1520.2</ele>
        <time>2015-08-12T07:26:56.167Z</time>
      </trkpt>
      <trkpt lat="42.91155" lon="1.44487">
        <ele>1520.3</ele>
        <time>2015-08-12T07:26:57.146Z</time>
      </trkpt>
      <trkpt lat="42.91161" lon="1.44477">
        <ele>1522.9</ele>
        <time>2015-08-12T07:27:09.169Z</time>
      </trkpt>
      <trkpt lat="42.91161" lon="1.44476">
        <ele>1523</ele>
        <time>2015-08-12T07:27:10.150Z</time>
      </trkpt>
      <trkpt lat="42.91167" lon="1.44468">
        <ele>1524.2</ele>
        <time>2015-08-12T07:27:19.168Z</time>
      </trkpt>
      <trkpt lat="42.91167" lon="1.44467">
        <ele>1524.3</ele>
        <time>2015-08-12T07:27:20.146Z</time>
      </trkpt>
      <trkpt lat="42.91169" lon="1.44455">
        <ele>1524.9</ele>
        <time>2015-08-12T07:27:28.183Z</time>
      </trkpt>
      <trkpt lat="42.9117" lon="1.44454">
        <ele>1524.9</ele>
        <time>2015-08-12T07:27:29.145Z</time>
      </trkpt>
      <trkpt lat="42.9117" lon="1.44445">
        <ele>1525.4</ele>
        <time>2015-08-12T07:27:33.253Z</time>
      </trkpt>
      <trkpt lat="42.91171" lon="1.4444">
        <ele>1525.7</ele>
        <time>2015-08-12T07:27:34.146Z</time>
      </trkpt>
      <trkpt lat="42.91176" lon="1.44432">
        <ele>1526.6</ele>
        <time>2015-08-12T07:27:40.174Z</time>
      </trkpt>
      <trkpt lat="42.91177" lon="1.4443">
        <ele>1526.8</ele>
        <time>2015-08-12T07:27:41.145Z</time>
      </trkpt>
      <trkpt lat="42.91181" lon="1.44421">
        <ele>1527.5</ele>
        <time>2015-08-12T07:27:47.180Z</time>
      </trkpt>
      <trkpt lat="42.91182" lon="1.44419">
        <ele>1527.6</ele>
        <time>2015-08-12T07:27:48.145Z</time>
      </trkpt>
      <trkpt lat="42.91185" lon="1.44408">
        <ele>1528.7</ele>
        <time>2015-08-12T07:27:57.169Z</time>
      </trkpt>
      <trkpt lat="42.91185" lon="1.44407">
        <ele>1528.7</ele>
        <time>2015-08-12T07:27:58.145Z</time>
      </trkpt>
      <trkpt lat="42.91185" lon="1.44396">
        <ele>1529.5</ele>
        <time>2015-08-12T07:28:06.168Z</time>
      </trkpt>
      <trkpt lat="42.91185" lon="1.44394">
        <ele>1529.5</ele>
        <time>2015-08-12T07:28:07.145Z</time>
      </trkpt>
      <trkpt lat="42.91186" lon="1.44383">
        <ele>1529.4</ele>
        <time>2015-08-12T07:28:12.169Z</time>
      </trkpt>
      <trkpt lat="42.91186" lon="1.44379">
        <ele>1529.4</ele>
        <time>2015-08-12T07:28:13.157Z</time>
      </trkpt>
      <trkpt lat="42.91187" lon="1.44367">
        <ele>1529.3</ele>
        <time>2015-08-12T07:28:18.181Z</time>
      </trkpt>
      <trkpt lat="42.91187" lon="1.44366">
        <ele>1529.3</ele>
        <time>2015-08-12T07:28:19.145Z</time>
      </trkpt>
      <trkpt lat="42.91187" lon="1.44355">
        <ele>1529.8</ele>
        <time>2015-08-12T07:28:26.168Z</time>
      </trkpt>
      <trkpt lat="42.91187" lon="1.44353">
        <ele>1529.8</ele>
        <time>2015-08-12T07:28:27.146Z</time>
      </trkpt>
      <trkpt lat="42.91187" lon="1.44341">
        <ele>1529.9</ele>
        <time>2015-08-12T07:28:35.169Z</time>
      </trkpt>
      <trkpt lat="42.91187" lon="1.4434">
        <ele>1529.8</ele>
        <time>2015-08-12T07:28:36.145Z</time>
      </trkpt>
      <trkpt lat="42.91189" lon="1.44328">
        <ele>1529.9</ele>
        <time>2015-08-12T07:28:43.168Z</time>
      </trkpt>
      <trkpt lat="42.91188" lon="1.44325">
        <ele>1529.9</ele>
        <time>2015-08-12T07:28:44.145Z</time>
      </trkpt>
      <trkpt lat="42.91186" lon="1.44315">
        <ele>1529.8</ele>
        <time>2015-08-12T07:28:49.168Z</time>
      </trkpt>
      <trkpt lat="42.91186" lon="1.44313">
        <ele>1529.8</ele>
        <time>2015-08-12T07:28:50.145Z</time>
      </trkpt>
      <trkpt lat="42.91184" lon="1.443">
        <ele>1529.8</ele>
        <time>2015-08-12T07:28:55.168Z</time>
      </trkpt>
      <trkpt lat="42.91184" lon="1.44298">
        <ele>1529.8</ele>
        <time>2015-08-12T07:28:56.145Z</time>
      </trkpt>
      <trkpt lat="42.91185" lon="1.44285">
        <ele>1529.8</ele>
        <time>2015-08-12T07:29:03.170Z</time>
      </trkpt>
      <trkpt lat="42.91184" lon="1.44284">
        <ele>1529.8</ele>
        <time>2015-08-12T07:29:04.145Z</time>
      </trkpt>
      <trkpt lat="42.91185" lon="1.44274">
        <ele>1529.6</ele>
        <time>2015-08-12T07:29:08.168Z</time>
      </trkpt>
      <trkpt lat="42.91185" lon="1.44271">
        <ele>1529.5</ele>
        <time>2015-08-12T07:29:09.148Z</time>
      </trkpt>
      <trkpt lat="42.91185" lon="1.44259">
        <ele>1528.9</ele>
        <time>2015-08-12T07:29:16.169Z</time>
      </trkpt>
      <trkpt lat="42.91185" lon="1.44258">
        <ele>1528.9</ele>
        <time>2015-08-12T07:29:17.145Z</time>
      </trkpt>
      <trkpt lat="42.91186" lon="1.44246">
        <ele>1528.3</ele>
        <time>2015-08-12T07:29:23.168Z</time>
      </trkpt>
      <trkpt lat="42.91186" lon="1.44244">
        <ele>1528.2</ele>
        <time>2015-08-12T07:29:24.146Z</time>
      </trkpt>
      <trkpt lat="42.9119" lon="1.44233">
        <ele>1527.3</ele>
        <time>2015-08-12T07:29:31.168Z</time>
      </trkpt>
      <trkpt lat="42.9119" lon="1.4423">
        <ele>1527.2</ele>
        <time>2015-08-12T07:29:32.145Z</time>
      </trkpt>
      <trkpt lat="42.91195" lon="1.44221">
        <ele>1526.3</ele>
        <time>2015-08-12T07:29:45.169Z</time>
      </trkpt>
      <trkpt lat="42.91196" lon="1.4422">
        <ele>1526.1</ele>
        <time>2015-08-12T07:29:46.145Z</time>
      </trkpt>
      <trkpt lat="42.91201" lon="1.44212">
        <ele>1525.1</ele>
        <time>2015-08-12T07:29:54.168Z</time>
      </trkpt>
      <trkpt lat="42.91201" lon="1.44211">
        <ele>1525</ele>
        <time>2015-08-12T07:29:55.146Z</time>
      </trkpt>
      <trkpt lat="42.91207" lon="1.44203">
        <ele>1524.4</ele>
        <time>2015-08-12T07:30:05.168Z</time>
      </trkpt>
      <trkpt lat="42.91208" lon="1.44202">
        <ele>1524.2</ele>
        <time>2015-08-12T07:30:06.146Z</time>
      </trkpt>
      <trkpt lat="42.91213" lon="1.44194">
        <ele>1523.5</ele>
        <time>2015-08-12T07:30:10.169Z</time>
      </trkpt>
      <trkpt lat="42.91214" lon="1.44191">
        <ele>1523.4</ele>
        <time>2015-08-12T07:30:11.145Z</time>
      </trkpt>
      <trkpt lat="42.91218" lon="1.44183">
        <ele>1521.2</ele>
        <time>2015-08-12T07:30:19.169Z</time>
      </trkpt>
      <trkpt lat="42.91218" lon="1.4418">
        <ele>1520.8</ele>
        <time>2015-08-12T07:30:20.146Z</time>
      </trkpt>
      <trkpt lat="42.91221" lon="1.44171">
        <ele>1519.2</ele>
        <time>2015-08-12T07:30:25.168Z</time>
      </trkpt>
      <trkpt lat="42.91221" lon="1.44168">
        <ele>1518.8</ele>
        <time>2015-08-12T07:30:26.146Z</time>
      </trkpt>
      <trkpt lat="42.91225" lon="1.44158">
        <ele>1517.8</ele>
        <time>2015-08-12T07:30:33.191Z</time>
      </trkpt>
      <trkpt lat="42.91225" lon="1.44157">
        <ele>1517.7</ele>
        <time>2015-08-12T07:30:34.146Z</time>
      </trkpt>
      <trkpt lat="42.91229" lon="1.44148">
        <ele>1516.9</ele>
        <time>2015-08-12T07:30:39.169Z</time>
      </trkpt>
      <trkpt lat="42.9123" lon="1.44146">
        <ele>1516.7</ele>
        <time>2015-08-12T07:30:40.146Z</time>
      </trkpt>
      <trkpt lat="42.91236" lon="1.44137">
        <ele>1516.2</ele>
        <time>2015-08-12T07:30:44.168Z</time>
      </trkpt>
      <trkpt lat="42.91238" lon="1.44134">
        <ele>1515.9</ele>
        <time>2015-08-12T07:30:45.148Z</time>
      </trkpt>
      <trkpt lat="42.91242" lon="1.44125">
        <ele>1514.6</ele>
        <time>2015-08-12T07:30:54.168Z</time>
      </trkpt>
      <trkpt lat="42.91243" lon="1.44123">
        <ele>1514.5</ele>
        <time>2015-08-12T07:30:55.146Z</time>
      </trkpt>
      <trkpt lat="42.91246" lon="1.44112">
        <ele>1513.2</ele>
        <time>2015-08-12T07:31:05.168Z</time>
      </trkpt>
      <trkpt lat="42.91247" lon="1.44112">
        <ele>1513.2</ele>
        <time>2015-08-12T07:31:06.145Z</time>
      </trkpt>
      <trkpt lat="42.91249" lon="1.44101">
        <ele>1511.8</ele>
        <time>2015-08-12T07:31:14.167Z</time>
      </trkpt>
      <trkpt lat="42.9125" lon="1.441">
        <ele>1511.7</ele>
        <time>2015-08-12T07:31:15.147Z</time>
      </trkpt>
      <trkpt lat="42.91254" lon="1.4409">
        <ele>1511.1</ele>
        <time>2015-08-12T07:31:23.168Z</time>
      </trkpt>
      <trkpt lat="42.91255" lon="1.44088">
        <ele>1511</ele>
        <time>2015-08-12T07:31:24.145Z</time>
      </trkpt>
      <trkpt lat="42.91257" lon="1.44078">
        <ele>1511.1</ele>
        <time>2015-08-12T07:31:32.168Z</time>
      </trkpt>
      <trkpt lat="42.91257" lon="1.44076">
        <ele>1511</ele>
        <time>2015-08-12T07:31:33.168Z</time>
      </trkpt>
      <trkpt lat="42.91259" lon="1.44064">
        <ele>1511.5</ele>
        <time>2015-08-12T07:31:43.168Z</time>
      </trkpt>
      <trkpt lat="42.91259" lon="1.44064">
        <ele>1511.6</ele>
        <time>2015-08-12T07:31:44.145Z</time>
      </trkpt>
      <trkpt lat="42.91264" lon="1.44054">
        <ele>1512.1</ele>
        <time>2015-08-12T07:31:52.169Z</time>
      </trkpt>
      <trkpt lat="42.91264" lon="1.44053">
        <ele>1511.9</ele>
        <time>2015-08-12T07:31:53.146Z</time>
      </trkpt>
      <trkpt lat="42.91268" lon="1.44043">
        <ele>1513.8</ele>
        <time>2015-08-12T07:32:07.168Z</time>
      </trkpt>
      <trkpt lat="42.91269" lon="1.44042">
        <ele>1514</ele>
        <time>2015-08-12T07:32:08.146Z</time>
      </trkpt>
      <trkpt lat="42.91272" lon="1.44032">
        <ele>1515.5</ele>
        <time>2015-08-12T07:32:15.169Z</time>
      </trkpt>
      <trkpt lat="42.91273" lon="1.44031">
        <ele>1515.8</ele>
        <time>2015-08-12T07:32:16.146Z</time>
      </trkpt>
      <trkpt lat="42.91277" lon="1.44021">
        <ele>1515.8</ele>
        <time>2015-08-12T07:32:31.168Z</time>
      </trkpt>
      <trkpt lat="42.91277" lon="1.4402">
        <ele>1515.9</ele>
        <time>2015-08-12T07:32:32.146Z</time>
      </trkpt>
      <trkpt lat="42.91282" lon="1.4401">
        <ele>1518.9</ele>
        <time>2015-08-12T07:32:48.221Z</time>
      </trkpt>
      <trkpt lat="42.91283" lon="1.44008">
        <ele>1519.3</ele>
        <time>2015-08-12T07:32:49.146Z</time>
      </trkpt>
      <trkpt lat="42.91289" lon="1.44001">
        <ele>1522.2</ele>
        <time>2015-08-12T07:33:02.168Z</time>
      </trkpt>
      <trkpt lat="42.91289" lon="1.43999">
        <ele>1522.5</ele>
        <time>2015-08-12T07:33:03.164Z</time>
      </trkpt>
      <trkpt lat="42.91295" lon="1.43994">
        <ele>1524.4</ele>
        <time>2015-08-12T07:33:20.167Z</time>
      </trkpt>
      <trkpt lat="42.91297" lon="1.43991">
        <ele>1524.1</ele>
        <time>2015-08-12T07:33:21.147Z</time>
      </trkpt>
      <trkpt lat="42.91297" lon="1.4398">
        <ele>1526.1</ele>
        <time>2015-08-12T07:33:35.169Z</time>
      </trkpt>
      <trkpt lat="42.91297" lon="1.43978">
        <ele>1526.7</ele>
        <time>2015-08-12T07:33:36.150Z</time>
      </trkpt>
      <trkpt lat="42.91303" lon="1.4397">
        <ele>1529.2</ele>
        <time>2015-08-12T07:34:09.169Z</time>
      </trkpt>
      <trkpt lat="42.91303" lon="1.43969">
        <ele>1529.3</ele>
        <time>2015-08-12T07:34:10.145Z</time>
      </trkpt>
      <trkpt lat="42.91306" lon="1.43959">
        <ele>1530.3</ele>
        <time>2015-08-12T07:34:23.184Z</time>
      </trkpt>
      <trkpt lat="42.91306" lon="1.43958">
        <ele>1530.4</ele>
        <time>2015-08-12T07:34:24.145Z</time>
      </trkpt>
      <trkpt lat="42.91309" lon="1.43948">
        <ele>1532.4</ele>
        <time>2015-08-12T07:34:36.168Z</time>
      </trkpt>
      <trkpt lat="42.9131" lon="1.43947">
        <ele>1532.7</ele>
        <time>2015-08-12T07:34:37.144Z</time>
      </trkpt>
      <trkpt lat="42.91316" lon="1.43937">
        <ele>1535.7</ele>
        <time>2015-08-12T07:34:57.169Z</time>
      </trkpt>
      <trkpt lat="42.91316" lon="1.43936">
        <ele>1535.7</ele>
        <time>2015-08-12T07:34:58.145Z</time>
      </trkpt>
      <trkpt lat="42.91316" lon="1.43925">
        <ele>1537.1</ele>
        <time>2015-08-12T07:35:11.168Z</time>
      </trkpt>
      <trkpt lat="42.91316" lon="1.43923">
        <ele>1537.3</ele>
        <time>2015-08-12T07:35:12.146Z</time>
      </trkpt>
      <trkpt lat="42.91319" lon="1.43912">
        <ele>1538</ele>
        <time>2015-08-12T07:35:20.168Z</time>
      </trkpt>
      <trkpt lat="42.91319" lon="1.43911">
        <ele>1538.1</ele>
        <time>2015-08-12T07:35:21.147Z</time>
      </trkpt>
      <trkpt lat="42.91327" lon="1.43905">
        <ele>1540</ele>
        <time>2015-08-12T07:35:33.178Z</time>
      </trkpt>
      <trkpt lat="42.91327" lon="1.43905">
        <ele>1540.3</ele>
        <time>2015-08-12T07:35:34.145Z</time>
      </trkpt>
      <trkpt lat="42.91336" lon="1.43902">
        <ele>1542</ele>
        <time>2015-08-12T07:35:52.168Z</time>
      </trkpt>
      <trkpt lat="42.91337" lon="1.43902">
        <ele>1542.1</ele>
        <time>2015-08-12T07:35:53.145Z</time>
      </trkpt>
      <trkpt lat="42.91342" lon="1.43891">
        <ele>1543.1</ele>
        <time>2015-08-12T07:36:04.168Z</time>
      </trkpt>
      <trkpt lat="42.91342" lon="1.4389">
        <ele>1543.2</ele>
        <time>2015-08-12T07:36:05.145Z</time>
      </trkpt>
      <trkpt lat="42.91345" lon="1.4388">
        <ele>1545.6</ele>
        <time>2015-08-12T07:36:14.168Z</time>
      </trkpt>
      <trkpt lat="42.91345" lon="1.43878">
        <ele>1545.8</ele>
        <time>2015-08-12T07:36:15.150Z</time>
      </trkpt>
      <trkpt lat="42.91347" lon="1.43875">
        <ele>1546.5</ele>
        <time>2015-08-12T07:36:18.180Z</time>
      </trkpt>
      <trkpt lat="42.91351" lon="1.43864">
        <ele>1546.6</ele>
        <time>2015-08-12T07:36:26.933Z</time>
      </trkpt>
      <trkpt lat="42.91356" lon="1.43854">
        <ele>1546.5</ele>
        <time>2015-08-12T07:36:35.168Z</time>
      </trkpt>
      <trkpt lat="42.91356" lon="1.43853">
        <ele>1546.5</ele>
        <time>2015-08-12T07:36:36.144Z</time>
      </trkpt>
      <trkpt lat="42.91364" lon="1.43846">
        <ele>1546.5</ele>
        <time>2015-08-12T07:36:52.168Z</time>
      </trkpt>
      <trkpt lat="42.91364" lon="1.43845">
        <ele>1546.5</ele>
        <time>2015-08-12T07:36:53.145Z</time>
      </trkpt>
      <trkpt lat="42.91371" lon="1.43838">
        <ele>1546.5</ele>
        <time>2015-08-12T07:37:04.168Z</time>
      </trkpt>
      <trkpt lat="42.91371" lon="1.43837">
        <ele>1546.5</ele>
        <time>2015-08-12T07:37:05.145Z</time>
      </trkpt>
      <trkpt lat="42.91379" lon="1.43831">
        <ele>1546.6</ele>
        <time>2015-08-12T07:37:15.169Z</time>
      </trkpt>
      <trkpt lat="42.91379" lon="1.4383">
        <ele>1546.6</ele>
        <time>2015-08-12T07:37:16.145Z</time>
      </trkpt>
      <trkpt lat="42.91385" lon="1.43822">
        <ele>1546.7</ele>
        <time>2015-08-12T07:37:24.168Z</time>
      </trkpt>
      <trkpt lat="42.91385" lon="1.4382">
        <ele>1546.8</ele>
        <time>2015-08-12T07:37:25.145Z</time>
      </trkpt>
      <trkpt lat="42.91392" lon="1.43814">
        <ele>1546.8</ele>
        <time>2015-08-12T07:37:29.166Z</time>
      </trkpt>
      <trkpt lat="42.91394" lon="1.43812">
        <ele>1546.8</ele>
        <time>2015-08-12T07:37:30.144Z</time>
      </trkpt>
      <trkpt lat="42.91401" lon="1.43805">
        <ele>1547</ele>
        <time>2015-08-12T07:37:38.167Z</time>
      </trkpt>
      <trkpt lat="42.91402" lon="1.43805">
        <ele>1547</ele>
        <time>2015-08-12T07:37:39.146Z</time>
      </trkpt>
      <trkpt lat="42.91408" lon="1.43797">
        <ele>1547.2</ele>
        <time>2015-08-12T07:37:49.167Z</time>
      </trkpt>
      <trkpt lat="42.91409" lon="1.43796">
        <ele>1547.3</ele>
        <time>2015-08-12T07:37:50.144Z</time>
      </trkpt>
      <trkpt lat="42.91414" lon="1.43787">
        <ele>1547.6</ele>
        <time>2015-08-12T07:38:04.186Z</time>
      </trkpt>
      <trkpt lat="42.91415" lon="1.43787">
        <ele>1547.6</ele>
        <time>2015-08-12T07:38:05.144Z</time>
      </trkpt>
      <trkpt lat="42.91422" lon="1.4378">
        <ele>1548.5</ele>
        <time>2015-08-12T07:38:18.191Z</time>
      </trkpt>
      <trkpt lat="42.91422" lon="1.43779">
        <ele>1548.5</ele>
        <time>2015-08-12T07:38:19.144Z</time>
      </trkpt>
      <trkpt lat="42.91429" lon="1.43773">
        <ele>1549.2</ele>
        <time>2015-08-12T07:38:31.194Z</time>
      </trkpt>
      <trkpt lat="42.9143" lon="1.43773">
        <ele>1549.2</ele>
        <time>2015-08-12T07:38:32.144Z</time>
      </trkpt>
      <trkpt lat="42.91434" lon="1.43763">
        <ele>1550.8</ele>
        <time>2015-08-12T07:38:46.167Z</time>
      </trkpt>
      <trkpt lat="42.91433" lon="1.43761">
        <ele>1551.3</ele>
        <time>2015-08-12T07:38:47.144Z</time>
      </trkpt>
      <trkpt lat="42.91433" lon="1.4375">
        <ele>1554.2</ele>
        <time>2015-08-12T07:38:58.171Z</time>
      </trkpt>
      <trkpt lat="42.91434" lon="1.43748">
        <ele>1554.6</ele>
        <time>2015-08-12T07:38:59.144Z</time>
      </trkpt>
      <trkpt lat="42.91437" lon="1.43738">
        <ele>1557.7</ele>
        <time>2015-08-12T07:39:11.166Z</time>
      </trkpt>
      <trkpt lat="42.91439" lon="1.43738">
        <ele>1558</ele>
        <time>2015-08-12T07:39:12.144Z</time>
      </trkpt>
      <trkpt lat="42.91447" lon="1.43733">
        <ele>1560.8</ele>
        <time>2015-08-12T07:39:22.167Z</time>
      </trkpt>
      <trkpt lat="42.91447" lon="1.43732">
        <ele>1561.1</ele>
        <time>2015-08-12T07:39:23.145Z</time>
      </trkpt>
      <trkpt lat="42.91456" lon="1.43728">
        <ele>1564.1</ele>
        <time>2015-08-12T07:39:32.168Z</time>
      </trkpt>
      <trkpt lat="42.91457" lon="1.43727">
        <ele>1564.4</ele>
        <time>2015-08-12T07:39:33.147Z</time>
      </trkpt>
      <trkpt lat="42.91461" lon="1.43716">
        <ele>1568.3</ele>
        <time>2015-08-12T07:39:45.280Z</time>
      </trkpt>
      <trkpt lat="42.91462" lon="1.43715">
        <ele>1568.7</ele>
        <time>2015-08-12T07:39:46.144Z</time>
      </trkpt>
      <trkpt lat="42.91469" lon="1.43708">
        <ele>1572.1</ele>
        <time>2015-08-12T07:39:58.167Z</time>
      </trkpt>
      <trkpt lat="42.91469" lon="1.43707">
        <ele>1572.5</ele>
        <time>2015-08-12T07:39:59.146Z</time>
      </trkpt>
      <trkpt lat="42.91474" lon="1.43697">
        <ele>1575.8</ele>
        <time>2015-08-12T07:40:11.783Z</time>
      </trkpt>
      <trkpt lat="42.91474" lon="1.43696">
        <ele>1576.1</ele>
        <time>2015-08-12T07:40:12.392Z</time>
      </trkpt>
      <trkpt lat="42.9148" lon="1.43689">
        <ele>1579.6</ele>
        <time>2015-08-12T07:40:26.170Z</time>
      </trkpt>
      <trkpt lat="42.91481" lon="1.43688">
        <ele>1579.9</ele>
        <time>2015-08-12T07:40:27.147Z</time>
      </trkpt>
      <trkpt lat="42.91483" lon="1.43698">
        <ele>1582.3</ele>
        <time>2015-08-12T07:40:40.169Z</time>
      </trkpt>
      <trkpt lat="42.91484" lon="1.43699">
        <ele>1582.5</ele>
        <time>2015-08-12T07:40:41.145Z</time>
      </trkpt>
      <trkpt lat="42.91487" lon="1.4371">
        <ele>1584.6</ele>
        <time>2015-08-12T07:40:50.170Z</time>
      </trkpt>
      <trkpt lat="42.91488" lon="1.43711">
        <ele>1584.8</ele>
        <time>2015-08-12T07:40:51.149Z</time>
      </trkpt>
      <trkpt lat="42.91489" lon="1.43723">
        <ele>1586.7</ele>
        <time>2015-08-12T07:41:01.170Z</time>
      </trkpt>
      <trkpt lat="42.91489" lon="1.43724">
        <ele>1586.9</ele>
        <time>2015-08-12T07:41:02.145Z</time>
      </trkpt>
      <trkpt lat="42.9149" lon="1.43736">
        <ele>1588.4</ele>
        <time>2015-08-12T07:41:09.172Z</time>
      </trkpt>
      <trkpt lat="42.9149" lon="1.43737">
        <ele>1588.5</ele>
        <time>2015-08-12T07:41:10.146Z</time>
      </trkpt>
      <trkpt lat="42.91492" lon="1.43745">
        <ele>1592.8</ele>
        <time>2015-08-12T07:44:30.168Z</time>
      </trkpt>
      <trkpt lat="42.91484" lon="1.43747">
        <ele>1591.7</ele>
        <time>2015-08-12T07:44:31.145Z</time>
      </trkpt>
      <trkpt lat="42.91488" lon="1.43736">
        <ele>1596.6</ele>
        <time>2015-08-12T07:47:32.281Z</time>
      </trkpt>
      <trkpt lat="42.91487" lon="1.43733">
        <ele>1596.6</ele>
        <time>2015-08-12T07:47:33.147Z</time>
      </trkpt>
      <trkpt lat="42.91485" lon="1.43722">
        <ele>1596.7</ele>
        <time>2015-08-12T07:47:38.167Z</time>
      </trkpt>
      <trkpt lat="42.91484" lon="1.4372">
        <ele>1596.7</ele>
        <time>2015-08-12T07:47:39.146Z</time>
      </trkpt>
      <trkpt lat="42.91484" lon="1.43709">
        <ele>1596.9</ele>
        <time>2015-08-12T07:47:46.167Z</time>
      </trkpt>
      <trkpt lat="42.91483" lon="1.43707">
        <ele>1596.9</ele>
        <time>2015-08-12T07:47:47.145Z</time>
      </trkpt>
      <trkpt lat="42.91478" lon="1.43697">
        <ele>1596.5</ele>
        <time>2015-08-12T07:47:55.167Z</time>
      </trkpt>
      <trkpt lat="42.91478" lon="1.43696">
        <ele>1596.5</ele>
        <time>2015-08-12T07:47:56.145Z</time>
      </trkpt>
      <trkpt lat="42.91478" lon="1.43685">
        <ele>1596</ele>
        <time>2015-08-12T07:48:03.169Z</time>
      </trkpt>
      <trkpt lat="42.91478" lon="1.43683">
        <ele>1595.9</ele>
        <time>2015-08-12T07:48:04.145Z</time>
      </trkpt>
      <trkpt lat="42.91479" lon="1.43673">
        <ele>1595.3</ele>
        <time>2015-08-12T07:48:10.167Z</time>
      </trkpt>
      <trkpt lat="42.91479" lon="1.43671">
        <ele>1595.3</ele>
        <time>2015-08-12T07:48:11.146Z</time>
      </trkpt>
      <trkpt lat="42.9148" lon="1.4366">
        <ele>1595</ele>
        <time>2015-08-12T07:48:16.167Z</time>
      </trkpt>
      <trkpt lat="42.9148" lon="1.43658">
        <ele>1595</ele>
        <time>2015-08-12T07:48:17.145Z</time>
      </trkpt>
      <trkpt lat="42.9148" lon="1.43646">
        <ele>1594.5</ele>
        <time>2015-08-12T07:48:24.167Z</time>
      </trkpt>
      <trkpt lat="42.9148" lon="1.43644">
        <ele>1594.5</ele>
        <time>2015-08-12T07:48:25.145Z</time>
      </trkpt>
      <trkpt lat="42.9148" lon="1.43633">
        <ele>1593.7</ele>
        <time>2015-08-12T07:48:31.167Z</time>
      </trkpt>
      <trkpt lat="42.9148" lon="1.43631">
        <ele>1593.6</ele>
        <time>2015-08-12T07:48:32.145Z</time>
      </trkpt>
      <trkpt lat="42.9148" lon="1.43621">
        <ele>1593.1</ele>
        <time>2015-08-12T07:48:37.283Z</time>
      </trkpt>
      <trkpt lat="42.91481" lon="1.43619">
        <ele>1593</ele>
        <time>2015-08-12T07:48:38.145Z</time>
      </trkpt>
      <trkpt lat="42.91483" lon="1.43607">
        <ele>1592</ele>
        <time>2015-08-12T07:48:44.167Z</time>
      </trkpt>
      <trkpt lat="42.91483" lon="1.43605">
        <ele>1591.7</ele>
        <time>2015-08-12T07:48:45.146Z</time>
      </trkpt>
      <trkpt lat="42.91484" lon="1.43594">
        <ele>1591.4</ele>
        <time>2015-08-12T07:48:50.167Z</time>
      </trkpt>
      <trkpt lat="42.91484" lon="1.43592">
        <ele>1591.2</ele>
        <time>2015-08-12T07:48:51.146Z</time>
      </trkpt>
      <trkpt lat="42.91486" lon="1.43582">
        <ele>1590.4</ele>
        <time>2015-08-12T07:48:56.289Z</time>
      </trkpt>
      <trkpt lat="42.91486" lon="1.43579">
        <ele>1590.3</ele>
        <time>2015-08-12T07:48:57.148Z</time>
      </trkpt>
      <trkpt lat="42.91488" lon="1.43568">
        <ele>1589.9</ele>
        <time>2015-08-12T07:49:03.172Z</time>
      </trkpt>
      <trkpt lat="42.91488" lon="1.43567">
        <ele>1589.7</ele>
        <time>2015-08-12T07:49:04.145Z</time>
      </trkpt>
      <trkpt lat="42.9149" lon="1.43555">
        <ele>1588.4</ele>
        <time>2015-08-12T07:49:11.167Z</time>
      </trkpt>
      <trkpt lat="42.9149" lon="1.43554">
        <ele>1588.3</ele>
        <time>2015-08-12T07:49:12.145Z</time>
      </trkpt>
      <trkpt lat="42.91491" lon="1.43543">
        <ele>1587.4</ele>
        <time>2015-08-12T07:49:18.168Z</time>
      </trkpt>
      <trkpt lat="42.91491" lon="1.43541">
        <ele>1587</ele>
        <time>2015-08-12T07:49:19.145Z</time>
      </trkpt>
      <trkpt lat="42.91492" lon="1.43529">
        <ele>1585.7</ele>
        <time>2015-08-12T07:49:24.167Z</time>
      </trkpt>
      <trkpt lat="42.91492" lon="1.43527">
        <ele>1585.5</ele>
        <time>2015-08-12T07:49:25.145Z</time>
      </trkpt>
      <trkpt lat="42.91494" lon="1.43516">
        <ele>1584.2</ele>
        <time>2015-08-12T07:49:31.181Z</time>
      </trkpt>
      <trkpt lat="42.91495" lon="1.43514">
        <ele>1583.9</ele>
        <time>2015-08-12T07:49:32.145Z</time>
      </trkpt>
      <trkpt lat="42.91493" lon="1.43502">
        <ele>1581.9</ele>
        <time>2015-08-12T07:49:39.168Z</time>
      </trkpt>
      <trkpt lat="42.91493" lon="1.435">
        <ele>1581.6</ele>
        <time>2015-08-12T07:49:40.145Z</time>
      </trkpt>
      <trkpt lat="42.91496" lon="1.4349">
        <ele>1579.7</ele>
        <time>2015-08-12T07:49:47.181Z</time>
      </trkpt>
      <trkpt lat="42.91496" lon="1.43488">
        <ele>1579.7</ele>
        <time>2015-08-12T07:49:48.145Z</time>
      </trkpt>
      <trkpt lat="42.91495" lon="1.43476">
        <ele>1578.9</ele>
        <time>2015-08-12T07:49:54.167Z</time>
      </trkpt>
      <trkpt lat="42.91495" lon="1.43474">
        <ele>1578.6</ele>
        <time>2015-08-12T07:49:55.146Z</time>
      </trkpt>
      <trkpt lat="42.91498" lon="1.43463">
        <ele>1577.1</ele>
        <time>2015-08-12T07:50:01.166Z</time>
      </trkpt>
      <trkpt lat="42.91498" lon="1.43461">
        <ele>1576.8</ele>
        <time>2015-08-12T07:50:02.145Z</time>
      </trkpt>
      <trkpt lat="42.91499" lon="1.43451">
        <ele>1574.4</ele>
        <time>2015-08-12T07:50:09.172Z</time>
      </trkpt>
      <trkpt lat="42.91498" lon="1.43448">
        <ele>1574</ele>
        <time>2015-08-12T07:50:10.145Z</time>
      </trkpt>
      <trkpt lat="42.91497" lon="1.43436">
        <ele>1573</ele>
        <time>2015-08-12T07:50:15.173Z</time>
      </trkpt>
      <trkpt lat="42.91497" lon="1.43435">
        <ele>1572.8</ele>
        <time>2015-08-12T07:50:16.148Z</time>
      </trkpt>
      <trkpt lat="42.91501" lon="1.43424">
        <ele>1569.5</ele>
        <time>2015-08-12T07:50:21.173Z</time>
      </trkpt>
      <trkpt lat="42.91501" lon="1.43422">
        <ele>1569.1</ele>
        <time>2015-08-12T07:50:22.147Z</time>
      </trkpt>
      <trkpt lat="42.915" lon="1.43411">
        <ele>1567.1</ele>
        <time>2015-08-12T07:50:28.169Z</time>
      </trkpt>
      <trkpt lat="42.91501" lon="1.43409">
        <ele>1566.7</ele>
        <time>2015-08-12T07:50:29.146Z</time>
      </trkpt>
      <trkpt lat="42.91496" lon="1.43401">
        <ele>1564.4</ele>
        <time>2015-08-12T07:50:51.172Z</time>
      </trkpt>
      <trkpt lat="42.91495" lon="1.434">
        <ele>1564.4</ele>
        <time>2015-08-12T07:50:52.145Z</time>
      </trkpt>
      <trkpt lat="42.91498" lon="1.43391">
        <ele>1563.8</ele>
        <time>2015-08-12T07:51:07.169Z</time>
      </trkpt>
      <trkpt lat="42.91499" lon="1.43389">
        <ele>1563.8</ele>
        <time>2015-08-12T07:51:08.145Z</time>
      </trkpt>
      <trkpt lat="42.91504" lon="1.4338">
        <ele>1563.4</ele>
        <time>2015-08-12T07:51:18.203Z</time>
      </trkpt>
      <trkpt lat="42.91505" lon="1.43379">
        <ele>1563.4</ele>
        <time>2015-08-12T07:51:19.146Z</time>
      </trkpt>
      <trkpt lat="42.9151" lon="1.4337">
        <ele>1562.9</ele>
        <time>2015-08-12T07:51:39.171Z</time>
      </trkpt>
      <trkpt lat="42.91511" lon="1.43367">
        <ele>1561.7</ele>
        <time>2015-08-12T07:51:40.144Z</time>
      </trkpt>
      <trkpt lat="42.91509" lon="1.43355">
        <ele>1560</ele>
        <time>2015-08-12T07:51:57.171Z</time>
      </trkpt>
      <trkpt lat="42.9151" lon="1.43354">
        <ele>1560</ele>
        <time>2015-08-12T07:51:58.146Z</time>
      </trkpt>
      <trkpt lat="42.91509" lon="1.43343">
        <ele>1558.9</ele>
        <time>2015-08-12T07:52:08.168Z</time>
      </trkpt>
      <trkpt lat="42.91508" lon="1.43341">
        <ele>1558.9</ele>
        <time>2015-08-12T07:52:09.162Z</time>
      </trkpt>
      <trkpt lat="42.91506" lon="1.43331">
        <ele>1558.3</ele>
        <time>2015-08-12T07:52:16.168Z</time>
      </trkpt>
      <trkpt lat="42.91506" lon="1.43329">
        <ele>1558</ele>
        <time>2015-08-12T07:52:17.146Z</time>
      </trkpt>
      <trkpt lat="42.91509" lon="1.43318">
        <ele>1557.8</ele>
        <time>2015-08-12T07:52:22.168Z</time>
      </trkpt>
      <trkpt lat="42.9151" lon="1.43317">
        <ele>1557.7</ele>
        <time>2015-08-12T07:52:23.182Z</time>
      </trkpt>
      <trkpt lat="42.9151" lon="1.43306">
        <ele>1556.8</ele>
        <time>2015-08-12T07:52:31.168Z</time>
      </trkpt>
      <trkpt lat="42.9151" lon="1.43304">
        <ele>1556.8</ele>
        <time>2015-08-12T07:52:32.145Z</time>
      </trkpt>
      <trkpt lat="42.91509" lon="1.43294">
        <ele>1556.4</ele>
        <time>2015-08-12T07:52:39.169Z</time>
      </trkpt>
      <trkpt lat="42.91508" lon="1.43291">
        <ele>1556.3</ele>
        <time>2015-08-12T07:52:40.145Z</time>
      </trkpt>
      <trkpt lat="42.91503" lon="1.43281">
        <ele>1555.7</ele>
        <time>2015-08-12T07:52:47.168Z</time>
      </trkpt>
      <trkpt lat="42.91502" lon="1.4328">
        <ele>1555.6</ele>
        <time>2015-08-12T07:52:48.144Z</time>
      </trkpt>
      <trkpt lat="42.91501" lon="1.43268">
        <ele>1554.9</ele>
        <time>2015-08-12T07:52:53.170Z</time>
      </trkpt>
      <trkpt lat="42.91501" lon="1.43266">
        <ele>1554.8</ele>
        <time>2015-08-12T07:52:54.144Z</time>
      </trkpt>
      <trkpt lat="42.91497" lon="1.43255">
        <ele>1553.6</ele>
        <time>2015-08-12T07:52:59.168Z</time>
      </trkpt>
      <trkpt lat="42.91497" lon="1.43253">
        <ele>1553.4</ele>
        <time>2015-08-12T07:53:00.145Z</time>
      </trkpt>
      <trkpt lat="42.91495" lon="1.43242">
        <ele>1552.3</ele>
        <time>2015-08-12T07:53:04.169Z</time>
      </trkpt>
      <trkpt lat="42.91494" lon="1.43239">
        <ele>1552.1</ele>
        <time>2015-08-12T07:53:05.146Z</time>
      </trkpt>
      <trkpt lat="42.91492" lon="1.43229">
        <ele>1551.1</ele>
        <time>2015-08-12T07:53:08.168Z</time>
      </trkpt>
      <trkpt lat="42.91494" lon="1.43225">
        <ele>1548.4</ele>
        <time>2015-08-12T07:53:09.148Z</time>
      </trkpt>
      <trkpt lat="42.915" lon="1.43215">
        <ele>1542.8</ele>
        <time>2015-08-12T07:53:14.168Z</time>
      </trkpt>
      <trkpt lat="42.915" lon="1.43214">
        <ele>1542</ele>
        <time>2015-08-12T07:53:15.147Z</time>
      </trkpt>
      <trkpt lat="42.915" lon="1.43202">
        <ele>1534.5</ele>
        <time>2015-08-12T07:53:29.167Z</time>
      </trkpt>
      <trkpt lat="42.915" lon="1.432">
        <ele>1533.8</ele>
        <time>2015-08-12T07:53:30.145Z</time>
      </trkpt>
      <trkpt lat="42.915" lon="1.43189">
        <ele>1531.1</ele>
        <time>2015-08-12T07:53:35.170Z</time>
      </trkpt>
      <trkpt lat="42.91501" lon="1.43187">
        <ele>1530.6</ele>
        <time>2015-08-12T07:53:36.146Z</time>
      </trkpt>
      <trkpt lat="42.91501" lon="1.43177">
        <ele>1527.6</ele>
        <time>2015-08-12T07:53:42.167Z</time>
      </trkpt>
      <trkpt lat="42.915" lon="1.43175">
        <ele>1527.2</ele>
        <time>2015-08-12T07:53:43.146Z</time>
      </trkpt>
      <trkpt lat="42.91499" lon="1.43165">
        <ele>1523.6</ele>
        <time>2015-08-12T07:53:50.167Z</time>
      </trkpt>
      <trkpt lat="42.91499" lon="1.43163">
        <ele>1523.2</ele>
        <time>2015-08-12T07:53:51.148Z</time>
      </trkpt>
      <trkpt lat="42.91498" lon="1.43152">
        <ele>1519.8</ele>
        <time>2015-08-12T07:53:57.170Z</time>
      </trkpt>
      <trkpt lat="42.91496" lon="1.43151">
        <ele>1518.9</ele>
        <time>2015-08-12T07:53:58.145Z</time>
      </trkpt>
      <trkpt lat="42.91491" lon="1.43143">
        <ele>1515.2</ele>
        <time>2015-08-12T07:54:04.167Z</time>
      </trkpt>
      <trkpt lat="42.9149" lon="1.4314">
        <ele>1514.5</ele>
        <time>2015-08-12T07:54:05.145Z</time>
      </trkpt>
      <trkpt lat="42.91486" lon="1.4313">
        <ele>1510.2</ele>
        <time>2015-08-12T07:54:12.169Z</time>
      </trkpt>
      <trkpt lat="42.91485" lon="1.43127">
        <ele>1509.6</ele>
        <time>2015-08-12T07:54:13.145Z</time>
      </trkpt>
      <trkpt lat="42.9148" lon="1.43118">
        <ele>1506.3</ele>
        <time>2015-08-12T07:54:19.168Z</time>
      </trkpt>
      <trkpt lat="42.91479" lon="1.43117">
        <ele>1505.8</ele>
        <time>2015-08-12T07:54:20.145Z</time>
      </trkpt>
      <trkpt lat="42.91476" lon="1.43108">
        <ele>1503.9</ele>
        <time>2015-08-12T07:54:25.176Z</time>
      </trkpt>
      <trkpt lat="42.91475" lon="1.43106">
        <ele>1503.5</ele>
        <time>2015-08-12T07:54:26.158Z</time>
      </trkpt>
      <trkpt lat="42.91471" lon="1.43096">
        <ele>1501</ele>
        <time>2015-08-12T07:54:32.167Z</time>
      </trkpt>
      <trkpt lat="42.9147" lon="1.43094">
        <ele>1500.6</ele>
        <time>2015-08-12T07:54:33.149Z</time>
      </trkpt>
      <trkpt lat="42.91468" lon="1.43083">
        <ele>1497.9</ele>
        <time>2015-08-12T07:54:39.169Z</time>
      </trkpt>
      <trkpt lat="42.91468" lon="1.43081">
        <ele>1497.4</ele>
        <time>2015-08-12T07:54:40.145Z</time>
      </trkpt>
      <trkpt lat="42.91466" lon="1.4307">
        <ele>1495.7</ele>
        <time>2015-08-12T07:54:46.167Z</time>
      </trkpt>
      <trkpt lat="42.91466" lon="1.43067">
        <ele>1495.6</ele>
        <time>2015-08-12T07:54:47.145Z</time>
      </trkpt>
      <trkpt lat="42.91465" lon="1.43055">
        <ele>1494</ele>
        <time>2015-08-12T07:54:53.167Z</time>
      </trkpt>
      <trkpt lat="42.91466" lon="1.43053">
        <ele>1493.8</ele>
        <time>2015-08-12T07:54:54.144Z</time>
      </trkpt>
      <trkpt lat="42.91466" lon="1.43042">
        <ele>1492.6</ele>
        <time>2015-08-12T07:55:00.187Z</time>
      </trkpt>
      <trkpt lat="42.91464" lon="1.43039">
        <ele>1492.3</ele>
        <time>2015-08-12T07:55:01.145Z</time>
      </trkpt>
      <trkpt lat="42.91465" lon="1.43028">
        <ele>1491.2</ele>
        <time>2015-08-12T07:55:07.166Z</time>
      </trkpt>
      <trkpt lat="42.91466" lon="1.43026">
        <ele>1491</ele>
        <time>2015-08-12T07:55:08.144Z</time>
      </trkpt>
      <trkpt lat="42.91468" lon="1.43015">
        <ele>1490</ele>
        <time>2015-08-12T07:55:14.167Z</time>
      </trkpt>
      <trkpt lat="42.91468" lon="1.43012">
        <ele>1489.6</ele>
        <time>2015-08-12T07:55:15.148Z</time>
      </trkpt>
      <trkpt lat="42.91465" lon="1.43002">
        <ele>1488.4</ele>
        <time>2015-08-12T07:55:18.166Z</time>
      </trkpt>
      <trkpt lat="42.91464" lon="1.42999">
        <ele>1488.2</ele>
        <time>2015-08-12T07:55:19.185Z</time>
      </trkpt>
      <trkpt lat="42.91462" lon="1.42989">
        <ele>1487.4</ele>
        <time>2015-08-12T07:55:22.168Z</time>
      </trkpt>
      <trkpt lat="42.91462" lon="1.42987">
        <ele>1487.1</ele>
        <time>2015-08-12T07:55:23.145Z</time>
      </trkpt>
      <trkpt lat="42.91459" lon="1.42976">
        <ele>1486</ele>
        <time>2015-08-12T07:55:26.167Z</time>
      </trkpt>
      <trkpt lat="42.91458" lon="1.42972">
        <ele>1485.6</ele>
        <time>2015-08-12T07:55:27.146Z</time>
      </trkpt>
      <trkpt lat="42.91456" lon="1.42965">
        <ele>1485.5</ele>
        <time>2015-08-12T07:55:29.167Z</time>
      </trkpt>
      <trkpt lat="42.91455" lon="1.42961">
        <ele>1485.3</ele>
        <time>2015-08-12T07:55:30.145Z</time>
      </trkpt>
      <trkpt lat="42.91453" lon="1.42949">
        <ele>1485.5</ele>
        <time>2015-08-12T07:55:33.184Z</time>
      </trkpt>
      <trkpt lat="42.91452" lon="1.42945">
        <ele>1485.2</ele>
        <time>2015-08-12T07:55:34.144Z</time>
      </trkpt>
      <trkpt lat="42.9145" lon="1.42933">
        <ele>1485.5</ele>
        <time>2015-08-12T07:55:37.167Z</time>
      </trkpt>
      <trkpt lat="42.91449" lon="1.42929">
        <ele>1485.5</ele>
        <time>2015-08-12T07:55:38.145Z</time>
      </trkpt>
      <trkpt lat="42.91448" lon="1.42919">
        <ele>1484.9</ele>
        <time>2015-08-12T07:55:41.166Z</time>
      </trkpt>
      <trkpt lat="42.91448" lon="1.42916">
        <ele>1484.7</ele>
        <time>2015-08-12T07:55:42.143Z</time>
      </trkpt>
      <trkpt lat="42.91448" lon="1.42906">
        <ele>1484.7</ele>
        <time>2015-08-12T07:55:45.184Z</time>
      </trkpt>
      <trkpt lat="42.91448" lon="1.42902">
        <ele>1484.7</ele>
        <time>2015-08-12T07:55:46.145Z</time>
      </trkpt>
      <trkpt lat="42.91448" lon="1.42892">
        <ele>1484.5</ele>
        <time>2015-08-12T07:55:49.166Z</time>
      </trkpt>
      <trkpt lat="42.91449" lon="1.42889">
        <ele>1484.8</ele>
        <time>2015-08-12T07:55:50.145Z</time>
      </trkpt>
      <trkpt lat="42.91451" lon="1.4288">
        <ele>1485.4</ele>
        <time>2015-08-12T07:55:53.167Z</time>
      </trkpt>
      <trkpt lat="42.91452" lon="1.42876">
        <ele>1485.6</ele>
        <time>2015-08-12T07:55:54.145Z</time>
      </trkpt>
      <trkpt lat="42.91457" lon="1.42867">
        <ele>1486.6</ele>
        <time>2015-08-12T07:55:57.218Z</time>
      </trkpt>
      <trkpt lat="42.91459" lon="1.42865">
        <ele>1486.6</ele>
        <time>2015-08-12T07:55:58.144Z</time>
      </trkpt>
      <trkpt lat="42.91462" lon="1.42855">
        <ele>1486.5</ele>
        <time>2015-08-12T07:56:01.181Z</time>
      </trkpt>
      <trkpt lat="42.91463" lon="1.42852">
        <ele>1486</ele>
        <time>2015-08-12T07:56:02.144Z</time>
      </trkpt>
      <trkpt lat="42.91464" lon="1.42842">
        <ele>1485.1</ele>
        <time>2015-08-12T07:56:05.168Z</time>
      </trkpt>
      <trkpt lat="42.91465" lon="1.42839">
        <ele>1485</ele>
        <time>2015-08-12T07:56:06.144Z</time>
      </trkpt>
      <trkpt lat="42.91469" lon="1.42831">
        <ele>1484</ele>
        <time>2015-08-12T07:56:09.176Z</time>
      </trkpt>
      <trkpt lat="42.91471" lon="1.42828">
        <ele>1483.8</ele>
        <time>2015-08-12T07:56:10.145Z</time>
      </trkpt>
      <trkpt lat="42.91476" lon="1.42818">
        <ele>1482.7</ele>
        <time>2015-08-12T07:56:13.189Z</time>
      </trkpt>
      <trkpt lat="42.91477" lon="1.42815">
        <ele>1482</ele>
        <time>2015-08-12T07:56:14.144Z</time>
      </trkpt>
      <trkpt lat="42.91483" lon="1.42805">
        <ele>1481.5</ele>
        <time>2015-08-12T07:56:17.181Z</time>
      </trkpt>
      <trkpt lat="42.91484" lon="1.42802">
        <ele>1481.1</ele>
        <time>2015-08-12T07:56:18.146Z</time>
      </trkpt>
      <trkpt lat="42.91488" lon="1.42793">
        <ele>1480.8</ele>
        <time>2015-08-12T07:56:21.169Z</time>
      </trkpt>
      <trkpt lat="42.91489" lon="1.4279">
        <ele>1480.7</ele>
        <time>2015-08-12T07:56:22.145Z</time>
      </trkpt>
      <trkpt lat="42.91492" lon="1.4278">
        <ele>1480</ele>
        <time>2015-08-12T07:56:25.169Z</time>
      </trkpt>
      <trkpt lat="42.91492" lon="1.42776">
        <ele>1479.6</ele>
        <time>2015-08-12T07:56:26.144Z</time>
      </trkpt>
      <trkpt lat="42.91497" lon="1.42767">
        <ele>1478.8</ele>
        <time>2015-08-12T07:56:30.200Z</time>
      </trkpt>
      <trkpt lat="42.91497" lon="1.42765">
        <ele>1478.9</ele>
        <time>2015-08-12T07:56:31.144Z</time>
      </trkpt>
      <trkpt lat="42.91501" lon="1.42756">
        <ele>1479.3</ele>
        <time>2015-08-12T07:56:37.166Z</time>
      </trkpt>
      <trkpt lat="42.91503" lon="1.42755">
        <ele>1479.5</ele>
        <time>2015-08-12T07:56:38.158Z</time>
      </trkpt>
      <trkpt lat="42.91507" lon="1.42746">
        <ele>1480.2</ele>
        <time>2015-08-12T07:56:45.170Z</time>
      </trkpt>
      <trkpt lat="42.91508" lon="1.42745">
        <ele>1480.3</ele>
        <time>2015-08-12T07:56:46.145Z</time>
      </trkpt>
      <trkpt lat="42.91512" lon="1.42735">
        <ele>1480.9</ele>
        <time>2015-08-12T07:56:52.166Z</time>
      </trkpt>
      <trkpt lat="42.91512" lon="1.42733">
        <ele>1481</ele>
        <time>2015-08-12T07:56:53.144Z</time>
      </trkpt>
      <trkpt lat="42.91513" lon="1.42722">
        <ele>1482</ele>
        <time>2015-08-12T07:56:59.180Z</time>
      </trkpt>
      <trkpt lat="42.91513" lon="1.4272">
        <ele>1482.3</ele>
        <time>2015-08-12T07:57:00.145Z</time>
      </trkpt>
      <trkpt lat="42.91513" lon="1.42709">
        <ele>1483.8</ele>
        <time>2015-08-12T07:57:06.167Z</time>
      </trkpt>
      <trkpt lat="42.91514" lon="1.42707">
        <ele>1483.8</ele>
        <time>2015-08-12T07:57:07.181Z</time>
      </trkpt>
      <trkpt lat="42.9152" lon="1.42698">
        <ele>1484.5</ele>
        <time>2015-08-12T07:57:14.167Z</time>
      </trkpt>
      <trkpt lat="42.9152" lon="1.42697">
        <ele>1484.9</ele>
        <time>2015-08-12T07:57:15.160Z</time>
      </trkpt>
      <trkpt lat="42.91524" lon="1.42686">
        <ele>1486.3</ele>
        <time>2015-08-12T07:57:23.168Z</time>
      </trkpt>
      <trkpt lat="42.91524" lon="1.42684">
        <ele>1486.6</ele>
        <time>2015-08-12T07:57:24.149Z</time>
      </trkpt>
      <trkpt lat="42.91527" lon="1.42673">
        <ele>1487.9</ele>
        <time>2015-08-12T07:57:32.168Z</time>
      </trkpt>
      <trkpt lat="42.91527" lon="1.42672">
        <ele>1488.1</ele>
        <time>2015-08-12T07:57:33.147Z</time>
      </trkpt>
      <trkpt lat="42.91525" lon="1.4266">
        <ele>1489.4</ele>
        <time>2015-08-12T07:57:39.170Z</time>
      </trkpt>
      <trkpt lat="42.91525" lon="1.42659">
        <ele>1489.7</ele>
        <time>2015-08-12T07:57:40.144Z</time>
      </trkpt>
      <trkpt lat="42.91524" lon="1.42648">
        <ele>1490.6</ele>
        <time>2015-08-12T07:57:50.166Z</time>
      </trkpt>
      <trkpt lat="42.91524" lon="1.42647">
        <ele>1490.7</ele>
        <time>2015-08-12T07:57:51.147Z</time>
      </trkpt>
      <trkpt lat="42.91521" lon="1.42635">
        <ele>1493.9</ele>
        <time>2015-08-12T07:58:07.178Z</time>
      </trkpt>
      <trkpt lat="42.91521" lon="1.42634">
        <ele>1494</ele>
        <time>2015-08-12T07:58:08.144Z</time>
      </trkpt>
      <trkpt lat="42.91521" lon="1.42622">
        <ele>1495.8</ele>
        <time>2015-08-12T07:58:19.166Z</time>
      </trkpt>
      <trkpt lat="42.91521" lon="1.42621">
        <ele>1496</ele>
        <time>2015-08-12T07:58:20.144Z</time>
      </trkpt>
      <trkpt lat="42.91521" lon="1.42609">
        <ele>1497.4</ele>
        <time>2015-08-12T07:58:30.167Z</time>
      </trkpt>
      <trkpt lat="42.91521" lon="1.42608">
        <ele>1497.6</ele>
        <time>2015-08-12T07:58:31.146Z</time>
      </trkpt>
      <trkpt lat="42.91522" lon="1.42597">
        <ele>1498.6</ele>
        <time>2015-08-12T07:58:36.171Z</time>
      </trkpt>
      <trkpt lat="42.91521" lon="1.42594">
        <ele>1498.8</ele>
        <time>2015-08-12T07:58:37.145Z</time>
      </trkpt>
      <trkpt lat="42.91521" lon="1.42583">
        <ele>1500.7</ele>
        <time>2015-08-12T07:58:44.167Z</time>
      </trkpt>
      <trkpt lat="42.91522" lon="1.42581">
        <ele>1500.8</ele>
        <time>2015-08-12T07:58:45.147Z</time>
      </trkpt>
      <trkpt lat="42.9152" lon="1.4257">
        <ele>1501.9</ele>
        <time>2015-08-12T07:58:52.200Z</time>
      </trkpt>
      <trkpt lat="42.9152" lon="1.42567">
        <ele>1502.1</ele>
        <time>2015-08-12T07:58:53.145Z</time>
      </trkpt>
      <trkpt lat="42.91517" lon="1.42557">
        <ele>1503</ele>
        <time>2015-08-12T07:58:58.285Z</time>
      </trkpt>
      <trkpt lat="42.91517" lon="1.42555">
        <ele>1503.2</ele>
        <time>2015-08-12T07:58:59.145Z</time>
      </trkpt>
      <trkpt lat="42.91517" lon="1.42545">
        <ele>1504</ele>
        <time>2015-08-12T07:59:05.167Z</time>
      </trkpt>
      <trkpt lat="42.91517" lon="1.42541">
        <ele>1504.1</ele>
        <time>2015-08-12T07:59:06.158Z</time>
      </trkpt>
      <trkpt lat="42.9152" lon="1.42531">
        <ele>1504.8</ele>
        <time>2015-08-12T07:59:10.167Z</time>
      </trkpt>
      <trkpt lat="42.9152" lon="1.42529">
        <ele>1504.9</ele>
        <time>2015-08-12T07:59:11.145Z</time>
      </trkpt>
      <trkpt lat="42.91521" lon="1.42518">
        <ele>1505.6</ele>
        <time>2015-08-12T07:59:17.166Z</time>
      </trkpt>
      <trkpt lat="42.91521" lon="1.42516">
        <ele>1505.7</ele>
        <time>2015-08-12T07:59:18.145Z</time>
      </trkpt>
      <trkpt lat="42.91519" lon="1.42505">
        <ele>1506.4</ele>
        <time>2015-08-12T07:59:24.168Z</time>
      </trkpt>
      <trkpt lat="42.91519" lon="1.42503">
        <ele>1506.4</ele>
        <time>2015-08-12T07:59:25.144Z</time>
      </trkpt>
      <trkpt lat="42.91521" lon="1.42492">
        <ele>1506.8</ele>
        <time>2015-08-12T07:59:31.167Z</time>
      </trkpt>
      <trkpt lat="42.91521" lon="1.4249">
        <ele>1506.9</ele>
        <time>2015-08-12T07:59:32.145Z</time>
      </trkpt>
      <trkpt lat="42.91518" lon="1.42478">
        <ele>1508.2</ele>
        <time>2015-08-12T07:59:38.167Z</time>
      </trkpt>
      <trkpt lat="42.91518" lon="1.42476">
        <ele>1508.3</ele>
        <time>2015-08-12T07:59:39.147Z</time>
      </trkpt>
      <trkpt lat="42.91513" lon="1.42466">
        <ele>1508.8</ele>
        <time>2015-08-12T07:59:45.168Z</time>
      </trkpt>
      <trkpt lat="42.91513" lon="1.42464">
        <ele>1509</ele>
        <time>2015-08-12T07:59:46.145Z</time>
      </trkpt>
      <trkpt lat="42.91513" lon="1.42461">
        <ele>1509.2</ele>
        <time>2015-08-12T07:59:48.168Z</time>
      </trkpt>
      <trkpt lat="42.91513" lon="1.4246">
        <ele>1509.3</ele>
        <time>2015-08-12T07:59:49.145Z</time>
      </trkpt>
      <trkpt lat="42.91514" lon="1.42449">
        <ele>1509.8</ele>
        <time>2015-08-12T07:59:55.166Z</time>
      </trkpt>
      <trkpt lat="42.91514" lon="1.42448">
        <ele>1509.9</ele>
        <time>2015-08-12T07:59:56.144Z</time>
      </trkpt>
      <trkpt lat="42.91514" lon="1.42448">
        <ele>1509.9</ele>
        <time>2015-08-12T07:59:56.169Z</time>
      </trkpt>
      <trkpt lat="42.91515" lon="1.42447">
        <ele>1510</ele>
        <time>2015-08-12T07:59:57.182Z</time>
      </trkpt>
      <trkpt lat="42.91515" lon="1.42445">
        <ele>1510.1</ele>
        <time>2015-08-12T07:59:58.180Z</time>
      </trkpt>
      <trkpt lat="42.91515" lon="1.42444">
        <ele>1510.1</ele>
        <time>2015-08-12T07:59:59.144Z</time>
      </trkpt>
      <trkpt lat="42.91515" lon="1.42433">
        <ele>1510.7</ele>
        <time>2015-08-12T08:00:07.167Z</time>
      </trkpt>
      <trkpt lat="42.91514" lon="1.4243">
        <ele>1510.9</ele>
        <time>2015-08-12T08:00:08.144Z</time>
      </trkpt>
      <trkpt lat="42.91514" lon="1.4242">
        <ele>1511.1</ele>
        <time>2015-08-12T08:00:12.166Z</time>
      </trkpt>
      <trkpt lat="42.91513" lon="1.42416">
        <ele>1510.9</ele>
        <time>2015-08-12T08:00:13.145Z</time>
      </trkpt>
      <trkpt lat="42.91511" lon="1.42405">
        <ele>1510.4</ele>
        <time>2015-08-12T08:00:17.166Z</time>
      </trkpt>
      <trkpt lat="42.9151" lon="1.42404">
        <ele>1510.3</ele>
        <time>2015-08-12T08:00:18.145Z</time>
      </trkpt>
      <trkpt lat="42.91508" lon="1.42393">
        <ele>1509.9</ele>
        <time>2015-08-12T08:00:24.167Z</time>
      </trkpt>
      <trkpt lat="42.91508" lon="1.42391">
        <ele>1509.8</ele>
        <time>2015-08-12T08:00:25.174Z</time>
      </trkpt>
      <trkpt lat="42.91507" lon="1.4238">
        <ele>1509.1</ele>
        <time>2015-08-12T08:00:31.166Z</time>
      </trkpt>
      <trkpt lat="42.91507" lon="1.42378">
        <ele>1509.1</ele>
        <time>2015-08-12T08:00:32.145Z</time>
      </trkpt>
      <trkpt lat="42.91506" lon="1.42375">
        <ele>1509.1</ele>
        <time>2015-08-12T08:00:34.166Z</time>
      </trkpt>
      <trkpt lat="42.91506" lon="1.42374">
        <ele>1508.8</ele>
        <time>2015-08-12T08:00:35.145Z</time>
      </trkpt>
      <trkpt lat="42.91506" lon="1.4237">
        <ele>1508.5</ele>
        <time>2015-08-12T08:00:37.168Z</time>
      </trkpt>
      <trkpt lat="42.91507" lon="1.42368">
        <ele>1508.3</ele>
        <time>2015-08-12T08:00:38.143Z</time>
      </trkpt>
      <trkpt lat="42.9151" lon="1.42358">
        <ele>1508.1</ele>
        <time>2015-08-12T08:00:41.166Z</time>
      </trkpt>
      <trkpt lat="42.9151" lon="1.42355">
        <ele>1508</ele>
        <time>2015-08-12T08:00:42.179Z</time>
      </trkpt>
      <trkpt lat="42.91507" lon="1.42345">
        <ele>1507.7</ele>
        <time>2015-08-12T08:00:46.166Z</time>
      </trkpt>
      <trkpt lat="42.91508" lon="1.42342">
        <ele>1507.6</ele>
        <time>2015-08-12T08:00:47.143Z</time>
      </trkpt>
      <trkpt lat="42.91507" lon="1.42331">
        <ele>1506.9</ele>
        <time>2015-08-12T08:00:51.180Z</time>
      </trkpt>
      <trkpt lat="42.91507" lon="1.4233">
        <ele>1506.8</ele>
        <time>2015-08-12T08:00:52.143Z</time>
      </trkpt>
      <trkpt lat="42.91506" lon="1.42319">
        <ele>1506.6</ele>
        <time>2015-08-12T08:00:59.204Z</time>
      </trkpt>
      <trkpt lat="42.91506" lon="1.42316">
        <ele>1506.6</ele>
        <time>2015-08-12T08:01:00.144Z</time>
      </trkpt>
      <trkpt lat="42.91506" lon="1.42305">
        <ele>1505.9</ele>
        <time>2015-08-12T08:01:06.166Z</time>
      </trkpt>
      <trkpt lat="42.91507" lon="1.42303">
        <ele>1505.9</ele>
        <time>2015-08-12T08:01:07.157Z</time>
      </trkpt>
      <trkpt lat="42.91507" lon="1.42293">
        <ele>1506</ele>
        <time>2015-08-12T08:01:13.166Z</time>
      </trkpt>
      <trkpt lat="42.91507" lon="1.4229">
        <ele>1505.9</ele>
        <time>2015-08-12T08:01:14.144Z</time>
      </trkpt>
      <trkpt lat="42.91509" lon="1.42279">
        <ele>1505.1</ele>
        <time>2015-08-12T08:01:19.165Z</time>
      </trkpt>
      <trkpt lat="42.9151" lon="1.42276">
        <ele>1504.9</ele>
        <time>2015-08-12T08:01:20.143Z</time>
      </trkpt>
      <trkpt lat="42.91513" lon="1.42266">
        <ele>1504</ele>
        <time>2015-08-12T08:01:27.168Z</time>
      </trkpt>
      <trkpt lat="42.91513" lon="1.42264">
        <ele>1504.1</ele>
        <time>2015-08-12T08:01:28.160Z</time>
      </trkpt>
      <trkpt lat="42.91515" lon="1.42253">
        <ele>1503.9</ele>
        <time>2015-08-12T08:01:34.166Z</time>
      </trkpt>
      <trkpt lat="42.91517" lon="1.42248">
        <ele>1502.2</ele>
        <time>2015-08-12T08:01:35.144Z</time>
      </trkpt>
      <trkpt lat="42.9152" lon="1.42238">
        <ele>1499.9</ele>
        <time>2015-08-12T08:01:38.165Z</time>
      </trkpt>
      <trkpt lat="42.91521" lon="1.42235">
        <ele>1499.3</ele>
        <time>2015-08-12T08:01:39.145Z</time>
      </trkpt>
      <trkpt lat="42.91521" lon="1.42223">
        <ele>1498.1</ele>
        <time>2015-08-12T08:01:43.166Z</time>
      </trkpt>
      <trkpt lat="42.91521" lon="1.42221">
        <ele>1498</ele>
        <time>2015-08-12T08:01:44.156Z</time>
      </trkpt>
      <trkpt lat="42.91523" lon="1.42211">
        <ele>1496.1</ele>
        <time>2015-08-12T08:01:49.178Z</time>
      </trkpt>
      <trkpt lat="42.91524" lon="1.42209">
        <ele>1495.7</ele>
        <time>2015-08-12T08:01:50.145Z</time>
      </trkpt>
      <trkpt lat="42.91523" lon="1.42198">
        <ele>1495.3</ele>
        <time>2015-08-12T08:01:55.165Z</time>
      </trkpt>
      <trkpt lat="42.91522" lon="1.42196">
        <ele>1495.3</ele>
        <time>2015-08-12T08:01:56.143Z</time>
      </trkpt>
      <trkpt lat="42.91522" lon="1.42184">
        <ele>1494.6</ele>
        <time>2015-08-12T08:02:03.168Z</time>
      </trkpt>
      <trkpt lat="42.91522" lon="1.42182">
        <ele>1494.5</ele>
        <time>2015-08-12T08:02:04.144Z</time>
      </trkpt>
      <trkpt lat="42.91523" lon="1.42171">
        <ele>1494.2</ele>
        <time>2015-08-12T08:02:10.179Z</time>
      </trkpt>
      <trkpt lat="42.91524" lon="1.4217">
        <ele>1494.3</ele>
        <time>2015-08-12T08:02:11.144Z</time>
      </trkpt>
      <trkpt lat="42.91521" lon="1.4216">
        <ele>1494.1</ele>
        <time>2015-08-12T08:02:15.179Z</time>
      </trkpt>
      <trkpt lat="42.9152" lon="1.42158">
        <ele>1494.1</ele>
        <time>2015-08-12T08:02:16.144Z</time>
      </trkpt>
      <trkpt lat="42.91518" lon="1.42147">
        <ele>1495</ele>
        <time>2015-08-12T08:02:23.279Z</time>
      </trkpt>
      <trkpt lat="42.91519" lon="1.42144">
        <ele>1495.1</ele>
        <time>2015-08-12T08:02:24.144Z</time>
      </trkpt>
      <trkpt lat="42.91523" lon="1.42134">
        <ele>1496</ele>
        <time>2015-08-12T08:02:30.166Z</time>
      </trkpt>
      <trkpt lat="42.91523" lon="1.42133">
        <ele>1496.2</ele>
        <time>2015-08-12T08:02:31.156Z</time>
      </trkpt>
      <trkpt lat="42.91523" lon="1.42121">
        <ele>1496.9</ele>
        <time>2015-08-12T08:02:38.165Z</time>
      </trkpt>
      <trkpt lat="42.91523" lon="1.4212">
        <ele>1497.1</ele>
        <time>2015-08-12T08:02:39.145Z</time>
      </trkpt>
      <trkpt lat="42.91525" lon="1.42112">
        <ele>1497</ele>
        <time>2015-08-12T08:02:43.165Z</time>
      </trkpt>
      <trkpt lat="42.91527" lon="1.42106">
        <ele>1497.1</ele>
        <time>2015-08-12T08:02:44.144Z</time>
      </trkpt>
      <trkpt lat="42.91528" lon="1.42094">
        <ele>1497.6</ele>
        <time>2015-08-12T08:02:49.166Z</time>
      </trkpt>
      <trkpt lat="42.91529" lon="1.42093">
        <ele>1497.7</ele>
        <time>2015-08-12T08:02:50.144Z</time>
      </trkpt>
      <trkpt lat="42.91532" lon="1.42082">
        <ele>1498.2</ele>
        <time>2015-08-12T08:02:57.179Z</time>
      </trkpt>
      <trkpt lat="42.91532" lon="1.42081">
        <ele>1498.3</ele>
        <time>2015-08-12T08:02:58.144Z</time>
      </trkpt>
      <trkpt lat="42.91535" lon="1.42071">
        <ele>1498.2</ele>
        <time>2015-08-12T08:03:03.167Z</time>
      </trkpt>
      <trkpt lat="42.91536" lon="1.42069">
        <ele>1498.3</ele>
        <time>2015-08-12T08:03:04.144Z</time>
      </trkpt>
      <trkpt lat="42.91537" lon="1.42059">
        <ele>1498</ele>
        <time>2015-08-12T08:03:10.289Z</time>
      </trkpt>
      <trkpt lat="42.91537" lon="1.42057">
        <ele>1498</ele>
        <time>2015-08-12T08:03:11.143Z</time>
      </trkpt>
      <trkpt lat="42.91541" lon="1.42046">
        <ele>1498.4</ele>
        <time>2015-08-12T08:03:18.179Z</time>
      </trkpt>
      <trkpt lat="42.91542" lon="1.42045">
        <ele>1498.4</ele>
        <time>2015-08-12T08:03:19.143Z</time>
      </trkpt>
      <trkpt lat="42.91545" lon="1.42035">
        <ele>1498.3</ele>
        <time>2015-08-12T08:03:24.199Z</time>
      </trkpt>
      <trkpt lat="42.91546" lon="1.42034">
        <ele>1498.3</ele>
        <time>2015-08-12T08:03:25.143Z</time>
      </trkpt>
      <trkpt lat="42.91548" lon="1.42023">
        <ele>1498.7</ele>
        <time>2015-08-12T08:03:31.165Z</time>
      </trkpt>
      <trkpt lat="42.91547" lon="1.4202">
        <ele>1498.7</ele>
        <time>2015-08-12T08:03:32.143Z</time>
      </trkpt>
      <trkpt lat="42.91546" lon="1.42009">
        <ele>1498.7</ele>
        <time>2015-08-12T08:03:38.291Z</time>
      </trkpt>
      <trkpt lat="42.91546" lon="1.42007">
        <ele>1498.7</ele>
        <time>2015-08-12T08:03:39.145Z</time>
      </trkpt>
      <trkpt lat="42.91549" lon="1.41996">
        <ele>1498.9</ele>
        <time>2015-08-12T08:03:47.165Z</time>
      </trkpt>
      <trkpt lat="42.91549" lon="1.41994">
        <ele>1499</ele>
        <time>2015-08-12T08:03:48.143Z</time>
      </trkpt>
      <trkpt lat="42.91552" lon="1.41984">
        <ele>1499.2</ele>
        <time>2015-08-12T08:03:55.179Z</time>
      </trkpt>
      <trkpt lat="42.91552" lon="1.41982">
        <ele>1499.2</ele>
        <time>2015-08-12T08:03:56.143Z</time>
      </trkpt>
      <trkpt lat="42.91555" lon="1.41971">
        <ele>1499.4</ele>
        <time>2015-08-12T08:04:05.166Z</time>
      </trkpt>
      <trkpt lat="42.91556" lon="1.4197">
        <ele>1499.4</ele>
        <time>2015-08-12T08:04:06.144Z</time>
      </trkpt>
      <trkpt lat="42.9156" lon="1.4196">
        <ele>1500</ele>
        <time>2015-08-12T08:04:15.167Z</time>
      </trkpt>
      <trkpt lat="42.9156" lon="1.41959">
        <ele>1500.1</ele>
        <time>2015-08-12T08:04:16.156Z</time>
      </trkpt>
      <trkpt lat="42.91562" lon="1.41948">
        <ele>1500.3</ele>
        <time>2015-08-12T08:04:25.166Z</time>
      </trkpt>
      <trkpt lat="42.91562" lon="1.41947">
        <ele>1500.3</ele>
        <time>2015-08-12T08:04:26.153Z</time>
      </trkpt>
      <trkpt lat="42.91566" lon="1.41936">
        <ele>1502.3</ele>
        <time>2015-08-12T08:04:36.170Z</time>
      </trkpt>
      <trkpt lat="42.91566" lon="1.41935">
        <ele>1502.6</ele>
        <time>2015-08-12T08:04:37.144Z</time>
      </trkpt>
      <trkpt lat="42.9157" lon="1.41924">
        <ele>1504.8</ele>
        <time>2015-08-12T08:04:50.165Z</time>
      </trkpt>
      <trkpt lat="42.91569" lon="1.41923">
        <ele>1505.1</ele>
        <time>2015-08-12T08:04:51.144Z</time>
      </trkpt>
      <trkpt lat="42.91571" lon="1.41913">
        <ele>1505.8</ele>
        <time>2015-08-12T08:05:01.165Z</time>
      </trkpt>
      <trkpt lat="42.91572" lon="1.41911">
        <ele>1506</ele>
        <time>2015-08-12T08:05:02.143Z</time>
      </trkpt>
      <trkpt lat="42.91573" lon="1.419">
        <ele>1507.6</ele>
        <time>2015-08-12T08:05:13.167Z</time>
      </trkpt>
      <trkpt lat="42.91573" lon="1.41898">
        <ele>1507.8</ele>
        <time>2015-08-12T08:05:14.157Z</time>
      </trkpt>
      <trkpt lat="42.91576" lon="1.41888">
        <ele>1509.1</ele>
        <time>2015-08-12T08:05:25.165Z</time>
      </trkpt>
      <trkpt lat="42.91577" lon="1.41887">
        <ele>1509.2</ele>
        <time>2015-08-12T08:05:26.143Z</time>
      </trkpt>
      <trkpt lat="42.91579" lon="1.41876">
        <ele>1511.4</ele>
        <time>2015-08-12T08:05:42.165Z</time>
      </trkpt>
      <trkpt lat="42.91579" lon="1.41875">
        <ele>1511.5</ele>
        <time>2015-08-12T08:05:43.143Z</time>
      </trkpt>
      <trkpt lat="42.9158" lon="1.41864">
        <ele>1512.3</ele>
        <time>2015-08-12T08:05:55.166Z</time>
      </trkpt>
      <trkpt lat="42.91581" lon="1.41862">
        <ele>1512.4</ele>
        <time>2015-08-12T08:05:56.143Z</time>
      </trkpt>
      <trkpt lat="42.91583" lon="1.4185">
        <ele>1514.5</ele>
        <time>2015-08-12T08:06:09.167Z</time>
      </trkpt>
      <trkpt lat="42.91583" lon="1.41849">
        <ele>1514.6</ele>
        <time>2015-08-12T08:06:10.143Z</time>
      </trkpt>
      <trkpt lat="42.91584" lon="1.41838">
        <ele>1516.8</ele>
        <time>2015-08-12T08:06:23.165Z</time>
      </trkpt>
      <trkpt lat="42.91584" lon="1.41837">
        <ele>1517.1</ele>
        <time>2015-08-12T08:06:24.144Z</time>
      </trkpt>
      <trkpt lat="42.91588" lon="1.41827">
        <ele>1519.9</ele>
        <time>2015-08-12T08:06:38.165Z</time>
      </trkpt>
      <trkpt lat="42.91588" lon="1.41826">
        <ele>1520.1</ele>
        <time>2015-08-12T08:06:39.146Z</time>
      </trkpt>
      <trkpt lat="42.91589" lon="1.41814">
        <ele>1523.2</ele>
        <time>2015-08-12T08:06:52.165Z</time>
      </trkpt>
      <trkpt lat="42.91589" lon="1.41813">
        <ele>1523.4</ele>
        <time>2015-08-12T08:06:53.144Z</time>
      </trkpt>
      <trkpt lat="42.91588" lon="1.41802">
        <ele>1526</ele>
        <time>2015-08-12T08:07:04.166Z</time>
      </trkpt>
      <trkpt lat="42.91587" lon="1.418">
        <ele>1526.2</ele>
        <time>2015-08-12T08:07:05.144Z</time>
      </trkpt>
      <trkpt lat="42.91587" lon="1.41788">
        <ele>1527.7</ele>
        <time>2015-08-12T08:07:13.166Z</time>
      </trkpt>
      <trkpt lat="42.91588" lon="1.41787">
        <ele>1527.8</ele>
        <time>2015-08-12T08:07:14.143Z</time>
      </trkpt>
      <trkpt lat="42.91589" lon="1.41775">
        <ele>1529.5</ele>
        <time>2015-08-12T08:07:23.165Z</time>
      </trkpt>
      <trkpt lat="42.91589" lon="1.41773">
        <ele>1529.7</ele>
        <time>2015-08-12T08:07:24.143Z</time>
      </trkpt>
      <trkpt lat="42.9159" lon="1.41761">
        <ele>1530.9</ele>
        <time>2015-08-12T08:07:32.165Z</time>
      </trkpt>
      <trkpt lat="42.9159" lon="1.4176">
        <ele>1531.1</ele>
        <time>2015-08-12T08:07:33.146Z</time>
      </trkpt>
      <trkpt lat="42.91592" lon="1.41749">
        <ele>1532.6</ele>
        <time>2015-08-12T08:07:42.166Z</time>
      </trkpt>
      <trkpt lat="42.91591" lon="1.41748">
        <ele>1532.8</ele>
        <time>2015-08-12T08:07:43.144Z</time>
      </trkpt>
      <trkpt lat="42.91593" lon="1.41736">
        <ele>1534.5</ele>
        <time>2015-08-12T08:07:54.165Z</time>
      </trkpt>
      <trkpt lat="42.91593" lon="1.41735">
        <ele>1534.7</ele>
        <time>2015-08-12T08:07:55.143Z</time>
      </trkpt>
      <trkpt lat="42.91597" lon="1.41725">
        <ele>1536.3</ele>
        <time>2015-08-12T08:08:08.165Z</time>
      </trkpt>
      <trkpt lat="42.91598" lon="1.41724">
        <ele>1536.5</ele>
        <time>2015-08-12T08:08:09.146Z</time>
      </trkpt>
      <trkpt lat="42.91603" lon="1.41716">
        <ele>1538.1</ele>
        <time>2015-08-12T08:08:18.165Z</time>
      </trkpt>
      <trkpt lat="42.91603" lon="1.41714">
        <ele>1538.3</ele>
        <time>2015-08-12T08:08:19.156Z</time>
      </trkpt>
      <trkpt lat="42.91607" lon="1.41703">
        <ele>1539.2</ele>
        <time>2015-08-12T08:08:26.166Z</time>
      </trkpt>
      <trkpt lat="42.91608" lon="1.41702">
        <ele>1539.3</ele>
        <time>2015-08-12T08:08:27.146Z</time>
      </trkpt>
      <trkpt lat="42.91611" lon="1.41692">
        <ele>1539.7</ele>
        <time>2015-08-12T08:08:31.165Z</time>
      </trkpt>
      <trkpt lat="42.91612" lon="1.4169">
        <ele>1539.8</ele>
        <time>2015-08-12T08:08:32.143Z</time>
      </trkpt>
      <trkpt lat="42.91614" lon="1.41679">
        <ele>1540.8</ele>
        <time>2015-08-12T08:08:40.166Z</time>
      </trkpt>
      <trkpt lat="42.91614" lon="1.41677">
        <ele>1540.9</ele>
        <time>2015-08-12T08:08:41.143Z</time>
      </trkpt>
      <trkpt lat="42.91617" lon="1.41666">
        <ele>1541.6</ele>
        <time>2015-08-12T08:08:48.166Z</time>
      </trkpt>
      <trkpt lat="42.91617" lon="1.41663">
        <ele>1541.7</ele>
        <time>2015-08-12T08:08:49.144Z</time>
      </trkpt>
      <trkpt lat="42.9162" lon="1.41653">
        <ele>1542.4</ele>
        <time>2015-08-12T08:08:55.165Z</time>
      </trkpt>
      <trkpt lat="42.9162" lon="1.41651">
        <ele>1542.6</ele>
        <time>2015-08-12T08:08:56.143Z</time>
      </trkpt>
      <trkpt lat="42.91624" lon="1.4164">
        <ele>1543.1</ele>
        <time>2015-08-12T08:09:03.168Z</time>
      </trkpt>
      <trkpt lat="42.91624" lon="1.41637">
        <ele>1543.2</ele>
        <time>2015-08-12T08:09:04.143Z</time>
      </trkpt>
      <trkpt lat="42.91628" lon="1.41627">
        <ele>1543.6</ele>
        <time>2015-08-12T08:09:12.291Z</time>
      </trkpt>
      <trkpt lat="42.91629" lon="1.41626">
        <ele>1543.7</ele>
        <time>2015-08-12T08:09:13.143Z</time>
      </trkpt>
      <trkpt lat="42.91637" lon="1.41622">
        <ele>1544.5</ele>
        <time>2015-08-12T08:09:21.168Z</time>
      </trkpt>
      <trkpt lat="42.91638" lon="1.41622">
        <ele>1544.6</ele>
        <time>2015-08-12T08:09:22.143Z</time>
      </trkpt>
      <trkpt lat="42.91644" lon="1.41615">
        <ele>1546.2</ele>
        <time>2015-08-12T08:09:35.167Z</time>
      </trkpt>
      <trkpt lat="42.91645" lon="1.41614">
        <ele>1546.3</ele>
        <time>2015-08-12T08:09:36.143Z</time>
      </trkpt>
      <trkpt lat="42.9165" lon="1.41605">
        <ele>1547.8</ele>
        <time>2015-08-12T08:09:48.168Z</time>
      </trkpt>
      <trkpt lat="42.9165" lon="1.41603">
        <ele>1547.9</ele>
        <time>2015-08-12T08:09:49.143Z</time>
      </trkpt>
      <trkpt lat="42.91649" lon="1.41592">
        <ele>1548.9</ele>
        <time>2015-08-12T08:09:59.179Z</time>
      </trkpt>
      <trkpt lat="42.91649" lon="1.41591">
        <ele>1549</ele>
        <time>2015-08-12T08:10:00.143Z</time>
      </trkpt>
      <trkpt lat="42.91647" lon="1.4158">
        <ele>1549.5</ele>
        <time>2015-08-12T08:10:10.166Z</time>
      </trkpt>
      <trkpt lat="42.91646" lon="1.41579">
        <ele>1549.6</ele>
        <time>2015-08-12T08:10:11.143Z</time>
      </trkpt>
      <trkpt lat="42.91643" lon="1.41569">
        <ele>1550.6</ele>
        <time>2015-08-12T08:10:20.293Z</time>
      </trkpt>
      <trkpt lat="42.91643" lon="1.41567">
        <ele>1550.7</ele>
        <time>2015-08-12T08:10:21.145Z</time>
      </trkpt>
      <trkpt lat="42.91646" lon="1.41557">
        <ele>1551.9</ele>
        <time>2015-08-12T08:10:32.189Z</time>
      </trkpt>
      <trkpt lat="42.91647" lon="1.41556">
        <ele>1552</ele>
        <time>2015-08-12T08:10:33.146Z</time>
      </trkpt>
      <trkpt lat="42.91648" lon="1.41546">
        <ele>1552.2</ele>
        <time>2015-08-12T08:10:37.167Z</time>
      </trkpt>
      <trkpt lat="42.91648" lon="1.41544">
        <ele>1552.2</ele>
        <time>2015-08-12T08:10:38.143Z</time>
      </trkpt>
      <trkpt lat="42.91646" lon="1.41533">
        <ele>1552.4</ele>
        <time>2015-08-12T08:10:44.165Z</time>
      </trkpt>
      <trkpt lat="42.91646" lon="1.41532">
        <ele>1552.5</ele>
        <time>2015-08-12T08:10:45.146Z</time>
      </trkpt>
      <trkpt lat="42.91647" lon="1.41521">
        <ele>1553</ele>
        <time>2015-08-12T08:10:53.166Z</time>
      </trkpt>
      <trkpt lat="42.91647" lon="1.41519">
        <ele>1553.1</ele>
        <time>2015-08-12T08:10:54.143Z</time>
      </trkpt>
      <trkpt lat="42.91649" lon="1.41507">
        <ele>1553.6</ele>
        <time>2015-08-12T08:11:03.168Z</time>
      </trkpt>
      <trkpt lat="42.9165" lon="1.41506">
        <ele>1553.7</ele>
        <time>2015-08-12T08:11:04.143Z</time>
      </trkpt>
      <trkpt lat="42.91653" lon="1.41495">
        <ele>1554.5</ele>
        <time>2015-08-12T08:11:16.166Z</time>
      </trkpt>
      <trkpt lat="42.91654" lon="1.41494">
        <ele>1554.6</ele>
        <time>2015-08-12T08:11:17.143Z</time>
      </trkpt>
      <trkpt lat="42.91655" lon="1.41484">
        <ele>1555.2</ele>
        <time>2015-08-12T08:11:25.165Z</time>
      </trkpt>
      <trkpt lat="42.91654" lon="1.41482">
        <ele>1555.2</ele>
        <time>2015-08-12T08:11:26.143Z</time>
      </trkpt>
      <trkpt lat="42.91653" lon="1.41471">
        <ele>1555.9</ele>
        <time>2015-08-12T08:11:33.168Z</time>
      </trkpt>
      <trkpt lat="42.91653" lon="1.41469">
        <ele>1556</ele>
        <time>2015-08-12T08:11:34.160Z</time>
      </trkpt>
      <trkpt lat="42.91654" lon="1.41457">
        <ele>1556.9</ele>
        <time>2015-08-12T08:11:44.178Z</time>
      </trkpt>
      <trkpt lat="42.91654" lon="1.41456">
        <ele>1557</ele>
        <time>2015-08-12T08:11:45.145Z</time>
      </trkpt>
      <trkpt lat="42.91656" lon="1.41445">
        <ele>1558.2</ele>
        <time>2015-08-12T08:11:57.168Z</time>
      </trkpt>
      <trkpt lat="42.91656" lon="1.41443">
        <ele>1558.3</ele>
        <time>2015-08-12T08:11:58.143Z</time>
      </trkpt>
      <trkpt lat="42.91657" lon="1.41432">
        <ele>1559.1</ele>
        <time>2015-08-12T08:12:10.166Z</time>
      </trkpt>
      <trkpt lat="42.91658" lon="1.4143">
        <ele>1559.2</ele>
        <time>2015-08-12T08:12:11.143Z</time>
      </trkpt>
      <trkpt lat="42.91662" lon="1.41421">
        <ele>1559.9</ele>
        <time>2015-08-12T08:12:20.166Z</time>
      </trkpt>
      <trkpt lat="42.91662" lon="1.41419">
        <ele>1559.9</ele>
        <time>2015-08-12T08:12:21.158Z</time>
      </trkpt>
      <trkpt lat="42.9166" lon="1.41407">
        <ele>1560.5</ele>
        <time>2015-08-12T08:12:30.166Z</time>
      </trkpt>
      <trkpt lat="42.9166" lon="1.41406">
        <ele>1560.6</ele>
        <time>2015-08-12T08:12:31.144Z</time>
      </trkpt>
      <trkpt lat="42.91661" lon="1.41394">
        <ele>1561.9</ele>
        <time>2015-08-12T08:12:41.166Z</time>
      </trkpt>
      <trkpt lat="42.91661" lon="1.41393">
        <ele>1562.1</ele>
        <time>2015-08-12T08:12:42.143Z</time>
      </trkpt>
      <trkpt lat="42.91663" lon="1.41381">
        <ele>1563.9</ele>
        <time>2015-08-12T08:12:51.168Z</time>
      </trkpt>
      <trkpt lat="42.91663" lon="1.41381">
        <ele>1564</ele>
        <time>2015-08-12T08:12:52.143Z</time>
      </trkpt>
      <trkpt lat="42.9167" lon="1.41374">
        <ele>1566</ele>
        <time>2015-08-12T08:13:04.166Z</time>
      </trkpt>
      <trkpt lat="42.91671" lon="1.41373">
        <ele>1566.1</ele>
        <time>2015-08-12T08:13:05.144Z</time>
      </trkpt>
      <trkpt lat="42.91675" lon="1.41363">
        <ele>1568.2</ele>
        <time>2015-08-12T08:13:20.166Z</time>
      </trkpt>
      <trkpt lat="42.91677" lon="1.41362">
        <ele>1568.3</ele>
        <time>2015-08-12T08:13:21.146Z</time>
      </trkpt>
      <trkpt lat="42.91679" lon="1.41351">
        <ele>1569.9</ele>
        <time>2015-08-12T08:13:33.168Z</time>
      </trkpt>
      <trkpt lat="42.91679" lon="1.4135">
        <ele>1570</ele>
        <time>2015-08-12T08:13:34.174Z</time>
      </trkpt>
      <trkpt lat="42.91675" lon="1.4134">
        <ele>1571.1</ele>
        <time>2015-08-12T08:13:46.166Z</time>
      </trkpt>
      <trkpt lat="42.91675" lon="1.41339">
        <ele>1571.2</ele>
        <time>2015-08-12T08:13:47.143Z</time>
      </trkpt>
      <trkpt lat="42.91675" lon="1.41327">
        <ele>1573</ele>
        <time>2015-08-12T08:14:01.553Z</time>
      </trkpt>
      <trkpt lat="42.91675" lon="1.41327">
        <ele>1573.2</ele>
        <time>2015-08-12T08:14:02.252Z</time>
      </trkpt>
      <trkpt lat="42.91679" lon="1.41316">
        <ele>1574.3</ele>
        <time>2015-08-12T08:14:21.168Z</time>
      </trkpt>
      <trkpt lat="42.91679" lon="1.41316">
        <ele>1574.4</ele>
        <time>2015-08-12T08:14:22.144Z</time>
      </trkpt>
      <trkpt lat="42.91675" lon="1.41307">
        <ele>1575.2</ele>
        <time>2015-08-12T08:14:33.167Z</time>
      </trkpt>
      <trkpt lat="42.91674" lon="1.41304">
        <ele>1575.3</ele>
        <time>2015-08-12T08:14:34.168Z</time>
      </trkpt>
      <trkpt lat="42.91673" lon="1.41292">
        <ele>1576.3</ele>
        <time>2015-08-12T08:14:49.166Z</time>
      </trkpt>
      <trkpt lat="42.91673" lon="1.41292">
        <ele>1576.3</ele>
        <time>2015-08-12T08:14:50.143Z</time>
      </trkpt>
      <trkpt lat="42.91669" lon="1.41282">
        <ele>1577.7</ele>
        <time>2015-08-12T08:15:01.166Z</time>
      </trkpt>
      <trkpt lat="42.91668" lon="1.41281">
        <ele>1577.9</ele>
        <time>2015-08-12T08:15:02.143Z</time>
      </trkpt>
      <trkpt lat="42.91664" lon="1.41271">
        <ele>1580</ele>
        <time>2015-08-12T08:15:16.166Z</time>
      </trkpt>
      <trkpt lat="42.91665" lon="1.4127">
        <ele>1580.2</ele>
        <time>2015-08-12T08:15:17.144Z</time>
      </trkpt>
      <trkpt lat="42.91669" lon="1.41259">
        <ele>1582.9</ele>
        <time>2015-08-12T08:15:31.179Z</time>
      </trkpt>
      <trkpt lat="42.91669" lon="1.41258">
        <ele>1583.1</ele>
        <time>2015-08-12T08:15:32.144Z</time>
      </trkpt>
      <trkpt lat="42.9167" lon="1.41246">
        <ele>1585.6</ele>
        <time>2015-08-12T08:15:46.166Z</time>
      </trkpt>
      <trkpt lat="42.91671" lon="1.41246">
        <ele>1585.7</ele>
        <time>2015-08-12T08:15:47.480Z</time>
      </trkpt>
      <trkpt lat="42.9167" lon="1.41234">
        <ele>1587.5</ele>
        <time>2015-08-12T08:15:59.279Z</time>
      </trkpt>
      <trkpt lat="42.9167" lon="1.41233">
        <ele>1587.6</ele>
        <time>2015-08-12T08:16:00.144Z</time>
      </trkpt>
      <trkpt lat="42.91671" lon="1.41222">
        <ele>1589.9</ele>
        <time>2015-08-12T08:16:15.167Z</time>
      </trkpt>
      <trkpt lat="42.91672" lon="1.41221">
        <ele>1590.2</ele>
        <time>2015-08-12T08:16:16.143Z</time>
      </trkpt>
      <trkpt lat="42.91675" lon="1.4121">
        <ele>1593</ele>
        <time>2015-08-12T08:16:35.166Z</time>
      </trkpt>
      <trkpt lat="42.91676" lon="1.41209">
        <ele>1593.1</ele>
        <time>2015-08-12T08:16:36.143Z</time>
      </trkpt>
      <trkpt lat="42.91682" lon="1.412">
        <ele>1594.3</ele>
        <time>2015-08-12T08:16:47.166Z</time>
      </trkpt>
      <trkpt lat="42.91683" lon="1.412">
        <ele>1594.4</ele>
        <time>2015-08-12T08:16:48.144Z</time>
      </trkpt>
      <trkpt lat="42.91689" lon="1.41191">
        <ele>1596.1</ele>
        <time>2015-08-12T08:17:00.177Z</time>
      </trkpt>
      <trkpt lat="42.91689" lon="1.4119">
        <ele>1596.3</ele>
        <time>2015-08-12T08:17:01.143Z</time>
      </trkpt>
      <trkpt lat="42.91695" lon="1.41181">
        <ele>1598</ele>
        <time>2015-08-12T08:17:13.209Z</time>
      </trkpt>
      <trkpt lat="42.91695" lon="1.4118">
        <ele>1598.1</ele>
        <time>2015-08-12T08:17:14.143Z</time>
      </trkpt>
      <trkpt lat="42.91701" lon="1.4117">
        <ele>1599.7</ele>
        <time>2015-08-12T08:17:28.166Z</time>
      </trkpt>
      <trkpt lat="42.91701" lon="1.4117">
        <ele>1599.8</ele>
        <time>2015-08-12T08:17:29.144Z</time>
      </trkpt>
      <trkpt lat="42.91706" lon="1.41162">
        <ele>1601.6</ele>
        <time>2015-08-12T08:18:00.230Z</time>
      </trkpt>
      <trkpt lat="42.91708" lon="1.41158">
        <ele>1602.6</ele>
        <time>2015-08-12T08:18:01.144Z</time>
      </trkpt>
      <trkpt lat="42.91709" lon="1.41147">
        <ele>1603.5</ele>
        <time>2015-08-12T08:18:11.165Z</time>
      </trkpt>
      <trkpt lat="42.9171" lon="1.41145">
        <ele>1603.6</ele>
        <time>2015-08-12T08:18:12.143Z</time>
      </trkpt>
      <trkpt lat="42.91714" lon="1.41135">
        <ele>1604.1</ele>
        <time>2015-08-12T08:18:20.165Z</time>
      </trkpt>
      <trkpt lat="42.91715" lon="1.41133">
        <ele>1604.1</ele>
        <time>2015-08-12T08:18:21.146Z</time>
      </trkpt>
      <trkpt lat="42.91719" lon="1.41123">
        <ele>1604.8</ele>
        <time>2015-08-12T08:18:30.186Z</time>
      </trkpt>
      <trkpt lat="42.9172" lon="1.41121">
        <ele>1605</ele>
        <time>2015-08-12T08:18:31.143Z</time>
      </trkpt>
      <trkpt lat="42.91725" lon="1.41113">
        <ele>1605.8</ele>
        <time>2015-08-12T08:18:37.165Z</time>
      </trkpt>
      <trkpt lat="42.91726" lon="1.41112">
        <ele>1605.9</ele>
        <time>2015-08-12T08:18:38.144Z</time>
      </trkpt>
      <trkpt lat="42.91731" lon="1.41103">
        <ele>1606.9</ele>
        <time>2015-08-12T08:18:43.165Z</time>
      </trkpt>
      <trkpt lat="42.91732" lon="1.41101">
        <ele>1607.1</ele>
        <time>2015-08-12T08:18:44.143Z</time>
      </trkpt>
      <trkpt lat="42.91737" lon="1.41093">
        <ele>1608.7</ele>
        <time>2015-08-12T08:18:51.167Z</time>
      </trkpt>
      <trkpt lat="42.91738" lon="1.41091">
        <ele>1609</ele>
        <time>2015-08-12T08:18:52.144Z</time>
      </trkpt>
      <trkpt lat="42.91744" lon="1.41083">
        <ele>1610.4</ele>
        <time>2015-08-12T08:18:59.165Z</time>
      </trkpt>
      <trkpt lat="42.91745" lon="1.41082">
        <ele>1610.6</ele>
        <time>2015-08-12T08:19:00.144Z</time>
      </trkpt>
      <trkpt lat="42.91751" lon="1.41073">
        <ele>1612.6</ele>
        <time>2015-08-12T08:19:07.165Z</time>
      </trkpt>
      <trkpt lat="42.91752" lon="1.41073">
        <ele>1612.8</ele>
        <time>2015-08-12T08:19:08.144Z</time>
      </trkpt>
      <trkpt lat="42.91757" lon="1.41064">
        <ele>1614.2</ele>
        <time>2015-08-12T08:19:14.165Z</time>
      </trkpt>
      <trkpt lat="42.91758" lon="1.41063">
        <ele>1614.4</ele>
        <time>2015-08-12T08:19:15.146Z</time>
      </trkpt>
      <trkpt lat="42.91763" lon="1.41056">
        <ele>1615.3</ele>
        <time>2015-08-12T08:19:21.167Z</time>
      </trkpt>
      <trkpt lat="42.91764" lon="1.41055">
        <ele>1615.5</ele>
        <time>2015-08-12T08:19:22.155Z</time>
      </trkpt>
      <trkpt lat="42.9177" lon="1.41047">
        <ele>1616.4</ele>
        <time>2015-08-12T08:19:28.165Z</time>
      </trkpt>
      <trkpt lat="42.91771" lon="1.41046">
        <ele>1616.5</ele>
        <time>2015-08-12T08:19:29.144Z</time>
      </trkpt>
      <trkpt lat="42.91773" lon="1.41036">
        <ele>1617.4</ele>
        <time>2015-08-12T08:21:04.184Z</time>
      </trkpt>
      <trkpt lat="42.91774" lon="1.41031">
        <ele>1615.9</ele>
        <time>2015-08-12T08:21:05.143Z</time>
      </trkpt>
      <trkpt lat="42.91769" lon="1.41025">
        <ele>1615.6</ele>
        <time>2015-08-12T08:21:10.165Z</time>
      </trkpt>
      <trkpt lat="42.91767" lon="1.41023">
        <ele>1615.5</ele>
        <time>2015-08-12T08:21:11.144Z</time>
      </trkpt>
      <trkpt lat="42.91763" lon="1.41014">
        <ele>1615</ele>
        <time>2015-08-12T08:21:16.165Z</time>
      </trkpt>
      <trkpt lat="42.91762" lon="1.41013">
        <ele>1615</ele>
        <time>2015-08-12T08:21:17.144Z</time>
      </trkpt>
      <trkpt lat="42.91759" lon="1.41002">
        <ele>1614.9</ele>
        <time>2015-08-12T08:21:22.165Z</time>
      </trkpt>
      <trkpt lat="42.91758" lon="1.41">
        <ele>1614.9</ele>
        <time>2015-08-12T08:21:23.143Z</time>
      </trkpt>
      <trkpt lat="42.91755" lon="1.40991">
        <ele>1614.6</ele>
        <time>2015-08-12T08:21:28.165Z</time>
      </trkpt>
      <trkpt lat="42.91754" lon="1.40989">
        <ele>1614.5</ele>
        <time>2015-08-12T08:21:29.143Z</time>
      </trkpt>
      <trkpt lat="42.91749" lon="1.40979">
        <ele>1613.8</ele>
        <time>2015-08-12T08:21:34.165Z</time>
      </trkpt>
      <trkpt lat="42.91749" lon="1.40977">
        <ele>1613.5</ele>
        <time>2015-08-12T08:21:35.144Z</time>
      </trkpt>
      <trkpt lat="42.91745" lon="1.40967">
        <ele>1612.3</ele>
        <time>2015-08-12T08:21:40.165Z</time>
      </trkpt>
      <trkpt lat="42.91744" lon="1.40965">
        <ele>1612.2</ele>
        <time>2015-08-12T08:21:41.144Z</time>
      </trkpt>
      <trkpt lat="42.91741" lon="1.40955">
        <ele>1610.7</ele>
        <time>2015-08-12T08:21:46.186Z</time>
      </trkpt>
      <trkpt lat="42.9174" lon="1.40953">
        <ele>1610.4</ele>
        <time>2015-08-12T08:21:47.143Z</time>
      </trkpt>
      <trkpt lat="42.91737" lon="1.40943">
        <ele>1608.7</ele>
        <time>2015-08-12T08:21:52.165Z</time>
      </trkpt>
      <trkpt lat="42.91736" lon="1.40941">
        <ele>1608.3</ele>
        <time>2015-08-12T08:21:53.143Z</time>
      </trkpt>
      <trkpt lat="42.91734" lon="1.40929">
        <ele>1607.1</ele>
        <time>2015-08-12T08:21:57.168Z</time>
      </trkpt>
      <trkpt lat="42.91733" lon="1.40926">
        <ele>1606.8</ele>
        <time>2015-08-12T08:21:58.143Z</time>
      </trkpt>
      <trkpt lat="42.91731" lon="1.40917">
        <ele>1605.7</ele>
        <time>2015-08-12T08:22:01.165Z</time>
      </trkpt>
      <trkpt lat="42.91731" lon="1.40913">
        <ele>1605.3</ele>
        <time>2015-08-12T08:22:02.143Z</time>
      </trkpt>
      <trkpt lat="42.91727" lon="1.40903">
        <ele>1603.2</ele>
        <time>2015-08-12T08:22:06.166Z</time>
      </trkpt>
      <trkpt lat="42.91727" lon="1.40901">
        <ele>1602.7</ele>
        <time>2015-08-12T08:22:07.144Z</time>
      </trkpt>
      <trkpt lat="42.91724" lon="1.4089">
        <ele>1600.7</ele>
        <time>2015-08-12T08:22:11.166Z</time>
      </trkpt>
      <trkpt lat="42.91722" lon="1.40888">
        <ele>1600.2</ele>
        <time>2015-08-12T08:22:12.143Z</time>
      </trkpt>
      <trkpt lat="42.91719" lon="1.40877">
        <ele>1597.5</ele>
        <time>2015-08-12T08:22:16.165Z</time>
      </trkpt>
      <trkpt lat="42.91719" lon="1.40874">
        <ele>1596.9</ele>
        <time>2015-08-12T08:22:17.144Z</time>
      </trkpt>
      <trkpt lat="42.91716" lon="1.40863">
        <ele>1594.5</ele>
        <time>2015-08-12T08:22:21.167Z</time>
      </trkpt>
      <trkpt lat="42.91715" lon="1.4086">
        <ele>1593.9</ele>
        <time>2015-08-12T08:22:22.143Z</time>
      </trkpt>
      <trkpt lat="42.91712" lon="1.40849">
        <ele>1591.2</ele>
        <time>2015-08-12T08:22:26.166Z</time>
      </trkpt>
      <trkpt lat="42.91711" lon="1.40846">
        <ele>1591</ele>
        <time>2015-08-12T08:22:27.146Z</time>
      </trkpt>
      <trkpt lat="42.91708" lon="1.40837">
        <ele>1588.9</ele>
        <time>2015-08-12T08:22:30.165Z</time>
      </trkpt>
      <trkpt lat="42.91708" lon="1.40834">
        <ele>1588.2</ele>
        <time>2015-08-12T08:22:31.155Z</time>
      </trkpt>
      <trkpt lat="42.91706" lon="1.40824">
        <ele>1585.9</ele>
        <time>2015-08-12T08:22:35.166Z</time>
      </trkpt>
      <trkpt lat="42.91705" lon="1.40821">
        <ele>1585.5</ele>
        <time>2015-08-12T08:22:36.263Z</time>
      </trkpt>
      <trkpt lat="42.91703" lon="1.4081">
        <ele>1583.8</ele>
        <time>2015-08-12T08:22:40.165Z</time>
      </trkpt>
      <trkpt lat="42.91703" lon="1.40807">
        <ele>1583.4</ele>
        <time>2015-08-12T08:22:41.144Z</time>
      </trkpt>
      <trkpt lat="42.91701" lon="1.40796">
        <ele>1581.6</ele>
        <time>2015-08-12T08:22:45.278Z</time>
      </trkpt>
      <trkpt lat="42.917" lon="1.40793">
        <ele>1580.3</ele>
        <time>2015-08-12T08:22:46.144Z</time>
      </trkpt>
      <trkpt lat="42.91699" lon="1.40783">
        <ele>1578</ele>
        <time>2015-08-12T08:22:50.165Z</time>
      </trkpt>
      <trkpt lat="42.91698" lon="1.40781">
        <ele>1577.1</ele>
        <time>2015-08-12T08:22:51.145Z</time>
      </trkpt>
      <trkpt lat="42.91695" lon="1.40769">
        <ele>1575.5</ele>
        <time>2015-08-12T08:22:55.165Z</time>
      </trkpt>
      <trkpt lat="42.91695" lon="1.40767">
        <ele>1575.5</ele>
        <time>2015-08-12T08:22:56.144Z</time>
      </trkpt>
      <trkpt lat="42.91693" lon="1.40757">
        <ele>1574</ele>
        <time>2015-08-12T08:23:00.289Z</time>
      </trkpt>
      <trkpt lat="42.91692" lon="1.40755">
        <ele>1573.5</ele>
        <time>2015-08-12T08:23:01.143Z</time>
      </trkpt>
      <trkpt lat="42.9169" lon="1.40743">
        <ele>1570.2</ele>
        <time>2015-08-12T08:23:06.165Z</time>
      </trkpt>
      <trkpt lat="42.91689" lon="1.40742">
        <ele>1569.9</ele>
        <time>2015-08-12T08:23:07.143Z</time>
      </trkpt>
      <trkpt lat="42.91687" lon="1.40732">
        <ele>1568.3</ele>
        <time>2015-08-12T08:23:11.166Z</time>
      </trkpt>
      <trkpt lat="42.91686" lon="1.40729">
        <ele>1567.9</ele>
        <time>2015-08-12T08:23:12.143Z</time>
      </trkpt>
      <trkpt lat="42.91684" lon="1.4072">
        <ele>1565.6</ele>
        <time>2015-08-12T08:23:16.165Z</time>
      </trkpt>
      <trkpt lat="42.91684" lon="1.40717">
        <ele>1565.2</ele>
        <time>2015-08-12T08:23:17.152Z</time>
      </trkpt>
      <trkpt lat="42.91681" lon="1.40706">
        <ele>1563.1</ele>
        <time>2015-08-12T08:23:22.166Z</time>
      </trkpt>
      <trkpt lat="42.9168" lon="1.40704">
        <ele>1562.8</ele>
        <time>2015-08-12T08:23:23.144Z</time>
      </trkpt>
      <trkpt lat="42.91677" lon="1.40693">
        <ele>1560.8</ele>
        <time>2015-08-12T08:23:29.177Z</time>
      </trkpt>
      <trkpt lat="42.91677" lon="1.4069">
        <ele>1560.5</ele>
        <time>2015-08-12T08:23:30.143Z</time>
      </trkpt>
      <trkpt lat="42.91675" lon="1.40679">
        <ele>1558.9</ele>
        <time>2015-08-12T08:23:34.177Z</time>
      </trkpt>
      <trkpt lat="42.91675" lon="1.40677">
        <ele>1558.7</ele>
        <time>2015-08-12T08:23:35.144Z</time>
      </trkpt>
      <trkpt lat="42.91674" lon="1.40666">
        <ele>1556.8</ele>
        <time>2015-08-12T08:23:40.165Z</time>
      </trkpt>
      <trkpt lat="42.91673" lon="1.40664">
        <ele>1556.5</ele>
        <time>2015-08-12T08:23:41.143Z</time>
      </trkpt>
      <trkpt lat="42.9167" lon="1.40655">
        <ele>1554.7</ele>
        <time>2015-08-12T08:23:45.179Z</time>
      </trkpt>
      <trkpt lat="42.91669" lon="1.40652">
        <ele>1554.5</ele>
        <time>2015-08-12T08:23:46.144Z</time>
      </trkpt>
      <trkpt lat="42.91666" lon="1.40643">
        <ele>1552.9</ele>
        <time>2015-08-12T08:23:50.177Z</time>
      </trkpt>
      <trkpt lat="42.91666" lon="1.40641">
        <ele>1552.6</ele>
        <time>2015-08-12T08:23:51.188Z</time>
      </trkpt>
      <trkpt lat="42.91663" lon="1.4063">
        <ele>1551</ele>
        <time>2015-08-12T08:23:56.165Z</time>
      </trkpt>
      <trkpt lat="42.91663" lon="1.40628">
        <ele>1550.7</ele>
        <time>2015-08-12T08:23:57.146Z</time>
      </trkpt>
      <trkpt lat="42.91661" lon="1.40617">
        <ele>1548.7</ele>
        <time>2015-08-12T08:24:02.165Z</time>
      </trkpt>
      <trkpt lat="42.91661" lon="1.40615">
        <ele>1548.3</ele>
        <time>2015-08-12T08:24:03.145Z</time>
      </trkpt>
      <trkpt lat="42.9166" lon="1.40605">
        <ele>1546.8</ele>
        <time>2015-08-12T08:24:08.214Z</time>
      </trkpt>
      <trkpt lat="42.9166" lon="1.40603">
        <ele>1546.3</ele>
        <time>2015-08-12T08:24:09.146Z</time>
      </trkpt>
      <trkpt lat="42.91661" lon="1.40592">
        <ele>1542.9</ele>
        <time>2015-08-12T08:46:29.244Z</time>
      </trkpt>
      <trkpt lat="42.9166" lon="1.40589">
        <ele>1541</ele>
        <time>2015-08-12T08:46:30.145Z</time>
      </trkpt>
      <trkpt lat="42.91659" lon="1.40578">
        <ele>1541.2</ele>
        <time>2015-08-12T08:46:35.168Z</time>
      </trkpt>
      <trkpt lat="42.91659" lon="1.40576">
        <ele>1541.3</ele>
        <time>2015-08-12T08:46:36.146Z</time>
      </trkpt>
      <trkpt lat="42.91659" lon="1.40564">
        <ele>1540.6</ele>
        <time>2015-08-12T08:46:41.165Z</time>
      </trkpt>
      <trkpt lat="42.9166" lon="1.40562">
        <ele>1540.4</ele>
        <time>2015-08-12T08:46:42.178Z</time>
      </trkpt>
      <trkpt lat="42.9166" lon="1.40551">
        <ele>1539.8</ele>
        <time>2015-08-12T08:46:47.166Z</time>
      </trkpt>
      <trkpt lat="42.9166" lon="1.40549">
        <ele>1539.6</ele>
        <time>2015-08-12T08:46:48.157Z</time>
      </trkpt>
      <trkpt lat="42.91659" lon="1.40537">
        <ele>1538.6</ele>
        <time>2015-08-12T08:46:53.180Z</time>
      </trkpt>
      <trkpt lat="42.91659" lon="1.40534">
        <ele>1538.4</ele>
        <time>2015-08-12T08:46:54.155Z</time>
      </trkpt>
      <trkpt lat="42.91658" lon="1.40524">
        <ele>1538</ele>
        <time>2015-08-12T08:46:58.166Z</time>
      </trkpt>
      <trkpt lat="42.91657" lon="1.40522">
        <ele>1537.9</ele>
        <time>2015-08-12T08:46:59.147Z</time>
      </trkpt>
      <trkpt lat="42.91654" lon="1.40513">
        <ele>1537.4</ele>
        <time>2015-08-12T08:47:04.408Z</time>
      </trkpt>
      <trkpt lat="42.91653" lon="1.4051">
        <ele>1537.2</ele>
        <time>2015-08-12T08:47:05.144Z</time>
      </trkpt>
      <trkpt lat="42.91651" lon="1.405">
        <ele>1536.6</ele>
        <time>2015-08-12T08:47:09.169Z</time>
      </trkpt>
      <trkpt lat="42.91651" lon="1.40497">
        <ele>1536.4</ele>
        <time>2015-08-12T08:47:10.145Z</time>
      </trkpt>
      <trkpt lat="42.9165" lon="1.40487">
        <ele>1535.4</ele>
        <time>2015-08-12T08:47:15.171Z</time>
      </trkpt>
      <trkpt lat="42.9165" lon="1.40484">
        <ele>1535.3</ele>
        <time>2015-08-12T08:47:16.144Z</time>
      </trkpt>
      <trkpt lat="42.91648" lon="1.40472">
        <ele>1534.3</ele>
        <time>2015-08-12T08:47:22.165Z</time>
      </trkpt>
      <trkpt lat="42.91648" lon="1.4047">
        <ele>1534.1</ele>
        <time>2015-08-12T08:47:23.144Z</time>
      </trkpt>
      <trkpt lat="42.91645" lon="1.40461">
        <ele>1533.5</ele>
        <time>2015-08-12T08:47:28.164Z</time>
      </trkpt>
      <trkpt lat="42.91644" lon="1.40459">
        <ele>1533.4</ele>
        <time>2015-08-12T08:47:29.144Z</time>
      </trkpt>
      <trkpt lat="42.91639" lon="1.40449">
        <ele>1532.4</ele>
        <time>2015-08-12T08:47:34.167Z</time>
      </trkpt>
      <trkpt lat="42.91638" lon="1.40447">
        <ele>1532</ele>
        <time>2015-08-12T08:47:35.144Z</time>
      </trkpt>
      <trkpt lat="42.91633" lon="1.40436">
        <ele>1530.3</ele>
        <time>2015-08-12T08:47:40.167Z</time>
      </trkpt>
      <trkpt lat="42.91633" lon="1.40435">
        <ele>1529.9</ele>
        <time>2015-08-12T08:47:41.157Z</time>
      </trkpt>
      <trkpt lat="42.9163" lon="1.40423">
        <ele>1528.3</ele>
        <time>2015-08-12T08:47:47.174Z</time>
      </trkpt>
      <trkpt lat="42.91629" lon="1.40421">
        <ele>1528.1</ele>
        <time>2015-08-12T08:47:48.144Z</time>
      </trkpt>
      <trkpt lat="42.91627" lon="1.4041">
        <ele>1527.5</ele>
        <time>2015-08-12T08:47:53.165Z</time>
      </trkpt>
      <trkpt lat="42.91627" lon="1.40409">
        <ele>1527.4</ele>
        <time>2015-08-12T08:47:54.542Z</time>
      </trkpt>
      <trkpt lat="42.91625" lon="1.40399">
        <ele>1526.4</ele>
        <time>2015-08-12T08:47:59.229Z</time>
      </trkpt>
      <trkpt lat="42.91625" lon="1.40397">
        <ele>1526.2</ele>
        <time>2015-08-12T08:48:00.143Z</time>
      </trkpt>
      <trkpt lat="42.91622" lon="1.40385">
        <ele>1524.7</ele>
        <time>2015-08-12T08:48:05.166Z</time>
      </trkpt>
      <trkpt lat="42.91621" lon="1.40384">
        <ele>1524.3</ele>
        <time>2015-08-12T08:48:06.145Z</time>
      </trkpt>
      <trkpt lat="42.91621" lon="1.40372">
        <ele>1522.4</ele>
        <time>2015-08-12T08:48:11.166Z</time>
      </trkpt>
      <trkpt lat="42.9162" lon="1.4037">
        <ele>1522.1</ele>
        <time>2015-08-12T08:48:12.143Z</time>
      </trkpt>
      <trkpt lat="42.91619" lon="1.40359">
        <ele>1520.7</ele>
        <time>2015-08-12T08:48:17.166Z</time>
      </trkpt>
      <trkpt lat="42.91618" lon="1.40357">
        <ele>1520.4</ele>
        <time>2015-08-12T08:48:18.145Z</time>
      </trkpt>
      <trkpt lat="42.91615" lon="1.40347">
        <ele>1518.9</ele>
        <time>2015-08-12T08:48:23.165Z</time>
      </trkpt>
      <trkpt lat="42.91615" lon="1.40345">
        <ele>1518.7</ele>
        <time>2015-08-12T08:48:24.143Z</time>
      </trkpt>
      <trkpt lat="42.91614" lon="1.40334">
        <ele>1518.4</ele>
        <time>2015-08-12T08:48:28.179Z</time>
      </trkpt>
      <trkpt lat="42.91613" lon="1.40332">
        <ele>1518</ele>
        <time>2015-08-12T08:48:29.143Z</time>
      </trkpt>
      <trkpt lat="42.91611" lon="1.40321">
        <ele>1516.4</ele>
        <time>2015-08-12T08:48:34.165Z</time>
      </trkpt>
      <trkpt lat="42.9161" lon="1.40319">
        <ele>1516.1</ele>
        <time>2015-08-12T08:48:35.144Z</time>
      </trkpt>
      <trkpt lat="42.9161" lon="1.40309">
        <ele>1514.7</ele>
        <time>2015-08-12T08:48:39.167Z</time>
      </trkpt>
      <trkpt lat="42.9161" lon="1.40306">
        <ele>1514.3</ele>
        <time>2015-08-12T08:48:40.144Z</time>
      </trkpt>
      <trkpt lat="42.91608" lon="1.40294">
        <ele>1512.8</ele>
        <time>2015-08-12T08:48:45.168Z</time>
      </trkpt>
      <trkpt lat="42.91608" lon="1.40292">
        <ele>1512.4</ele>
        <time>2015-08-12T08:48:46.143Z</time>
      </trkpt>
      <trkpt lat="42.91607" lon="1.40281">
        <ele>1510.7</ele>
        <time>2015-08-12T08:48:51.169Z</time>
      </trkpt>
      <trkpt lat="42.91607" lon="1.40279">
        <ele>1510.4</ele>
        <time>2015-08-12T08:48:52.144Z</time>
      </trkpt>
      <trkpt lat="42.91607" lon="1.40268">
        <ele>1508.5</ele>
        <time>2015-08-12T08:48:57.167Z</time>
      </trkpt>
      <trkpt lat="42.91607" lon="1.40266">
        <ele>1508.2</ele>
        <time>2015-08-12T08:48:58.144Z</time>
      </trkpt>
      <trkpt lat="42.91607" lon="1.40255">
        <ele>1506.5</ele>
        <time>2015-08-12T08:49:02.165Z</time>
      </trkpt>
      <trkpt lat="42.91607" lon="1.40253">
        <ele>1506</ele>
        <time>2015-08-12T08:49:03.147Z</time>
      </trkpt>
      <trkpt lat="42.91605" lon="1.40242">
        <ele>1503.3</ele>
        <time>2015-08-12T08:49:08.164Z</time>
      </trkpt>
      <trkpt lat="42.91605" lon="1.40239">
        <ele>1502.8</ele>
        <time>2015-08-12T08:49:09.145Z</time>
      </trkpt>
      <trkpt lat="42.91607" lon="1.40229">
        <ele>1500.3</ele>
        <time>2015-08-12T08:49:14.167Z</time>
      </trkpt>
      <trkpt lat="42.91607" lon="1.40227">
        <ele>1499.8</ele>
        <time>2015-08-12T08:49:15.145Z</time>
      </trkpt>
      <trkpt lat="42.91606" lon="1.40216">
        <ele>1498.1</ele>
        <time>2015-08-12T08:49:20.165Z</time>
      </trkpt>
      <trkpt lat="42.91606" lon="1.40214">
        <ele>1497.8</ele>
        <time>2015-08-12T08:49:21.145Z</time>
      </trkpt>
      <trkpt lat="42.91608" lon="1.40203">
        <ele>1496.2</ele>
        <time>2015-08-12T08:49:27.172Z</time>
      </trkpt>
      <trkpt lat="42.91609" lon="1.40201">
        <ele>1495.9</ele>
        <time>2015-08-12T08:49:28.144Z</time>
      </trkpt>
      <trkpt lat="42.91611" lon="1.4019">
        <ele>1493.3</ele>
        <time>2015-08-12T08:49:34.215Z</time>
      </trkpt>
      <trkpt lat="42.91611" lon="1.40189">
        <ele>1493</ele>
        <time>2015-08-12T08:49:35.143Z</time>
      </trkpt>
      <trkpt lat="42.91613" lon="1.40179">
        <ele>1491.6</ele>
        <time>2015-08-12T08:49:40.189Z</time>
      </trkpt>
      <trkpt lat="42.91614" lon="1.40176">
        <ele>1491.3</ele>
        <time>2015-08-12T08:49:41.144Z</time>
      </trkpt>
      <trkpt lat="42.91615" lon="1.40165">
        <ele>1489.7</ele>
        <time>2015-08-12T08:49:47.178Z</time>
      </trkpt>
      <trkpt lat="42.91615" lon="1.40163">
        <ele>1489.3</ele>
        <time>2015-08-12T08:49:48.144Z</time>
      </trkpt>
      <trkpt lat="42.91615" lon="1.40151">
        <ele>1487.6</ele>
        <time>2015-08-12T08:49:53.165Z</time>
      </trkpt>
      <trkpt lat="42.91615" lon="1.40149">
        <ele>1487.3</ele>
        <time>2015-08-12T08:49:54.162Z</time>
      </trkpt>
      <trkpt lat="42.91615" lon="1.40138">
        <ele>1485.7</ele>
        <time>2015-08-12T08:49:59.165Z</time>
      </trkpt>
      <trkpt lat="42.91616" lon="1.40136">
        <ele>1485.2</ele>
        <time>2015-08-12T08:50:00.289Z</time>
      </trkpt>
      <trkpt lat="42.91619" lon="1.40126">
        <ele>1483.9</ele>
        <time>2015-08-12T08:50:05.216Z</time>
      </trkpt>
      <trkpt lat="42.91619" lon="1.40124">
        <ele>1483.5</ele>
        <time>2015-08-12T08:50:06.144Z</time>
      </trkpt>
      <trkpt lat="42.9162" lon="1.40113">
        <ele>1481.8</ele>
        <time>2015-08-12T08:50:12.164Z</time>
      </trkpt>
      <trkpt lat="42.91621" lon="1.40111">
        <ele>1481.4</ele>
        <time>2015-08-12T08:50:13.144Z</time>
      </trkpt>
      <trkpt lat="42.91623" lon="1.40099">
        <ele>1479</ele>
        <time>2015-08-12T08:50:19.165Z</time>
      </trkpt>
      <trkpt lat="42.91623" lon="1.40097">
        <ele>1478.7</ele>
        <time>2015-08-12T08:50:20.143Z</time>
      </trkpt>
      <trkpt lat="42.91624" lon="1.40085">
        <ele>1476.9</ele>
        <time>2015-08-12T08:50:26.166Z</time>
      </trkpt>
      <trkpt lat="42.91624" lon="1.40084">
        <ele>1476.6</ele>
        <time>2015-08-12T08:50:27.146Z</time>
      </trkpt>
      <trkpt lat="42.91623" lon="1.40072">
        <ele>1474.6</ele>
        <time>2015-08-12T08:50:33.169Z</time>
      </trkpt>
      <trkpt lat="42.91622" lon="1.4007">
        <ele>1474.3</ele>
        <time>2015-08-12T08:50:34.144Z</time>
      </trkpt>
      <trkpt lat="42.9162" lon="1.40059">
        <ele>1472.3</ele>
        <time>2015-08-12T08:50:40.166Z</time>
      </trkpt>
      <trkpt lat="42.9162" lon="1.40057">
        <ele>1471.9</ele>
        <time>2015-08-12T08:50:41.144Z</time>
      </trkpt>
      <trkpt lat="42.91622" lon="1.40046">
        <ele>1469.8</ele>
        <time>2015-08-12T08:50:47.167Z</time>
      </trkpt>
      <trkpt lat="42.91622" lon="1.40043">
        <ele>1469.4</ele>
        <time>2015-08-12T08:50:48.144Z</time>
      </trkpt>
      <trkpt lat="42.91619" lon="1.40033">
        <ele>1467.6</ele>
        <time>2015-08-12T08:50:53.169Z</time>
      </trkpt>
      <trkpt lat="42.91619" lon="1.40032">
        <ele>1467.3</ele>
        <time>2015-08-12T08:50:54.143Z</time>
      </trkpt>
      <trkpt lat="42.9162" lon="1.40021">
        <ele>1465.5</ele>
        <time>2015-08-12T08:51:01.178Z</time>
      </trkpt>
      <trkpt lat="42.9162" lon="1.40019">
        <ele>1465.3</ele>
        <time>2015-08-12T08:51:02.144Z</time>
      </trkpt>
      <trkpt lat="42.91619" lon="1.40009">
        <ele>1463.7</ele>
        <time>2015-08-12T08:51:07.166Z</time>
      </trkpt>
      <trkpt lat="42.91619" lon="1.40006">
        <ele>1463.4</ele>
        <time>2015-08-12T08:51:08.143Z</time>
      </trkpt>
      <trkpt lat="42.91617" lon="1.39995">
        <ele>1461.6</ele>
        <time>2015-08-12T08:51:13.263Z</time>
      </trkpt>
      <trkpt lat="42.91617" lon="1.39994">
        <ele>1461.3</ele>
        <time>2015-08-12T08:51:14.144Z</time>
      </trkpt>
      <trkpt lat="42.91618" lon="1.39982">
        <ele>1459.3</ele>
        <time>2015-08-12T08:51:20.166Z</time>
      </trkpt>
      <trkpt lat="42.91619" lon="1.39979">
        <ele>1459</ele>
        <time>2015-08-12T08:51:21.146Z</time>
      </trkpt>
      <trkpt lat="42.9162" lon="1.39967">
        <ele>1457.2</ele>
        <time>2015-08-12T08:51:27.179Z</time>
      </trkpt>
      <trkpt lat="42.9162" lon="1.39965">
        <ele>1456.8</ele>
        <time>2015-08-12T08:51:28.144Z</time>
      </trkpt>
      <trkpt lat="42.91619" lon="1.39956">
        <ele>1455.9</ele>
        <time>2015-08-12T08:51:32.186Z</time>
      </trkpt>
      <trkpt lat="42.91618" lon="1.39953">
        <ele>1455.6</ele>
        <time>2015-08-12T08:51:33.146Z</time>
      </trkpt>
      <trkpt lat="42.91617" lon="1.39941">
        <ele>1454.2</ele>
        <time>2015-08-12T08:51:38.165Z</time>
      </trkpt>
      <trkpt lat="42.91616" lon="1.3994">
        <ele>1453.9</ele>
        <time>2015-08-12T08:51:39.146Z</time>
      </trkpt>
      <trkpt lat="42.9161" lon="1.39932">
        <ele>1452</ele>
        <time>2015-08-12T08:51:45.167Z</time>
      </trkpt>
      <trkpt lat="42.9161" lon="1.3993">
        <ele>1451.7</ele>
        <time>2015-08-12T08:51:46.145Z</time>
      </trkpt>
      <trkpt lat="42.91613" lon="1.39919">
        <ele>1451.7</ele>
        <time>2015-08-12T08:51:51.168Z</time>
      </trkpt>
      <trkpt lat="42.91613" lon="1.39917">
        <ele>1451.6</ele>
        <time>2015-08-12T08:51:52.144Z</time>
      </trkpt>
      <trkpt lat="42.91612" lon="1.39905">
        <ele>1450.2</ele>
        <time>2015-08-12T08:51:58.178Z</time>
      </trkpt>
      <trkpt lat="42.91613" lon="1.39903">
        <ele>1449.9</ele>
        <time>2015-08-12T08:51:59.144Z</time>
      </trkpt>
      <trkpt lat="42.91611" lon="1.39893">
        <ele>1448.8</ele>
        <time>2015-08-12T08:52:05.165Z</time>
      </trkpt>
      <trkpt lat="42.91611" lon="1.3989">
        <ele>1448.7</ele>
        <time>2015-08-12T08:52:06.144Z</time>
      </trkpt>
      <trkpt lat="42.91613" lon="1.39879">
        <ele>1447.9</ele>
        <time>2015-08-12T08:52:12.165Z</time>
      </trkpt>
      <trkpt lat="42.91613" lon="1.39877">
        <ele>1447.8</ele>
        <time>2015-08-12T08:52:13.144Z</time>
      </trkpt>
      <trkpt lat="42.91612" lon="1.39865">
        <ele>1446.7</ele>
        <time>2015-08-12T08:52:20.165Z</time>
      </trkpt>
      <trkpt lat="42.91612" lon="1.39863">
        <ele>1446.6</ele>
        <time>2015-08-12T08:52:21.146Z</time>
      </trkpt>
      <trkpt lat="42.91611" lon="1.39851">
        <ele>1445.7</ele>
        <time>2015-08-12T08:52:26.164Z</time>
      </trkpt>
      <trkpt lat="42.9161" lon="1.39849">
        <ele>1445.5</ele>
        <time>2015-08-12T08:52:27.146Z</time>
      </trkpt>
      <trkpt lat="42.91609" lon="1.39837">
        <ele>1443.9</ele>
        <time>2015-08-12T08:52:35.166Z</time>
      </trkpt>
      <trkpt lat="42.91609" lon="1.39836">
        <ele>1443.7</ele>
        <time>2015-08-12T08:52:36.144Z</time>
      </trkpt>
      <trkpt lat="42.91609" lon="1.39825">
        <ele>1443.2</ele>
        <time>2015-08-12T08:52:41.165Z</time>
      </trkpt>
      <trkpt lat="42.91609" lon="1.39823">
        <ele>1443</ele>
        <time>2015-08-12T08:52:42.144Z</time>
      </trkpt>
      <trkpt lat="42.9161" lon="1.39813">
        <ele>1441.9</ele>
        <time>2015-08-12T08:52:47.165Z</time>
      </trkpt>
      <trkpt lat="42.91612" lon="1.39811">
        <ele>1441.5</ele>
        <time>2015-08-12T08:52:48.144Z</time>
      </trkpt>
      <trkpt lat="42.91613" lon="1.39801">
        <ele>1439.8</ele>
        <time>2015-08-12T08:52:54.165Z</time>
      </trkpt>
      <trkpt lat="42.91613" lon="1.39798">
        <ele>1439.3</ele>
        <time>2015-08-12T08:52:55.144Z</time>
      </trkpt>
      <trkpt lat="42.91611" lon="1.39787">
        <ele>1437.6</ele>
        <time>2015-08-12T08:53:01.166Z</time>
      </trkpt>
      <trkpt lat="42.91611" lon="1.39784">
        <ele>1437.3</ele>
        <time>2015-08-12T08:53:02.144Z</time>
      </trkpt>
      <trkpt lat="42.91612" lon="1.39772">
        <ele>1436</ele>
        <time>2015-08-12T08:53:08.166Z</time>
      </trkpt>
      <trkpt lat="42.91612" lon="1.3977">
        <ele>1435.8</ele>
        <time>2015-08-12T08:53:09.146Z</time>
      </trkpt>
      <trkpt lat="42.91612" lon="1.39758">
        <ele>1434.8</ele>
        <time>2015-08-12T08:53:16.165Z</time>
      </trkpt>
      <trkpt lat="42.91612" lon="1.39756">
        <ele>1434.5</ele>
        <time>2015-08-12T08:53:17.144Z</time>
      </trkpt>
      <trkpt lat="42.91611" lon="1.39744">
        <ele>1432.6</ele>
        <time>2015-08-12T08:53:25.165Z</time>
      </trkpt>
      <trkpt lat="42.91612" lon="1.39743">
        <ele>1432.3</ele>
        <time>2015-08-12T08:53:26.144Z</time>
      </trkpt>
      <trkpt lat="42.91615" lon="1.39732">
        <ele>1430.2</ele>
        <time>2015-08-12T08:53:34.165Z</time>
      </trkpt>
      <trkpt lat="42.91616" lon="1.3973">
        <ele>1429.9</ele>
        <time>2015-08-12T08:53:35.144Z</time>
      </trkpt>
      <trkpt lat="42.91618" lon="1.39718">
        <ele>1427.9</ele>
        <time>2015-08-12T08:53:43.178Z</time>
      </trkpt>
      <trkpt lat="42.91619" lon="1.39717">
        <ele>1427.7</ele>
        <time>2015-08-12T08:53:44.144Z</time>
      </trkpt>
      <trkpt lat="42.9162" lon="1.39713">
        <ele>1427.3</ele>
        <time>2015-08-12T08:53:46.165Z</time>
      </trkpt>
      <trkpt lat="42.91614" lon="1.39702">
        <ele>1427.7</ele>
        <time>2015-08-12T08:53:47.144Z</time>
      </trkpt>
      <trkpt lat="42.91618" lon="1.39694">
        <ele>1426.5</ele>
        <time>2015-08-12T08:53:55.165Z</time>
      </trkpt>
      <trkpt lat="42.9162" lon="1.39692">
        <ele>1426.1</ele>
        <time>2015-08-12T08:53:56.144Z</time>
      </trkpt>
      <trkpt lat="42.91622" lon="1.39681">
        <ele>1424.4</ele>
        <time>2015-08-12T08:54:04.165Z</time>
      </trkpt>
      <trkpt lat="42.91623" lon="1.39679">
        <ele>1424.1</ele>
        <time>2015-08-12T08:54:05.144Z</time>
      </trkpt>
      <trkpt lat="42.91626" lon="1.39668">
        <ele>1422.4</ele>
        <time>2015-08-12T08:54:11.166Z</time>
      </trkpt>
      <trkpt lat="42.91627" lon="1.39667">
        <ele>1422.2</ele>
        <time>2015-08-12T08:54:12.357Z</time>
      </trkpt>
      <trkpt lat="42.91631" lon="1.39656">
        <ele>1420.1</ele>
        <time>2015-08-12T08:54:20.166Z</time>
      </trkpt>
      <trkpt lat="42.91632" lon="1.39655">
        <ele>1419.8</ele>
        <time>2015-08-12T08:54:21.146Z</time>
      </trkpt>
      <trkpt lat="42.91635" lon="1.39645">
        <ele>1417.3</ele>
        <time>2015-08-12T08:54:27.167Z</time>
      </trkpt>
      <trkpt lat="42.91636" lon="1.39643">
        <ele>1417</ele>
        <time>2015-08-12T08:54:28.144Z</time>
      </trkpt>
      <trkpt lat="42.91639" lon="1.39632">
        <ele>1415.7</ele>
        <time>2015-08-12T08:54:34.166Z</time>
      </trkpt>
      <trkpt lat="42.91639" lon="1.39631">
        <ele>1415.5</ele>
        <time>2015-08-12T08:54:35.144Z</time>
      </trkpt>
      <trkpt lat="42.91646" lon="1.39624">
        <ele>1414</ele>
        <time>2015-08-12T08:54:42.166Z</time>
      </trkpt>
      <trkpt lat="42.91646" lon="1.39622">
        <ele>1413.9</ele>
        <time>2015-08-12T08:54:43.143Z</time>
      </trkpt>
      <trkpt lat="42.9165" lon="1.39612">
        <ele>1413</ele>
        <time>2015-08-12T08:54:49.165Z</time>
      </trkpt>
      <trkpt lat="42.91651" lon="1.39611">
        <ele>1413</ele>
        <time>2015-08-12T08:54:50.144Z</time>
      </trkpt>
      <trkpt lat="42.91654" lon="1.39602">
        <ele>1412.1</ele>
        <time>2015-08-12T08:54:58.166Z</time>
      </trkpt>
      <trkpt lat="42.91655" lon="1.396">
        <ele>1412.2</ele>
        <time>2015-08-12T08:54:59.144Z</time>
      </trkpt>
      <trkpt lat="42.91658" lon="1.39589">
        <ele>1411.1</ele>
        <time>2015-08-12T08:55:06.166Z</time>
      </trkpt>
      <trkpt lat="42.91659" lon="1.39588">
        <ele>1410.8</ele>
        <time>2015-08-12T08:55:07.145Z</time>
      </trkpt>
      <trkpt lat="42.91657" lon="1.3958">
        <ele>1410.7</ele>
        <time>2015-08-12T08:55:09.168Z</time>
      </trkpt>
      <trkpt lat="42.91653" lon="1.39576">
        <ele>1411</ele>
        <time>2015-08-12T08:55:10.144Z</time>
      </trkpt>
      <trkpt lat="42.91657" lon="1.39568">
        <ele>1411</ele>
        <time>2015-08-12T08:55:12.165Z</time>
      </trkpt>
      <trkpt lat="42.91659" lon="1.39565">
        <ele>1411</ele>
        <time>2015-08-12T08:55:13.143Z</time>
      </trkpt>
      <trkpt lat="42.91665" lon="1.39556">
        <ele>1411.9</ele>
        <time>2015-08-12T08:55:19.165Z</time>
      </trkpt>
      <trkpt lat="42.91665" lon="1.39555">
        <ele>1411.8</ele>
        <time>2015-08-12T08:55:20.144Z</time>
      </trkpt>
      <trkpt lat="42.91672" lon="1.39548">
        <ele>1411.5</ele>
        <time>2015-08-12T08:55:24.166Z</time>
      </trkpt>
      <trkpt lat="42.91673" lon="1.39548">
        <ele>1411.3</ele>
        <time>2015-08-12T08:55:25.144Z</time>
      </trkpt>
      <trkpt lat="42.91678" lon="1.39538">
        <ele>1410.2</ele>
        <time>2015-08-12T08:55:31.166Z</time>
      </trkpt>
      <trkpt lat="42.91679" lon="1.39538">
        <ele>1410</ele>
        <time>2015-08-12T08:55:32.144Z</time>
      </trkpt>
      <trkpt lat="42.91682" lon="1.39534">
        <ele>1409.3</ele>
        <time>2015-08-12T08:55:35.166Z</time>
      </trkpt>
      <trkpt lat="42.91688" lon="1.39528">
        <ele>1410.4</ele>
        <time>2015-08-12T08:55:36.144Z</time>
      </trkpt>
      <trkpt lat="42.91694" lon="1.39522">
        <ele>1411.8</ele>
        <time>2015-08-12T08:55:38.166Z</time>
      </trkpt>
      <trkpt lat="42.91695" lon="1.3952">
        <ele>1411.7</ele>
        <time>2015-08-12T08:55:39.146Z</time>
      </trkpt>
      <trkpt lat="42.91697" lon="1.39509">
        <ele>1411.5</ele>
        <time>2015-08-12T08:55:45.167Z</time>
      </trkpt>
      <trkpt lat="42.91698" lon="1.39508">
        <ele>1411.6</ele>
        <time>2015-08-12T08:55:46.144Z</time>
      </trkpt>
      <trkpt lat="42.91699" lon="1.39497">
        <ele>1411</ele>
        <time>2015-08-12T08:55:57.167Z</time>
      </trkpt>
      <trkpt lat="42.91699" lon="1.39496">
        <ele>1410.9</ele>
        <time>2015-08-12T08:55:58.144Z</time>
      </trkpt>
      <trkpt lat="42.91702" lon="1.39486">
        <ele>1410.1</ele>
        <time>2015-08-12T08:56:06.166Z</time>
      </trkpt>
      <trkpt lat="42.91704" lon="1.39483">
        <ele>1410.7</ele>
        <time>2015-08-12T08:56:07.144Z</time>
      </trkpt>
      <trkpt lat="42.91705" lon="1.39472">
        <ele>1410.4</ele>
        <time>2015-08-12T08:56:13.227Z</time>
      </trkpt>
      <trkpt lat="42.91705" lon="1.3947">
        <ele>1410.4</ele>
        <time>2015-08-12T08:56:14.144Z</time>
      </trkpt>
      <trkpt lat="42.91709" lon="1.39459">
        <ele>1411</ele>
        <time>2015-08-12T08:56:20.165Z</time>
      </trkpt>
      <trkpt lat="42.91709" lon="1.39457">
        <ele>1411.2</ele>
        <time>2015-08-12T08:56:21.180Z</time>
      </trkpt>
      <trkpt lat="42.91715" lon="1.39448">
        <ele>1412.3</ele>
        <time>2015-08-12T08:56:27.168Z</time>
      </trkpt>
      <trkpt lat="42.91716" lon="1.39447">
        <ele>1412.3</ele>
        <time>2015-08-12T08:56:28.144Z</time>
      </trkpt>
      <trkpt lat="42.9172" lon="1.39438">
        <ele>1412.5</ele>
        <time>2015-08-12T08:56:35.166Z</time>
      </trkpt>
      <trkpt lat="42.9172" lon="1.39436">
        <ele>1412.6</ele>
        <time>2015-08-12T08:56:36.144Z</time>
      </trkpt>
      <trkpt lat="42.91724" lon="1.39425">
        <ele>1412.6</ele>
        <time>2015-08-12T08:56:42.177Z</time>
      </trkpt>
      <trkpt lat="42.91724" lon="1.39423">
        <ele>1412.7</ele>
        <time>2015-08-12T08:56:43.144Z</time>
      </trkpt>
      <trkpt lat="42.91728" lon="1.39412">
        <ele>1412.4</ele>
        <time>2015-08-12T08:56:50.166Z</time>
      </trkpt>
      <trkpt lat="42.91728" lon="1.39411">
        <ele>1412.2</ele>
        <time>2015-08-12T08:56:51.146Z</time>
      </trkpt>
      <trkpt lat="42.91734" lon="1.39401">
        <ele>1412.9</ele>
        <time>2015-08-12T08:56:59.167Z</time>
      </trkpt>
      <trkpt lat="42.91734" lon="1.394">
        <ele>1412.9</ele>
        <time>2015-08-12T08:57:00.240Z</time>
      </trkpt>
      <trkpt lat="42.91735" lon="1.39388">
        <ele>1411.9</ele>
        <time>2015-08-12T08:57:09.168Z</time>
      </trkpt>
      <trkpt lat="42.91736" lon="1.39385">
        <ele>1411.8</ele>
        <time>2015-08-12T08:57:10.144Z</time>
      </trkpt>
      <trkpt lat="42.91741" lon="1.39377">
        <ele>1411.2</ele>
        <time>2015-08-12T08:57:16.166Z</time>
      </trkpt>
      <trkpt lat="42.91741" lon="1.39375">
        <ele>1411.1</ele>
        <time>2015-08-12T08:57:17.145Z</time>
      </trkpt>
      <trkpt lat="42.91744" lon="1.39365">
        <ele>1410.3</ele>
        <time>2015-08-12T08:57:24.179Z</time>
      </trkpt>
      <trkpt lat="42.91745" lon="1.39363">
        <ele>1410.1</ele>
        <time>2015-08-12T08:57:25.144Z</time>
      </trkpt>
      <trkpt lat="42.91748" lon="1.39353">
        <ele>1409.4</ele>
        <time>2015-08-12T08:57:30.167Z</time>
      </trkpt>
      <trkpt lat="42.91748" lon="1.39351">
        <ele>1409.2</ele>
        <time>2015-08-12T08:57:31.144Z</time>
      </trkpt>
      <trkpt lat="42.9175" lon="1.3934">
        <ele>1408.5</ele>
        <time>2015-08-12T08:57:37.166Z</time>
      </trkpt>
      <trkpt lat="42.91751" lon="1.39338">
        <ele>1408.2</ele>
        <time>2015-08-12T08:57:38.144Z</time>
      </trkpt>
      <trkpt lat="42.91754" lon="1.39328">
        <ele>1407</ele>
        <time>2015-08-12T08:57:44.166Z</time>
      </trkpt>
      <trkpt lat="42.91754" lon="1.39326">
        <ele>1406.8</ele>
        <time>2015-08-12T08:57:45.146Z</time>
      </trkpt>
      <trkpt lat="42.91756" lon="1.39317">
        <ele>1407.4</ele>
        <time>2015-08-12T08:58:03.168Z</time>
      </trkpt>
      <trkpt lat="42.91757" lon="1.39309">
        <ele>1406.6</ele>
        <time>2015-08-12T08:58:04.144Z</time>
      </trkpt>
      <trkpt lat="42.91763" lon="1.39301">
        <ele>1406.6</ele>
        <time>2015-08-12T08:58:10.166Z</time>
      </trkpt>
      <trkpt lat="42.91764" lon="1.39299">
        <ele>1406.7</ele>
        <time>2015-08-12T08:58:11.144Z</time>
      </trkpt>
      <trkpt lat="42.91764" lon="1.39287">
        <ele>1406.5</ele>
        <time>2015-08-12T08:58:19.166Z</time>
      </trkpt>
      <trkpt lat="42.91764" lon="1.39286">
        <ele>1406.5</ele>
        <time>2015-08-12T08:58:20.144Z</time>
      </trkpt>
      <trkpt lat="42.91768" lon="1.39277">
        <ele>1406.3</ele>
        <time>2015-08-12T08:58:25.166Z</time>
      </trkpt>
      <trkpt lat="42.91769" lon="1.39274">
        <ele>1406.4</ele>
        <time>2015-08-12T08:58:26.144Z</time>
      </trkpt>
      <trkpt lat="42.9177" lon="1.39263">
        <ele>1406.1</ele>
        <time>2015-08-12T08:58:32.287Z</time>
      </trkpt>
      <trkpt lat="42.91771" lon="1.39262">
        <ele>1406</ele>
        <time>2015-08-12T08:58:33.146Z</time>
      </trkpt>
      <trkpt lat="42.91769" lon="1.39251">
        <ele>1405.1</ele>
        <time>2015-08-12T08:58:41.280Z</time>
      </trkpt>
      <trkpt lat="42.91769" lon="1.39249">
        <ele>1405</ele>
        <time>2015-08-12T08:58:42.144Z</time>
      </trkpt>
      <trkpt lat="42.91772" lon="1.39238">
        <ele>1404.4</ele>
        <time>2015-08-12T08:58:46.198Z</time>
      </trkpt>
      <trkpt lat="42.91772" lon="1.39236">
        <ele>1403.9</ele>
        <time>2015-08-12T08:58:47.145Z</time>
      </trkpt>
      <trkpt lat="42.91775" lon="1.39224">
        <ele>1402</ele>
        <time>2015-08-12T08:58:57.168Z</time>
      </trkpt>
      <trkpt lat="42.91775" lon="1.39223">
        <ele>1401.9</ele>
        <time>2015-08-12T08:58:58.144Z</time>
      </trkpt>
      <trkpt lat="42.91775" lon="1.39211">
        <ele>1400.8</ele>
        <time>2015-08-12T08:59:06.166Z</time>
      </trkpt>
      <trkpt lat="42.91775" lon="1.39209">
        <ele>1400.6</ele>
        <time>2015-08-12T08:59:07.144Z</time>
      </trkpt>
      <trkpt lat="42.91776" lon="1.39197">
        <ele>1400.2</ele>
        <time>2015-08-12T08:59:12.166Z</time>
      </trkpt>
      <trkpt lat="42.91776" lon="1.39195">
        <ele>1400.1</ele>
        <time>2015-08-12T08:59:13.144Z</time>
      </trkpt>
      <trkpt lat="42.91775" lon="1.39186">
        <ele>1399.5</ele>
        <time>2015-08-12T08:59:17.167Z</time>
      </trkpt>
      <trkpt lat="42.91775" lon="1.39182">
        <ele>1399.2</ele>
        <time>2015-08-12T08:59:18.144Z</time>
      </trkpt>
      <trkpt lat="42.91777" lon="1.39171">
        <ele>1398.4</ele>
        <time>2015-08-12T08:59:22.166Z</time>
      </trkpt>
      <trkpt lat="42.91776" lon="1.39169">
        <ele>1398.3</ele>
        <time>2015-08-12T08:59:23.144Z</time>
      </trkpt>
      <trkpt lat="42.91774" lon="1.39157">
        <ele>1397.2</ele>
        <time>2015-08-12T08:59:30.228Z</time>
      </trkpt>
      <trkpt lat="42.91774" lon="1.39156">
        <ele>1397.1</ele>
        <time>2015-08-12T08:59:31.156Z</time>
      </trkpt>
      <trkpt lat="42.91776" lon="1.39144">
        <ele>1396.1</ele>
        <time>2015-08-12T08:59:39.169Z</time>
      </trkpt>
      <trkpt lat="42.91776" lon="1.39143">
        <ele>1396</ele>
        <time>2015-08-12T08:59:40.144Z</time>
      </trkpt>
      <trkpt lat="42.91779" lon="1.39132">
        <ele>1395.1</ele>
        <time>2015-08-12T08:59:45.168Z</time>
      </trkpt>
      <trkpt lat="42.91779" lon="1.3913">
        <ele>1395</ele>
        <time>2015-08-12T08:59:46.144Z</time>
      </trkpt>
      <trkpt lat="42.91782" lon="1.39121">
        <ele>1394.6</ele>
        <time>2015-08-12T08:59:50.166Z</time>
      </trkpt>
      <trkpt lat="42.91784" lon="1.39118">
        <ele>1394.5</ele>
        <time>2015-08-12T08:59:51.147Z</time>
      </trkpt>
      <trkpt lat="42.9179" lon="1.39109">
        <ele>1394.3</ele>
        <time>2015-08-12T08:59:55.166Z</time>
      </trkpt>
      <trkpt lat="42.91792" lon="1.39108">
        <ele>1394.2</ele>
        <time>2015-08-12T08:59:56.144Z</time>
      </trkpt>
      <trkpt lat="42.91796" lon="1.39098">
        <ele>1392.9</ele>
        <time>2015-08-12T09:00:02.166Z</time>
      </trkpt>
      <trkpt lat="42.91797" lon="1.39096">
        <ele>1392.8</ele>
        <time>2015-08-12T09:00:03.147Z</time>
      </trkpt>
      <trkpt lat="42.91801" lon="1.39085">
        <ele>1391.3</ele>
        <time>2015-08-12T09:00:09.170Z</time>
      </trkpt>
      <trkpt lat="42.91801" lon="1.39084">
        <ele>1391.1</ele>
        <time>2015-08-12T09:00:10.144Z</time>
      </trkpt>
      <trkpt lat="42.91807" lon="1.39074">
        <ele>1390.1</ele>
        <time>2015-08-12T09:00:17.167Z</time>
      </trkpt>
      <trkpt lat="42.91807" lon="1.39073">
        <ele>1390</ele>
        <time>2015-08-12T09:00:18.144Z</time>
      </trkpt>
      <trkpt lat="42.91811" lon="1.39062">
        <ele>1388.3</ele>
        <time>2015-08-12T09:00:26.166Z</time>
      </trkpt>
      <trkpt lat="42.91812" lon="1.39061">
        <ele>1388.1</ele>
        <time>2015-08-12T09:00:27.146Z</time>
      </trkpt>
      <trkpt lat="42.91815" lon="1.3905">
        <ele>1387</ele>
        <time>2015-08-12T09:00:34.274Z</time>
      </trkpt>
      <trkpt lat="42.91815" lon="1.39048">
        <ele>1386.7</ele>
        <time>2015-08-12T09:00:35.144Z</time>
      </trkpt>
      <trkpt lat="42.91819" lon="1.39038">
        <ele>1385.7</ele>
        <time>2015-08-12T09:00:40.166Z</time>
      </trkpt>
      <trkpt lat="42.9182" lon="1.39036">
        <ele>1385.4</ele>
        <time>2015-08-12T09:00:41.144Z</time>
      </trkpt>
      <trkpt lat="42.9182" lon="1.39024">
        <ele>1384</ele>
        <time>2015-08-12T09:00:49.167Z</time>
      </trkpt>
      <trkpt lat="42.9182" lon="1.39022">
        <ele>1383.9</ele>
        <time>2015-08-12T09:00:50.144Z</time>
      </trkpt>
      <trkpt lat="42.91822" lon="1.3901">
        <ele>1381.8</ele>
        <time>2015-08-12T09:00:57.169Z</time>
      </trkpt>
      <trkpt lat="42.91823" lon="1.39007">
        <ele>1381.3</ele>
        <time>2015-08-12T09:00:58.144Z</time>
      </trkpt>
      <trkpt lat="42.91823" lon="1.38997">
        <ele>1380.3</ele>
        <time>2015-08-12T09:01:02.167Z</time>
      </trkpt>
      <trkpt lat="42.91824" lon="1.38995">
        <ele>1380</ele>
        <time>2015-08-12T09:01:03.146Z</time>
      </trkpt>
      <trkpt lat="42.91827" lon="1.38985">
        <ele>1377.8</ele>
        <time>2015-08-12T09:01:08.166Z</time>
      </trkpt>
      <trkpt lat="42.91828" lon="1.38982">
        <ele>1377.3</ele>
        <time>2015-08-12T09:01:09.146Z</time>
      </trkpt>
      <trkpt lat="42.91829" lon="1.38971">
        <ele>1375.8</ele>
        <time>2015-08-12T09:01:14.166Z</time>
      </trkpt>
      <trkpt lat="42.9183" lon="1.38969">
        <ele>1375.5</ele>
        <time>2015-08-12T09:01:15.146Z</time>
      </trkpt>
      <trkpt lat="42.91832" lon="1.38958">
        <ele>1373.6</ele>
        <time>2015-08-12T09:01:19.166Z</time>
      </trkpt>
      <trkpt lat="42.91833" lon="1.38956">
        <ele>1373.1</ele>
        <time>2015-08-12T09:01:20.144Z</time>
      </trkpt>
      <trkpt lat="42.91834" lon="1.38946">
        <ele>1371.7</ele>
        <time>2015-08-12T09:01:24.166Z</time>
      </trkpt>
      <trkpt lat="42.91835" lon="1.38943">
        <ele>1371.3</ele>
        <time>2015-08-12T09:01:25.149Z</time>
      </trkpt>
      <trkpt lat="42.91839" lon="1.38934">
        <ele>1369.9</ele>
        <time>2015-08-12T09:01:30.167Z</time>
      </trkpt>
      <trkpt lat="42.9184" lon="1.38933">
        <ele>1369.5</ele>
        <time>2015-08-12T09:01:31.145Z</time>
      </trkpt>
      <trkpt lat="42.91841" lon="1.38921">
        <ele>1368.3</ele>
        <time>2015-08-12T09:01:36.167Z</time>
      </trkpt>
      <trkpt lat="42.91841" lon="1.38919">
        <ele>1368.1</ele>
        <time>2015-08-12T09:01:37.144Z</time>
      </trkpt>
      <trkpt lat="42.91843" lon="1.38908">
        <ele>1366.5</ele>
        <time>2015-08-12T09:01:43.166Z</time>
      </trkpt>
      <trkpt lat="42.91844" lon="1.38906">
        <ele>1366.2</ele>
        <time>2015-08-12T09:01:44.144Z</time>
      </trkpt>
      <trkpt lat="42.91846" lon="1.38895">
        <ele>1364.6</ele>
        <time>2015-08-12T09:01:52.169Z</time>
      </trkpt>
      <trkpt lat="42.91847" lon="1.38894">
        <ele>1364.3</ele>
        <time>2015-08-12T09:01:53.157Z</time>
      </trkpt>
      <trkpt lat="42.91844" lon="1.38883">
        <ele>1362</ele>
        <time>2015-08-12T09:01:59.171Z</time>
      </trkpt>
      <trkpt lat="42.91845" lon="1.3888">
        <ele>1361.8</ele>
        <time>2015-08-12T09:02:00.144Z</time>
      </trkpt>
      <trkpt lat="42.91847" lon="1.38868">
        <ele>1360.6</ele>
        <time>2015-08-12T09:02:06.166Z</time>
      </trkpt>
      <trkpt lat="42.91848" lon="1.38866">
        <ele>1360.5</ele>
        <time>2015-08-12T09:02:07.144Z</time>
      </trkpt>
      <trkpt lat="42.91849" lon="1.38856">
        <ele>1359.5</ele>
        <time>2015-08-12T09:02:12.166Z</time>
      </trkpt>
      <trkpt lat="42.91849" lon="1.38854">
        <ele>1359.2</ele>
        <time>2015-08-12T09:02:13.144Z</time>
      </trkpt>
      <trkpt lat="42.9185" lon="1.38846">
        <ele>1360.3</ele>
        <time>2015-08-12T09:03:35.217Z</time>
      </trkpt>
      <trkpt lat="42.91859" lon="1.38841">
        <ele>1364.2</ele>
        <time>2015-08-12T09:03:36.144Z</time>
      </trkpt>
      <trkpt lat="42.91861" lon="1.3883">
        <ele>1365.4</ele>
        <time>2015-08-12T09:04:54.166Z</time>
      </trkpt>
      <trkpt lat="42.91861" lon="1.38829">
        <ele>1365.5</ele>
        <time>2015-08-12T09:04:55.144Z</time>
      </trkpt>
      <trkpt lat="42.91864" lon="1.38817">
        <ele>1365.5</ele>
        <time>2015-08-12T09:05:02.172Z</time>
      </trkpt>
      <trkpt lat="42.91865" lon="1.38816">
        <ele>1365.5</ele>
        <time>2015-08-12T09:05:03.147Z</time>
      </trkpt>
      <trkpt lat="42.91868" lon="1.38806">
        <ele>1365.5</ele>
        <time>2015-08-12T09:05:08.165Z</time>
      </trkpt>
      <trkpt lat="42.91869" lon="1.38804">
        <ele>1365.4</ele>
        <time>2015-08-12T09:05:09.147Z</time>
      </trkpt>
      <trkpt lat="42.91872" lon="1.38794">
        <ele>1365</ele>
        <time>2015-08-12T09:05:15.168Z</time>
      </trkpt>
      <trkpt lat="42.91873" lon="1.38792">
        <ele>1365.1</ele>
        <time>2015-08-12T09:05:16.145Z</time>
      </trkpt>
      <trkpt lat="42.91878" lon="1.38784">
        <ele>1364.7</ele>
        <time>2015-08-12T09:05:21.168Z</time>
      </trkpt>
      <trkpt lat="42.91879" lon="1.38782">
        <ele>1364.6</ele>
        <time>2015-08-12T09:05:22.146Z</time>
      </trkpt>
      <trkpt lat="42.91882" lon="1.38773">
        <ele>1363.8</ele>
        <time>2015-08-12T09:05:27.169Z</time>
      </trkpt>
      <trkpt lat="42.91883" lon="1.38771">
        <ele>1363.6</ele>
        <time>2015-08-12T09:05:28.144Z</time>
      </trkpt>
      <trkpt lat="42.91887" lon="1.38762">
        <ele>1363</ele>
        <time>2015-08-12T09:05:33.169Z</time>
      </trkpt>
      <trkpt lat="42.91887" lon="1.3876">
        <ele>1362.8</ele>
        <time>2015-08-12T09:05:34.157Z</time>
      </trkpt>
      <trkpt lat="42.9189" lon="1.3875">
        <ele>1362.2</ele>
        <time>2015-08-12T09:05:38.166Z</time>
      </trkpt>
      <trkpt lat="42.91892" lon="1.38748">
        <ele>1362.1</ele>
        <time>2015-08-12T09:05:39.147Z</time>
      </trkpt>
      <trkpt lat="42.91896" lon="1.38739">
        <ele>1361.7</ele>
        <time>2015-08-12T09:05:43.166Z</time>
      </trkpt>
      <trkpt lat="42.91896" lon="1.38737">
        <ele>1361.5</ele>
        <time>2015-08-12T09:05:44.144Z</time>
      </trkpt>
      <trkpt lat="42.91902" lon="1.38727">
        <ele>1361.2</ele>
        <time>2015-08-12T09:05:49.166Z</time>
      </trkpt>
      <trkpt lat="42.91903" lon="1.38726">
        <ele>1361.1</ele>
        <time>2015-08-12T09:05:50.157Z</time>
      </trkpt>
      <trkpt lat="42.91908" lon="1.38717">
        <ele>1360.8</ele>
        <time>2015-08-12T09:05:55.178Z</time>
      </trkpt>
      <trkpt lat="42.91908" lon="1.38715">
        <ele>1360.7</ele>
        <time>2015-08-12T09:05:56.145Z</time>
      </trkpt>
      <trkpt lat="42.91913" lon="1.38705">
        <ele>1360.2</ele>
        <time>2015-08-12T09:06:02.199Z</time>
      </trkpt>
      <trkpt lat="42.91913" lon="1.38703">
        <ele>1360.1</ele>
        <time>2015-08-12T09:06:03.147Z</time>
      </trkpt>
      <trkpt lat="42.91915" lon="1.38692">
        <ele>1359.2</ele>
        <time>2015-08-12T09:06:08.166Z</time>
      </trkpt>
      <trkpt lat="42.91916" lon="1.3869">
        <ele>1358.9</ele>
        <time>2015-08-12T09:06:09.147Z</time>
      </trkpt>
      <trkpt lat="42.91917" lon="1.3868">
        <ele>1357.8</ele>
        <time>2015-08-12T09:06:13.167Z</time>
      </trkpt>
      <trkpt lat="42.91917" lon="1.38677">
        <ele>1357.6</ele>
        <time>2015-08-12T09:06:14.145Z</time>
      </trkpt>
      <trkpt lat="42.91919" lon="1.38667">
        <ele>1356.8</ele>
        <time>2015-08-12T09:06:20.166Z</time>
      </trkpt>
      <trkpt lat="42.91919" lon="1.38664">
        <ele>1356.6</ele>
        <time>2015-08-12T09:06:21.147Z</time>
      </trkpt>
      <trkpt lat="42.91919" lon="1.38652">
        <ele>1356.2</ele>
        <time>2015-08-12T09:06:26.226Z</time>
      </trkpt>
      <trkpt lat="42.91919" lon="1.38649">
        <ele>1356.1</ele>
        <time>2015-08-12T09:06:27.147Z</time>
      </trkpt>
      <trkpt lat="42.91918" lon="1.38637">
        <ele>1355.8</ele>
        <time>2015-08-12T09:06:32.179Z</time>
      </trkpt>
      <trkpt lat="42.91917" lon="1.38635">
        <ele>1355.6</ele>
        <time>2015-08-12T09:06:33.147Z</time>
      </trkpt>
      <trkpt lat="42.91916" lon="1.38624">
        <ele>1354.8</ele>
        <time>2015-08-12T09:06:37.167Z</time>
      </trkpt>
      <trkpt lat="42.91916" lon="1.38622">
        <ele>1354.6</ele>
        <time>2015-08-12T09:06:38.145Z</time>
      </trkpt>
      <trkpt lat="42.91917" lon="1.3861">
        <ele>1353.5</ele>
        <time>2015-08-12T09:06:43.166Z</time>
      </trkpt>
      <trkpt lat="42.91917" lon="1.38608">
        <ele>1353.3</ele>
        <time>2015-08-12T09:06:44.145Z</time>
      </trkpt>
      <trkpt lat="42.91917" lon="1.38596">
        <ele>1352.1</ele>
        <time>2015-08-12T09:06:49.166Z</time>
      </trkpt>
      <trkpt lat="42.91917" lon="1.38594">
        <ele>1351.9</ele>
        <time>2015-08-12T09:06:50.195Z</time>
      </trkpt>
      <trkpt lat="42.91918" lon="1.38584">
        <ele>1351.4</ele>
        <time>2015-08-12T09:06:54.166Z</time>
      </trkpt>
      <trkpt lat="42.91917" lon="1.38582">
        <ele>1351.2</ele>
        <time>2015-08-12T09:06:55.144Z</time>
      </trkpt>
      <trkpt lat="42.91914" lon="1.38571">
        <ele>1350.5</ele>
        <time>2015-08-12T09:07:01.165Z</time>
      </trkpt>
      <trkpt lat="42.91913" lon="1.38569">
        <ele>1350.4</ele>
        <time>2015-08-12T09:07:02.144Z</time>
      </trkpt>
      <trkpt lat="42.91914" lon="1.38558">
        <ele>1349.8</ele>
        <time>2015-08-12T09:07:07.166Z</time>
      </trkpt>
      <trkpt lat="42.91914" lon="1.38556">
        <ele>1349.6</ele>
        <time>2015-08-12T09:07:08.144Z</time>
      </trkpt>
      <trkpt lat="42.91914" lon="1.38545">
        <ele>1348.8</ele>
        <time>2015-08-12T09:07:13.166Z</time>
      </trkpt>
      <trkpt lat="42.91914" lon="1.38543">
        <ele>1348.6</ele>
        <time>2015-08-12T09:07:14.156Z</time>
      </trkpt>
      <trkpt lat="42.91914" lon="1.38532">
        <ele>1347.9</ele>
        <time>2015-08-12T09:07:18.166Z</time>
      </trkpt>
      <trkpt lat="42.91915" lon="1.3853">
        <ele>1347.7</ele>
        <time>2015-08-12T09:07:19.145Z</time>
      </trkpt>
      <trkpt lat="42.91915" lon="1.38518">
        <ele>1346.8</ele>
        <time>2015-08-12T09:07:25.166Z</time>
      </trkpt>
      <trkpt lat="42.91915" lon="1.38516">
        <ele>1346.8</ele>
        <time>2015-08-12T09:07:26.145Z</time>
      </trkpt>
      <trkpt lat="42.91915" lon="1.38504">
        <ele>1346.9</ele>
        <time>2015-08-12T09:07:30.178Z</time>
      </trkpt>
      <trkpt lat="42.91915" lon="1.38502">
        <ele>1347</ele>
        <time>2015-08-12T09:07:31.145Z</time>
      </trkpt>
      <trkpt lat="42.91916" lon="1.38492">
        <ele>1346.8</ele>
        <time>2015-08-12T09:07:35.179Z</time>
      </trkpt>
      <trkpt lat="42.91916" lon="1.3849">
        <ele>1346.6</ele>
        <time>2015-08-12T09:07:36.144Z</time>
      </trkpt>
      <trkpt lat="42.91917" lon="1.38478">
        <ele>1345.3</ele>
        <time>2015-08-12T09:07:41.166Z</time>
      </trkpt>
      <trkpt lat="42.91917" lon="1.38475">
        <ele>1345</ele>
        <time>2015-08-12T09:07:42.176Z</time>
      </trkpt>
      <trkpt lat="42.91917" lon="1.38464">
        <ele>1343.8</ele>
        <time>2015-08-12T09:07:47.166Z</time>
      </trkpt>
      <trkpt lat="42.91917" lon="1.38462">
        <ele>1343.6</ele>
        <time>2015-08-12T09:07:48.144Z</time>
      </trkpt>
      <trkpt lat="42.91917" lon="1.38451">
        <ele>1342.9</ele>
        <time>2015-08-12T09:07:53.166Z</time>
      </trkpt>
      <trkpt lat="42.91917" lon="1.38449">
        <ele>1342.7</ele>
        <time>2015-08-12T09:07:54.144Z</time>
      </trkpt>
      <trkpt lat="42.91916" lon="1.38438">
        <ele>1341.1</ele>
        <time>2015-08-12T09:08:00.166Z</time>
      </trkpt>
      <trkpt lat="42.91916" lon="1.38436">
        <ele>1341</ele>
        <time>2015-08-12T09:08:01.145Z</time>
      </trkpt>
      <trkpt lat="42.91915" lon="1.38424">
        <ele>1340.4</ele>
        <time>2015-08-12T09:08:06.166Z</time>
      </trkpt>
      <trkpt lat="42.91914" lon="1.38422">
        <ele>1340.3</ele>
        <time>2015-08-12T09:08:07.144Z</time>
      </trkpt>
      <trkpt lat="42.91912" lon="1.38411">
        <ele>1339.1</ele>
        <time>2015-08-12T09:08:13.166Z</time>
      </trkpt>
      <trkpt lat="42.91912" lon="1.3841">
        <ele>1338.8</ele>
        <time>2015-08-12T09:08:14.174Z</time>
      </trkpt>
      <trkpt lat="42.91912" lon="1.38398">
        <ele>1337.5</ele>
        <time>2015-08-12T09:08:20.166Z</time>
      </trkpt>
      <trkpt lat="42.91912" lon="1.38395">
        <ele>1337.3</ele>
        <time>2015-08-12T09:08:21.147Z</time>
      </trkpt>
      <trkpt lat="42.91913" lon="1.38385">
        <ele>1336.5</ele>
        <time>2015-08-12T09:08:26.166Z</time>
      </trkpt>
      <trkpt lat="42.91913" lon="1.38383">
        <ele>1336.4</ele>
        <time>2015-08-12T09:08:27.147Z</time>
      </trkpt>
      <trkpt lat="42.91914" lon="1.38372">
        <ele>1336.3</ele>
        <time>2015-08-12T09:08:31.166Z</time>
      </trkpt>
      <trkpt lat="42.91914" lon="1.38369">
        <ele>1336.4</ele>
        <time>2015-08-12T09:08:32.144Z</time>
      </trkpt>
      <trkpt lat="42.91914" lon="1.38358">
        <ele>1335.7</ele>
        <time>2015-08-12T09:08:37.166Z</time>
      </trkpt>
      <trkpt lat="42.91914" lon="1.38356">
        <ele>1335.6</ele>
        <time>2015-08-12T09:08:38.144Z</time>
      </trkpt>
      <trkpt lat="42.91913" lon="1.38346">
        <ele>1334.4</ele>
        <time>2015-08-12T09:08:44.171Z</time>
      </trkpt>
      <trkpt lat="42.91914" lon="1.38343">
        <ele>1334.1</ele>
        <time>2015-08-12T09:08:45.147Z</time>
      </trkpt>
      <trkpt lat="42.91913" lon="1.38333">
        <ele>1333.5</ele>
        <time>2015-08-12T09:08:50.166Z</time>
      </trkpt>
      <trkpt lat="42.91913" lon="1.38331">
        <ele>1333.5</ele>
        <time>2015-08-12T09:08:51.147Z</time>
      </trkpt>
      <trkpt lat="42.91913" lon="1.3832">
        <ele>1333.4</ele>
        <time>2015-08-12T09:08:56.190Z</time>
      </trkpt>
      <trkpt lat="42.91913" lon="1.38318">
        <ele>1333.3</ele>
        <time>2015-08-12T09:08:57.147Z</time>
      </trkpt>
      <trkpt lat="42.91912" lon="1.38307">
        <ele>1333.1</ele>
        <time>2015-08-12T09:09:02.166Z</time>
      </trkpt>
      <trkpt lat="42.91912" lon="1.38304">
        <ele>1333.1</ele>
        <time>2015-08-12T09:09:03.147Z</time>
      </trkpt>
      <trkpt lat="42.91912" lon="1.38293">
        <ele>1333</ele>
        <time>2015-08-12T09:09:08.167Z</time>
      </trkpt>
      <trkpt lat="42.91912" lon="1.38291">
        <ele>1332.9</ele>
        <time>2015-08-12T09:09:09.147Z</time>
      </trkpt>
      <trkpt lat="42.91912" lon="1.38279">
        <ele>1332.7</ele>
        <time>2015-08-12T09:09:15.169Z</time>
      </trkpt>
      <trkpt lat="42.91911" lon="1.38278">
        <ele>1332.7</ele>
        <time>2015-08-12T09:09:16.145Z</time>
      </trkpt>
      <trkpt lat="42.91913" lon="1.38268">
        <ele>1332.5</ele>
        <time>2015-08-12T09:09:20.178Z</time>
      </trkpt>
      <trkpt lat="42.91914" lon="1.38265">
        <ele>1332.3</ele>
        <time>2015-08-12T09:09:21.147Z</time>
      </trkpt>
      <trkpt lat="42.91914" lon="1.38253">
        <ele>1331.7</ele>
        <time>2015-08-12T09:09:26.166Z</time>
      </trkpt>
      <trkpt lat="42.91914" lon="1.38251">
        <ele>1331.6</ele>
        <time>2015-08-12T09:09:27.147Z</time>
      </trkpt>
      <trkpt lat="42.91914" lon="1.38241">
        <ele>1331.5</ele>
        <time>2015-08-12T09:09:32.227Z</time>
      </trkpt>
      <trkpt lat="42.91914" lon="1.38238">
        <ele>1331.5</ele>
        <time>2015-08-12T09:09:33.215Z</time>
      </trkpt>
      <trkpt lat="42.91911" lon="1.38228">
        <ele>1331.6</ele>
        <time>2015-08-12T09:09:38.166Z</time>
      </trkpt>
      <trkpt lat="42.91911" lon="1.38226">
        <ele>1331.6</ele>
        <time>2015-08-12T09:09:39.147Z</time>
      </trkpt>
      <trkpt lat="42.91908" lon="1.38216">
        <ele>1331.8</ele>
        <time>2015-08-12T09:09:45.169Z</time>
      </trkpt>
      <trkpt lat="42.91907" lon="1.38215">
        <ele>1331.8</ele>
        <time>2015-08-12T09:09:46.144Z</time>
      </trkpt>
      <trkpt lat="42.91901" lon="1.38207">
        <ele>1332.3</ele>
        <time>2015-08-12T09:09:52.166Z</time>
      </trkpt>
      <trkpt lat="42.91901" lon="1.38205">
        <ele>1332.4</ele>
        <time>2015-08-12T09:09:53.145Z</time>
      </trkpt>
      <trkpt lat="42.919" lon="1.38193">
        <ele>1332.1</ele>
        <time>2015-08-12T09:09:59.166Z</time>
      </trkpt>
      <trkpt lat="42.91899" lon="1.38191">
        <ele>1332.1</ele>
        <time>2015-08-12T09:10:00.179Z</time>
      </trkpt>
      <trkpt lat="42.91896" lon="1.3818">
        <ele>1332.2</ele>
        <time>2015-08-12T09:10:06.166Z</time>
      </trkpt>
      <trkpt lat="42.91896" lon="1.38179">
        <ele>1332.3</ele>
        <time>2015-08-12T09:10:07.144Z</time>
      </trkpt>
      <trkpt lat="42.91894" lon="1.38168">
        <ele>1332.5</ele>
        <time>2015-08-12T09:10:12.277Z</time>
      </trkpt>
      <trkpt lat="42.91895" lon="1.38166">
        <ele>1332.5</ele>
        <time>2015-08-12T09:10:13.145Z</time>
      </trkpt>
      <trkpt lat="42.91897" lon="1.38155">
        <ele>1332.6</ele>
        <time>2015-08-12T09:10:17.166Z</time>
      </trkpt>
      <trkpt lat="42.91897" lon="1.38154">
        <ele>1332.6</ele>
        <time>2015-08-12T09:10:18.176Z</time>
      </trkpt>
      <trkpt lat="42.91898" lon="1.38142">
        <ele>1332.5</ele>
        <time>2015-08-12T09:10:23.477Z</time>
      </trkpt>
      <trkpt lat="42.91898" lon="1.3814">
        <ele>1332.5</ele>
        <time>2015-08-12T09:10:24.145Z</time>
      </trkpt>
      <trkpt lat="42.91899" lon="1.38129">
        <ele>1332.8</ele>
        <time>2015-08-12T09:10:30.167Z</time>
      </trkpt>
      <trkpt lat="42.91899" lon="1.38127">
        <ele>1332.9</ele>
        <time>2015-08-12T09:10:31.145Z</time>
      </trkpt>
      <trkpt lat="42.919" lon="1.38116">
        <ele>1333.2</ele>
        <time>2015-08-12T09:10:36.166Z</time>
      </trkpt>
      <trkpt lat="42.919" lon="1.38114">
        <ele>1333.3</ele>
        <time>2015-08-12T09:10:37.145Z</time>
      </trkpt>
      <trkpt lat="42.919" lon="1.38103">
        <ele>1333.6</ele>
        <time>2015-08-12T09:10:42.166Z</time>
      </trkpt>
      <trkpt lat="42.919" lon="1.38101">
        <ele>1333.7</ele>
        <time>2015-08-12T09:10:43.145Z</time>
      </trkpt>
      <trkpt lat="42.91901" lon="1.38091">
        <ele>1333.9</ele>
        <time>2015-08-12T09:10:48.166Z</time>
      </trkpt>
      <trkpt lat="42.91901" lon="1.38089">
        <ele>1333.9</ele>
        <time>2015-08-12T09:10:49.145Z</time>
      </trkpt>
      <trkpt lat="42.91902" lon="1.38077">
        <ele>1334.4</ele>
        <time>2015-08-12T09:10:55.166Z</time>
      </trkpt>
      <trkpt lat="42.91901" lon="1.38075">
        <ele>1334.5</ele>
        <time>2015-08-12T09:10:56.144Z</time>
      </trkpt>
      <trkpt lat="42.919" lon="1.38063">
        <ele>1335</ele>
        <time>2015-08-12T09:11:02.167Z</time>
      </trkpt>
      <trkpt lat="42.91901" lon="1.38062">
        <ele>1335</ele>
        <time>2015-08-12T09:11:03.147Z</time>
      </trkpt>
      <trkpt lat="42.91899" lon="1.38052">
        <ele>1335.2</ele>
        <time>2015-08-12T09:11:08.166Z</time>
      </trkpt>
      <trkpt lat="42.91899" lon="1.38049">
        <ele>1335.3</ele>
        <time>2015-08-12T09:11:09.147Z</time>
      </trkpt>
      <trkpt lat="42.91901" lon="1.38039">
        <ele>1335.8</ele>
        <time>2015-08-12T09:11:13.166Z</time>
      </trkpt>
      <trkpt lat="42.91901" lon="1.38036">
        <ele>1335.8</ele>
        <time>2015-08-12T09:11:14.145Z</time>
      </trkpt>
      <trkpt lat="42.91899" lon="1.38026">
        <ele>1335.8</ele>
        <time>2015-08-12T09:11:19.166Z</time>
      </trkpt>
      <trkpt lat="42.91898" lon="1.38024">
        <ele>1335.8</ele>
        <time>2015-08-12T09:11:20.145Z</time>
      </trkpt>
      <trkpt lat="42.91898" lon="1.38013">
        <ele>1336.1</ele>
        <time>2015-08-12T09:11:24.166Z</time>
      </trkpt>
      <trkpt lat="42.91899" lon="1.3801">
        <ele>1336.2</ele>
        <time>2015-08-12T09:11:25.145Z</time>
      </trkpt>
      <trkpt lat="42.919" lon="1.38">
        <ele>1336.6</ele>
        <time>2015-08-12T09:11:29.166Z</time>
      </trkpt>
      <trkpt lat="42.91901" lon="1.37997">
        <ele>1336.7</ele>
        <time>2015-08-12T09:11:30.145Z</time>
      </trkpt>
      <trkpt lat="42.91901" lon="1.37987">
        <ele>1337.1</ele>
        <time>2015-08-12T09:11:35.180Z</time>
      </trkpt>
      <trkpt lat="42.91899" lon="1.37985">
        <ele>1337.3</ele>
        <time>2015-08-12T09:11:36.145Z</time>
      </trkpt>
      <trkpt lat="42.91902" lon="1.37974">
        <ele>1337.8</ele>
        <time>2015-08-12T09:11:42.178Z</time>
      </trkpt>
      <trkpt lat="42.91902" lon="1.37973">
        <ele>1337.9</ele>
        <time>2015-08-12T09:11:43.144Z</time>
      </trkpt>
      <trkpt lat="42.91904" lon="1.37962">
        <ele>1338.2</ele>
        <time>2015-08-12T09:11:49.167Z</time>
      </trkpt>
      <trkpt lat="42.91904" lon="1.37961">
        <ele>1338.2</ele>
        <time>2015-08-12T09:11:50.145Z</time>
      </trkpt>
      <trkpt lat="42.91908" lon="1.37952">
        <ele>1338.2</ele>
        <time>2015-08-12T09:11:55.300Z</time>
      </trkpt>
      <trkpt lat="42.91909" lon="1.37949">
        <ele>1338.4</ele>
        <time>2015-08-12T09:11:56.145Z</time>
      </trkpt>
      <trkpt lat="42.91914" lon="1.37941">
        <ele>1339.1</ele>
        <time>2015-08-12T09:12:01.166Z</time>
      </trkpt>
      <trkpt lat="42.91915" lon="1.37939">
        <ele>1339.2</ele>
        <time>2015-08-12T09:12:02.145Z</time>
      </trkpt>
      <trkpt lat="42.91922" lon="1.37934">
        <ele>1339.6</ele>
        <time>2015-08-12T09:12:06.167Z</time>
      </trkpt>
      <trkpt lat="42.91923" lon="1.37932">
        <ele>1339.7</ele>
        <time>2015-08-12T09:12:07.145Z</time>
      </trkpt>
      <trkpt lat="42.91929" lon="1.37925">
        <ele>1339.9</ele>
        <time>2015-08-12T09:12:12.173Z</time>
      </trkpt>
      <trkpt lat="42.9193" lon="1.37924">
        <ele>1340</ele>
        <time>2015-08-12T09:12:13.144Z</time>
      </trkpt>
      <trkpt lat="42.91935" lon="1.37915">
        <ele>1340.6</ele>
        <time>2015-08-12T09:12:18.166Z</time>
      </trkpt>
      <trkpt lat="42.91935" lon="1.37913">
        <ele>1340.7</ele>
        <time>2015-08-12T09:12:19.156Z</time>
      </trkpt>
      <trkpt lat="42.9194" lon="1.37903">
        <ele>1340.9</ele>
        <time>2015-08-12T09:12:24.178Z</time>
      </trkpt>
      <trkpt lat="42.9194" lon="1.37901">
        <ele>1340.8</ele>
        <time>2015-08-12T09:12:25.145Z</time>
      </trkpt>
      <trkpt lat="42.91945" lon="1.37892">
        <ele>1341</ele>
        <time>2015-08-12T09:12:30.166Z</time>
      </trkpt>
      <trkpt lat="42.91947" lon="1.37891">
        <ele>1341</ele>
        <time>2015-08-12T09:12:31.145Z</time>
      </trkpt>
      <trkpt lat="42.91952" lon="1.37883">
        <ele>1341.6</ele>
        <time>2015-08-12T09:12:36.166Z</time>
      </trkpt>
      <trkpt lat="42.91953" lon="1.37882">
        <ele>1341.6</ele>
        <time>2015-08-12T09:12:37.145Z</time>
      </trkpt>
      <trkpt lat="42.91959" lon="1.37873">
        <ele>1341.8</ele>
        <time>2015-08-12T09:12:43.166Z</time>
      </trkpt>
      <trkpt lat="42.9196" lon="1.37872">
        <ele>1341.9</ele>
        <time>2015-08-12T09:12:44.145Z</time>
      </trkpt>
      <trkpt lat="42.91966" lon="1.37864">
        <ele>1342.5</ele>
        <time>2015-08-12T09:12:49.167Z</time>
      </trkpt>
      <trkpt lat="42.91967" lon="1.37862">
        <ele>1342.6</ele>
        <time>2015-08-12T09:12:50.156Z</time>
      </trkpt>
      <trkpt lat="42.91974" lon="1.37854">
        <ele>1342.7</ele>
        <time>2015-08-12T09:12:55.178Z</time>
      </trkpt>
      <trkpt lat="42.91975" lon="1.37852">
        <ele>1342.7</ele>
        <time>2015-08-12T09:12:56.145Z</time>
      </trkpt>
      <trkpt lat="42.91981" lon="1.37846">
        <ele>1343</ele>
        <time>2015-08-12T09:13:01.166Z</time>
      </trkpt>
      <trkpt lat="42.91983" lon="1.37845">
        <ele>1343</ele>
        <time>2015-08-12T09:13:02.145Z</time>
      </trkpt>
      <trkpt lat="42.91987" lon="1.37837">
        <ele>1342.7</ele>
        <time>2015-08-12T09:13:08.166Z</time>
      </trkpt>
      <trkpt lat="42.91988" lon="1.37835">
        <ele>1342.7</ele>
        <time>2015-08-12T09:13:09.146Z</time>
      </trkpt>
      <trkpt lat="42.91992" lon="1.37825">
        <ele>1342.9</ele>
        <time>2015-08-12T09:13:14.166Z</time>
      </trkpt>
      <trkpt lat="42.91992" lon="1.37823">
        <ele>1343</ele>
        <time>2015-08-12T09:13:15.147Z</time>
      </trkpt>
      <trkpt lat="42.91996" lon="1.37814">
        <ele>1343.1</ele>
        <time>2015-08-12T09:13:20.166Z</time>
      </trkpt>
      <trkpt lat="42.91997" lon="1.37812">
        <ele>1343.1</ele>
        <time>2015-08-12T09:13:21.147Z</time>
      </trkpt>
      <trkpt lat="42.92" lon="1.37801">
        <ele>1343.3</ele>
        <time>2015-08-12T09:13:27.180Z</time>
      </trkpt>
      <trkpt lat="42.92001" lon="1.37799">
        <ele>1343.3</ele>
        <time>2015-08-12T09:13:28.145Z</time>
      </trkpt>
      <trkpt lat="42.92003" lon="1.3779">
        <ele>1343.3</ele>
        <time>2015-08-12T09:13:34.167Z</time>
      </trkpt>
      <trkpt lat="42.92004" lon="1.37788">
        <ele>1343.4</ele>
        <time>2015-08-12T09:13:35.145Z</time>
      </trkpt>
      <trkpt lat="42.92008" lon="1.37778">
        <ele>1343.4</ele>
        <time>2015-08-12T09:13:39.169Z</time>
      </trkpt>
      <trkpt lat="42.92008" lon="1.37776">
        <ele>1343.4</ele>
        <time>2015-08-12T09:13:40.145Z</time>
      </trkpt>
      <trkpt lat="42.92012" lon="1.37767">
        <ele>1343.4</ele>
        <time>2015-08-12T09:13:45.169Z</time>
      </trkpt>
      <trkpt lat="42.92013" lon="1.37765">
        <ele>1343.4</ele>
        <time>2015-08-12T09:13:46.145Z</time>
      </trkpt>
      <trkpt lat="42.92019" lon="1.37756">
        <ele>1343.5</ele>
        <time>2015-08-12T09:13:52.166Z</time>
      </trkpt>
      <trkpt lat="42.92019" lon="1.37754">
        <ele>1343.4</ele>
        <time>2015-08-12T09:13:53.157Z</time>
      </trkpt>
      <trkpt lat="42.92025" lon="1.37745">
        <ele>1343.4</ele>
        <time>2015-08-12T09:13:58.166Z</time>
      </trkpt>
      <trkpt lat="42.92026" lon="1.37742">
        <ele>1343.3</ele>
        <time>2015-08-12T09:13:59.145Z</time>
      </trkpt>
      <trkpt lat="42.92031" lon="1.37733">
        <ele>1343.2</ele>
        <time>2015-08-12T09:14:05.166Z</time>
      </trkpt>
      <trkpt lat="42.92032" lon="1.37731">
        <ele>1343.3</ele>
        <time>2015-08-12T09:14:06.145Z</time>
      </trkpt>
      <trkpt lat="42.92039" lon="1.37724">
        <ele>1343.4</ele>
        <time>2015-08-12T09:14:10.166Z</time>
      </trkpt>
      <trkpt lat="42.92041" lon="1.37722">
        <ele>1343.4</ele>
        <time>2015-08-12T09:14:11.145Z</time>
      </trkpt>
      <trkpt lat="42.92046" lon="1.37714">
        <ele>1343</ele>
        <time>2015-08-12T09:14:15.169Z</time>
      </trkpt>
      <trkpt lat="42.92047" lon="1.37713">
        <ele>1342.9</ele>
        <time>2015-08-12T09:14:16.145Z</time>
      </trkpt>
      <trkpt lat="42.92052" lon="1.37705">
        <ele>1342.4</ele>
        <time>2015-08-12T09:14:21.168Z</time>
      </trkpt>
      <trkpt lat="42.92053" lon="1.37703">
        <ele>1342.3</ele>
        <time>2015-08-12T09:14:22.145Z</time>
      </trkpt>
      <trkpt lat="42.92058" lon="1.37695">
        <ele>1342.3</ele>
        <time>2015-08-12T09:14:27.169Z</time>
      </trkpt>
      <trkpt lat="42.92059" lon="1.37693">
        <ele>1342.2</ele>
        <time>2015-08-12T09:14:28.145Z</time>
      </trkpt>
      <trkpt lat="42.92065" lon="1.37688">
        <ele>1342.5</ele>
        <time>2015-08-12T09:14:32.169Z</time>
      </trkpt>
      <trkpt lat="42.92067" lon="1.37687">
        <ele>1342.7</ele>
        <time>2015-08-12T09:14:33.149Z</time>
      </trkpt>
      <trkpt lat="42.92073" lon="1.3768">
        <ele>1343.1</ele>
        <time>2015-08-12T09:14:37.168Z</time>
      </trkpt>
      <trkpt lat="42.92075" lon="1.37679">
        <ele>1343.2</ele>
        <time>2015-08-12T09:14:38.145Z</time>
      </trkpt>
      <trkpt lat="42.92081" lon="1.37671">
        <ele>1343.3</ele>
        <time>2015-08-12T09:14:44.206Z</time>
      </trkpt>
      <trkpt lat="42.92082" lon="1.37669">
        <ele>1343.3</ele>
        <time>2015-08-12T09:14:45.147Z</time>
      </trkpt>
      <trkpt lat="42.92088" lon="1.37663">
        <ele>1342.8</ele>
        <time>2015-08-12T09:14:51.169Z</time>
      </trkpt>
      <trkpt lat="42.9209" lon="1.37663">
        <ele>1342.8</ele>
        <time>2015-08-12T09:14:52.157Z</time>
      </trkpt>
      <trkpt lat="42.92096" lon="1.37657">
        <ele>1342.5</ele>
        <time>2015-08-12T09:14:57.181Z</time>
      </trkpt>
      <trkpt lat="42.92097" lon="1.37656">
        <ele>1342.5</ele>
        <time>2015-08-12T09:14:58.144Z</time>
      </trkpt>
      <trkpt lat="42.92105" lon="1.37651">
        <ele>1342.5</ele>
        <time>2015-08-12T09:15:03.169Z</time>
      </trkpt>
      <trkpt lat="42.92106" lon="1.37649">
        <ele>1342.4</ele>
        <time>2015-08-12T09:15:04.144Z</time>
      </trkpt>
      <trkpt lat="42.92114" lon="1.37643">
        <ele>1342.3</ele>
        <time>2015-08-12T09:15:09.170Z</time>
      </trkpt>
      <trkpt lat="42.92115" lon="1.37642">
        <ele>1342.4</ele>
        <time>2015-08-12T09:15:10.145Z</time>
      </trkpt>
      <trkpt lat="42.92122" lon="1.37634">
        <ele>1342</ele>
        <time>2015-08-12T09:15:16.166Z</time>
      </trkpt>
      <trkpt lat="42.92123" lon="1.37633">
        <ele>1342</ele>
        <time>2015-08-12T09:15:17.145Z</time>
      </trkpt>
      <trkpt lat="42.9213" lon="1.37624">
        <ele>1342.7</ele>
        <time>2015-08-12T09:15:23.167Z</time>
      </trkpt>
      <trkpt lat="42.92131" lon="1.37623">
        <ele>1342.7</ele>
        <time>2015-08-12T09:15:24.145Z</time>
      </trkpt>
      <trkpt lat="42.92136" lon="1.37614">
        <ele>1343</ele>
        <time>2015-08-12T09:15:30.280Z</time>
      </trkpt>
      <trkpt lat="42.92137" lon="1.37613">
        <ele>1342.9</ele>
        <time>2015-08-12T09:15:31.145Z</time>
      </trkpt>
      <trkpt lat="42.92141" lon="1.37603">
        <ele>1343.4</ele>
        <time>2015-08-12T09:15:38.190Z</time>
      </trkpt>
      <trkpt lat="42.92143" lon="1.37602">
        <ele>1343.6</ele>
        <time>2015-08-12T09:15:39.159Z</time>
      </trkpt>
      <trkpt lat="42.92147" lon="1.37592">
        <ele>1343.1</ele>
        <time>2015-08-12T09:15:45.168Z</time>
      </trkpt>
      <trkpt lat="42.92148" lon="1.37591">
        <ele>1343</ele>
        <time>2015-08-12T09:15:46.145Z</time>
      </trkpt>
      <trkpt lat="42.92155" lon="1.37588">
        <ele>1343</ele>
        <time>2015-08-12T09:15:52.181Z</time>
      </trkpt>
      <trkpt lat="42.92157" lon="1.37587">
        <ele>1343</ele>
        <time>2015-08-12T09:15:53.145Z</time>
      </trkpt>
      <trkpt lat="42.92162" lon="1.37578">
        <ele>1342.9</ele>
        <time>2015-08-12T09:15:59.166Z</time>
      </trkpt>
      <trkpt lat="42.92163" lon="1.37576">
        <ele>1342.8</ele>
        <time>2015-08-12T09:16:00.145Z</time>
      </trkpt>
      <trkpt lat="42.92168" lon="1.37567">
        <ele>1342.4</ele>
        <time>2015-08-12T09:16:05.169Z</time>
      </trkpt>
      <trkpt lat="42.92169" lon="1.37566">
        <ele>1342.5</ele>
        <time>2015-08-12T09:16:06.145Z</time>
      </trkpt>
      <trkpt lat="42.92175" lon="1.37558">
        <ele>1342.6</ele>
        <time>2015-08-12T09:16:11.167Z</time>
      </trkpt>
      <trkpt lat="42.92177" lon="1.37557">
        <ele>1342.6</ele>
        <time>2015-08-12T09:16:12.166Z</time>
      </trkpt>
      <trkpt lat="42.92181" lon="1.37547">
        <ele>1342.8</ele>
        <time>2015-08-12T09:16:18.166Z</time>
      </trkpt>
      <trkpt lat="42.92183" lon="1.37545">
        <ele>1342.9</ele>
        <time>2015-08-12T09:16:19.145Z</time>
      </trkpt>
      <trkpt lat="42.92189" lon="1.37538">
        <ele>1343</ele>
        <time>2015-08-12T09:16:26.249Z</time>
      </trkpt>
      <trkpt lat="42.9219" lon="1.37537">
        <ele>1342.8</ele>
        <time>2015-08-12T09:16:27.147Z</time>
      </trkpt>
      <trkpt lat="42.92194" lon="1.37528">
        <ele>1342.8</ele>
        <time>2015-08-12T09:16:34.167Z</time>
      </trkpt>
      <trkpt lat="42.92195" lon="1.37526">
        <ele>1342.8</ele>
        <time>2015-08-12T09:16:35.145Z</time>
      </trkpt>
      <trkpt lat="42.92199" lon="1.37517">
        <ele>1342.9</ele>
        <time>2015-08-12T09:16:42.178Z</time>
      </trkpt>
      <trkpt lat="42.922" lon="1.37515">
        <ele>1342.9</ele>
        <time>2015-08-12T09:16:43.145Z</time>
      </trkpt>
      <trkpt lat="42.92205" lon="1.37506">
        <ele>1342.9</ele>
        <time>2015-08-12T09:16:50.167Z</time>
      </trkpt>
      <trkpt lat="42.92206" lon="1.37506">
        <ele>1342.9</ele>
        <time>2015-08-12T09:16:51.151Z</time>
      </trkpt>
      <trkpt lat="42.9221" lon="1.37496">
        <ele>1342.9</ele>
        <time>2015-08-12T09:16:57.169Z</time>
      </trkpt>
      <trkpt lat="42.92211" lon="1.37495">
        <ele>1342.9</ele>
        <time>2015-08-12T09:16:58.157Z</time>
      </trkpt>
      <trkpt lat="42.92217" lon="1.37488">
        <ele>1343.4</ele>
        <time>2015-08-12T09:17:03.205Z</time>
      </trkpt>
      <trkpt lat="42.92217" lon="1.37486">
        <ele>1343.5</ele>
        <time>2015-08-12T09:17:04.145Z</time>
      </trkpt>
      <trkpt lat="42.92222" lon="1.37478">
        <ele>1343.9</ele>
        <time>2015-08-12T09:17:08.168Z</time>
      </trkpt>
      <trkpt lat="42.92224" lon="1.37476">
        <ele>1344</ele>
        <time>2015-08-12T09:17:09.147Z</time>
      </trkpt>
      <trkpt lat="42.92229" lon="1.37466">
        <ele>1344.1</ele>
        <time>2015-08-12T09:17:15.169Z</time>
      </trkpt>
      <trkpt lat="42.92229" lon="1.37464">
        <ele>1344.3</ele>
        <time>2015-08-12T09:17:16.145Z</time>
      </trkpt>
      <trkpt lat="42.92234" lon="1.37456">
        <ele>1344.4</ele>
        <time>2015-08-12T09:17:21.169Z</time>
      </trkpt>
      <trkpt lat="42.92235" lon="1.37455">
        <ele>1344.5</ele>
        <time>2015-08-12T09:17:22.145Z</time>
      </trkpt>
      <trkpt lat="42.92241" lon="1.37448">
        <ele>1345</ele>
        <time>2015-08-12T09:17:28.166Z</time>
      </trkpt>
      <trkpt lat="42.92242" lon="1.37446">
        <ele>1345.1</ele>
        <time>2015-08-12T09:17:29.145Z</time>
      </trkpt>
      <trkpt lat="42.92249" lon="1.37438">
        <ele>1345</ele>
        <time>2015-08-12T09:17:34.179Z</time>
      </trkpt>
      <trkpt lat="42.9225" lon="1.37436">
        <ele>1344.8</ele>
        <time>2015-08-12T09:17:35.145Z</time>
      </trkpt>
      <trkpt lat="42.92257" lon="1.37432">
        <ele>1344.9</ele>
        <time>2015-08-12T09:17:40.167Z</time>
      </trkpt>
      <trkpt lat="42.92259" lon="1.37431">
        <ele>1345</ele>
        <time>2015-08-12T09:17:41.145Z</time>
      </trkpt>
      <trkpt lat="42.92265" lon="1.37426">
        <ele>1345.5</ele>
        <time>2015-08-12T09:17:48.167Z</time>
      </trkpt>
      <trkpt lat="42.92266" lon="1.37425">
        <ele>1345.5</ele>
        <time>2015-08-12T09:17:49.145Z</time>
      </trkpt>
      <trkpt lat="42.92273" lon="1.37419">
        <ele>1345.4</ele>
        <time>2015-08-12T09:17:56.167Z</time>
      </trkpt>
      <trkpt lat="42.92274" lon="1.37418">
        <ele>1345.4</ele>
        <time>2015-08-12T09:17:57.147Z</time>
      </trkpt>
      <trkpt lat="42.92282" lon="1.37413">
        <ele>1345.7</ele>
        <time>2015-08-12T09:18:03.170Z</time>
      </trkpt>
      <trkpt lat="42.92284" lon="1.37412">
        <ele>1345.8</ele>
        <time>2015-08-12T09:18:04.145Z</time>
      </trkpt>
      <trkpt lat="42.92291" lon="1.37408">
        <ele>1346.3</ele>
        <time>2015-08-12T09:18:11.179Z</time>
      </trkpt>
      <trkpt lat="42.92293" lon="1.37407">
        <ele>1346.5</ele>
        <time>2015-08-12T09:18:12.145Z</time>
      </trkpt>
      <trkpt lat="42.923" lon="1.37401">
        <ele>1347</ele>
        <time>2015-08-12T09:18:19.167Z</time>
      </trkpt>
      <trkpt lat="42.92301" lon="1.374">
        <ele>1347.1</ele>
        <time>2015-08-12T09:18:20.145Z</time>
      </trkpt>
      <trkpt lat="42.9231" lon="1.37398">
        <ele>1347.7</ele>
        <time>2015-08-12T09:18:29.167Z</time>
      </trkpt>
      <trkpt lat="42.92311" lon="1.37397">
        <ele>1347.8</ele>
        <time>2015-08-12T09:18:30.145Z</time>
      </trkpt>
      <trkpt lat="42.92319" lon="1.37396">
        <ele>1347.9</ele>
        <time>2015-08-12T09:18:34.168Z</time>
      </trkpt>
      <trkpt lat="42.92321" lon="1.37396">
        <ele>1348</ele>
        <time>2015-08-12T09:18:35.145Z</time>
      </trkpt>
      <trkpt lat="42.9233" lon="1.37394">
        <ele>1349.1</ele>
        <time>2015-08-12T09:18:41.167Z</time>
      </trkpt>
      <trkpt lat="42.92331" lon="1.37393">
        <ele>1349.2</ele>
        <time>2015-08-12T09:18:42.145Z</time>
      </trkpt>
      <trkpt lat="42.92339" lon="1.37391">
        <ele>1349.7</ele>
        <time>2015-08-12T09:18:47.280Z</time>
      </trkpt>
      <trkpt lat="42.9234" lon="1.3739">
        <ele>1349.8</ele>
        <time>2015-08-12T09:18:48.157Z</time>
      </trkpt>
      <trkpt lat="42.92347" lon="1.37388">
        <ele>1350.1</ele>
        <time>2015-08-12T09:18:54.167Z</time>
      </trkpt>
      <trkpt lat="42.92349" lon="1.37386">
        <ele>1350.2</ele>
        <time>2015-08-12T09:18:55.145Z</time>
      </trkpt>
      <trkpt lat="42.92356" lon="1.37384">
        <ele>1351</ele>
        <time>2015-08-12T09:19:01.167Z</time>
      </trkpt>
      <trkpt lat="42.92358" lon="1.37385">
        <ele>1351.1</ele>
        <time>2015-08-12T09:19:02.145Z</time>
      </trkpt>
      <trkpt lat="42.92367" lon="1.37385">
        <ele>1351</ele>
        <time>2015-08-12T09:19:07.167Z</time>
      </trkpt>
      <trkpt lat="42.92368" lon="1.37384">
        <ele>1351.1</ele>
        <time>2015-08-12T09:19:08.145Z</time>
      </trkpt>
      <trkpt lat="42.92376" lon="1.37382">
        <ele>1351.2</ele>
        <time>2015-08-12T09:19:13.167Z</time>
      </trkpt>
      <trkpt lat="42.92378" lon="1.37382">
        <ele>1351.3</ele>
        <time>2015-08-12T09:19:14.146Z</time>
      </trkpt>
      <trkpt lat="42.92385" lon="1.37381">
        <ele>1350.8</ele>
        <time>2015-08-12T09:19:19.166Z</time>
      </trkpt>
      <trkpt lat="42.92387" lon="1.3738">
        <ele>1350.6</ele>
        <time>2015-08-12T09:19:20.157Z</time>
      </trkpt>
      <trkpt lat="42.92395" lon="1.37378">
        <ele>1350.3</ele>
        <time>2015-08-12T09:19:25.229Z</time>
      </trkpt>
      <trkpt lat="42.92396" lon="1.37378">
        <ele>1350.2</ele>
        <time>2015-08-12T09:19:26.145Z</time>
      </trkpt>
      <trkpt lat="42.92405" lon="1.37381">
        <ele>1349.7</ele>
        <time>2015-08-12T09:19:30.166Z</time>
      </trkpt>
      <trkpt lat="42.92407" lon="1.37381">
        <ele>1349.7</ele>
        <time>2015-08-12T09:19:31.145Z</time>
      </trkpt>
      <trkpt lat="42.92416" lon="1.37378">
        <ele>1349.8</ele>
        <time>2015-08-12T09:19:39.169Z</time>
      </trkpt>
      <trkpt lat="42.92416" lon="1.37377">
        <ele>1350</ele>
        <time>2015-08-12T09:19:40.145Z</time>
      </trkpt>
      <trkpt lat="42.92425" lon="1.37379">
        <ele>1351.2</ele>
        <time>2015-08-12T09:19:46.179Z</time>
      </trkpt>
      <trkpt lat="42.92425" lon="1.37379">
        <ele>1351.3</ele>
        <time>2015-08-12T09:19:47.145Z</time>
      </trkpt>
      <trkpt lat="42.92434" lon="1.3738">
        <ele>1354.3</ele>
        <time>2015-08-12T09:19:49.166Z</time>
      </trkpt>
      <trkpt lat="42.92435" lon="1.3738">
        <ele>1354.2</ele>
        <time>2015-08-12T09:19:50.145Z</time>
      </trkpt>
      <trkpt lat="42.92443" lon="1.37379">
        <ele>1355.8</ele>
        <time>2015-08-12T09:19:57.169Z</time>
      </trkpt>
      <trkpt lat="42.92445" lon="1.37379">
        <ele>1356</ele>
        <time>2015-08-12T09:19:58.145Z</time>
      </trkpt>
      <trkpt lat="42.92453" lon="1.37375">
        <ele>1357.4</ele>
        <time>2015-08-12T09:20:13.286Z</time>
      </trkpt>
      <trkpt lat="42.92454" lon="1.37375">
        <ele>1357.4</ele>
        <time>2015-08-12T09:20:14.145Z</time>
      </trkpt>
      <trkpt lat="42.92462" lon="1.37372">
        <ele>1359.2</ele>
        <time>2015-08-12T09:20:28.166Z</time>
      </trkpt>
      <trkpt lat="42.92463" lon="1.37371">
        <ele>1359.3</ele>
        <time>2015-08-12T09:20:29.145Z</time>
      </trkpt>
      <trkpt lat="42.92469" lon="1.37364">
        <ele>1360.1</ele>
        <time>2015-08-12T09:20:36.166Z</time>
      </trkpt>
      <trkpt lat="42.92471" lon="1.37363">
        <ele>1360.2</ele>
        <time>2015-08-12T09:20:37.145Z</time>
      </trkpt>
      <trkpt lat="42.92478" lon="1.37355">
        <ele>1360.4</ele>
        <time>2015-08-12T09:20:42.166Z</time>
      </trkpt>
      <trkpt lat="42.92478" lon="1.37355">
        <ele>1360.5</ele>
        <time>2015-08-12T09:20:43.145Z</time>
      </trkpt>
      <trkpt lat="42.92482" lon="1.37345">
        <ele>1361.2</ele>
        <time>2015-08-12T09:20:50.179Z</time>
      </trkpt>
      <trkpt lat="42.92482" lon="1.37344">
        <ele>1361.3</ele>
        <time>2015-08-12T09:20:51.147Z</time>
      </trkpt>
      <trkpt lat="42.92488" lon="1.37335">
        <ele>1361.7</ele>
        <time>2015-08-12T09:20:59.167Z</time>
      </trkpt>
      <trkpt lat="42.92488" lon="1.37333">
        <ele>1361.9</ele>
        <time>2015-08-12T09:21:00.155Z</time>
      </trkpt>
      <trkpt lat="42.92494" lon="1.37327">
        <ele>1362.6</ele>
        <time>2015-08-12T09:21:07.167Z</time>
      </trkpt>
      <trkpt lat="42.92499" lon="1.37326">
        <ele>1362.8</ele>
        <time>2015-08-12T09:21:08.145Z</time>
      </trkpt>
      <trkpt lat="42.92504" lon="1.37317">
        <ele>1363.9</ele>
        <time>2015-08-12T09:21:18.167Z</time>
      </trkpt>
      <trkpt lat="42.92505" lon="1.37316">
        <ele>1363.9</ele>
        <time>2015-08-12T09:21:19.145Z</time>
      </trkpt>
      <trkpt lat="42.92512" lon="1.3731">
        <ele>1366</ele>
        <time>2015-08-12T09:21:27.181Z</time>
      </trkpt>
      <trkpt lat="42.92512" lon="1.37308">
        <ele>1366.3</ele>
        <time>2015-08-12T09:21:28.145Z</time>
      </trkpt>
      <trkpt lat="42.92519" lon="1.37303">
        <ele>1367.4</ele>
        <time>2015-08-12T09:21:36.167Z</time>
      </trkpt>
      <trkpt lat="42.92521" lon="1.37302">
        <ele>1367.6</ele>
        <time>2015-08-12T09:21:37.145Z</time>
      </trkpt>
      <trkpt lat="42.92522" lon="1.37291">
        <ele>1371</ele>
        <time>2015-08-12T09:21:49.167Z</time>
      </trkpt>
      <trkpt lat="42.92523" lon="1.3729">
        <ele>1371.6</ele>
        <time>2015-08-12T09:21:50.145Z</time>
      </trkpt>
      <trkpt lat="42.9253" lon="1.37287">
        <ele>1375.8</ele>
        <time>2015-08-12T09:21:58.276Z</time>
      </trkpt>
      <trkpt lat="42.92531" lon="1.37287">
        <ele>1376.3</ele>
        <time>2015-08-12T09:21:59.146Z</time>
      </trkpt>
      <trkpt lat="42.92537" lon="1.3728">
        <ele>1378.8</ele>
        <time>2015-08-12T09:22:05.168Z</time>
      </trkpt>
      <trkpt lat="42.92538" lon="1.37278">
        <ele>1379.1</ele>
        <time>2015-08-12T09:22:06.145Z</time>
      </trkpt>
      <trkpt lat="42.92543" lon="1.37271">
        <ele>1380.4</ele>
        <time>2015-08-12T09:22:09.180Z</time>
      </trkpt>
      <trkpt lat="42.92545" lon="1.37268">
        <ele>1380.7</ele>
        <time>2015-08-12T09:22:10.145Z</time>
      </trkpt>
      <trkpt lat="42.92549" lon="1.37258">
        <ele>1381.6</ele>
        <time>2015-08-12T09:22:14.167Z</time>
      </trkpt>
      <trkpt lat="42.9255" lon="1.37256">
        <ele>1381.9</ele>
        <time>2015-08-12T09:22:15.147Z</time>
      </trkpt>
      <trkpt lat="42.92554" lon="1.37248">
        <ele>1383.8</ele>
        <time>2015-08-12T09:22:22.166Z</time>
      </trkpt>
      <trkpt lat="42.92555" lon="1.37245">
        <ele>1384</ele>
        <time>2015-08-12T09:22:23.145Z</time>
      </trkpt>
      <trkpt lat="42.92563" lon="1.3724">
        <ele>1385.5</ele>
        <time>2015-08-12T09:22:29.167Z</time>
      </trkpt>
      <trkpt lat="42.92563" lon="1.37239">
        <ele>1385.8</ele>
        <time>2015-08-12T09:22:30.145Z</time>
      </trkpt>
      <trkpt lat="42.92569" lon="1.3723">
        <ele>1387.7</ele>
        <time>2015-08-12T09:22:39.169Z</time>
      </trkpt>
      <trkpt lat="42.92571" lon="1.37229">
        <ele>1387.9</ele>
        <time>2015-08-12T09:22:40.145Z</time>
      </trkpt>
      <trkpt lat="42.92575" lon="1.37219">
        <ele>1388.2</ele>
        <time>2015-08-12T09:22:44.168Z</time>
      </trkpt>
      <trkpt lat="42.92576" lon="1.37217">
        <ele>1388</ele>
        <time>2015-08-12T09:22:45.255Z</time>
      </trkpt>
      <trkpt lat="42.92583" lon="1.37211">
        <ele>1389.4</ele>
        <time>2015-08-12T09:22:55.275Z</time>
      </trkpt>
      <trkpt lat="42.92584" lon="1.3721">
        <ele>1389.5</ele>
        <time>2015-08-12T09:22:56.145Z</time>
      </trkpt>
      <trkpt lat="42.92591" lon="1.37202">
        <ele>1391.4</ele>
        <time>2015-08-12T09:23:10.167Z</time>
      </trkpt>
      <trkpt lat="42.92592" lon="1.372">
        <ele>1391.4</ele>
        <time>2015-08-12T09:23:11.145Z</time>
      </trkpt>
      <trkpt lat="42.92595" lon="1.37189">
        <ele>1391.9</ele>
        <time>2015-08-12T09:23:16.167Z</time>
      </trkpt>
      <trkpt lat="42.92594" lon="1.37188">
        <ele>1392.1</ele>
        <time>2015-08-12T09:23:17.145Z</time>
      </trkpt>
      <trkpt lat="42.92597" lon="1.37177">
        <ele>1393.2</ele>
        <time>2015-08-12T09:23:26.167Z</time>
      </trkpt>
      <trkpt lat="42.92597" lon="1.37175">
        <ele>1393.2</ele>
        <time>2015-08-12T09:23:27.147Z</time>
      </trkpt>
      <trkpt lat="42.92601" lon="1.37165">
        <ele>1394.5</ele>
        <time>2015-08-12T09:23:47.168Z</time>
      </trkpt>
      <trkpt lat="42.92601" lon="1.37164">
        <ele>1394.7</ele>
        <time>2015-08-12T09:23:48.145Z</time>
      </trkpt>
      <trkpt lat="42.92607" lon="1.37155">
        <ele>1395.8</ele>
        <time>2015-08-12T09:24:04.179Z</time>
      </trkpt>
      <trkpt lat="42.92607" lon="1.37154">
        <ele>1395.9</ele>
        <time>2015-08-12T09:24:05.145Z</time>
      </trkpt>
      <trkpt lat="42.92612" lon="1.37145">
        <ele>1396.7</ele>
        <time>2015-08-12T09:24:16.167Z</time>
      </trkpt>
      <trkpt lat="42.92613" lon="1.37143">
        <ele>1396.7</ele>
        <time>2015-08-12T09:24:17.145Z</time>
      </trkpt>
      <trkpt lat="42.92617" lon="1.37133">
        <ele>1397.5</ele>
        <time>2015-08-12T09:24:28.167Z</time>
      </trkpt>
      <trkpt lat="42.92617" lon="1.37132">
        <ele>1397.6</ele>
        <time>2015-08-12T09:24:29.145Z</time>
      </trkpt>
      <trkpt lat="42.92622" lon="1.37123">
        <ele>1398.5</ele>
        <time>2015-08-12T09:24:41.179Z</time>
      </trkpt>
      <trkpt lat="42.92622" lon="1.37121">
        <ele>1398.7</ele>
        <time>2015-08-12T09:24:42.145Z</time>
      </trkpt>
      <trkpt lat="42.92626" lon="1.37111">
        <ele>1399.2</ele>
        <time>2015-08-12T09:24:52.167Z</time>
      </trkpt>
      <trkpt lat="42.92626" lon="1.3711">
        <ele>1399.2</ele>
        <time>2015-08-12T09:24:53.145Z</time>
      </trkpt>
      <trkpt lat="42.9263" lon="1.37103">
        <ele>1400.3</ele>
        <time>2015-08-12T09:25:20.167Z</time>
      </trkpt>
      <trkpt lat="42.92635" lon="1.37094">
        <ele>1402.6</ele>
        <time>2015-08-12T09:25:21.147Z</time>
      </trkpt>
      <trkpt lat="42.92641" lon="1.37087">
        <ele>1404.4</ele>
        <time>2015-08-12T09:25:31.167Z</time>
      </trkpt>
      <trkpt lat="42.92641" lon="1.37085">
        <ele>1404.7</ele>
        <time>2015-08-12T09:25:32.145Z</time>
      </trkpt>
      <trkpt lat="42.92647" lon="1.37076">
        <ele>1406.8</ele>
        <time>2015-08-12T09:25:45.169Z</time>
      </trkpt>
      <trkpt lat="42.92647" lon="1.37076">
        <ele>1406.9</ele>
        <time>2015-08-12T09:25:46.145Z</time>
      </trkpt>
      <trkpt lat="42.92653" lon="1.37067">
        <ele>1407.5</ele>
        <time>2015-08-12T09:25:55.166Z</time>
      </trkpt>
      <trkpt lat="42.92653" lon="1.37066">
        <ele>1407.6</ele>
        <time>2015-08-12T09:25:56.146Z</time>
      </trkpt>
      <trkpt lat="42.92657" lon="1.37056">
        <ele>1408.3</ele>
        <time>2015-08-12T09:26:09.169Z</time>
      </trkpt>
      <trkpt lat="42.92658" lon="1.37055">
        <ele>1408.4</ele>
        <time>2015-08-12T09:26:10.145Z</time>
      </trkpt>
      <trkpt lat="42.92662" lon="1.37046">
        <ele>1409.1</ele>
        <time>2015-08-12T09:26:18.166Z</time>
      </trkpt>
      <trkpt lat="42.92663" lon="1.37045">
        <ele>1409.3</ele>
        <time>2015-08-12T09:26:19.145Z</time>
      </trkpt>
      <trkpt lat="42.9267" lon="1.37037">
        <ele>1411.3</ele>
        <time>2015-08-12T09:26:31.166Z</time>
      </trkpt>
      <trkpt lat="42.9267" lon="1.37036">
        <ele>1411.3</ele>
        <time>2015-08-12T09:26:32.145Z</time>
      </trkpt>
      <trkpt lat="42.92676" lon="1.37028">
        <ele>1412.7</ele>
        <time>2015-08-12T09:26:44.346Z</time>
      </trkpt>
      <trkpt lat="42.92677" lon="1.37027">
        <ele>1412.8</ele>
        <time>2015-08-12T09:26:46.085Z</time>
      </trkpt>
      <trkpt lat="42.92684" lon="1.37022">
        <ele>1414.5</ele>
        <time>2015-08-12T09:26:57.171Z</time>
      </trkpt>
      <trkpt lat="42.92685" lon="1.37021">
        <ele>1414.6</ele>
        <time>2015-08-12T09:26:58.156Z</time>
      </trkpt>
      <trkpt lat="42.92691" lon="1.37014">
        <ele>1415.5</ele>
        <time>2015-08-12T09:27:09.168Z</time>
      </trkpt>
      <trkpt lat="42.92692" lon="1.37013">
        <ele>1415.6</ele>
        <time>2015-08-12T09:27:10.144Z</time>
      </trkpt>
      <trkpt lat="42.927" lon="1.37009">
        <ele>1418.1</ele>
        <time>2015-08-12T09:27:23.165Z</time>
      </trkpt>
      <trkpt lat="42.92701" lon="1.37009">
        <ele>1418.3</ele>
        <time>2015-08-12T09:27:24.144Z</time>
      </trkpt>
      <trkpt lat="42.92708" lon="1.37002">
        <ele>1421.1</ele>
        <time>2015-08-12T09:27:39.168Z</time>
      </trkpt>
      <trkpt lat="42.92709" lon="1.37002">
        <ele>1421.2</ele>
        <time>2015-08-12T09:27:40.144Z</time>
      </trkpt>
      <trkpt lat="42.92718" lon="1.36998">
        <ele>1423</ele>
        <time>2015-08-12T09:27:53.165Z</time>
      </trkpt>
      <trkpt lat="42.92718" lon="1.36997">
        <ele>1423.2</ele>
        <time>2015-08-12T09:27:54.144Z</time>
      </trkpt>
      <trkpt lat="42.92726" lon="1.36996">
        <ele>1426.1</ele>
        <time>2015-08-12T09:28:13.166Z</time>
      </trkpt>
      <trkpt lat="42.92727" lon="1.36996">
        <ele>1426.3</ele>
        <time>2015-08-12T09:28:14.173Z</time>
      </trkpt>
      <trkpt lat="42.92734" lon="1.36988">
        <ele>1428.5</ele>
        <time>2015-08-12T09:28:26.165Z</time>
      </trkpt>
      <trkpt lat="42.92735" lon="1.36987">
        <ele>1428.7</ele>
        <time>2015-08-12T09:28:27.147Z</time>
      </trkpt>
      <trkpt lat="42.92739" lon="1.36978">
        <ele>1430.1</ele>
        <time>2015-08-12T09:28:36.166Z</time>
      </trkpt>
      <trkpt lat="42.9274" lon="1.36977">
        <ele>1430.3</ele>
        <time>2015-08-12T09:28:37.144Z</time>
      </trkpt>
      <trkpt lat="42.92748" lon="1.36972">
        <ele>1431.8</ele>
        <time>2015-08-12T09:28:44.543Z</time>
      </trkpt>
      <trkpt lat="42.92749" lon="1.36971">
        <ele>1432.1</ele>
        <time>2015-08-12T09:28:45.153Z</time>
      </trkpt>
      <trkpt lat="42.92754" lon="1.36962">
        <ele>1433.8</ele>
        <time>2015-08-12T09:28:53.251Z</time>
      </trkpt>
      <trkpt lat="42.92755" lon="1.36961">
        <ele>1434</ele>
        <time>2015-08-12T09:28:54.144Z</time>
      </trkpt>
      <trkpt lat="42.92762" lon="1.36955">
        <ele>1435.8</ele>
        <time>2015-08-12T09:29:02.165Z</time>
      </trkpt>
      <trkpt lat="42.92763" lon="1.36954">
        <ele>1436</ele>
        <time>2015-08-12T09:29:03.147Z</time>
      </trkpt>
      <trkpt lat="42.92771" lon="1.36949">
        <ele>1437.8</ele>
        <time>2015-08-12T09:29:14.295Z</time>
      </trkpt>
      <trkpt lat="42.92771" lon="1.36949">
        <ele>1437.9</ele>
        <time>2015-08-12T09:29:15.146Z</time>
      </trkpt>
      <trkpt lat="42.92776" lon="1.36939">
        <ele>1438.9</ele>
        <time>2015-08-12T09:29:23.165Z</time>
      </trkpt>
      <trkpt lat="42.92777" lon="1.36938">
        <ele>1439.1</ele>
        <time>2015-08-12T09:29:24.144Z</time>
      </trkpt>
      <trkpt lat="42.92782" lon="1.36929">
        <ele>1440.1</ele>
        <time>2015-08-12T09:29:31.165Z</time>
      </trkpt>
      <trkpt lat="42.92784" lon="1.36927">
        <ele>1440.3</ele>
        <time>2015-08-12T09:29:32.144Z</time>
      </trkpt>
      <trkpt lat="42.92789" lon="1.3692">
        <ele>1441.1</ele>
        <time>2015-08-12T09:29:38.166Z</time>
      </trkpt>
      <trkpt lat="42.9279" lon="1.36919">
        <ele>1441.3</ele>
        <time>2015-08-12T09:29:39.255Z</time>
      </trkpt>
      <trkpt lat="42.92796" lon="1.36911">
        <ele>1442.5</ele>
        <time>2015-08-12T09:29:45.167Z</time>
      </trkpt>
      <trkpt lat="42.92796" lon="1.3691">
        <ele>1442.7</ele>
        <time>2015-08-12T09:29:46.144Z</time>
      </trkpt>
      <trkpt lat="42.92802" lon="1.36902">
        <ele>1443.7</ele>
        <time>2015-08-12T09:29:52.166Z</time>
      </trkpt>
      <trkpt lat="42.92803" lon="1.369">
        <ele>1443.8</ele>
        <time>2015-08-12T09:29:53.144Z</time>
      </trkpt>
      <trkpt lat="42.92809" lon="1.36891">
        <ele>1444.9</ele>
        <time>2015-08-12T09:29:59.165Z</time>
      </trkpt>
      <trkpt lat="42.92811" lon="1.3689">
        <ele>1445.2</ele>
        <time>2015-08-12T09:30:00.144Z</time>
      </trkpt>
      <trkpt lat="42.92816" lon="1.36881">
        <ele>1445.9</ele>
        <time>2015-08-12T09:30:06.166Z</time>
      </trkpt>
      <trkpt lat="42.92817" lon="1.36879">
        <ele>1446</ele>
        <time>2015-08-12T09:30:07.146Z</time>
      </trkpt>
      <trkpt lat="42.92823" lon="1.36871">
        <ele>1446.8</ele>
        <time>2015-08-12T09:30:12.178Z</time>
      </trkpt>
      <trkpt lat="42.92824" lon="1.3687">
        <ele>1446.9</ele>
        <time>2015-08-12T09:30:13.144Z</time>
      </trkpt>
      <trkpt lat="42.9283" lon="1.36862">
        <ele>1447.5</ele>
        <time>2015-08-12T09:30:19.166Z</time>
      </trkpt>
      <trkpt lat="42.92831" lon="1.36861">
        <ele>1447.5</ele>
        <time>2015-08-12T09:30:20.144Z</time>
      </trkpt>
      <trkpt lat="42.92835" lon="1.36851">
        <ele>1448</ele>
        <time>2015-08-12T09:30:26.279Z</time>
      </trkpt>
      <trkpt lat="42.92837" lon="1.36849">
        <ele>1448.1</ele>
        <time>2015-08-12T09:30:27.147Z</time>
      </trkpt>
      <trkpt lat="42.92841" lon="1.3684">
        <ele>1448.5</ele>
        <time>2015-08-12T09:30:33.180Z</time>
      </trkpt>
      <trkpt lat="42.92842" lon="1.36839">
        <ele>1448.7</ele>
        <time>2015-08-12T09:30:34.144Z</time>
      </trkpt>
      <trkpt lat="42.92848" lon="1.36832">
        <ele>1449.3</ele>
        <time>2015-08-12T09:30:39.168Z</time>
      </trkpt>
      <trkpt lat="42.92849" lon="1.3683">
        <ele>1449.3</ele>
        <time>2015-08-12T09:30:40.144Z</time>
      </trkpt>
      <trkpt lat="42.92853" lon="1.3682">
        <ele>1449.5</ele>
        <time>2015-08-12T09:30:46.165Z</time>
      </trkpt>
      <trkpt lat="42.92853" lon="1.36818">
        <ele>1449.5</ele>
        <time>2015-08-12T09:30:47.144Z</time>
      </trkpt>
      <trkpt lat="42.92858" lon="1.36808">
        <ele>1449.9</ele>
        <time>2015-08-12T09:30:53.165Z</time>
      </trkpt>
      <trkpt lat="42.92858" lon="1.36807">
        <ele>1449.9</ele>
        <time>2015-08-12T09:30:54.156Z</time>
      </trkpt>
      <trkpt lat="42.92861" lon="1.36797">
        <ele>1449.6</ele>
        <time>2015-08-12T09:31:01.166Z</time>
      </trkpt>
      <trkpt lat="42.92862" lon="1.36795">
        <ele>1449.6</ele>
        <time>2015-08-12T09:31:02.152Z</time>
      </trkpt>
      <trkpt lat="42.92867" lon="1.36787">
        <ele>1450</ele>
        <time>2015-08-12T09:31:07.166Z</time>
      </trkpt>
      <trkpt lat="42.92868" lon="1.36785">
        <ele>1450.2</ele>
        <time>2015-08-12T09:31:08.144Z</time>
      </trkpt>
      <trkpt lat="42.92873" lon="1.36776">
        <ele>1450.5</ele>
        <time>2015-08-12T09:31:14.165Z</time>
      </trkpt>
      <trkpt lat="42.92874" lon="1.36774">
        <ele>1450.6</ele>
        <time>2015-08-12T09:31:15.147Z</time>
      </trkpt>
      <trkpt lat="42.92879" lon="1.36765">
        <ele>1450.7</ele>
        <time>2015-08-12T09:31:21.168Z</time>
      </trkpt>
      <trkpt lat="42.9288" lon="1.36764">
        <ele>1450.7</ele>
        <time>2015-08-12T09:31:22.144Z</time>
      </trkpt>
      <trkpt lat="42.92883" lon="1.36755">
        <ele>1451.2</ele>
        <time>2015-08-12T09:31:28.165Z</time>
      </trkpt>
      <trkpt lat="42.92885" lon="1.36753">
        <ele>1451.6</ele>
        <time>2015-08-12T09:31:29.144Z</time>
      </trkpt>
      <trkpt lat="42.92891" lon="1.36744">
        <ele>1453.3</ele>
        <time>2015-08-12T09:31:37.166Z</time>
      </trkpt>
      <trkpt lat="42.92891" lon="1.36743">
        <ele>1453.6</ele>
        <time>2015-08-12T09:31:38.144Z</time>
      </trkpt>
      <trkpt lat="42.92894" lon="1.36731">
        <ele>1455</ele>
        <time>2015-08-12T09:31:46.166Z</time>
      </trkpt>
      <trkpt lat="42.92894" lon="1.3673">
        <ele>1455.2</ele>
        <time>2015-08-12T09:31:47.157Z</time>
      </trkpt>
      <trkpt lat="42.92894" lon="1.36718">
        <ele>1456.1</ele>
        <time>2015-08-12T09:31:54.166Z</time>
      </trkpt>
      <trkpt lat="42.92894" lon="1.36716">
        <ele>1456.1</ele>
        <time>2015-08-12T09:31:55.145Z</time>
      </trkpt>
      <trkpt lat="42.92894" lon="1.36704">
        <ele>1456.8</ele>
        <time>2015-08-12T09:32:01.200Z</time>
      </trkpt>
      <trkpt lat="42.92894" lon="1.36702">
        <ele>1456.9</ele>
        <time>2015-08-12T09:32:02.144Z</time>
      </trkpt>
      <trkpt lat="42.92896" lon="1.36691">
        <ele>1457.3</ele>
        <time>2015-08-12T09:32:08.178Z</time>
      </trkpt>
      <trkpt lat="42.92896" lon="1.36689">
        <ele>1457.3</ele>
        <time>2015-08-12T09:32:09.146Z</time>
      </trkpt>
      <trkpt lat="42.92896" lon="1.36678">
        <ele>1458.3</ele>
        <time>2015-08-12T09:32:15.167Z</time>
      </trkpt>
      <trkpt lat="42.92897" lon="1.36676">
        <ele>1458.3</ele>
        <time>2015-08-12T09:32:16.144Z</time>
      </trkpt>
      <trkpt lat="42.92899" lon="1.36664">
        <ele>1458.6</ele>
        <time>2015-08-12T09:32:22.166Z</time>
      </trkpt>
      <trkpt lat="42.92899" lon="1.36662">
        <ele>1458.6</ele>
        <time>2015-08-12T09:32:23.144Z</time>
      </trkpt>
      <trkpt lat="42.92899" lon="1.3665">
        <ele>1458.7</ele>
        <time>2015-08-12T09:32:28.166Z</time>
      </trkpt>
      <trkpt lat="42.92899" lon="1.36649">
        <ele>1458.8</ele>
        <time>2015-08-12T09:32:29.157Z</time>
      </trkpt>
      <trkpt lat="42.92899" lon="1.36639">
        <ele>1458.9</ele>
        <time>2015-08-12T09:32:34.177Z</time>
      </trkpt>
      <trkpt lat="42.92899" lon="1.36636">
        <ele>1458.9</ele>
        <time>2015-08-12T09:32:35.144Z</time>
      </trkpt>
      <trkpt lat="42.92899" lon="1.36625">
        <ele>1458.9</ele>
        <time>2015-08-12T09:32:41.179Z</time>
      </trkpt>
      <trkpt lat="42.92899" lon="1.36622">
        <ele>1458.8</ele>
        <time>2015-08-12T09:32:42.144Z</time>
      </trkpt>
      <trkpt lat="42.92899" lon="1.36612">
        <ele>1458.8</ele>
        <time>2015-08-12T09:32:47.278Z</time>
      </trkpt>
      <trkpt lat="42.92899" lon="1.3661">
        <ele>1458.8</ele>
        <time>2015-08-12T09:32:48.144Z</time>
      </trkpt>
      <trkpt lat="42.92901" lon="1.36598">
        <ele>1458.9</ele>
        <time>2015-08-12T09:32:54.166Z</time>
      </trkpt>
      <trkpt lat="42.92901" lon="1.36596">
        <ele>1458.9</ele>
        <time>2015-08-12T09:32:55.144Z</time>
      </trkpt>
      <trkpt lat="42.929" lon="1.36584">
        <ele>1458.8</ele>
        <time>2015-08-12T09:33:01.166Z</time>
      </trkpt>
      <trkpt lat="42.92901" lon="1.36582">
        <ele>1458.9</ele>
        <time>2015-08-12T09:33:02.144Z</time>
      </trkpt>
      <trkpt lat="42.929" lon="1.36571">
        <ele>1458.8</ele>
        <time>2015-08-12T09:33:08.166Z</time>
      </trkpt>
      <trkpt lat="42.929" lon="1.36569">
        <ele>1458.8</ele>
        <time>2015-08-12T09:33:09.146Z</time>
      </trkpt>
      <trkpt lat="42.92899" lon="1.36558">
        <ele>1458.8</ele>
        <time>2015-08-12T09:33:15.171Z</time>
      </trkpt>
      <trkpt lat="42.92899" lon="1.36556">
        <ele>1458.7</ele>
        <time>2015-08-12T09:33:16.144Z</time>
      </trkpt>
      <trkpt lat="42.92898" lon="1.36545">
        <ele>1458.4</ele>
        <time>2015-08-12T09:33:22.166Z</time>
      </trkpt>
      <trkpt lat="42.92898" lon="1.36543">
        <ele>1458.4</ele>
        <time>2015-08-12T09:33:23.156Z</time>
      </trkpt>
      <trkpt lat="42.92898" lon="1.36534">
        <ele>1458.5</ele>
        <time>2015-08-12T09:33:28.166Z</time>
      </trkpt>
      <trkpt lat="42.92896" lon="1.36531">
        <ele>1458.5</ele>
        <time>2015-08-12T09:33:29.145Z</time>
      </trkpt>
      <trkpt lat="42.92895" lon="1.3652">
        <ele>1458.7</ele>
        <time>2015-08-12T09:33:35.308Z</time>
      </trkpt>
      <trkpt lat="42.92896" lon="1.36518">
        <ele>1458.8</ele>
        <time>2015-08-12T09:33:36.433Z</time>
      </trkpt>
      <trkpt lat="42.92895" lon="1.36506">
        <ele>1459.2</ele>
        <time>2015-08-12T09:33:42.319Z</time>
      </trkpt>
      <trkpt lat="42.92894" lon="1.36505">
        <ele>1459.3</ele>
        <time>2015-08-12T09:33:43.388Z</time>
      </trkpt>
      <trkpt lat="42.92893" lon="1.36494">
        <ele>1459.6</ele>
        <time>2015-08-12T09:33:49.186Z</time>
      </trkpt>
      <trkpt lat="42.92893" lon="1.36492">
        <ele>1459.6</ele>
        <time>2015-08-12T09:33:50.147Z</time>
      </trkpt>
      <trkpt lat="42.92891" lon="1.36481">
        <ele>1460.1</ele>
        <time>2015-08-12T09:33:56.168Z</time>
      </trkpt>
      <trkpt lat="42.92891" lon="1.36479">
        <ele>1460.2</ele>
        <time>2015-08-12T09:33:57.148Z</time>
      </trkpt>
      <trkpt lat="42.92889" lon="1.36469">
        <ele>1460.3</ele>
        <time>2015-08-12T09:34:02.169Z</time>
      </trkpt>
      <trkpt lat="42.92888" lon="1.36467">
        <ele>1460.4</ele>
        <time>2015-08-12T09:34:03.146Z</time>
      </trkpt>
      <trkpt lat="42.92885" lon="1.36456">
        <ele>1460.5</ele>
        <time>2015-08-12T09:34:09.169Z</time>
      </trkpt>
      <trkpt lat="42.92885" lon="1.36454">
        <ele>1460.6</ele>
        <time>2015-08-12T09:34:10.145Z</time>
      </trkpt>
      <trkpt lat="42.92885" lon="1.36443">
        <ele>1460.7</ele>
        <time>2015-08-12T09:34:16.168Z</time>
      </trkpt>
      <trkpt lat="42.92884" lon="1.36442">
        <ele>1460.8</ele>
        <time>2015-08-12T09:34:17.145Z</time>
      </trkpt>
      <trkpt lat="42.92881" lon="1.36431">
        <ele>1461.3</ele>
        <time>2015-08-12T09:34:23.167Z</time>
      </trkpt>
      <trkpt lat="42.9288" lon="1.36429">
        <ele>1461.5</ele>
        <time>2015-08-12T09:34:24.145Z</time>
      </trkpt>
      <trkpt lat="42.92878" lon="1.36419">
        <ele>1461.9</ele>
        <time>2015-08-12T09:34:30.346Z</time>
      </trkpt>
      <trkpt lat="42.92876" lon="1.36417">
        <ele>1462</ele>
        <time>2015-08-12T09:34:31.146Z</time>
      </trkpt>
      <trkpt lat="42.92874" lon="1.36406">
        <ele>1462.8</ele>
        <time>2015-08-12T09:34:38.169Z</time>
      </trkpt>
      <trkpt lat="42.92873" lon="1.36405">
        <ele>1463</ele>
        <time>2015-08-12T09:34:39.147Z</time>
      </trkpt>
      <trkpt lat="42.92869" lon="1.36395">
        <ele>1463.7</ele>
        <time>2015-08-12T09:34:45.178Z</time>
      </trkpt>
      <trkpt lat="42.92868" lon="1.36393">
        <ele>1463.9</ele>
        <time>2015-08-12T09:34:46.158Z</time>
      </trkpt>
      <trkpt lat="42.92865" lon="1.36382">
        <ele>1464.8</ele>
        <time>2015-08-12T09:34:52.338Z</time>
      </trkpt>
      <trkpt lat="42.92864" lon="1.36381">
        <ele>1465</ele>
        <time>2015-08-12T09:34:53.145Z</time>
      </trkpt>
      <trkpt lat="42.92861" lon="1.36371">
        <ele>1465.6</ele>
        <time>2015-08-12T09:34:59.168Z</time>
      </trkpt>
      <trkpt lat="42.9286" lon="1.3637">
        <ele>1465.7</ele>
        <time>2015-08-12T09:35:00.145Z</time>
      </trkpt>
      <trkpt lat="42.92857" lon="1.3636">
        <ele>1467.4</ele>
        <time>2015-08-12T09:35:07.344Z</time>
      </trkpt>
      <trkpt lat="42.92857" lon="1.36358">
        <ele>1467.6</ele>
        <time>2015-08-12T09:35:08.145Z</time>
      </trkpt>
      <trkpt lat="42.92856" lon="1.36346">
        <ele>1469.6</ele>
        <time>2015-08-12T09:35:16.280Z</time>
      </trkpt>
      <trkpt lat="42.92855" lon="1.36344">
        <ele>1469.8</ele>
        <time>2015-08-12T09:35:17.146Z</time>
      </trkpt>
      <trkpt lat="42.92857" lon="1.36333">
        <ele>1471.7</ele>
        <time>2015-08-12T09:35:25.168Z</time>
      </trkpt>
      <trkpt lat="42.92856" lon="1.36331">
        <ele>1471.9</ele>
        <time>2015-08-12T09:35:26.145Z</time>
      </trkpt>
      <trkpt lat="42.92854" lon="1.36321">
        <ele>1473.4</ele>
        <time>2015-08-12T09:35:33.170Z</time>
      </trkpt>
      <trkpt lat="42.92853" lon="1.36319">
        <ele>1473.6</ele>
        <time>2015-08-12T09:35:34.145Z</time>
      </trkpt>
      <trkpt lat="42.92847" lon="1.3631">
        <ele>1475.8</ele>
        <time>2015-08-12T09:35:42.168Z</time>
      </trkpt>
      <trkpt lat="42.92846" lon="1.36308">
        <ele>1476.1</ele>
        <time>2015-08-12T09:35:43.146Z</time>
      </trkpt>
      <trkpt lat="42.9284" lon="1.363">
        <ele>1478.7</ele>
        <time>2015-08-12T09:35:53.190Z</time>
      </trkpt>
      <trkpt lat="42.9284" lon="1.36299">
        <ele>1479</ele>
        <time>2015-08-12T09:35:54.145Z</time>
      </trkpt>
      <trkpt lat="42.92835" lon="1.3629">
        <ele>1481</ele>
        <time>2015-08-12T09:36:02.168Z</time>
      </trkpt>
      <trkpt lat="42.92834" lon="1.36288">
        <ele>1481.3</ele>
        <time>2015-08-12T09:36:03.147Z</time>
      </trkpt>
      <trkpt lat="42.92827" lon="1.36283">
        <ele>1482.9</ele>
        <time>2015-08-12T09:36:08.168Z</time>
      </trkpt>
      <trkpt lat="42.92826" lon="1.36281">
        <ele>1483.2</ele>
        <time>2015-08-12T09:36:09.146Z</time>
      </trkpt>
      <trkpt lat="42.9282" lon="1.36274">
        <ele>1485.7</ele>
        <time>2015-08-12T09:36:16.180Z</time>
      </trkpt>
      <trkpt lat="42.92819" lon="1.36273">
        <ele>1485.9</ele>
        <time>2015-08-12T09:36:17.144Z</time>
      </trkpt>
      <trkpt lat="42.92814" lon="1.36264">
        <ele>1488.3</ele>
        <time>2015-08-12T09:36:25.167Z</time>
      </trkpt>
      <trkpt lat="42.92813" lon="1.36263">
        <ele>1488.6</ele>
        <time>2015-08-12T09:36:26.146Z</time>
      </trkpt>
      <trkpt lat="42.92805" lon="1.36257">
        <ele>1490.4</ele>
        <time>2015-08-12T09:36:33.169Z</time>
      </trkpt>
      <trkpt lat="42.92804" lon="1.36257">
        <ele>1490.7</ele>
        <time>2015-08-12T09:36:34.146Z</time>
      </trkpt>
      <trkpt lat="42.92797" lon="1.36252">
        <ele>1492.2</ele>
        <time>2015-08-12T09:36:39.390Z</time>
      </trkpt>
      <trkpt lat="42.92796" lon="1.36251">
        <ele>1492.4</ele>
        <time>2015-08-12T09:36:40.145Z</time>
      </trkpt>
      <trkpt lat="42.92789" lon="1.36246">
        <ele>1493.4</ele>
        <time>2015-08-12T09:36:46.201Z</time>
      </trkpt>
      <trkpt lat="42.92787" lon="1.36245">
        <ele>1493.5</ele>
        <time>2015-08-12T09:36:47.145Z</time>
      </trkpt>
      <trkpt lat="42.92781" lon="1.3624">
        <ele>1496.6</ele>
        <time>2015-08-12T09:36:53.180Z</time>
      </trkpt>
      <trkpt lat="42.92779" lon="1.36238">
        <ele>1497.2</ele>
        <time>2015-08-12T09:36:54.144Z</time>
      </trkpt>
      <trkpt lat="42.92776" lon="1.36227">
        <ele>1499.8</ele>
        <time>2015-08-12T09:37:01.167Z</time>
      </trkpt>
      <trkpt lat="42.92776" lon="1.36225">
        <ele>1499.9</ele>
        <time>2015-08-12T09:37:02.144Z</time>
      </trkpt>
      <trkpt lat="42.9277" lon="1.36217">
        <ele>1501.7</ele>
        <time>2015-08-12T09:37:08.166Z</time>
      </trkpt>
      <trkpt lat="42.9277" lon="1.36215">
        <ele>1502</ele>
        <time>2015-08-12T09:37:09.161Z</time>
      </trkpt>
      <trkpt lat="42.92764" lon="1.36206">
        <ele>1503.1</ele>
        <time>2015-08-12T09:37:15.169Z</time>
      </trkpt>
      <trkpt lat="42.92763" lon="1.36204">
        <ele>1503.3</ele>
        <time>2015-08-12T09:37:16.145Z</time>
      </trkpt>
      <trkpt lat="42.92758" lon="1.36195">
        <ele>1504.5</ele>
        <time>2015-08-12T09:37:22.166Z</time>
      </trkpt>
      <trkpt lat="42.92757" lon="1.36194">
        <ele>1504.6</ele>
        <time>2015-08-12T09:37:23.144Z</time>
      </trkpt>
      <trkpt lat="42.92752" lon="1.36186">
        <ele>1505</ele>
        <time>2015-08-12T09:37:29.180Z</time>
      </trkpt>
      <trkpt lat="42.92751" lon="1.36184">
        <ele>1505</ele>
        <time>2015-08-12T09:37:30.157Z</time>
      </trkpt>
      <trkpt lat="42.92746" lon="1.36175">
        <ele>1505</ele>
        <time>2015-08-12T09:37:36.281Z</time>
      </trkpt>
      <trkpt lat="42.92746" lon="1.36174">
        <ele>1504.8</ele>
        <time>2015-08-12T09:37:37.145Z</time>
      </trkpt>
      <trkpt lat="42.92739" lon="1.36168">
        <ele>1504.7</ele>
        <time>2015-08-12T09:37:42.229Z</time>
      </trkpt>
      <trkpt lat="42.92739" lon="1.36166">
        <ele>1504.6</ele>
        <time>2015-08-12T09:37:43.144Z</time>
      </trkpt>
      <trkpt lat="42.92733" lon="1.36158">
        <ele>1504.2</ele>
        <time>2015-08-12T09:37:48.166Z</time>
      </trkpt>
      <trkpt lat="42.92732" lon="1.36157">
        <ele>1504</ele>
        <time>2015-08-12T09:37:49.144Z</time>
      </trkpt>
      <trkpt lat="42.92725" lon="1.36152">
        <ele>1503.4</ele>
        <time>2015-08-12T09:37:55.166Z</time>
      </trkpt>
      <trkpt lat="42.92724" lon="1.36151">
        <ele>1503.2</ele>
        <time>2015-08-12T09:37:56.145Z</time>
      </trkpt>
      <trkpt lat="42.92716" lon="1.36145">
        <ele>1502.4</ele>
        <time>2015-08-12T09:38:03.167Z</time>
      </trkpt>
      <trkpt lat="42.92714" lon="1.36145">
        <ele>1502.2</ele>
        <time>2015-08-12T09:38:04.145Z</time>
      </trkpt>
      <trkpt lat="42.92707" lon="1.3614">
        <ele>1500.9</ele>
        <time>2015-08-12T09:38:09.193Z</time>
      </trkpt>
      <trkpt lat="42.92706" lon="1.36139">
        <ele>1500.7</ele>
        <time>2015-08-12T09:38:10.144Z</time>
      </trkpt>
      <trkpt lat="42.92697" lon="1.36134">
        <ele>1499.3</ele>
        <time>2015-08-12T09:38:17.167Z</time>
      </trkpt>
      <trkpt lat="42.92697" lon="1.36133">
        <ele>1499.1</ele>
        <time>2015-08-12T09:38:18.144Z</time>
      </trkpt>
      <trkpt lat="42.92689" lon="1.36129">
        <ele>1497</ele>
        <time>2015-08-12T09:38:26.166Z</time>
      </trkpt>
      <trkpt lat="42.92688" lon="1.36128">
        <ele>1496.7</ele>
        <time>2015-08-12T09:38:27.146Z</time>
      </trkpt>
      <trkpt lat="42.92681" lon="1.36124">
        <ele>1495</ele>
        <time>2015-08-12T09:38:33.181Z</time>
      </trkpt>
      <trkpt lat="42.92679" lon="1.36123">
        <ele>1494.6</ele>
        <time>2015-08-12T09:38:34.144Z</time>
      </trkpt>
      <trkpt lat="42.92671" lon="1.36119">
        <ele>1492.2</ele>
        <time>2015-08-12T09:38:41.166Z</time>
      </trkpt>
      <trkpt lat="42.9267" lon="1.36119">
        <ele>1491.8</ele>
        <time>2015-08-12T09:38:42.144Z</time>
      </trkpt>
      <trkpt lat="42.92664" lon="1.36112">
        <ele>1488.9</ele>
        <time>2015-08-12T09:45:53.953Z</time>
      </trkpt>
      <trkpt lat="42.9266" lon="1.36106">
        <ele>1489</ele>
        <time>2015-08-12T09:45:54.933Z</time>
      </trkpt>
      <trkpt lat="42.9266" lon="1.36106">
        <ele>1489</ele>
        <time>2015-08-12T09:45:54.956Z</time>
      </trkpt>
      <trkpt lat="42.92662" lon="1.36107">
        <ele>1488.7</ele>
        <time>2015-08-12T09:49:46.168Z</time>
      </trkpt>
      <trkpt lat="42.92662" lon="1.36106">
        <ele>1488.7</ele>
        <time>2015-08-12T09:49:47.146Z</time>
      </trkpt>
      <trkpt lat="42.92654" lon="1.36103">
        <ele>1488.4</ele>
        <time>2015-08-12T09:49:52.169Z</time>
      </trkpt>
      <trkpt lat="42.92652" lon="1.36101">
        <ele>1488.4</ele>
        <time>2015-08-12T09:49:53.145Z</time>
      </trkpt>
      <trkpt lat="42.92645" lon="1.36095">
        <ele>1488.2</ele>
        <time>2015-08-12T09:49:59.169Z</time>
      </trkpt>
      <trkpt lat="42.92644" lon="1.36093">
        <ele>1488.1</ele>
        <time>2015-08-12T09:50:00.145Z</time>
      </trkpt>
      <trkpt lat="42.9264" lon="1.36083">
        <ele>1487.2</ele>
        <time>2015-08-12T09:50:07.169Z</time>
      </trkpt>
      <trkpt lat="42.92638" lon="1.36081">
        <ele>1487</ele>
        <time>2015-08-12T09:50:08.144Z</time>
      </trkpt>
      <trkpt lat="42.92633" lon="1.36074">
        <ele>1486.3</ele>
        <time>2015-08-12T09:50:12.167Z</time>
      </trkpt>
      <trkpt lat="42.92631" lon="1.36073">
        <ele>1486</ele>
        <time>2015-08-12T09:50:13.144Z</time>
      </trkpt>
      <trkpt lat="42.92624" lon="1.36066">
        <ele>1484.3</ele>
        <time>2015-08-12T09:50:19.169Z</time>
      </trkpt>
      <trkpt lat="42.92622" lon="1.36066">
        <ele>1484.1</ele>
        <time>2015-08-12T09:50:20.144Z</time>
      </trkpt>
      <trkpt lat="42.92614" lon="1.36063">
        <ele>1482.7</ele>
        <time>2015-08-12T09:50:26.167Z</time>
      </trkpt>
      <trkpt lat="42.92614" lon="1.36063">
        <ele>1482.3</ele>
        <time>2015-08-12T09:50:27.147Z</time>
      </trkpt>
      <trkpt lat="42.92607" lon="1.36055">
        <ele>1480.6</ele>
        <time>2015-08-12T09:50:33.171Z</time>
      </trkpt>
      <trkpt lat="42.92606" lon="1.36054">
        <ele>1480.3</ele>
        <time>2015-08-12T09:50:34.145Z</time>
      </trkpt>
      <trkpt lat="42.926" lon="1.36047">
        <ele>1478.7</ele>
        <time>2015-08-12T09:50:40.168Z</time>
      </trkpt>
      <trkpt lat="42.92599" lon="1.36046">
        <ele>1478.5</ele>
        <time>2015-08-12T09:50:41.144Z</time>
      </trkpt>
      <trkpt lat="42.92592" lon="1.36041">
        <ele>1477.4</ele>
        <time>2015-08-12T09:50:46.173Z</time>
      </trkpt>
      <trkpt lat="42.9259" lon="1.36039">
        <ele>1477.3</ele>
        <time>2015-08-12T09:50:47.144Z</time>
      </trkpt>
      <trkpt lat="42.92585" lon="1.36032">
        <ele>1476.2</ele>
        <time>2015-08-12T09:50:50.168Z</time>
      </trkpt>
      <trkpt lat="42.92584" lon="1.3603">
        <ele>1475.8</ele>
        <time>2015-08-12T09:50:51.146Z</time>
      </trkpt>
      <trkpt lat="42.92577" lon="1.36023">
        <ele>1473.7</ele>
        <time>2015-08-12T09:50:56.167Z</time>
      </trkpt>
      <trkpt lat="42.92577" lon="1.36021">
        <ele>1473.4</ele>
        <time>2015-08-12T09:50:57.146Z</time>
      </trkpt>
      <trkpt lat="42.9257" lon="1.36015">
        <ele>1471.6</ele>
        <time>2015-08-12T09:51:03.169Z</time>
      </trkpt>
      <trkpt lat="42.92569" lon="1.36015">
        <ele>1471.2</ele>
        <time>2015-08-12T09:51:04.145Z</time>
      </trkpt>
      <trkpt lat="42.92562" lon="1.36006">
        <ele>1469.5</ele>
        <time>2015-08-12T09:51:10.283Z</time>
      </trkpt>
      <trkpt lat="42.92561" lon="1.36006">
        <ele>1469.3</ele>
        <time>2015-08-12T09:51:11.145Z</time>
      </trkpt>
      <trkpt lat="42.92553" lon="1.36001">
        <ele>1467.9</ele>
        <time>2015-08-12T09:51:18.205Z</time>
      </trkpt>
      <trkpt lat="42.92552" lon="1.36">
        <ele>1467.8</ele>
        <time>2015-08-12T09:51:19.144Z</time>
      </trkpt>
      <trkpt lat="42.92543" lon="1.35998">
        <ele>1467.8</ele>
        <time>2015-08-12T09:51:27.169Z</time>
      </trkpt>
      <trkpt lat="42.92542" lon="1.35996">
        <ele>1467.9</ele>
        <time>2015-08-12T09:51:28.145Z</time>
      </trkpt>
      <trkpt lat="42.92536" lon="1.35988">
        <ele>1469.3</ele>
        <time>2015-08-12T09:51:35.220Z</time>
      </trkpt>
      <trkpt lat="42.92535" lon="1.35987">
        <ele>1469.6</ele>
        <time>2015-08-12T09:51:36.145Z</time>
      </trkpt>
      <trkpt lat="42.92529" lon="1.3598">
        <ele>1471.9</ele>
        <time>2015-08-12T09:51:44.166Z</time>
      </trkpt>
      <trkpt lat="42.92528" lon="1.3598">
        <ele>1472.2</ele>
        <time>2015-08-12T09:51:45.146Z</time>
      </trkpt>
      <trkpt lat="42.92519" lon="1.35979">
        <ele>1473.9</ele>
        <time>2015-08-12T09:51:57.170Z</time>
      </trkpt>
      <trkpt lat="42.92518" lon="1.35979">
        <ele>1474</ele>
        <time>2015-08-12T09:51:58.145Z</time>
      </trkpt>
      <trkpt lat="42.9251" lon="1.35974">
        <ele>1474.6</ele>
        <time>2015-08-12T09:52:05.167Z</time>
      </trkpt>
      <trkpt lat="42.92508" lon="1.35973">
        <ele>1474.5</ele>
        <time>2015-08-12T09:52:06.145Z</time>
      </trkpt>
      <trkpt lat="42.92499" lon="1.35972">
        <ele>1474.9</ele>
        <time>2015-08-12T09:52:14.166Z</time>
      </trkpt>
      <trkpt lat="42.92498" lon="1.35972">
        <ele>1474.9</ele>
        <time>2015-08-12T09:52:15.146Z</time>
      </trkpt>
      <trkpt lat="42.92491" lon="1.35971">
        <ele>1474.6</ele>
        <time>2015-08-12T09:52:23.169Z</time>
      </trkpt>
      <trkpt lat="42.92489" lon="1.35971">
        <ele>1474.5</ele>
        <time>2015-08-12T09:52:24.145Z</time>
      </trkpt>
      <trkpt lat="42.92482" lon="1.35966">
        <ele>1474</ele>
        <time>2015-08-12T09:52:34.167Z</time>
      </trkpt>
      <trkpt lat="42.92481" lon="1.35966">
        <ele>1474</ele>
        <time>2015-08-12T09:52:35.144Z</time>
      </trkpt>
      <trkpt lat="42.92473" lon="1.35962">
        <ele>1471.4</ele>
        <time>2015-08-12T09:53:13.167Z</time>
      </trkpt>
      <trkpt lat="42.92472" lon="1.35961">
        <ele>1471.3</ele>
        <time>2015-08-12T09:53:14.179Z</time>
      </trkpt>
      <trkpt lat="42.92464" lon="1.35956">
        <ele>1470.5</ele>
        <time>2015-08-12T09:53:38.167Z</time>
      </trkpt>
      <trkpt lat="42.92462" lon="1.35955">
        <ele>1470.4</ele>
        <time>2015-08-12T09:53:39.146Z</time>
      </trkpt>
      <trkpt lat="42.92454" lon="1.35952">
        <ele>1469.8</ele>
        <time>2015-08-12T09:53:51.207Z</time>
      </trkpt>
      <trkpt lat="42.92453" lon="1.35952">
        <ele>1469.8</ele>
        <time>2015-08-12T09:53:52.144Z</time>
      </trkpt>
      <trkpt lat="42.92445" lon="1.35949">
        <ele>1468.6</ele>
        <time>2015-08-12T09:54:10.166Z</time>
      </trkpt>
      <trkpt lat="42.92444" lon="1.35948">
        <ele>1468.5</ele>
        <time>2015-08-12T09:54:11.145Z</time>
      </trkpt>
      <trkpt lat="42.92436" lon="1.35943">
        <ele>1467</ele>
        <time>2015-08-12T09:54:23.166Z</time>
      </trkpt>
      <trkpt lat="42.92436" lon="1.35942">
        <ele>1466.7</ele>
        <time>2015-08-12T09:54:24.144Z</time>
      </trkpt>
      <trkpt lat="42.92427" lon="1.35941">
        <ele>1463.7</ele>
        <time>2015-08-12T09:54:46.165Z</time>
      </trkpt>
      <trkpt lat="42.92425" lon="1.35941">
        <ele>1462.7</ele>
        <time>2015-08-12T09:54:47.143Z</time>
      </trkpt>
      <trkpt lat="42.92417" lon="1.35935">
        <ele>1461.4</ele>
        <time>2015-08-12T09:54:58.166Z</time>
      </trkpt>
      <trkpt lat="42.92417" lon="1.35935">
        <ele>1461.2</ele>
        <time>2015-08-12T09:54:59.144Z</time>
      </trkpt>
      <trkpt lat="42.92409" lon="1.3593">
        <ele>1459.2</ele>
        <time>2015-08-12T09:55:11.165Z</time>
      </trkpt>
      <trkpt lat="42.92407" lon="1.35929">
        <ele>1459.1</ele>
        <time>2015-08-12T09:55:12.143Z</time>
      </trkpt>
      <trkpt lat="42.924" lon="1.35924">
        <ele>1457.5</ele>
        <time>2015-08-12T09:55:21.168Z</time>
      </trkpt>
      <trkpt lat="42.92399" lon="1.35923">
        <ele>1457.3</ele>
        <time>2015-08-12T09:55:22.144Z</time>
      </trkpt>
      <trkpt lat="42.92392" lon="1.35927">
        <ele>1438.2</ele>
        <time>2015-08-12T09:56:54.165Z</time>
      </trkpt>
      <trkpt lat="42.92391" lon="1.35927">
        <ele>1438.1</ele>
        <time>2015-08-12T09:56:55.144Z</time>
      </trkpt>
      <trkpt lat="42.92383" lon="1.35927">
        <ele>1437.2</ele>
        <time>2015-08-12T09:57:02.166Z</time>
      </trkpt>
      <trkpt lat="42.92381" lon="1.35927">
        <ele>1437.1</ele>
        <time>2015-08-12T09:57:03.145Z</time>
      </trkpt>
      <trkpt lat="42.92373" lon="1.35927">
        <ele>1436.3</ele>
        <time>2015-08-12T09:57:12.166Z</time>
      </trkpt>
      <trkpt lat="42.92372" lon="1.35927">
        <ele>1436.2</ele>
        <time>2015-08-12T09:57:13.144Z</time>
      </trkpt>
      <trkpt lat="42.92363" lon="1.35928">
        <ele>1434.8</ele>
        <time>2015-08-12T09:57:23.229Z</time>
      </trkpt>
      <trkpt lat="42.92363" lon="1.35927">
        <ele>1434.6</ele>
        <time>2015-08-12T09:57:24.143Z</time>
      </trkpt>
      <trkpt lat="42.92355" lon="1.35927">
        <ele>1433.2</ele>
        <time>2015-08-12T09:57:43.179Z</time>
      </trkpt>
      <trkpt lat="42.92353" lon="1.35927">
        <ele>1433.1</ele>
        <time>2015-08-12T09:57:44.143Z</time>
      </trkpt>
      <trkpt lat="42.92346" lon="1.35933">
        <ele>1432.3</ele>
        <time>2015-08-12T09:57:51.167Z</time>
      </trkpt>
      <trkpt lat="42.92345" lon="1.35933">
        <ele>1432.3</ele>
        <time>2015-08-12T09:57:52.143Z</time>
      </trkpt>
      <trkpt lat="42.92337" lon="1.35934">
        <ele>1431.7</ele>
        <time>2015-08-12T09:58:00.207Z</time>
      </trkpt>
      <trkpt lat="42.92335" lon="1.35934">
        <ele>1431.6</ele>
        <time>2015-08-12T09:58:01.144Z</time>
      </trkpt>
      <trkpt lat="42.92327" lon="1.35933">
        <ele>1431.1</ele>
        <time>2015-08-12T09:58:07.167Z</time>
      </trkpt>
      <trkpt lat="42.92325" lon="1.35931">
        <ele>1431</ele>
        <time>2015-08-12T09:58:08.144Z</time>
      </trkpt>
      <trkpt lat="42.92316" lon="1.35931">
        <ele>1429.5</ele>
        <time>2015-08-12T09:58:15.168Z</time>
      </trkpt>
      <trkpt lat="42.92315" lon="1.35931">
        <ele>1429.4</ele>
        <time>2015-08-12T09:58:16.144Z</time>
      </trkpt>
      <trkpt lat="42.92306" lon="1.35929">
        <ele>1428.3</ele>
        <time>2015-08-12T09:58:23.166Z</time>
      </trkpt>
      <trkpt lat="42.92306" lon="1.35929">
        <ele>1428.2</ele>
        <time>2015-08-12T09:58:24.144Z</time>
      </trkpt>
      <trkpt lat="42.92298" lon="1.35925">
        <ele>1427.1</ele>
        <time>2015-08-12T09:58:32.165Z</time>
      </trkpt>
      <trkpt lat="42.92297" lon="1.35925">
        <ele>1427</ele>
        <time>2015-08-12T09:58:33.184Z</time>
      </trkpt>
      <trkpt lat="42.92288" lon="1.35922">
        <ele>1424.9</ele>
        <time>2015-08-12T09:58:43.165Z</time>
      </trkpt>
      <trkpt lat="42.92287" lon="1.35922">
        <ele>1424.6</ele>
        <time>2015-08-12T09:58:44.143Z</time>
      </trkpt>
      <trkpt lat="42.92278" lon="1.35921">
        <ele>1422.6</ele>
        <time>2015-08-12T09:58:53.165Z</time>
      </trkpt>
      <trkpt lat="42.92277" lon="1.3592">
        <ele>1422.4</ele>
        <time>2015-08-12T09:58:54.143Z</time>
      </trkpt>
      <trkpt lat="42.9227" lon="1.35913">
        <ele>1419.7</ele>
        <time>2015-08-12T09:59:14.166Z</time>
      </trkpt>
      <trkpt lat="42.9227" lon="1.35912">
        <ele>1419.7</ele>
        <time>2015-08-12T09:59:15.147Z</time>
      </trkpt>
      <trkpt lat="42.92262" lon="1.35907">
        <ele>1419</ele>
        <time>2015-08-12T09:59:23.166Z</time>
      </trkpt>
      <trkpt lat="42.92261" lon="1.35907">
        <ele>1418.9</ele>
        <time>2015-08-12T09:59:24.144Z</time>
      </trkpt>
      <trkpt lat="42.92252" lon="1.35906">
        <ele>1418.2</ele>
        <time>2015-08-12T09:59:30.166Z</time>
      </trkpt>
      <trkpt lat="42.92251" lon="1.35906">
        <ele>1418.1</ele>
        <time>2015-08-12T09:59:31.144Z</time>
      </trkpt>
      <trkpt lat="42.92243" lon="1.35907">
        <ele>1416.3</ele>
        <time>2015-08-12T09:59:39.168Z</time>
      </trkpt>
      <trkpt lat="42.92241" lon="1.35906">
        <ele>1416.1</ele>
        <time>2015-08-12T09:59:40.144Z</time>
      </trkpt>
      <trkpt lat="42.92233" lon="1.35905">
        <ele>1413.5</ele>
        <time>2015-08-12T09:59:50.178Z</time>
      </trkpt>
      <trkpt lat="42.92232" lon="1.35906">
        <ele>1413.3</ele>
        <time>2015-08-12T09:59:51.145Z</time>
      </trkpt>
      <trkpt lat="42.92224" lon="1.35903">
        <ele>1409.7</ele>
        <time>2015-08-12T10:00:04.165Z</time>
      </trkpt>
      <trkpt lat="42.92223" lon="1.35902">
        <ele>1409.5</ele>
        <time>2015-08-12T10:00:05.144Z</time>
      </trkpt>
      <trkpt lat="42.92216" lon="1.35899">
        <ele>1406.1</ele>
        <time>2015-08-12T10:00:18.166Z</time>
      </trkpt>
      <trkpt lat="42.92214" lon="1.35899">
        <ele>1406</ele>
        <time>2015-08-12T10:00:19.144Z</time>
      </trkpt>
      <trkpt lat="42.92205" lon="1.35901">
        <ele>1404.7</ele>
        <time>2015-08-12T10:00:27.167Z</time>
      </trkpt>
      <trkpt lat="42.92204" lon="1.35901">
        <ele>1404.6</ele>
        <time>2015-08-12T10:00:28.144Z</time>
      </trkpt>
      <trkpt lat="42.92196" lon="1.35902">
        <ele>1403.2</ele>
        <time>2015-08-12T10:00:36.166Z</time>
      </trkpt>
      <trkpt lat="42.92195" lon="1.35902">
        <ele>1403</ele>
        <time>2015-08-12T10:00:37.157Z</time>
      </trkpt>
      <trkpt lat="42.92186" lon="1.359">
        <ele>1401.6</ele>
        <time>2015-08-12T10:00:44.183Z</time>
      </trkpt>
      <trkpt lat="42.92185" lon="1.359">
        <ele>1401.4</ele>
        <time>2015-08-12T10:00:45.145Z</time>
      </trkpt>
      <trkpt lat="42.92177" lon="1.35897">
        <ele>1400.2</ele>
        <time>2015-08-12T10:00:51.167Z</time>
      </trkpt>
      <trkpt lat="42.92176" lon="1.35897">
        <ele>1400</ele>
        <time>2015-08-12T10:00:52.143Z</time>
      </trkpt>
      <trkpt lat="42.92167" lon="1.35895">
        <ele>1398.7</ele>
        <time>2015-08-12T10:00:59.165Z</time>
      </trkpt>
      <trkpt lat="42.92165" lon="1.35895">
        <ele>1398.5</ele>
        <time>2015-08-12T10:01:00.143Z</time>
      </trkpt>
      <trkpt lat="42.92157" lon="1.35893">
        <ele>1397.3</ele>
        <time>2015-08-12T10:01:06.165Z</time>
      </trkpt>
      <trkpt lat="42.92156" lon="1.35892">
        <ele>1397.1</ele>
        <time>2015-08-12T10:01:07.144Z</time>
      </trkpt>
      <trkpt lat="42.92148" lon="1.35891">
        <ele>1395.9</ele>
        <time>2015-08-12T10:01:13.165Z</time>
      </trkpt>
      <trkpt lat="42.92147" lon="1.35891">
        <ele>1395.7</ele>
        <time>2015-08-12T10:01:14.143Z</time>
      </trkpt>
      <trkpt lat="42.92139" lon="1.35887">
        <ele>1394.6</ele>
        <time>2015-08-12T10:01:20.165Z</time>
      </trkpt>
      <trkpt lat="42.92137" lon="1.35888">
        <ele>1394.3</ele>
        <time>2015-08-12T10:01:21.161Z</time>
      </trkpt>
      <trkpt lat="42.92128" lon="1.35889">
        <ele>1392.8</ele>
        <time>2015-08-12T10:01:30.178Z</time>
      </trkpt>
      <trkpt lat="42.92127" lon="1.35889">
        <ele>1392.6</ele>
        <time>2015-08-12T10:01:31.144Z</time>
      </trkpt>
      <trkpt lat="42.9212" lon="1.35891">
        <ele>1390.4</ele>
        <time>2015-08-12T10:01:47.166Z</time>
      </trkpt>
      <trkpt lat="42.92118" lon="1.3589">
        <ele>1390.4</ele>
        <time>2015-08-12T10:01:48.144Z</time>
      </trkpt>
      <trkpt lat="42.92111" lon="1.35884">
        <ele>1389.2</ele>
        <time>2015-08-12T10:01:57.169Z</time>
      </trkpt>
      <trkpt lat="42.9211" lon="1.35884">
        <ele>1389.1</ele>
        <time>2015-08-12T10:01:58.144Z</time>
      </trkpt>
      <trkpt lat="42.92102" lon="1.35881">
        <ele>1388.2</ele>
        <time>2015-08-12T10:02:04.186Z</time>
      </trkpt>
      <trkpt lat="42.92101" lon="1.3588">
        <ele>1388.1</ele>
        <time>2015-08-12T10:02:05.144Z</time>
      </trkpt>
      <trkpt lat="42.92093" lon="1.35875">
        <ele>1387.3</ele>
        <time>2015-08-12T10:02:10.228Z</time>
      </trkpt>
      <trkpt lat="42.92092" lon="1.35874">
        <ele>1387.2</ele>
        <time>2015-08-12T10:02:11.144Z</time>
      </trkpt>
      <trkpt lat="42.92085" lon="1.35869">
        <ele>1386.6</ele>
        <time>2015-08-12T10:02:16.166Z</time>
      </trkpt>
      <trkpt lat="42.92084" lon="1.35869">
        <ele>1386.4</ele>
        <time>2015-08-12T10:02:17.144Z</time>
      </trkpt>
      <trkpt lat="42.92076" lon="1.35867">
        <ele>1385.6</ele>
        <time>2015-08-12T10:02:23.179Z</time>
      </trkpt>
      <trkpt lat="42.92074" lon="1.35867">
        <ele>1385.4</ele>
        <time>2015-08-12T10:02:24.144Z</time>
      </trkpt>
      <trkpt lat="42.92066" lon="1.35863">
        <ele>1383.9</ele>
        <time>2015-08-12T10:02:30.166Z</time>
      </trkpt>
      <trkpt lat="42.92064" lon="1.35862">
        <ele>1383.7</ele>
        <time>2015-08-12T10:02:31.144Z</time>
      </trkpt>
      <trkpt lat="42.92057" lon="1.35859">
        <ele>1382.6</ele>
        <time>2015-08-12T10:02:36.166Z</time>
      </trkpt>
      <trkpt lat="42.92056" lon="1.35858">
        <ele>1382.4</ele>
        <time>2015-08-12T10:02:37.144Z</time>
      </trkpt>
      <trkpt lat="42.92048" lon="1.35851">
        <ele>1380.6</ele>
        <time>2015-08-12T10:03:20.299Z</time>
      </trkpt>
      <trkpt lat="42.92047" lon="1.3585">
        <ele>1380.5</ele>
        <time>2015-08-12T10:03:21.147Z</time>
      </trkpt>
      <trkpt lat="42.92042" lon="1.35843">
        <ele>1380.2</ele>
        <time>2015-08-12T10:03:27.168Z</time>
      </trkpt>
      <trkpt lat="42.9204" lon="1.35841">
        <ele>1380.1</ele>
        <time>2015-08-12T10:03:28.144Z</time>
      </trkpt>
      <trkpt lat="42.92035" lon="1.35833">
        <ele>1379.6</ele>
        <time>2015-08-12T10:03:34.189Z</time>
      </trkpt>
      <trkpt lat="42.92035" lon="1.35832">
        <ele>1379.5</ele>
        <time>2015-08-12T10:03:35.259Z</time>
      </trkpt>
      <trkpt lat="42.92031" lon="1.35821">
        <ele>1378.4</ele>
        <time>2015-08-12T10:03:47.166Z</time>
      </trkpt>
      <trkpt lat="42.9203" lon="1.3582">
        <ele>1378.3</ele>
        <time>2015-08-12T10:03:48.144Z</time>
      </trkpt>
      <trkpt lat="42.92025" lon="1.3581">
        <ele>1377.3</ele>
        <time>2015-08-12T10:03:58.279Z</time>
      </trkpt>
      <trkpt lat="42.92024" lon="1.35809">
        <ele>1377.2</ele>
        <time>2015-08-12T10:03:59.144Z</time>
      </trkpt>
      <trkpt lat="42.92018" lon="1.358">
        <ele>1374.9</ele>
        <time>2015-08-12T10:04:15.168Z</time>
      </trkpt>
      <trkpt lat="42.92018" lon="1.35799">
        <ele>1374.8</ele>
        <time>2015-08-12T10:04:16.144Z</time>
      </trkpt>
      <trkpt lat="42.92012" lon="1.35792">
        <ele>1373.6</ele>
        <time>2015-08-12T10:04:46.178Z</time>
      </trkpt>
      <trkpt lat="42.9201" lon="1.35789">
        <ele>1373.6</ele>
        <time>2015-08-12T10:04:47.144Z</time>
      </trkpt>
      <trkpt lat="42.92003" lon="1.35782">
        <ele>1373.3</ele>
        <time>2015-08-12T10:04:53.166Z</time>
      </trkpt>
      <trkpt lat="42.92002" lon="1.35781">
        <ele>1373.2</ele>
        <time>2015-08-12T10:04:54.144Z</time>
      </trkpt>
      <trkpt lat="42.91997" lon="1.35772">
        <ele>1372</ele>
        <time>2015-08-12T10:05:02.242Z</time>
      </trkpt>
      <trkpt lat="42.91996" lon="1.35771">
        <ele>1372</ele>
        <time>2015-08-12T10:05:03.145Z</time>
      </trkpt>
      <trkpt lat="42.91992" lon="1.35762">
        <ele>1370.9</ele>
        <time>2015-08-12T10:05:11.204Z</time>
      </trkpt>
      <trkpt lat="42.91991" lon="1.35761">
        <ele>1370.8</ele>
        <time>2015-08-12T10:05:12.143Z</time>
      </trkpt>
      <trkpt lat="42.91986" lon="1.35752">
        <ele>1370</ele>
        <time>2015-08-12T10:05:19.167Z</time>
      </trkpt>
      <trkpt lat="42.91984" lon="1.35751">
        <ele>1369.9</ele>
        <time>2015-08-12T10:05:20.144Z</time>
      </trkpt>
      <trkpt lat="42.9198" lon="1.35741">
        <ele>1368.5</ele>
        <time>2015-08-12T10:05:27.168Z</time>
      </trkpt>
      <trkpt lat="42.91979" lon="1.35739">
        <ele>1368.3</ele>
        <time>2015-08-12T10:05:28.156Z</time>
      </trkpt>
      <trkpt lat="42.91974" lon="1.3573">
        <ele>1366.5</ele>
        <time>2015-08-12T10:05:35.166Z</time>
      </trkpt>
      <trkpt lat="42.91973" lon="1.35729">
        <ele>1366</ele>
        <time>2015-08-12T10:05:36.144Z</time>
      </trkpt>
      <trkpt lat="42.91968" lon="1.3572">
        <ele>1363.8</ele>
        <time>2015-08-12T10:05:44.190Z</time>
      </trkpt>
      <trkpt lat="42.91966" lon="1.35719">
        <ele>1363.5</ele>
        <time>2015-08-12T10:05:45.146Z</time>
      </trkpt>
      <trkpt lat="42.91959" lon="1.35713">
        <ele>1361</ele>
        <time>2015-08-12T10:05:53.165Z</time>
      </trkpt>
      <trkpt lat="42.91958" lon="1.35712">
        <ele>1360.6</ele>
        <time>2015-08-12T10:05:54.156Z</time>
      </trkpt>
      <trkpt lat="42.9195" lon="1.35706">
        <ele>1357.9</ele>
        <time>2015-08-12T10:06:02.166Z</time>
      </trkpt>
      <trkpt lat="42.9195" lon="1.35705">
        <ele>1357.5</ele>
        <time>2015-08-12T10:06:03.146Z</time>
      </trkpt>
      <trkpt lat="42.91942" lon="1.35698">
        <ele>1354.8</ele>
        <time>2015-08-12T10:06:12.165Z</time>
      </trkpt>
      <trkpt lat="42.91941" lon="1.35697">
        <ele>1354.6</ele>
        <time>2015-08-12T10:06:13.144Z</time>
      </trkpt>
      <trkpt lat="42.91934" lon="1.35693">
        <ele>1353.3</ele>
        <time>2015-08-12T10:06:19.166Z</time>
      </trkpt>
      <trkpt lat="42.91932" lon="1.35693">
        <ele>1353.1</ele>
        <time>2015-08-12T10:06:20.144Z</time>
      </trkpt>
      <trkpt lat="42.91924" lon="1.35688">
        <ele>1351.8</ele>
        <time>2015-08-12T10:06:26.179Z</time>
      </trkpt>
      <trkpt lat="42.91922" lon="1.35687">
        <ele>1351.4</ele>
        <time>2015-08-12T10:06:27.146Z</time>
      </trkpt>
      <trkpt lat="42.91917" lon="1.35679">
        <ele>1350.2</ele>
        <time>2015-08-12T10:06:32.166Z</time>
      </trkpt>
      <trkpt lat="42.91916" lon="1.35678">
        <ele>1349.9</ele>
        <time>2015-08-12T10:06:33.146Z</time>
      </trkpt>
      <trkpt lat="42.91911" lon="1.35669">
        <ele>1348.2</ele>
        <time>2015-08-12T10:06:39.168Z</time>
      </trkpt>
      <trkpt lat="42.9191" lon="1.35667">
        <ele>1348</ele>
        <time>2015-08-12T10:06:40.143Z</time>
      </trkpt>
      <trkpt lat="42.91904" lon="1.35659">
        <ele>1346.2</ele>
        <time>2015-08-12T10:06:46.166Z</time>
      </trkpt>
      <trkpt lat="42.91904" lon="1.35658">
        <ele>1346</ele>
        <time>2015-08-12T10:06:47.144Z</time>
      </trkpt>
      <trkpt lat="42.91898" lon="1.3565">
        <ele>1344.2</ele>
        <time>2015-08-12T10:07:06.166Z</time>
      </trkpt>
      <trkpt lat="42.91895" lon="1.35648">
        <ele>1343.4</ele>
        <time>2015-08-12T10:07:07.144Z</time>
      </trkpt>
      <trkpt lat="42.9189" lon="1.35638">
        <ele>1342.8</ele>
        <time>2015-08-12T10:07:18.166Z</time>
      </trkpt>
      <trkpt lat="42.9189" lon="1.35637">
        <ele>1342.8</ele>
        <time>2015-08-12T10:07:19.144Z</time>
      </trkpt>
      <trkpt lat="42.91887" lon="1.35626">
        <ele>1341.9</ele>
        <time>2015-08-12T10:07:28.166Z</time>
      </trkpt>
      <trkpt lat="42.91887" lon="1.35625">
        <ele>1341.9</ele>
        <time>2015-08-12T10:07:29.144Z</time>
      </trkpt>
      <trkpt lat="42.91884" lon="1.35615">
        <ele>1341.3</ele>
        <time>2015-08-12T10:07:35.166Z</time>
      </trkpt>
      <trkpt lat="42.91884" lon="1.35613">
        <ele>1341.2</ele>
        <time>2015-08-12T10:07:36.144Z</time>
      </trkpt>
      <trkpt lat="42.9188" lon="1.35602">
        <ele>1340.3</ele>
        <time>2015-08-12T10:07:43.197Z</time>
      </trkpt>
      <trkpt lat="42.91879" lon="1.356">
        <ele>1340</ele>
        <time>2015-08-12T10:07:44.144Z</time>
      </trkpt>
      <trkpt lat="42.91886" lon="1.35593">
        <ele>1333.9</ele>
        <time>2015-08-12T10:08:09.168Z</time>
      </trkpt>
      <trkpt lat="42.91887" lon="1.35592">
        <ele>1333.8</ele>
        <time>2015-08-12T10:08:10.144Z</time>
      </trkpt>
      <trkpt lat="42.91883" lon="1.35582">
        <ele>1330.3</ele>
        <time>2015-08-12T10:09:18.166Z</time>
      </trkpt>
      <trkpt lat="42.91882" lon="1.3558">
        <ele>1330.2</ele>
        <time>2015-08-12T10:09:19.144Z</time>
      </trkpt>
      <trkpt lat="42.91877" lon="1.35571">
        <ele>1329.7</ele>
        <time>2015-08-12T10:09:25.166Z</time>
      </trkpt>
      <trkpt lat="42.91876" lon="1.35568">
        <ele>1329.5</ele>
        <time>2015-08-12T10:09:26.144Z</time>
      </trkpt>
      <trkpt lat="42.91871" lon="1.35561">
        <ele>1329.1</ele>
        <time>2015-08-12T10:09:30.166Z</time>
      </trkpt>
      <trkpt lat="42.91869" lon="1.35559">
        <ele>1328.9</ele>
        <time>2015-08-12T10:09:31.157Z</time>
      </trkpt>
      <trkpt lat="42.91865" lon="1.35549">
        <ele>1328.2</ele>
        <time>2015-08-12T10:09:37.166Z</time>
      </trkpt>
      <trkpt lat="42.91863" lon="1.35547">
        <ele>1328.2</ele>
        <time>2015-08-12T10:09:38.144Z</time>
      </trkpt>
      <trkpt lat="42.9186" lon="1.35537">
        <ele>1327.8</ele>
        <time>2015-08-12T10:09:44.166Z</time>
      </trkpt>
      <trkpt lat="42.91859" lon="1.35535">
        <ele>1327.7</ele>
        <time>2015-08-12T10:09:45.146Z</time>
      </trkpt>
      <trkpt lat="42.91854" lon="1.35524">
        <ele>1326.9</ele>
        <time>2015-08-12T10:09:50.167Z</time>
      </trkpt>
      <trkpt lat="42.91853" lon="1.3552">
        <ele>1326.6</ele>
        <time>2015-08-12T10:09:51.147Z</time>
      </trkpt>
      <trkpt lat="42.91849" lon="1.35511">
        <ele>1325.7</ele>
        <time>2015-08-12T10:09:57.189Z</time>
      </trkpt>
      <trkpt lat="42.91848" lon="1.35509">
        <ele>1325.6</ele>
        <time>2015-08-12T10:09:58.144Z</time>
      </trkpt>
      <trkpt lat="42.91845" lon="1.35498">
        <ele>1324</ele>
        <time>2015-08-12T10:10:05.168Z</time>
      </trkpt>
      <trkpt lat="42.91845" lon="1.35496">
        <ele>1323.8</ele>
        <time>2015-08-12T10:10:06.144Z</time>
      </trkpt>
      <trkpt lat="42.91841" lon="1.35485">
        <ele>1322.2</ele>
        <time>2015-08-12T10:10:12.167Z</time>
      </trkpt>
      <trkpt lat="42.91841" lon="1.35484">
        <ele>1321.9</ele>
        <time>2015-08-12T10:10:13.144Z</time>
      </trkpt>
      <trkpt lat="42.91837" lon="1.35474">
        <ele>1320.4</ele>
        <time>2015-08-12T10:10:19.166Z</time>
      </trkpt>
      <trkpt lat="42.91836" lon="1.35472">
        <ele>1320</ele>
        <time>2015-08-12T10:10:20.144Z</time>
      </trkpt>
      <trkpt lat="42.91834" lon="1.35461">
        <ele>1318.6</ele>
        <time>2015-08-12T10:10:25.166Z</time>
      </trkpt>
      <trkpt lat="42.91833" lon="1.35459">
        <ele>1318.4</ele>
        <time>2015-08-12T10:10:26.144Z</time>
      </trkpt>
      <trkpt lat="42.91829" lon="1.35449">
        <ele>1317.2</ele>
        <time>2015-08-12T10:10:33.168Z</time>
      </trkpt>
      <trkpt lat="42.91828" lon="1.35447">
        <ele>1317.1</ele>
        <time>2015-08-12T10:10:34.369Z</time>
      </trkpt>
      <trkpt lat="42.91825" lon="1.35437">
        <ele>1315.6</ele>
        <time>2015-08-12T10:10:40.166Z</time>
      </trkpt>
      <trkpt lat="42.91824" lon="1.35435">
        <ele>1315.3</ele>
        <time>2015-08-12T10:10:41.144Z</time>
      </trkpt>
      <trkpt lat="42.91824" lon="1.35425">
        <ele>1313.4</ele>
        <time>2015-08-12T10:10:46.166Z</time>
      </trkpt>
      <trkpt lat="42.91824" lon="1.35423">
        <ele>1313</ele>
        <time>2015-08-12T10:10:47.145Z</time>
      </trkpt>
      <trkpt lat="42.91822" lon="1.35414">
        <ele>1311.6</ele>
        <time>2015-08-12T10:10:51.168Z</time>
      </trkpt>
      <trkpt lat="42.91821" lon="1.3541">
        <ele>1311.2</ele>
        <time>2015-08-12T10:10:52.144Z</time>
      </trkpt>
      <trkpt lat="42.91819" lon="1.35398">
        <ele>1309.3</ele>
        <time>2015-08-12T10:10:58.166Z</time>
      </trkpt>
      <trkpt lat="42.91819" lon="1.35397">
        <ele>1309.1</ele>
        <time>2015-08-12T10:10:59.145Z</time>
      </trkpt>
      <trkpt lat="42.91818" lon="1.35385">
        <ele>1307.7</ele>
        <time>2015-08-12T10:11:05.166Z</time>
      </trkpt>
      <trkpt lat="42.91818" lon="1.35382">
        <ele>1307.5</ele>
        <time>2015-08-12T10:11:06.145Z</time>
      </trkpt>
      <trkpt lat="42.91819" lon="1.35372">
        <ele>1306.5</ele>
        <time>2015-08-12T10:11:11.166Z</time>
      </trkpt>
      <trkpt lat="42.91819" lon="1.3537">
        <ele>1306.4</ele>
        <time>2015-08-12T10:11:12.144Z</time>
      </trkpt>
      <trkpt lat="42.91818" lon="1.35358">
        <ele>1307.3</ele>
        <time>2015-08-12T10:11:21.169Z</time>
      </trkpt>
      <trkpt lat="42.91816" lon="1.35356">
        <ele>1307.4</ele>
        <time>2015-08-12T10:11:22.156Z</time>
      </trkpt>
      <trkpt lat="42.91811" lon="1.35347">
        <ele>1307.4</ele>
        <time>2015-08-12T10:11:26.166Z</time>
      </trkpt>
      <trkpt lat="42.91811" lon="1.35345">
        <ele>1307.4</ele>
        <time>2015-08-12T10:11:27.146Z</time>
      </trkpt>
      <trkpt lat="42.91811" lon="1.35334">
        <ele>1306.9</ele>
        <time>2015-08-12T10:11:33.260Z</time>
      </trkpt>
      <trkpt lat="42.9181" lon="1.35332">
        <ele>1306.9</ele>
        <time>2015-08-12T10:11:34.144Z</time>
      </trkpt>
      <trkpt lat="42.91813" lon="1.35323">
        <ele>1306.2</ele>
        <time>2015-08-12T10:11:39.168Z</time>
      </trkpt>
      <trkpt lat="42.91813" lon="1.35321">
        <ele>1306.1</ele>
        <time>2015-08-12T10:11:40.144Z</time>
      </trkpt>
      <trkpt lat="42.91813" lon="1.35309">
        <ele>1305.6</ele>
        <time>2015-08-12T10:11:47.166Z</time>
      </trkpt>
      <trkpt lat="42.91812" lon="1.35307">
        <ele>1305.6</ele>
        <time>2015-08-12T10:11:48.144Z</time>
      </trkpt>
      <trkpt lat="42.91812" lon="1.35298">
        <ele>1305.7</ele>
        <time>2015-08-12T10:11:53.188Z</time>
      </trkpt>
      <trkpt lat="42.91809" lon="1.35295">
        <ele>1305.7</ele>
        <time>2015-08-12T10:11:54.144Z</time>
      </trkpt>
      <trkpt lat="42.91808" lon="1.35285">
        <ele>1305.7</ele>
        <time>2015-08-12T10:12:00.166Z</time>
      </trkpt>
      <trkpt lat="42.91806" lon="1.35283">
        <ele>1305.7</ele>
        <time>2015-08-12T10:12:01.144Z</time>
      </trkpt>
      <trkpt lat="42.91806" lon="1.35271">
        <ele>1305.2</ele>
        <time>2015-08-12T10:12:07.166Z</time>
      </trkpt>
      <trkpt lat="42.91806" lon="1.35269">
        <ele>1305.2</ele>
        <time>2015-08-12T10:12:08.144Z</time>
      </trkpt>
      <trkpt lat="42.91801" lon="1.3526">
        <ele>1304.8</ele>
        <time>2015-08-12T10:12:13.205Z</time>
      </trkpt>
      <trkpt lat="42.91801" lon="1.35258">
        <ele>1304.7</ele>
        <time>2015-08-12T10:12:14.146Z</time>
      </trkpt>
      <trkpt lat="42.918" lon="1.35249">
        <ele>1304.4</ele>
        <time>2015-08-12T10:12:19.166Z</time>
      </trkpt>
      <trkpt lat="42.91799" lon="1.35246">
        <ele>1304.4</ele>
        <time>2015-08-12T10:12:20.145Z</time>
      </trkpt>
      <trkpt lat="42.91798" lon="1.35235">
        <ele>1304</ele>
        <time>2015-08-12T10:12:27.168Z</time>
      </trkpt>
      <trkpt lat="42.91798" lon="1.35233">
        <ele>1304</ele>
        <time>2015-08-12T10:12:28.146Z</time>
      </trkpt>
      <trkpt lat="42.91796" lon="1.35221">
        <ele>1303.8</ele>
        <time>2015-08-12T10:12:34.167Z</time>
      </trkpt>
      <trkpt lat="42.91797" lon="1.35219">
        <ele>1303.7</ele>
        <time>2015-08-12T10:12:35.145Z</time>
      </trkpt>
      <trkpt lat="42.91796" lon="1.3521">
        <ele>1304.1</ele>
        <time>2015-08-12T10:12:37.166Z</time>
      </trkpt>
      <trkpt lat="42.91796" lon="1.35206">
        <ele>1304.4</ele>
        <time>2015-08-12T10:12:38.145Z</time>
      </trkpt>
      <trkpt lat="42.91792" lon="1.35196">
        <ele>1305</ele>
        <time>2015-08-12T10:12:44.167Z</time>
      </trkpt>
      <trkpt lat="42.91792" lon="1.35194">
        <ele>1305</ele>
        <time>2015-08-12T10:12:45.146Z</time>
      </trkpt>
      <trkpt lat="42.91789" lon="1.35183">
        <ele>1304.5</ele>
        <time>2015-08-12T10:12:52.167Z</time>
      </trkpt>
      <trkpt lat="42.91789" lon="1.35181">
        <ele>1304.4</ele>
        <time>2015-08-12T10:12:53.145Z</time>
      </trkpt>
      <trkpt lat="42.91787" lon="1.35171">
        <ele>1304.1</ele>
        <time>2015-08-12T10:12:58.167Z</time>
      </trkpt>
      <trkpt lat="42.91787" lon="1.35169">
        <ele>1304.1</ele>
        <time>2015-08-12T10:12:59.146Z</time>
      </trkpt>
      <trkpt lat="42.91785" lon="1.35159">
        <ele>1303.7</ele>
        <time>2015-08-12T10:13:02.168Z</time>
      </trkpt>
      <trkpt lat="42.91785" lon="1.35156">
        <ele>1303.6</ele>
        <time>2015-08-12T10:13:03.147Z</time>
      </trkpt>
      <trkpt lat="42.91783" lon="1.35145">
        <ele>1302.9</ele>
        <time>2015-08-12T10:13:08.456Z</time>
      </trkpt>
      <trkpt lat="42.91782" lon="1.35142">
        <ele>1302.8</ele>
        <time>2015-08-12T10:13:09.146Z</time>
      </trkpt>
      <trkpt lat="42.9178" lon="1.35131">
        <ele>1302.4</ele>
        <time>2015-08-12T10:13:15.168Z</time>
      </trkpt>
      <trkpt lat="42.91779" lon="1.3513">
        <ele>1302.5</ele>
        <time>2015-08-12T10:13:16.145Z</time>
      </trkpt>
      <trkpt lat="42.91779" lon="1.35119">
        <ele>1302.9</ele>
        <time>2015-08-12T10:13:20.167Z</time>
      </trkpt>
      <trkpt lat="42.91779" lon="1.35117">
        <ele>1302.9</ele>
        <time>2015-08-12T10:13:21.146Z</time>
      </trkpt>
      <trkpt lat="42.91779" lon="1.35106">
        <ele>1303.5</ele>
        <time>2015-08-12T10:13:26.167Z</time>
      </trkpt>
      <trkpt lat="42.91779" lon="1.35104">
        <ele>1303.5</ele>
        <time>2015-08-12T10:13:27.147Z</time>
      </trkpt>
      <trkpt lat="42.91774" lon="1.35093">
        <ele>1303</ele>
        <time>2015-08-12T10:13:32.167Z</time>
      </trkpt>
      <trkpt lat="42.91774" lon="1.35091">
        <ele>1303</ele>
        <time>2015-08-12T10:13:33.146Z</time>
      </trkpt>
      <trkpt lat="42.9177" lon="1.35082">
        <ele>1302.8</ele>
        <time>2015-08-12T10:13:39.185Z</time>
      </trkpt>
      <trkpt lat="42.91769" lon="1.3508">
        <ele>1302.6</ele>
        <time>2015-08-12T10:13:40.145Z</time>
      </trkpt>
      <trkpt lat="42.91767" lon="1.35071">
        <ele>1302.1</ele>
        <time>2015-08-12T10:13:46.167Z</time>
      </trkpt>
      <trkpt lat="42.91766" lon="1.35068">
        <ele>1301.9</ele>
        <time>2015-08-12T10:13:47.146Z</time>
      </trkpt>
      <trkpt lat="42.9176" lon="1.35059">
        <ele>1301.3</ele>
        <time>2015-08-12T10:13:51.168Z</time>
      </trkpt>
      <trkpt lat="42.91759" lon="1.35057">
        <ele>1301.1</ele>
        <time>2015-08-12T10:13:52.145Z</time>
      </trkpt>
      <trkpt lat="42.91755" lon="1.35048">
        <ele>1300.2</ele>
        <time>2015-08-12T10:13:57.168Z</time>
      </trkpt>
      <trkpt lat="42.91754" lon="1.35047">
        <ele>1300</ele>
        <time>2015-08-12T10:13:58.145Z</time>
      </trkpt>
      <trkpt lat="42.91748" lon="1.35039">
        <ele>1299</ele>
        <time>2015-08-12T10:14:04.167Z</time>
      </trkpt>
      <trkpt lat="42.91748" lon="1.35037">
        <ele>1298.9</ele>
        <time>2015-08-12T10:14:05.146Z</time>
      </trkpt>
      <trkpt lat="42.91741" lon="1.35029">
        <ele>1298</ele>
        <time>2015-08-12T10:14:10.167Z</time>
      </trkpt>
      <trkpt lat="42.9174" lon="1.35028">
        <ele>1298</ele>
        <time>2015-08-12T10:14:11.145Z</time>
      </trkpt>
      <trkpt lat="42.91733" lon="1.35022">
        <ele>1297.6</ele>
        <time>2015-08-12T10:14:16.179Z</time>
      </trkpt>
      <trkpt lat="42.91732" lon="1.35021">
        <ele>1297.6</ele>
        <time>2015-08-12T10:14:17.145Z</time>
      </trkpt>
      <trkpt lat="42.91723" lon="1.35017">
        <ele>1297.2</ele>
        <time>2015-08-12T10:14:31.167Z</time>
      </trkpt>
      <trkpt lat="42.91722" lon="1.35017">
        <ele>1297.1</ele>
        <time>2015-08-12T10:14:32.157Z</time>
      </trkpt>
      <trkpt lat="42.91714" lon="1.35015">
        <ele>1296.6</ele>
        <time>2015-08-12T10:14:39.169Z</time>
      </trkpt>
      <trkpt lat="42.91712" lon="1.35015">
        <ele>1296.6</ele>
        <time>2015-08-12T10:14:40.146Z</time>
      </trkpt>
      <trkpt lat="42.91704" lon="1.35012">
        <ele>1296.2</ele>
        <time>2015-08-12T10:14:47.167Z</time>
      </trkpt>
      <trkpt lat="42.91702" lon="1.35011">
        <ele>1296.1</ele>
        <time>2015-08-12T10:14:48.271Z</time>
      </trkpt>
      <trkpt lat="42.91694" lon="1.35009">
        <ele>1296</ele>
        <time>2015-08-12T10:14:55.167Z</time>
      </trkpt>
      <trkpt lat="42.91693" lon="1.35008">
        <ele>1296</ele>
        <time>2015-08-12T10:14:56.145Z</time>
      </trkpt>
      <trkpt lat="42.91684" lon="1.35005">
        <ele>1295.7</ele>
        <time>2015-08-12T10:15:02.168Z</time>
      </trkpt>
      <trkpt lat="42.91684" lon="1.35004">
        <ele>1295.6</ele>
        <time>2015-08-12T10:15:03.146Z</time>
      </trkpt>
      <trkpt lat="42.91675" lon="1.35">
        <ele>1295.4</ele>
        <time>2015-08-12T10:15:09.205Z</time>
      </trkpt>
      <trkpt lat="42.91674" lon="1.35">
        <ele>1295.4</ele>
        <time>2015-08-12T10:15:10.145Z</time>
      </trkpt>
      <trkpt lat="42.91666" lon="1.34998">
        <ele>1295.3</ele>
        <time>2015-08-12T10:15:15.168Z</time>
      </trkpt>
      <trkpt lat="42.91664" lon="1.34996">
        <ele>1295.3</ele>
        <time>2015-08-12T10:15:16.145Z</time>
      </trkpt>
      <trkpt lat="42.91656" lon="1.34994">
        <ele>1295.2</ele>
        <time>2015-08-12T10:15:21.168Z</time>
      </trkpt>
      <trkpt lat="42.91655" lon="1.34993">
        <ele>1295.1</ele>
        <time>2015-08-12T10:15:22.145Z</time>
      </trkpt>
      <trkpt lat="42.91647" lon="1.3499">
        <ele>1295</ele>
        <time>2015-08-12T10:15:27.168Z</time>
      </trkpt>
      <trkpt lat="42.91646" lon="1.3499">
        <ele>1294.9</ele>
        <time>2015-08-12T10:15:28.145Z</time>
      </trkpt>
      <trkpt lat="42.91637" lon="1.34986">
        <ele>1294.6</ele>
        <time>2015-08-12T10:15:33.168Z</time>
      </trkpt>
      <trkpt lat="42.91636" lon="1.34986">
        <ele>1294.5</ele>
        <time>2015-08-12T10:15:34.145Z</time>
      </trkpt>
      <trkpt lat="42.91628" lon="1.34983">
        <ele>1294.2</ele>
        <time>2015-08-12T10:15:39.168Z</time>
      </trkpt>
      <trkpt lat="42.91626" lon="1.34982">
        <ele>1294.1</ele>
        <time>2015-08-12T10:15:40.146Z</time>
      </trkpt>
      <trkpt lat="42.91618" lon="1.34979">
        <ele>1293.5</ele>
        <time>2015-08-12T10:15:46.179Z</time>
      </trkpt>
      <trkpt lat="42.91616" lon="1.34978">
        <ele>1293.4</ele>
        <time>2015-08-12T10:15:47.145Z</time>
      </trkpt>
      <trkpt lat="42.91608" lon="1.34976">
        <ele>1292.5</ele>
        <time>2015-08-12T10:15:54.167Z</time>
      </trkpt>
      <trkpt lat="42.91606" lon="1.34975">
        <ele>1292.3</ele>
        <time>2015-08-12T10:15:55.146Z</time>
      </trkpt>
      <trkpt lat="42.91597" lon="1.34974">
        <ele>1289.5</ele>
        <time>2015-08-12T10:16:03.168Z</time>
      </trkpt>
      <trkpt lat="42.91597" lon="1.34974">
        <ele>1289</ele>
        <time>2015-08-12T10:16:04.145Z</time>
      </trkpt>
      <trkpt lat="42.91588" lon="1.34971">
        <ele>1287.2</ele>
        <time>2015-08-12T10:16:12.180Z</time>
      </trkpt>
      <trkpt lat="42.91587" lon="1.34969">
        <ele>1286.9</ele>
        <time>2015-08-12T10:16:13.145Z</time>
      </trkpt>
      <trkpt lat="42.9158" lon="1.34963">
        <ele>1285.2</ele>
        <time>2015-08-12T10:16:18.167Z</time>
      </trkpt>
      <trkpt lat="42.91579" lon="1.34962">
        <ele>1285</ele>
        <time>2015-08-12T10:16:19.145Z</time>
      </trkpt>
      <trkpt lat="42.91572" lon="1.34956">
        <ele>1284</ele>
        <time>2015-08-12T10:16:24.167Z</time>
      </trkpt>
      <trkpt lat="42.91571" lon="1.34955">
        <ele>1283.9</ele>
        <time>2015-08-12T10:16:25.145Z</time>
      </trkpt>
      <trkpt lat="42.91564" lon="1.34949">
        <ele>1282.9</ele>
        <time>2015-08-12T10:16:31.167Z</time>
      </trkpt>
      <trkpt lat="42.91563" lon="1.34947">
        <ele>1282.7</ele>
        <time>2015-08-12T10:16:32.145Z</time>
      </trkpt>
      <trkpt lat="42.91556" lon="1.34943">
        <ele>1281.5</ele>
        <time>2015-08-12T10:16:37.168Z</time>
      </trkpt>
      <trkpt lat="42.91554" lon="1.34942">
        <ele>1281.3</ele>
        <time>2015-08-12T10:16:38.146Z</time>
      </trkpt>
      <trkpt lat="42.91547" lon="1.34936">
        <ele>1280</ele>
        <time>2015-08-12T10:16:44.167Z</time>
      </trkpt>
      <trkpt lat="42.91546" lon="1.34935">
        <ele>1279.9</ele>
        <time>2015-08-12T10:16:45.255Z</time>
      </trkpt>
      <trkpt lat="42.91539" lon="1.3493">
        <ele>1279</ele>
        <time>2015-08-12T10:16:51.175Z</time>
      </trkpt>
      <trkpt lat="42.91537" lon="1.34929">
        <ele>1278.9</ele>
        <time>2015-08-12T10:16:52.145Z</time>
      </trkpt>
      <trkpt lat="42.91531" lon="1.34921">
        <ele>1277.7</ele>
        <time>2015-08-12T10:16:58.186Z</time>
      </trkpt>
      <trkpt lat="42.91531" lon="1.3492">
        <ele>1277.6</ele>
        <time>2015-08-12T10:16:59.146Z</time>
      </trkpt>
      <trkpt lat="42.91524" lon="1.34911">
        <ele>1276.5</ele>
        <time>2015-08-12T10:17:05.167Z</time>
      </trkpt>
      <trkpt lat="42.91524" lon="1.3491">
        <ele>1276.4</ele>
        <time>2015-08-12T10:17:06.145Z</time>
      </trkpt>
      <trkpt lat="42.91518" lon="1.349">
        <ele>1275.6</ele>
        <time>2015-08-12T10:17:11.167Z</time>
      </trkpt>
      <trkpt lat="42.91517" lon="1.34898">
        <ele>1275.5</ele>
        <time>2015-08-12T10:17:12.145Z</time>
      </trkpt>
      <trkpt lat="42.91511" lon="1.34891">
        <ele>1274.8</ele>
        <time>2015-08-12T10:17:17.167Z</time>
      </trkpt>
      <trkpt lat="42.9151" lon="1.3489">
        <ele>1274.7</ele>
        <time>2015-08-12T10:17:18.146Z</time>
      </trkpt>
      <trkpt lat="42.91504" lon="1.34881">
        <ele>1273.8</ele>
        <time>2015-08-12T10:17:24.168Z</time>
      </trkpt>
      <trkpt lat="42.91504" lon="1.3488">
        <ele>1273.6</ele>
        <time>2015-08-12T10:17:25.146Z</time>
      </trkpt>
      <trkpt lat="42.91498" lon="1.34872">
        <ele>1272.4</ele>
        <time>2015-08-12T10:17:31.190Z</time>
      </trkpt>
      <trkpt lat="42.91497" lon="1.3487">
        <ele>1272.3</ele>
        <time>2015-08-12T10:17:32.145Z</time>
      </trkpt>
      <trkpt lat="42.91492" lon="1.34861">
        <ele>1271.3</ele>
        <time>2015-08-12T10:17:38.167Z</time>
      </trkpt>
      <trkpt lat="42.91491" lon="1.3486">
        <ele>1271.1</ele>
        <time>2015-08-12T10:17:39.146Z</time>
      </trkpt>
      <trkpt lat="42.91488" lon="1.34851">
        <ele>1269.6</ele>
        <time>2015-08-12T10:17:44.167Z</time>
      </trkpt>
      <trkpt lat="42.91487" lon="1.34849">
        <ele>1269.1</ele>
        <time>2015-08-12T10:17:45.147Z</time>
      </trkpt>
      <trkpt lat="42.91482" lon="1.3484">
        <ele>1267.5</ele>
        <time>2015-08-12T10:17:51.172Z</time>
      </trkpt>
      <trkpt lat="42.91481" lon="1.34838">
        <ele>1267.2</ele>
        <time>2015-08-12T10:17:52.146Z</time>
      </trkpt>
      <trkpt lat="42.91477" lon="1.34829">
        <ele>1265.7</ele>
        <time>2015-08-12T10:17:58.167Z</time>
      </trkpt>
      <trkpt lat="42.91476" lon="1.34827">
        <ele>1265.5</ele>
        <time>2015-08-12T10:17:59.146Z</time>
      </trkpt>
      <trkpt lat="42.91473" lon="1.34817">
        <ele>1263.8</ele>
        <time>2015-08-12T10:18:05.168Z</time>
      </trkpt>
      <trkpt lat="42.91472" lon="1.34816">
        <ele>1263.6</ele>
        <time>2015-08-12T10:18:06.145Z</time>
      </trkpt>
      <trkpt lat="42.91466" lon="1.34808">
        <ele>1263.7</ele>
        <time>2015-08-12T10:18:16.168Z</time>
      </trkpt>
      <trkpt lat="42.91465" lon="1.34808">
        <ele>1263.8</ele>
        <time>2015-08-12T10:18:17.145Z</time>
      </trkpt>
      <trkpt lat="42.91458" lon="1.34801">
        <ele>1262.8</ele>
        <time>2015-08-12T10:18:24.167Z</time>
      </trkpt>
      <trkpt lat="42.91457" lon="1.34799">
        <ele>1262.7</ele>
        <time>2015-08-12T10:18:25.145Z</time>
      </trkpt>
      <trkpt lat="42.91454" lon="1.34789">
        <ele>1261.3</ele>
        <time>2015-08-12T10:18:31.167Z</time>
      </trkpt>
      <trkpt lat="42.91454" lon="1.34788">
        <ele>1261.1</ele>
        <time>2015-08-12T10:18:32.146Z</time>
      </trkpt>
      <trkpt lat="42.9145" lon="1.34776">
        <ele>1259</ele>
        <time>2015-08-12T10:18:40.168Z</time>
      </trkpt>
      <trkpt lat="42.9145" lon="1.34775">
        <ele>1258.8</ele>
        <time>2015-08-12T10:18:41.146Z</time>
      </trkpt>
      <trkpt lat="42.91449" lon="1.34764">
        <ele>1257.4</ele>
        <time>2015-08-12T10:18:47.167Z</time>
      </trkpt>
      <trkpt lat="42.91448" lon="1.34762">
        <ele>1257.2</ele>
        <time>2015-08-12T10:18:48.145Z</time>
      </trkpt>
      <trkpt lat="42.91448" lon="1.3475">
        <ele>1255</ele>
        <time>2015-08-12T10:18:55.167Z</time>
      </trkpt>
      <trkpt lat="42.91448" lon="1.34749">
        <ele>1254.7</ele>
        <time>2015-08-12T10:18:56.145Z</time>
      </trkpt>
      <trkpt lat="42.9145" lon="1.34738">
        <ele>1252.8</ele>
        <time>2015-08-12T10:19:02.167Z</time>
      </trkpt>
      <trkpt lat="42.91451" lon="1.34736">
        <ele>1252.4</ele>
        <time>2015-08-12T10:19:03.146Z</time>
      </trkpt>
      <trkpt lat="42.91453" lon="1.34725">
        <ele>1251.2</ele>
        <time>2015-08-12T10:19:09.170Z</time>
      </trkpt>
      <trkpt lat="42.91454" lon="1.34724">
        <ele>1250.9</ele>
        <time>2015-08-12T10:19:10.146Z</time>
      </trkpt>
      <trkpt lat="42.91454" lon="1.34714">
        <ele>1249.5</ele>
        <time>2015-08-12T10:19:15.168Z</time>
      </trkpt>
      <trkpt lat="42.91454" lon="1.34711">
        <ele>1249.2</ele>
        <time>2015-08-12T10:19:16.158Z</time>
      </trkpt>
      <trkpt lat="42.91456" lon="1.34701">
        <ele>1247.4</ele>
        <time>2015-08-12T10:19:22.167Z</time>
      </trkpt>
      <trkpt lat="42.91456" lon="1.34699">
        <ele>1247.2</ele>
        <time>2015-08-12T10:19:23.146Z</time>
      </trkpt>
      <trkpt lat="42.91459" lon="1.34688">
        <ele>1245.2</ele>
        <time>2015-08-12T10:19:29.168Z</time>
      </trkpt>
      <trkpt lat="42.91459" lon="1.34686">
        <ele>1244.9</ele>
        <time>2015-08-12T10:19:30.159Z</time>
      </trkpt>
      <trkpt lat="42.91463" lon="1.34676">
        <ele>1243</ele>
        <time>2015-08-12T10:19:37.167Z</time>
      </trkpt>
      <trkpt lat="42.91463" lon="1.34675">
        <ele>1242.8</ele>
        <time>2015-08-12T10:19:38.146Z</time>
      </trkpt>
      <trkpt lat="42.91465" lon="1.34663">
        <ele>1240.6</ele>
        <time>2015-08-12T10:19:45.219Z</time>
      </trkpt>
      <trkpt lat="42.91465" lon="1.34662">
        <ele>1240.4</ele>
        <time>2015-08-12T10:19:46.146Z</time>
      </trkpt>
      <trkpt lat="42.91466" lon="1.34651">
        <ele>1239.1</ele>
        <time>2015-08-12T10:19:52.168Z</time>
      </trkpt>
      <trkpt lat="42.91466" lon="1.34649">
        <ele>1238.9</ele>
        <time>2015-08-12T10:19:53.146Z</time>
      </trkpt>
      <trkpt lat="42.91467" lon="1.34638">
        <ele>1237.5</ele>
        <time>2015-08-12T10:19:59.180Z</time>
      </trkpt>
      <trkpt lat="42.91468" lon="1.34636">
        <ele>1237.3</ele>
        <time>2015-08-12T10:20:00.240Z</time>
      </trkpt>
      <trkpt lat="42.91469" lon="1.34625">
        <ele>1235.8</ele>
        <time>2015-08-12T10:20:07.176Z</time>
      </trkpt>
      <trkpt lat="42.9147" lon="1.34624">
        <ele>1235.5</ele>
        <time>2015-08-12T10:20:08.146Z</time>
      </trkpt>
      <trkpt lat="42.9147" lon="1.34612">
        <ele>1233.1</ele>
        <time>2015-08-12T10:20:14.168Z</time>
      </trkpt>
      <trkpt lat="42.9147" lon="1.34611">
        <ele>1232.9</ele>
        <time>2015-08-12T10:20:15.163Z</time>
      </trkpt>
      <trkpt lat="42.9147" lon="1.34599">
        <ele>1231.4</ele>
        <time>2015-08-12T10:20:22.168Z</time>
      </trkpt>
      <trkpt lat="42.9147" lon="1.34598">
        <ele>1231.2</ele>
        <time>2015-08-12T10:20:23.251Z</time>
      </trkpt>
      <trkpt lat="42.91469" lon="1.34587">
        <ele>1229.6</ele>
        <time>2015-08-12T10:20:29.167Z</time>
      </trkpt>
      <trkpt lat="42.91469" lon="1.34585">
        <ele>1229.4</ele>
        <time>2015-08-12T10:20:30.146Z</time>
      </trkpt>
      <trkpt lat="42.91467" lon="1.34574">
        <ele>1227.7</ele>
        <time>2015-08-12T10:20:36.181Z</time>
      </trkpt>
      <trkpt lat="42.91467" lon="1.34572">
        <ele>1227.5</ele>
        <time>2015-08-12T10:20:37.146Z</time>
      </trkpt>
      <trkpt lat="42.91464" lon="1.34562">
        <ele>1226.7</ele>
        <time>2015-08-12T10:20:43.167Z</time>
      </trkpt>
      <trkpt lat="42.91464" lon="1.3456">
        <ele>1226.5</ele>
        <time>2015-08-12T10:20:44.146Z</time>
      </trkpt>
      <trkpt lat="42.91462" lon="1.34549">
        <ele>1225.3</ele>
        <time>2015-08-12T10:20:50.168Z</time>
      </trkpt>
      <trkpt lat="42.91462" lon="1.34547">
        <ele>1225.2</ele>
        <time>2015-08-12T10:20:51.148Z</time>
      </trkpt>
      <trkpt lat="42.91461" lon="1.34537">
        <ele>1224.1</ele>
        <time>2015-08-12T10:20:56.168Z</time>
      </trkpt>
      <trkpt lat="42.91461" lon="1.34535">
        <ele>1223.9</ele>
        <time>2015-08-12T10:20:57.147Z</time>
      </trkpt>
      <trkpt lat="42.91459" lon="1.34523">
        <ele>1222.5</ele>
        <time>2015-08-12T10:21:04.168Z</time>
      </trkpt>
      <trkpt lat="42.91459" lon="1.34521">
        <ele>1222.3</ele>
        <time>2015-08-12T10:21:05.146Z</time>
      </trkpt>
      <trkpt lat="42.91459" lon="1.34509">
        <ele>1220.8</ele>
        <time>2015-08-12T10:21:11.168Z</time>
      </trkpt>
      <trkpt lat="42.91459" lon="1.34507">
        <ele>1220.5</ele>
        <time>2015-08-12T10:21:12.146Z</time>
      </trkpt>
      <trkpt lat="42.91461" lon="1.34498">
        <ele>1218.5</ele>
        <time>2015-08-12T10:21:18.213Z</time>
      </trkpt>
      <trkpt lat="42.91457" lon="1.34481">
        <ele>1213.5</ele>
        <time>2015-08-12T10:21:35.019Z</time>
      </trkpt>
      <trkpt lat="42.91458" lon="1.34483">
        <ele>1211.4</ele>
        <time>2015-08-12T10:21:36.025Z</time>
      </trkpt>
      <trkpt lat="42.91459" lon="1.34482">
        <ele>1213.2</ele>
        <time>2015-08-12T10:21:37.146Z</time>
      </trkpt>
      <trkpt lat="42.91459" lon="1.34482">
        <ele>1213.2</ele>
        <time>2015-08-12T10:21:37.170Z</time>
      </trkpt>
      <trkpt lat="42.91459" lon="1.34482">
        <ele>1213.8</ele>
        <time>2015-08-12T10:21:38.145Z</time>
      </trkpt>
      <trkpt lat="42.91456" lon="1.34472">
        <ele>1217.2</ele>
        <time>2015-08-12T10:22:04.167Z</time>
      </trkpt>
      <trkpt lat="42.91456" lon="1.34469">
        <ele>1217.2</ele>
        <time>2015-08-12T10:22:05.146Z</time>
      </trkpt>
      <trkpt lat="42.91454" lon="1.34457">
        <ele>1215.6</ele>
        <time>2015-08-12T10:22:36.169Z</time>
      </trkpt>
      <trkpt lat="42.91453" lon="1.34456">
        <ele>1215.6</ele>
        <time>2015-08-12T10:22:37.145Z</time>
      </trkpt>
      <trkpt lat="42.91451" lon="1.34446">
        <ele>1215.3</ele>
        <time>2015-08-12T10:22:45.170Z</time>
      </trkpt>
      <trkpt lat="42.91451" lon="1.34444">
        <ele>1215.4</ele>
        <time>2015-08-12T10:22:46.146Z</time>
      </trkpt>
      <trkpt lat="42.9145" lon="1.34432">
        <ele>1214.9</ele>
        <time>2015-08-12T10:22:57.169Z</time>
      </trkpt>
      <trkpt lat="42.9145" lon="1.34431">
        <ele>1214.9</ele>
        <time>2015-08-12T10:22:58.165Z</time>
      </trkpt>
      <trkpt lat="42.91447" lon="1.34421">
        <ele>1214.3</ele>
        <time>2015-08-12T10:23:08.168Z</time>
      </trkpt>
      <trkpt lat="42.91447" lon="1.3442">
        <ele>1214.2</ele>
        <time>2015-08-12T10:23:09.146Z</time>
      </trkpt>
      <trkpt lat="42.91447" lon="1.34408">
        <ele>1214</ele>
        <time>2015-08-12T10:23:18.168Z</time>
      </trkpt>
      <trkpt lat="42.91447" lon="1.34406">
        <ele>1213.8</ele>
        <time>2015-08-12T10:23:19.145Z</time>
      </trkpt>
      <trkpt lat="42.91446" lon="1.34394">
        <ele>1213.4</ele>
        <time>2015-08-12T10:23:27.170Z</time>
      </trkpt>
      <trkpt lat="42.91446" lon="1.34393">
        <ele>1213.3</ele>
        <time>2015-08-12T10:23:28.165Z</time>
      </trkpt>
      <trkpt lat="42.91443" lon="1.34381">
        <ele>1212.5</ele>
        <time>2015-08-12T10:23:37.222Z</time>
      </trkpt>
      <trkpt lat="42.91443" lon="1.3438">
        <ele>1212.4</ele>
        <time>2015-08-12T10:23:38.146Z</time>
      </trkpt>
      <trkpt lat="42.91437" lon="1.34371">
        <ele>1211.9</ele>
        <time>2015-08-12T10:23:45.170Z</time>
      </trkpt>
      <trkpt lat="42.91437" lon="1.3437">
        <ele>1211.8</ele>
        <time>2015-08-12T10:23:46.146Z</time>
      </trkpt>
      <trkpt lat="42.91435" lon="1.34359">
        <ele>1210.6</ele>
        <time>2015-08-12T10:23:54.168Z</time>
      </trkpt>
      <trkpt lat="42.91436" lon="1.34357">
        <ele>1210.4</ele>
        <time>2015-08-12T10:23:55.255Z</time>
      </trkpt>
      <trkpt lat="42.91441" lon="1.34348">
        <ele>1209</ele>
        <time>2015-08-12T10:24:02.168Z</time>
      </trkpt>
      <trkpt lat="42.91441" lon="1.34346">
        <ele>1208.7</ele>
        <time>2015-08-12T10:24:03.146Z</time>
      </trkpt>
      <trkpt lat="42.91445" lon="1.34335">
        <ele>1208.3</ele>
        <time>2015-08-12T10:24:10.168Z</time>
      </trkpt>
      <trkpt lat="42.91445" lon="1.34334">
        <ele>1208.2</ele>
        <time>2015-08-12T10:24:11.146Z</time>
      </trkpt>
      <trkpt lat="42.91446" lon="1.34322">
        <ele>1207.3</ele>
        <time>2015-08-12T10:24:17.168Z</time>
      </trkpt>
      <trkpt lat="42.91447" lon="1.34321">
        <ele>1207.1</ele>
        <time>2015-08-12T10:24:18.145Z</time>
      </trkpt>
      <trkpt lat="42.9145" lon="1.3431">
        <ele>1205.1</ele>
        <time>2015-08-12T10:24:26.175Z</time>
      </trkpt>
      <trkpt lat="42.91451" lon="1.3431">
        <ele>1205</ele>
        <time>2015-08-12T10:24:27.147Z</time>
      </trkpt>
      <trkpt lat="42.91451" lon="1.34297">
        <ele>1203</ele>
        <time>2015-08-12T10:24:35.168Z</time>
      </trkpt>
      <trkpt lat="42.9145" lon="1.34296">
        <ele>1202.8</ele>
        <time>2015-08-12T10:24:36.146Z</time>
      </trkpt>
      <trkpt lat="42.91447" lon="1.34286">
        <ele>1201.7</ele>
        <time>2015-08-12T10:24:44.169Z</time>
      </trkpt>
      <trkpt lat="42.91447" lon="1.34284">
        <ele>1201.6</ele>
        <time>2015-08-12T10:24:45.159Z</time>
      </trkpt>
      <trkpt lat="42.91447" lon="1.34273">
        <ele>1200.4</ele>
        <time>2015-08-12T10:24:52.169Z</time>
      </trkpt>
      <trkpt lat="42.91447" lon="1.34272">
        <ele>1200.2</ele>
        <time>2015-08-12T10:24:53.146Z</time>
      </trkpt>
      <trkpt lat="42.9145" lon="1.3426">
        <ele>1198.5</ele>
        <time>2015-08-12T10:25:02.168Z</time>
      </trkpt>
      <trkpt lat="42.9145" lon="1.34259">
        <ele>1198.3</ele>
        <time>2015-08-12T10:25:03.148Z</time>
      </trkpt>
      <trkpt lat="42.91451" lon="1.34248">
        <ele>1196.9</ele>
        <time>2015-08-12T10:25:11.169Z</time>
      </trkpt>
      <trkpt lat="42.91451" lon="1.34247">
        <ele>1196.8</ele>
        <time>2015-08-12T10:25:12.145Z</time>
      </trkpt>
      <trkpt lat="42.91453" lon="1.34236">
        <ele>1195.6</ele>
        <time>2015-08-12T10:25:19.169Z</time>
      </trkpt>
      <trkpt lat="42.91453" lon="1.34234">
        <ele>1195.4</ele>
        <time>2015-08-12T10:25:20.146Z</time>
      </trkpt>
      <trkpt lat="42.91458" lon="1.34223">
        <ele>1194</ele>
        <time>2015-08-12T10:25:28.168Z</time>
      </trkpt>
      <trkpt lat="42.91458" lon="1.34222">
        <ele>1193.7</ele>
        <time>2015-08-12T10:25:29.146Z</time>
      </trkpt>
      <trkpt lat="42.91462" lon="1.34212">
        <ele>1191.7</ele>
        <time>2015-08-12T10:25:38.168Z</time>
      </trkpt>
      <trkpt lat="42.91463" lon="1.34211">
        <ele>1191.5</ele>
        <time>2015-08-12T10:25:39.148Z</time>
      </trkpt>
      <trkpt lat="42.91467" lon="1.34201">
        <ele>1190.2</ele>
        <time>2015-08-12T10:25:51.170Z</time>
      </trkpt>
      <trkpt lat="42.91467" lon="1.34199">
        <ele>1190.1</ele>
        <time>2015-08-12T10:25:52.166Z</time>
      </trkpt>
      <trkpt lat="42.91468" lon="1.34188">
        <ele>1189.5</ele>
        <time>2015-08-12T10:25:58.158Z</time>
      </trkpt>
      <trkpt lat="42.91468" lon="1.34186">
        <ele>1189.3</ele>
        <time>2015-08-12T10:25:59.497Z</time>
      </trkpt>
      <trkpt lat="42.91468" lon="1.34175">
        <ele>1188.2</ele>
        <time>2015-08-12T10:26:05.169Z</time>
      </trkpt>
      <trkpt lat="42.91468" lon="1.34173">
        <ele>1188</ele>
        <time>2015-08-12T10:26:06.145Z</time>
      </trkpt>
      <trkpt lat="42.91469" lon="1.34162">
        <ele>1186.5</ele>
        <time>2015-08-12T10:26:13.180Z</time>
      </trkpt>
      <trkpt lat="42.91469" lon="1.3416">
        <ele>1186.2</ele>
        <time>2015-08-12T10:26:14.146Z</time>
      </trkpt>
      <trkpt lat="42.91471" lon="1.34148">
        <ele>1184.4</ele>
        <time>2015-08-12T10:26:21.170Z</time>
      </trkpt>
      <trkpt lat="42.91472" lon="1.34146">
        <ele>1184.2</ele>
        <time>2015-08-12T10:26:22.146Z</time>
      </trkpt>
      <trkpt lat="42.91471" lon="1.34135">
        <ele>1183</ele>
        <time>2015-08-12T10:26:28.168Z</time>
      </trkpt>
      <trkpt lat="42.91471" lon="1.34134">
        <ele>1182.7</ele>
        <time>2015-08-12T10:26:29.146Z</time>
      </trkpt>
      <trkpt lat="42.91474" lon="1.34122">
        <ele>1180.7</ele>
        <time>2015-08-12T10:26:36.317Z</time>
      </trkpt>
      <trkpt lat="42.91474" lon="1.34121">
        <ele>1180.4</ele>
        <time>2015-08-12T10:26:37.145Z</time>
      </trkpt>
      <trkpt lat="42.91474" lon="1.3411">
        <ele>1178.6</ele>
        <time>2015-08-12T10:26:43.169Z</time>
      </trkpt>
      <trkpt lat="42.91474" lon="1.34108">
        <ele>1178.4</ele>
        <time>2015-08-12T10:26:44.146Z</time>
      </trkpt>
      <trkpt lat="42.91475" lon="1.34096">
        <ele>1176.5</ele>
        <time>2015-08-12T10:26:51.170Z</time>
      </trkpt>
      <trkpt lat="42.91475" lon="1.34095">
        <ele>1176.1</ele>
        <time>2015-08-12T10:26:52.146Z</time>
      </trkpt>
      <trkpt lat="42.91477" lon="1.34083">
        <ele>1174</ele>
        <time>2015-08-12T10:26:59.169Z</time>
      </trkpt>
      <trkpt lat="42.91478" lon="1.34081">
        <ele>1173.8</ele>
        <time>2015-08-12T10:27:00.146Z</time>
      </trkpt>
      <trkpt lat="42.9148" lon="1.3407">
        <ele>1171.9</ele>
        <time>2015-08-12T10:27:07.168Z</time>
      </trkpt>
      <trkpt lat="42.9148" lon="1.34068">
        <ele>1171.6</ele>
        <time>2015-08-12T10:27:08.146Z</time>
      </trkpt>
      <trkpt lat="42.91483" lon="1.34058">
        <ele>1170.1</ele>
        <time>2015-08-12T10:27:14.169Z</time>
      </trkpt>
      <trkpt lat="42.91483" lon="1.34057">
        <ele>1169.8</ele>
        <time>2015-08-12T10:27:15.147Z</time>
      </trkpt>
      <trkpt lat="42.91486" lon="1.34046">
        <ele>1168.1</ele>
        <time>2015-08-12T10:27:21.170Z</time>
      </trkpt>
      <trkpt lat="42.91486" lon="1.34044">
        <ele>1167.9</ele>
        <time>2015-08-12T10:27:22.146Z</time>
      </trkpt>
      <trkpt lat="42.91489" lon="1.34033">
        <ele>1166.3</ele>
        <time>2015-08-12T10:27:28.170Z</time>
      </trkpt>
      <trkpt lat="42.9149" lon="1.34032">
        <ele>1166.1</ele>
        <time>2015-08-12T10:27:29.181Z</time>
      </trkpt>
      <trkpt lat="42.91493" lon="1.34021">
        <ele>1165</ele>
        <time>2015-08-12T10:27:36.169Z</time>
      </trkpt>
      <trkpt lat="42.91493" lon="1.34019">
        <ele>1164.7</ele>
        <time>2015-08-12T10:27:37.145Z</time>
      </trkpt>
      <trkpt lat="42.91497" lon="1.34008">
        <ele>1163</ele>
        <time>2015-08-12T10:27:45.170Z</time>
      </trkpt>
      <trkpt lat="42.91497" lon="1.34006">
        <ele>1162.8</ele>
        <time>2015-08-12T10:27:46.146Z</time>
      </trkpt>
      <trkpt lat="42.91498" lon="1.33994">
        <ele>1162.1</ele>
        <time>2015-08-12T10:27:54.168Z</time>
      </trkpt>
      <trkpt lat="42.91498" lon="1.33992">
        <ele>1162.1</ele>
        <time>2015-08-12T10:27:55.146Z</time>
      </trkpt>
      <trkpt lat="42.91497" lon="1.33983">
        <ele>1162.3</ele>
        <time>2015-08-12T10:28:07.169Z</time>
      </trkpt>
      <trkpt lat="42.91497" lon="1.3398">
        <ele>1162.4</ele>
        <time>2015-08-12T10:28:08.442Z</time>
      </trkpt>
      <trkpt lat="42.91499" lon="1.33968">
        <ele>1162.5</ele>
        <time>2015-08-12T10:28:16.169Z</time>
      </trkpt>
      <trkpt lat="42.91499" lon="1.33967">
        <ele>1162.6</ele>
        <time>2015-08-12T10:28:17.146Z</time>
      </trkpt>
      <trkpt lat="42.915" lon="1.33955">
        <ele>1162.8</ele>
        <time>2015-08-12T10:28:24.168Z</time>
      </trkpt>
      <trkpt lat="42.915" lon="1.33953">
        <ele>1162.8</ele>
        <time>2015-08-12T10:28:25.146Z</time>
      </trkpt>
      <trkpt lat="42.91498" lon="1.33943">
        <ele>1163</ele>
        <time>2015-08-12T10:28:33.213Z</time>
      </trkpt>
      <trkpt lat="42.91497" lon="1.33939">
        <ele>1163</ele>
        <time>2015-08-12T10:28:34.215Z</time>
      </trkpt>
      <trkpt lat="42.91496" lon="1.33928">
        <ele>1163</ele>
        <time>2015-08-12T10:28:40.169Z</time>
      </trkpt>
      <trkpt lat="42.91496" lon="1.33926">
        <ele>1162.9</ele>
        <time>2015-08-12T10:28:41.159Z</time>
      </trkpt>
      <trkpt lat="42.91496" lon="1.33914">
        <ele>1163</ele>
        <time>2015-08-12T10:28:47.169Z</time>
      </trkpt>
      <trkpt lat="42.91496" lon="1.33913">
        <ele>1163.1</ele>
        <time>2015-08-12T10:28:48.146Z</time>
      </trkpt>
      <trkpt lat="42.91498" lon="1.33901">
        <ele>1163.6</ele>
        <time>2015-08-12T10:28:55.280Z</time>
      </trkpt>
      <trkpt lat="42.91499" lon="1.339">
        <ele>1163.6</ele>
        <time>2015-08-12T10:28:56.146Z</time>
      </trkpt>
      <trkpt lat="42.91505" lon="1.33891">
        <ele>1163.8</ele>
        <time>2015-08-12T10:29:03.170Z</time>
      </trkpt>
      <trkpt lat="42.91506" lon="1.3389">
        <ele>1163.8</ele>
        <time>2015-08-12T10:29:04.163Z</time>
      </trkpt>
      <trkpt lat="42.91513" lon="1.33883">
        <ele>1163.4</ele>
        <time>2015-08-12T10:29:09.195Z</time>
      </trkpt>
      <trkpt lat="42.91514" lon="1.33882">
        <ele>1163.4</ele>
        <time>2015-08-12T10:29:10.146Z</time>
      </trkpt>
      <trkpt lat="42.91521" lon="1.33876">
        <ele>1163</ele>
        <time>2015-08-12T10:29:16.194Z</time>
      </trkpt>
      <trkpt lat="42.91522" lon="1.33876">
        <ele>1163</ele>
        <time>2015-08-12T10:29:17.146Z</time>
      </trkpt>
      <trkpt lat="42.9153" lon="1.3387">
        <ele>1162.9</ele>
        <time>2015-08-12T10:29:24.311Z</time>
      </trkpt>
      <trkpt lat="42.91531" lon="1.33868">
        <ele>1162.9</ele>
        <time>2015-08-12T10:29:25.146Z</time>
      </trkpt>
      <trkpt lat="42.91535" lon="1.33859">
        <ele>1163.1</ele>
        <time>2015-08-12T10:29:31.168Z</time>
      </trkpt>
      <trkpt lat="42.91536" lon="1.33858">
        <ele>1163.1</ele>
        <time>2015-08-12T10:29:32.146Z</time>
      </trkpt>
      <trkpt lat="42.91541" lon="1.33848">
        <ele>1163.4</ele>
        <time>2015-08-12T10:29:38.169Z</time>
      </trkpt>
      <trkpt lat="42.91541" lon="1.33846">
        <ele>1163.6</ele>
        <time>2015-08-12T10:29:39.148Z</time>
      </trkpt>
      <trkpt lat="42.91546" lon="1.33836">
        <ele>1164.3</ele>
        <time>2015-08-12T10:29:45.170Z</time>
      </trkpt>
      <trkpt lat="42.91547" lon="1.33834">
        <ele>1164.3</ele>
        <time>2015-08-12T10:29:46.146Z</time>
      </trkpt>
      <trkpt lat="42.91547" lon="1.33823">
        <ele>1164.8</ele>
        <time>2015-08-12T10:30:09.170Z</time>
      </trkpt>
      <trkpt lat="42.91547" lon="1.33819">
        <ele>1164.8</ele>
        <time>2015-08-12T10:30:10.146Z</time>
      </trkpt>
      <trkpt lat="42.91547" lon="1.33807">
        <ele>1165.1</ele>
        <time>2015-08-12T10:30:17.169Z</time>
      </trkpt>
      <trkpt lat="42.91547" lon="1.33805">
        <ele>1165.2</ele>
        <time>2015-08-12T10:30:18.146Z</time>
      </trkpt>
      <trkpt lat="42.91547" lon="1.33793">
        <ele>1166.1</ele>
        <time>2015-08-12T10:30:35.168Z</time>
      </trkpt>
      <trkpt lat="42.91546" lon="1.3379">
        <ele>1166.2</ele>
        <time>2015-08-12T10:30:36.145Z</time>
      </trkpt>
      <trkpt lat="42.91548" lon="1.33779">
        <ele>1166.4</ele>
        <time>2015-08-12T10:30:43.168Z</time>
      </trkpt>
      <trkpt lat="42.91549" lon="1.33775">
        <ele>1166.4</ele>
        <time>2015-08-12T10:30:44.145Z</time>
      </trkpt>
      <trkpt lat="42.91549" lon="1.33763">
        <ele>1166.7</ele>
        <time>2015-08-12T10:30:51.169Z</time>
      </trkpt>
      <trkpt lat="42.91548" lon="1.33762">
        <ele>1166.8</ele>
        <time>2015-08-12T10:30:52.145Z</time>
      </trkpt>
      <trkpt lat="42.91546" lon="1.3375">
        <ele>1167.6</ele>
        <time>2015-08-12T10:30:59.174Z</time>
      </trkpt>
      <trkpt lat="42.91546" lon="1.33749">
        <ele>1167.7</ele>
        <time>2015-08-12T10:31:00.145Z</time>
      </trkpt>
      <trkpt lat="42.91549" lon="1.33738">
        <ele>1168.4</ele>
        <time>2015-08-12T10:31:07.180Z</time>
      </trkpt>
      <trkpt lat="42.91549" lon="1.33736">
        <ele>1168.5</ele>
        <time>2015-08-12T10:31:08.225Z</time>
      </trkpt>
      <trkpt lat="42.91547" lon="1.33725">
        <ele>1169.2</ele>
        <time>2015-08-12T10:31:14.171Z</time>
      </trkpt>
      <trkpt lat="42.91546" lon="1.33722">
        <ele>1169.2</ele>
        <time>2015-08-12T10:31:15.149Z</time>
      </trkpt>
      <trkpt lat="42.91543" lon="1.33711">
        <ele>1169.7</ele>
        <time>2015-08-12T10:31:21.281Z</time>
      </trkpt>
      <trkpt lat="42.91543" lon="1.3371">
        <ele>1169.9</ele>
        <time>2015-08-12T10:31:22.147Z</time>
      </trkpt>
      <trkpt lat="42.91541" lon="1.33698">
        <ele>1169.9</ele>
        <time>2015-08-12T10:31:28.171Z</time>
      </trkpt>
      <trkpt lat="42.9154" lon="1.33696">
        <ele>1169.9</ele>
        <time>2015-08-12T10:31:29.147Z</time>
      </trkpt>
      <trkpt lat="42.91536" lon="1.33687">
        <ele>1170.2</ele>
        <time>2015-08-12T10:31:34.284Z</time>
      </trkpt>
      <trkpt lat="42.91535" lon="1.33685">
        <ele>1170.3</ele>
        <time>2015-08-12T10:31:35.443Z</time>
      </trkpt>
      <trkpt lat="42.91531" lon="1.33676">
        <ele>1169.9</ele>
        <time>2015-08-12T10:31:41.184Z</time>
      </trkpt>
      <trkpt lat="42.9153" lon="1.33674">
        <ele>1169.9</ele>
        <time>2015-08-12T10:31:42.145Z</time>
      </trkpt>
      <trkpt lat="42.91525" lon="1.33665">
        <ele>1169.8</ele>
        <time>2015-08-12T10:32:00.193Z</time>
      </trkpt>
      <trkpt lat="42.91524" lon="1.33663">
        <ele>1169.6</ele>
        <time>2015-08-12T10:32:01.168Z</time>
      </trkpt>
      <trkpt lat="42.91519" lon="1.33655">
        <ele>1169.3</ele>
        <time>2015-08-12T10:32:07.170Z</time>
      </trkpt>
      <trkpt lat="42.91518" lon="1.33653">
        <ele>1169.3</ele>
        <time>2015-08-12T10:32:08.146Z</time>
      </trkpt>
      <trkpt lat="42.91513" lon="1.33645">
        <ele>1169.3</ele>
        <time>2015-08-12T10:32:13.171Z</time>
      </trkpt>
      <trkpt lat="42.91512" lon="1.33643">
        <ele>1169.2</ele>
        <time>2015-08-12T10:32:14.146Z</time>
      </trkpt>
      <trkpt lat="42.91506" lon="1.33635">
        <ele>1168.9</ele>
        <time>2015-08-12T10:32:20.169Z</time>
      </trkpt>
      <trkpt lat="42.91505" lon="1.33634">
        <ele>1168.9</ele>
        <time>2015-08-12T10:32:21.147Z</time>
      </trkpt>
      <trkpt lat="42.91498" lon="1.33626">
        <ele>1168.3</ele>
        <time>2015-08-12T10:32:27.173Z</time>
      </trkpt>
      <trkpt lat="42.91498" lon="1.33625">
        <ele>1168.3</ele>
        <time>2015-08-12T10:32:28.145Z</time>
      </trkpt>
      <trkpt lat="42.91496" lon="1.33614">
        <ele>1167.1</ele>
        <time>2015-08-12T10:32:43.171Z</time>
      </trkpt>
      <trkpt lat="42.91495" lon="1.33613">
        <ele>1167.1</ele>
        <time>2015-08-12T10:32:44.146Z</time>
      </trkpt>
      <trkpt lat="42.91493" lon="1.33603">
        <ele>1165.9</ele>
        <time>2015-08-12T10:33:02.169Z</time>
      </trkpt>
      <trkpt lat="42.91493" lon="1.33602">
        <ele>1165.9</ele>
        <time>2015-08-12T10:33:03.148Z</time>
      </trkpt>
      <trkpt lat="42.91488" lon="1.33592">
        <ele>1166</ele>
        <time>2015-08-12T10:33:09.172Z</time>
      </trkpt>
      <trkpt lat="42.91488" lon="1.3359">
        <ele>1166</ele>
        <time>2015-08-12T10:33:10.146Z</time>
      </trkpt>
      <trkpt lat="42.91485" lon="1.33579">
        <ele>1165.8</ele>
        <time>2015-08-12T10:33:17.170Z</time>
      </trkpt>
      <trkpt lat="42.91485" lon="1.33577">
        <ele>1165.7</ele>
        <time>2015-08-12T10:33:18.147Z</time>
      </trkpt>
      <trkpt lat="42.9148" lon="1.33571">
        <ele>1165.1</ele>
        <time>2015-08-12T10:33:35.169Z</time>
      </trkpt>
      <trkpt lat="42.91479" lon="1.33566">
        <ele>1164.2</ele>
        <time>2015-08-12T10:33:36.146Z</time>
      </trkpt>
      <trkpt lat="42.91474" lon="1.33558">
        <ele>1164.2</ele>
        <time>2015-08-12T10:33:42.170Z</time>
      </trkpt>
      <trkpt lat="42.91474" lon="1.33556">
        <ele>1164.2</ele>
        <time>2015-08-12T10:33:43.147Z</time>
      </trkpt>
      <trkpt lat="42.9147" lon="1.33545">
        <ele>1163.8</ele>
        <time>2015-08-12T10:33:54.169Z</time>
      </trkpt>
      <trkpt lat="42.9147" lon="1.33543">
        <ele>1163.8</ele>
        <time>2015-08-12T10:33:55.145Z</time>
      </trkpt>
      <trkpt lat="42.91467" lon="1.33532">
        <ele>1163.9</ele>
        <time>2015-08-12T10:34:02.169Z</time>
      </trkpt>
      <trkpt lat="42.91466" lon="1.33531">
        <ele>1163.9</ele>
        <time>2015-08-12T10:34:03.148Z</time>
      </trkpt>
      <trkpt lat="42.91463" lon="1.33521">
        <ele>1163.9</ele>
        <time>2015-08-12T10:34:27.171Z</time>
      </trkpt>
      <trkpt lat="42.91462" lon="1.33518">
        <ele>1163.7</ele>
        <time>2015-08-12T10:34:28.146Z</time>
      </trkpt>
      <trkpt lat="42.91462" lon="1.33506">
        <ele>1163.4</ele>
        <time>2015-08-12T10:34:34.170Z</time>
      </trkpt>
      <trkpt lat="42.91462" lon="1.33505">
        <ele>1163.3</ele>
        <time>2015-08-12T10:34:35.147Z</time>
      </trkpt>
      <trkpt lat="42.91459" lon="1.33494">
        <ele>1163.2</ele>
        <time>2015-08-12T10:34:42.217Z</time>
      </trkpt>
      <trkpt lat="42.91458" lon="1.33492">
        <ele>1163.2</ele>
        <time>2015-08-12T10:34:43.145Z</time>
      </trkpt>
      <trkpt lat="42.91456" lon="1.3348">
        <ele>1163</ele>
        <time>2015-08-12T10:34:50.168Z</time>
      </trkpt>
      <trkpt lat="42.91455" lon="1.33479">
        <ele>1162.9</ele>
        <time>2015-08-12T10:34:51.148Z</time>
      </trkpt>
      <trkpt lat="42.91452" lon="1.33468">
        <ele>1162.8</ele>
        <time>2015-08-12T10:34:57.183Z</time>
      </trkpt>
      <trkpt lat="42.91452" lon="1.33466">
        <ele>1162.7</ele>
        <time>2015-08-12T10:34:58.145Z</time>
      </trkpt>
      <trkpt lat="42.91447" lon="1.33458">
        <ele>1162.4</ele>
        <time>2015-08-12T10:35:04.168Z</time>
      </trkpt>
      <trkpt lat="42.91445" lon="1.33457">
        <ele>1162.4</ele>
        <time>2015-08-12T10:35:05.146Z</time>
      </trkpt>
      <trkpt lat="42.91438" lon="1.33449">
        <ele>1162.9</ele>
        <time>2015-08-12T10:35:20.168Z</time>
      </trkpt>
      <trkpt lat="42.91439" lon="1.33448">
        <ele>1162.9</ele>
        <time>2015-08-12T10:35:21.147Z</time>
      </trkpt>
      <trkpt lat="42.91434" lon="1.33438">
        <ele>1162.9</ele>
        <time>2015-08-12T10:35:33.171Z</time>
      </trkpt>
      <trkpt lat="42.91433" lon="1.33436">
        <ele>1162.9</ele>
        <time>2015-08-12T10:35:34.180Z</time>
      </trkpt>
      <trkpt lat="42.91427" lon="1.33427">
        <ele>1162.7</ele>
        <time>2015-08-12T10:35:42.168Z</time>
      </trkpt>
      <trkpt lat="42.91427" lon="1.33426">
        <ele>1162.7</ele>
        <time>2015-08-12T10:35:43.158Z</time>
      </trkpt>
      <trkpt lat="42.91424" lon="1.33416">
        <ele>1162.4</ele>
        <time>2015-08-12T10:35:50.279Z</time>
      </trkpt>
      <trkpt lat="42.91423" lon="1.33414">
        <ele>1162.4</ele>
        <time>2015-08-12T10:35:51.149Z</time>
      </trkpt>
      <trkpt lat="42.91419" lon="1.33404">
        <ele>1162.3</ele>
        <time>2015-08-12T10:35:59.170Z</time>
      </trkpt>
      <trkpt lat="42.91418" lon="1.33403">
        <ele>1162.2</ele>
        <time>2015-08-12T10:36:00.146Z</time>
      </trkpt>
      <trkpt lat="42.91414" lon="1.33392">
        <ele>1162</ele>
        <time>2015-08-12T10:36:07.168Z</time>
      </trkpt>
      <trkpt lat="42.91413" lon="1.33391">
        <ele>1162</ele>
        <time>2015-08-12T10:36:08.145Z</time>
      </trkpt>
      <trkpt lat="42.9141" lon="1.33381">
        <ele>1161.7</ele>
        <time>2015-08-12T10:36:14.168Z</time>
      </trkpt>
      <trkpt lat="42.91409" lon="1.3338">
        <ele>1161.7</ele>
        <time>2015-08-12T10:36:15.148Z</time>
      </trkpt>
      <trkpt lat="42.91409" lon="1.33368">
        <ele>1161.1</ele>
        <time>2015-08-12T10:36:22.168Z</time>
      </trkpt>
      <trkpt lat="42.91409" lon="1.33367">
        <ele>1161</ele>
        <time>2015-08-12T10:36:23.146Z</time>
      </trkpt>
      <trkpt lat="42.91409" lon="1.33356">
        <ele>1160.3</ele>
        <time>2015-08-12T10:36:30.168Z</time>
      </trkpt>
      <trkpt lat="42.91409" lon="1.33355">
        <ele>1160.3</ele>
        <time>2015-08-12T10:36:31.146Z</time>
      </trkpt>
      <trkpt lat="42.91407" lon="1.33344">
        <ele>1159.9</ele>
        <time>2015-08-12T10:36:38.168Z</time>
      </trkpt>
      <trkpt lat="42.91407" lon="1.33342">
        <ele>1159.9</ele>
        <time>2015-08-12T10:36:39.154Z</time>
      </trkpt>
      <trkpt lat="42.91404" lon="1.33331">
        <ele>1159.5</ele>
        <time>2015-08-12T10:36:46.168Z</time>
      </trkpt>
      <trkpt lat="42.91404" lon="1.3333">
        <ele>1159.5</ele>
        <time>2015-08-12T10:36:47.146Z</time>
      </trkpt>
      <trkpt lat="42.91408" lon="1.3332">
        <ele>1157.7</ele>
        <time>2015-08-12T10:36:56.167Z</time>
      </trkpt>
      <trkpt lat="42.91408" lon="1.33319">
        <ele>1157.6</ele>
        <time>2015-08-12T10:36:57.147Z</time>
      </trkpt>
      <trkpt lat="42.91409" lon="1.33308">
        <ele>1156.8</ele>
        <time>2015-08-12T10:37:06.280Z</time>
      </trkpt>
      <trkpt lat="42.91409" lon="1.33305">
        <ele>1156.7</ele>
        <time>2015-08-12T10:37:07.144Z</time>
      </trkpt>
      <trkpt lat="42.91406" lon="1.33295">
        <ele>1155.7</ele>
        <time>2015-08-12T10:37:15.428Z</time>
      </trkpt>
      <trkpt lat="42.91406" lon="1.33293">
        <ele>1155.5</ele>
        <time>2015-08-12T10:37:16.328Z</time>
      </trkpt>
      <trkpt lat="42.91404" lon="1.33282">
        <ele>1154.8</ele>
        <time>2015-08-12T10:37:22.167Z</time>
      </trkpt>
      <trkpt lat="42.91403" lon="1.3328">
        <ele>1154.7</ele>
        <time>2015-08-12T10:37:23.144Z</time>
      </trkpt>
      <trkpt lat="42.91398" lon="1.33271">
        <ele>1154.5</ele>
        <time>2015-08-12T10:37:29.167Z</time>
      </trkpt>
      <trkpt lat="42.91397" lon="1.33269">
        <ele>1154.4</ele>
        <time>2015-08-12T10:37:30.144Z</time>
      </trkpt>
      <trkpt lat="42.91392" lon="1.33259">
        <ele>1153.9</ele>
        <time>2015-08-12T10:37:37.167Z</time>
      </trkpt>
      <trkpt lat="42.91391" lon="1.33258">
        <ele>1153.8</ele>
        <time>2015-08-12T10:37:38.144Z</time>
      </trkpt>
      <trkpt lat="42.91387" lon="1.33248">
        <ele>1153.2</ele>
        <time>2015-08-12T10:37:44.167Z</time>
      </trkpt>
      <trkpt lat="42.91387" lon="1.33247">
        <ele>1153.1</ele>
        <time>2015-08-12T10:37:45.147Z</time>
      </trkpt>
      <trkpt lat="42.91386" lon="1.33236">
        <ele>1152.5</ele>
        <time>2015-08-12T10:37:53.222Z</time>
      </trkpt>
      <trkpt lat="42.91385" lon="1.33234">
        <ele>1152.5</ele>
        <time>2015-08-12T10:37:54.144Z</time>
      </trkpt>
      <trkpt lat="42.91385" lon="1.33223">
        <ele>1151.9</ele>
        <time>2015-08-12T10:38:02.293Z</time>
      </trkpt>
      <trkpt lat="42.91385" lon="1.33221">
        <ele>1151.8</ele>
        <time>2015-08-12T10:38:03.147Z</time>
      </trkpt>
      <trkpt lat="42.91382" lon="1.33212">
        <ele>1151.4</ele>
        <time>2015-08-12T10:38:10.167Z</time>
      </trkpt>
      <trkpt lat="42.9138" lon="1.33207">
        <ele>1151.2</ele>
        <time>2015-08-12T10:38:11.144Z</time>
      </trkpt>
      <trkpt lat="42.91376" lon="1.33196">
        <ele>1150.6</ele>
        <time>2015-08-12T10:38:18.167Z</time>
      </trkpt>
      <trkpt lat="42.91377" lon="1.33195">
        <ele>1150.4</ele>
        <time>2015-08-12T10:38:19.149Z</time>
      </trkpt>
      <trkpt lat="42.91372" lon="1.33187">
        <ele>1150.1</ele>
        <time>2015-08-12T10:38:25.167Z</time>
      </trkpt>
      <trkpt lat="42.91371" lon="1.33185">
        <ele>1150.1</ele>
        <time>2015-08-12T10:38:26.145Z</time>
      </trkpt>
      <trkpt lat="42.91366" lon="1.33175">
        <ele>1149.6</ele>
        <time>2015-08-12T10:38:32.167Z</time>
      </trkpt>
      <trkpt lat="42.91365" lon="1.33174">
        <ele>1149.5</ele>
        <time>2015-08-12T10:38:33.147Z</time>
      </trkpt>
      <trkpt lat="42.91361" lon="1.33165">
        <ele>1149</ele>
        <time>2015-08-12T10:38:39.170Z</time>
      </trkpt>
      <trkpt lat="42.9136" lon="1.33164">
        <ele>1148.9</ele>
        <time>2015-08-12T10:38:40.145Z</time>
      </trkpt>
      <trkpt lat="42.91355" lon="1.33154">
        <ele>1148.6</ele>
        <time>2015-08-12T10:38:45.171Z</time>
      </trkpt>
      <trkpt lat="42.91355" lon="1.33151">
        <ele>1148.5</ele>
        <time>2015-08-12T10:38:46.145Z</time>
      </trkpt>
      <trkpt lat="42.91354" lon="1.33141">
        <ele>1147.7</ele>
        <time>2015-08-12T10:38:51.172Z</time>
      </trkpt>
      <trkpt lat="42.91354" lon="1.33139">
        <ele>1147.5</ele>
        <time>2015-08-12T10:38:52.144Z</time>
      </trkpt>
      <trkpt lat="42.91353" lon="1.33127">
        <ele>1146.9</ele>
        <time>2015-08-12T10:38:59.168Z</time>
      </trkpt>
      <trkpt lat="42.91353" lon="1.33126">
        <ele>1146.8</ele>
        <time>2015-08-12T10:39:00.157Z</time>
      </trkpt>
      <trkpt lat="42.91352" lon="1.33115">
        <ele>1145.7</ele>
        <time>2015-08-12T10:39:07.278Z</time>
      </trkpt>
      <trkpt lat="42.91351" lon="1.33114">
        <ele>1145.6</ele>
        <time>2015-08-12T10:39:08.144Z</time>
      </trkpt>
      <trkpt lat="42.91351" lon="1.33104">
        <ele>1144.7</ele>
        <time>2015-08-12T10:39:13.167Z</time>
      </trkpt>
      <trkpt lat="42.9135" lon="1.33101">
        <ele>1144.5</ele>
        <time>2015-08-12T10:39:14.144Z</time>
      </trkpt>
      <trkpt lat="42.9135" lon="1.33089">
        <ele>1143.7</ele>
        <time>2015-08-12T10:39:20.167Z</time>
      </trkpt>
      <trkpt lat="42.9135" lon="1.33087">
        <ele>1143.7</ele>
        <time>2015-08-12T10:39:21.147Z</time>
      </trkpt>
      <trkpt lat="42.91348" lon="1.33076">
        <ele>1142.5</ele>
        <time>2015-08-12T10:39:28.167Z</time>
      </trkpt>
      <trkpt lat="42.91347" lon="1.33074">
        <ele>1142.4</ele>
        <time>2015-08-12T10:39:29.145Z</time>
      </trkpt>
      <trkpt lat="42.91343" lon="1.33063">
        <ele>1141</ele>
        <time>2015-08-12T10:39:35.167Z</time>
      </trkpt>
      <trkpt lat="42.91343" lon="1.33062">
        <ele>1140.8</ele>
        <time>2015-08-12T10:39:36.187Z</time>
      </trkpt>
      <trkpt lat="42.91336" lon="1.33054">
        <ele>1139.8</ele>
        <time>2015-08-12T10:39:42.167Z</time>
      </trkpt>
      <trkpt lat="42.91335" lon="1.33054">
        <ele>1139.7</ele>
        <time>2015-08-12T10:39:43.144Z</time>
      </trkpt>
      <trkpt lat="42.91328" lon="1.33048">
        <ele>1139.3</ele>
        <time>2015-08-12T10:39:48.167Z</time>
      </trkpt>
      <trkpt lat="42.91327" lon="1.33044">
        <ele>1139.3</ele>
        <time>2015-08-12T10:39:49.145Z</time>
      </trkpt>
      <trkpt lat="42.91324" lon="1.33033">
        <ele>1138.6</ele>
        <time>2015-08-12T10:39:55.167Z</time>
      </trkpt>
      <trkpt lat="42.91325" lon="1.33031">
        <ele>1138.5</ele>
        <time>2015-08-12T10:39:56.144Z</time>
      </trkpt>
      <trkpt lat="42.91325" lon="1.33019">
        <ele>1137.6</ele>
        <time>2015-08-12T10:40:03.170Z</time>
      </trkpt>
      <trkpt lat="42.91325" lon="1.33018">
        <ele>1137.6</ele>
        <time>2015-08-12T10:40:04.144Z</time>
      </trkpt>
      <trkpt lat="42.91327" lon="1.33006">
        <ele>1136.2</ele>
        <time>2015-08-12T10:40:11.167Z</time>
      </trkpt>
      <trkpt lat="42.91327" lon="1.33005">
        <ele>1136</ele>
        <time>2015-08-12T10:40:12.144Z</time>
      </trkpt>
      <trkpt lat="42.91329" lon="1.32994">
        <ele>1132.4</ele>
        <time>2015-08-12T10:40:19.172Z</time>
      </trkpt>
      <trkpt lat="42.91329" lon="1.32993">
        <ele>1131.8</ele>
        <time>2015-08-12T10:40:20.144Z</time>
      </trkpt>
      <trkpt lat="42.91328" lon="1.32981">
        <ele>1129.5</ele>
        <time>2015-08-12T10:40:25.167Z</time>
      </trkpt>
      <trkpt lat="42.91328" lon="1.32979">
        <ele>1129</ele>
        <time>2015-08-12T10:40:26.145Z</time>
      </trkpt>
      <trkpt lat="42.9133" lon="1.32967">
        <ele>1126.6</ele>
        <time>2015-08-12T10:40:33.170Z</time>
      </trkpt>
      <trkpt lat="42.9133" lon="1.32966">
        <ele>1126.3</ele>
        <time>2015-08-12T10:40:34.179Z</time>
      </trkpt>
      <trkpt lat="42.91328" lon="1.32955">
        <ele>1124.8</ele>
        <time>2015-08-12T10:40:40.290Z</time>
      </trkpt>
      <trkpt lat="42.91328" lon="1.32953">
        <ele>1124.7</ele>
        <time>2015-08-12T10:40:41.145Z</time>
      </trkpt>
      <trkpt lat="42.91319" lon="1.32949">
        <ele>1124.1</ele>
        <time>2015-08-12T10:40:47.167Z</time>
      </trkpt>
      <trkpt lat="42.91318" lon="1.32949">
        <ele>1124.1</ele>
        <time>2015-08-12T10:40:48.144Z</time>
      </trkpt>
      <trkpt lat="42.91312" lon="1.3294">
        <ele>1123.4</ele>
        <time>2015-08-12T10:40:54.167Z</time>
      </trkpt>
      <trkpt lat="42.9131" lon="1.32938">
        <ele>1123.3</ele>
        <time>2015-08-12T10:40:55.145Z</time>
      </trkpt>
      <trkpt lat="42.91303" lon="1.32933">
        <ele>1122.9</ele>
        <time>2015-08-12T10:41:00.167Z</time>
      </trkpt>
      <trkpt lat="42.91301" lon="1.32931">
        <ele>1122.8</ele>
        <time>2015-08-12T10:41:01.144Z</time>
      </trkpt>
      <trkpt lat="42.91295" lon="1.32924">
        <ele>1122.3</ele>
        <time>2015-08-12T10:41:07.167Z</time>
      </trkpt>
      <trkpt lat="42.91294" lon="1.32923">
        <ele>1122.2</ele>
        <time>2015-08-12T10:41:08.144Z</time>
      </trkpt>
      <trkpt lat="42.91288" lon="1.32915">
        <ele>1121.5</ele>
        <time>2015-08-12T10:41:14.167Z</time>
      </trkpt>
      <trkpt lat="42.91286" lon="1.32914">
        <ele>1121.5</ele>
        <time>2015-08-12T10:41:15.147Z</time>
      </trkpt>
      <trkpt lat="42.91279" lon="1.32908">
        <ele>1121.2</ele>
        <time>2015-08-12T10:41:20.167Z</time>
      </trkpt>
      <trkpt lat="42.91278" lon="1.32907">
        <ele>1121.1</ele>
        <time>2015-08-12T10:41:21.147Z</time>
      </trkpt>
      <trkpt lat="42.91271" lon="1.32902">
        <ele>1120.4</ele>
        <time>2015-08-12T10:41:26.167Z</time>
      </trkpt>
      <trkpt lat="42.91268" lon="1.32902">
        <ele>1120.3</ele>
        <time>2015-08-12T10:41:27.147Z</time>
      </trkpt>
      <trkpt lat="42.91259" lon="1.32903">
        <ele>1119.8</ele>
        <time>2015-08-12T10:41:32.167Z</time>
      </trkpt>
      <trkpt lat="42.91258" lon="1.32902">
        <ele>1119.7</ele>
        <time>2015-08-12T10:41:33.147Z</time>
      </trkpt>
      <trkpt lat="42.91251" lon="1.32896">
        <ele>1118.8</ele>
        <time>2015-08-12T10:41:42.167Z</time>
      </trkpt>
      <trkpt lat="42.9125" lon="1.32896">
        <ele>1118.8</ele>
        <time>2015-08-12T10:41:43.144Z</time>
      </trkpt>
      <trkpt lat="42.91242" lon="1.32893">
        <ele>1118.1</ele>
        <time>2015-08-12T10:42:27.172Z</time>
      </trkpt>
      <trkpt lat="42.91238" lon="1.32889">
        <ele>1117.2</ele>
        <time>2015-08-12T10:42:28.145Z</time>
      </trkpt>
      <trkpt lat="42.91237" lon="1.32887">
        <ele>1117.3</ele>
        <time>2015-08-12T10:42:47.180Z</time>
      </trkpt>
      <trkpt lat="42.9123" lon="1.3288">
        <ele>1117.1</ele>
        <time>2015-08-12T10:42:48.145Z</time>
      </trkpt>
      <trkpt lat="42.91231" lon="1.32885">
        <ele>1114.3</ele>
        <time>2015-08-12T10:43:55.168Z</time>
      </trkpt>
      <trkpt lat="42.9124" lon="1.32888">
        <ele>1109.5</ele>
        <time>2015-08-12T10:43:56.145Z</time>
      </trkpt>
      <trkpt lat="42.91234" lon="1.32897">
        <ele>1108.4</ele>
        <time>2015-08-12T10:44:45.169Z</time>
      </trkpt>
      <trkpt lat="42.91234" lon="1.32898">
        <ele>1108.4</ele>
        <time>2015-08-12T10:44:46.145Z</time>
      </trkpt>
      <trkpt lat="42.91227" lon="1.32892">
        <ele>1108.5</ele>
        <time>2015-08-12T10:45:03.169Z</time>
      </trkpt>
      <trkpt lat="42.91226" lon="1.32891">
        <ele>1108.5</ele>
        <time>2015-08-12T10:45:04.144Z</time>
      </trkpt>
      <trkpt lat="42.91219" lon="1.32885">
        <ele>1108.8</ele>
        <time>2015-08-12T10:45:12.167Z</time>
      </trkpt>
      <trkpt lat="42.91218" lon="1.32885">
        <ele>1108.8</ele>
        <time>2015-08-12T10:45:13.145Z</time>
      </trkpt>
      <trkpt lat="42.91213" lon="1.32875">
        <ele>1109.3</ele>
        <time>2015-08-12T10:45:21.203Z</time>
      </trkpt>
      <trkpt lat="42.91212" lon="1.32873">
        <ele>1109.5</ele>
        <time>2015-08-12T10:45:22.145Z</time>
      </trkpt>
      <trkpt lat="42.91209" lon="1.32866">
        <ele>1109.4</ele>
        <time>2015-08-12T10:45:27.169Z</time>
      </trkpt>
      <trkpt lat="42.91206" lon="1.32861">
        <ele>1109.4</ele>
        <time>2015-08-12T10:45:28.145Z</time>
      </trkpt>
      <trkpt lat="42.91199" lon="1.32868">
        <ele>1108</ele>
        <time>2015-08-12T10:45:38.168Z</time>
      </trkpt>
      <trkpt lat="42.91198" lon="1.32869">
        <ele>1108</ele>
        <time>2015-08-12T10:45:39.147Z</time>
      </trkpt>
      <trkpt lat="42.91189" lon="1.32871">
        <ele>1107.9</ele>
        <time>2015-08-12T10:45:44.168Z</time>
      </trkpt>
      <trkpt lat="42.91187" lon="1.3287">
        <ele>1107.8</ele>
        <time>2015-08-12T10:45:45.147Z</time>
      </trkpt>
      <trkpt lat="42.91178" lon="1.32868">
        <ele>1107.3</ele>
        <time>2015-08-12T10:45:49.168Z</time>
      </trkpt>
      <trkpt lat="42.91176" lon="1.32867">
        <ele>1107.2</ele>
        <time>2015-08-12T10:45:50.145Z</time>
      </trkpt>
      <trkpt lat="42.91169" lon="1.32861">
        <ele>1106.4</ele>
        <time>2015-08-12T10:45:54.167Z</time>
      </trkpt>
      <trkpt lat="42.91167" lon="1.3286">
        <ele>1106.4</ele>
        <time>2015-08-12T10:45:55.144Z</time>
      </trkpt>
      <trkpt lat="42.9116" lon="1.32855">
        <ele>1105.9</ele>
        <time>2015-08-12T10:45:59.167Z</time>
      </trkpt>
      <trkpt lat="42.91159" lon="1.32854">
        <ele>1105.8</ele>
        <time>2015-08-12T10:46:00.145Z</time>
      </trkpt>
      <trkpt lat="42.91152" lon="1.32849">
        <ele>1105.4</ele>
        <time>2015-08-12T10:46:05.168Z</time>
      </trkpt>
      <trkpt lat="42.91151" lon="1.32848">
        <ele>1105.3</ele>
        <time>2015-08-12T10:46:06.145Z</time>
      </trkpt>
      <trkpt lat="42.91144" lon="1.32841">
        <ele>1104.8</ele>
        <time>2015-08-12T10:46:09.170Z</time>
      </trkpt>
      <trkpt lat="42.91143" lon="1.3284">
        <ele>1104.7</ele>
        <time>2015-08-12T10:46:10.145Z</time>
      </trkpt>
      <trkpt lat="42.91136" lon="1.32834">
        <ele>1104.1</ele>
        <time>2015-08-12T10:46:16.167Z</time>
      </trkpt>
      <trkpt lat="42.91136" lon="1.32832">
        <ele>1104</ele>
        <time>2015-08-12T10:46:17.145Z</time>
      </trkpt>
      <trkpt lat="42.91133" lon="1.32823">
        <ele>1103.8</ele>
        <time>2015-08-12T10:46:23.181Z</time>
      </trkpt>
      <trkpt lat="42.91131" lon="1.32821">
        <ele>1103.6</ele>
        <time>2015-08-12T10:46:24.144Z</time>
      </trkpt>
      <trkpt lat="42.91127" lon="1.32811">
        <ele>1103.3</ele>
        <time>2015-08-12T10:46:28.180Z</time>
      </trkpt>
      <trkpt lat="42.91125" lon="1.32809">
        <ele>1103.2</ele>
        <time>2015-08-12T10:46:29.145Z</time>
      </trkpt>
      <trkpt lat="42.9112" lon="1.32803">
        <ele>1102.9</ele>
        <time>2015-08-12T10:46:32.167Z</time>
      </trkpt>
      <trkpt lat="42.91118" lon="1.32801">
        <ele>1102.9</ele>
        <time>2015-08-12T10:46:33.146Z</time>
      </trkpt>
      <trkpt lat="42.91115" lon="1.3279">
        <ele>1102.8</ele>
        <time>2015-08-12T10:46:37.167Z</time>
      </trkpt>
      <trkpt lat="42.91115" lon="1.32786">
        <ele>1102.7</ele>
        <time>2015-08-12T10:46:38.145Z</time>
      </trkpt>
      <trkpt lat="42.91111" lon="1.32776">
        <ele>1102.2</ele>
        <time>2015-08-12T10:46:40.166Z</time>
      </trkpt>
      <trkpt lat="42.9111" lon="1.32773">
        <ele>1102.1</ele>
        <time>2015-08-12T10:46:41.145Z</time>
      </trkpt>
      <trkpt lat="42.91104" lon="1.32764">
        <ele>1102</ele>
        <time>2015-08-12T10:46:45.170Z</time>
      </trkpt>
      <trkpt lat="42.91102" lon="1.32761">
        <ele>1101.9</ele>
        <time>2015-08-12T10:46:46.145Z</time>
      </trkpt>
      <trkpt lat="42.91097" lon="1.32754">
        <ele>1101.8</ele>
        <time>2015-08-12T10:46:48.217Z</time>
      </trkpt>
      <trkpt lat="42.91094" lon="1.32752">
        <ele>1101.7</ele>
        <time>2015-08-12T10:46:49.145Z</time>
      </trkpt>
      <trkpt lat="42.91087" lon="1.32747">
        <ele>1100.9</ele>
        <time>2015-08-12T10:46:52.222Z</time>
      </trkpt>
      <trkpt lat="42.91086" lon="1.32747">
        <ele>1100.9</ele>
        <time>2015-08-12T10:46:53.145Z</time>
      </trkpt>
      <trkpt lat="42.91077" lon="1.32745">
        <ele>1100</ele>
        <time>2015-08-12T10:46:58.167Z</time>
      </trkpt>
      <trkpt lat="42.91073" lon="1.32741">
        <ele>1098.6</ele>
        <time>2015-08-12T10:46:59.145Z</time>
      </trkpt>
      <trkpt lat="42.91071" lon="1.32743">
        <ele>1098.2</ele>
        <time>2015-08-12T10:47:01.167Z</time>
      </trkpt>
      <trkpt lat="42.91064" lon="1.32745">
        <ele>1097.2</ele>
        <time>2015-08-12T10:47:02.145Z</time>
      </trkpt>
      <trkpt lat="42.91056" lon="1.3275">
        <ele>1094.4</ele>
        <time>2015-08-12T10:47:10.168Z</time>
      </trkpt>
      <trkpt lat="42.91053" lon="1.32749">
        <ele>1093.4</ele>
        <time>2015-08-12T10:47:11.145Z</time>
      </trkpt>
      <trkpt lat="42.91045" lon="1.32755">
        <ele>1091.7</ele>
        <time>2015-08-12T10:47:16.188Z</time>
      </trkpt>
      <trkpt lat="42.91043" lon="1.32757">
        <ele>1091.4</ele>
        <time>2015-08-12T10:47:17.145Z</time>
      </trkpt>
      <trkpt lat="42.91037" lon="1.32764">
        <ele>1089.7</ele>
        <time>2015-08-12T10:47:22.196Z</time>
      </trkpt>
      <trkpt lat="42.91035" lon="1.32764">
        <ele>1089.5</ele>
        <time>2015-08-12T10:47:23.145Z</time>
      </trkpt>
      <trkpt lat="42.91027" lon="1.32769">
        <ele>1087.9</ele>
        <time>2015-08-12T10:47:31.185Z</time>
      </trkpt>
      <trkpt lat="42.91026" lon="1.32768">
        <ele>1087.7</ele>
        <time>2015-08-12T10:47:32.145Z</time>
      </trkpt>
      <trkpt lat="42.9102" lon="1.32758">
        <ele>1085.3</ele>
        <time>2015-08-12T10:47:45.169Z</time>
      </trkpt>
      <trkpt lat="42.91018" lon="1.32757">
        <ele>1085.2</ele>
        <time>2015-08-12T10:47:46.145Z</time>
      </trkpt>
      <trkpt lat="42.91013" lon="1.32749">
        <ele>1084.9</ele>
        <time>2015-08-12T10:47:50.167Z</time>
      </trkpt>
      <trkpt lat="42.91011" lon="1.32747">
        <ele>1084.8</ele>
        <time>2015-08-12T10:47:51.147Z</time>
      </trkpt>
      <trkpt lat="42.91005" lon="1.3274">
        <ele>1084.1</ele>
        <time>2015-08-12T10:47:56.167Z</time>
      </trkpt>
      <trkpt lat="42.91004" lon="1.32738">
        <ele>1083.9</ele>
        <time>2015-08-12T10:47:57.147Z</time>
      </trkpt>
      <trkpt lat="42.90997" lon="1.32732">
        <ele>1083.4</ele>
        <time>2015-08-12T10:48:00.167Z</time>
      </trkpt>
      <trkpt lat="42.90996" lon="1.32731">
        <ele>1083.3</ele>
        <time>2015-08-12T10:48:01.144Z</time>
      </trkpt>
      <trkpt lat="42.9099" lon="1.32728">
        <ele>1083.1</ele>
        <time>2015-08-12T10:48:03.169Z</time>
      </trkpt>
      <trkpt lat="42.90986" lon="1.32727">
        <ele>1082.9</ele>
        <time>2015-08-12T10:48:04.145Z</time>
      </trkpt>
      <trkpt lat="42.9098" lon="1.32722">
        <ele>1082.6</ele>
        <time>2015-08-12T10:48:06.167Z</time>
      </trkpt>
      <trkpt lat="42.90975" lon="1.3272">
        <ele>1082.4</ele>
        <time>2015-08-12T10:48:07.145Z</time>
      </trkpt>
      <trkpt lat="42.90968" lon="1.32717">
        <ele>1082</ele>
        <time>2015-08-12T10:48:09.170Z</time>
      </trkpt>
      <trkpt lat="42.90964" lon="1.32716">
        <ele>1081.8</ele>
        <time>2015-08-12T10:48:10.144Z</time>
      </trkpt>
      <trkpt lat="42.90958" lon="1.32709">
        <ele>1081.8</ele>
        <time>2015-08-12T10:48:13.167Z</time>
      </trkpt>
      <trkpt lat="42.90957" lon="1.32708">
        <ele>1081.7</ele>
        <time>2015-08-12T10:48:14.145Z</time>
      </trkpt>
      <trkpt lat="42.90956" lon="1.32697">
        <ele>1077.9</ele>
        <time>2015-08-12T10:48:35.168Z</time>
      </trkpt>
      <trkpt lat="42.90956" lon="1.32695">
        <ele>1077.8</ele>
        <time>2015-08-12T10:48:36.145Z</time>
      </trkpt>
      <trkpt lat="42.90953" lon="1.32685">
        <ele>1075.4</ele>
        <time>2015-08-12T10:48:45.170Z</time>
      </trkpt>
      <trkpt lat="42.90953" lon="1.32684">
        <ele>1075.1</ele>
        <time>2015-08-12T10:48:46.145Z</time>
      </trkpt>
      <trkpt lat="42.90949" lon="1.32673">
        <ele>1074</ele>
        <time>2015-08-12T10:48:51.169Z</time>
      </trkpt>
      <trkpt lat="42.90947" lon="1.3267">
        <ele>1073.9</ele>
        <time>2015-08-12T10:48:52.145Z</time>
      </trkpt>
      <trkpt lat="42.90942" lon="1.3266">
        <ele>1073.2</ele>
        <time>2015-08-12T10:48:58.167Z</time>
      </trkpt>
      <trkpt lat="42.90941" lon="1.32658">
        <ele>1073.2</ele>
        <time>2015-08-12T10:48:59.145Z</time>
      </trkpt>
      <trkpt lat="42.90936" lon="1.32648">
        <ele>1072.3</ele>
        <time>2015-08-12T10:49:05.168Z</time>
      </trkpt>
      <trkpt lat="42.90936" lon="1.32646">
        <ele>1072.2</ele>
        <time>2015-08-12T10:49:06.145Z</time>
      </trkpt>
      <trkpt lat="42.90933" lon="1.32636">
        <ele>1071.1</ele>
        <time>2015-08-12T10:49:13.167Z</time>
      </trkpt>
      <trkpt lat="42.90932" lon="1.32633">
        <ele>1070.9</ele>
        <time>2015-08-12T10:49:14.144Z</time>
      </trkpt>
      <trkpt lat="42.90926" lon="1.32625">
        <ele>1069.6</ele>
        <time>2015-08-12T10:49:19.180Z</time>
      </trkpt>
      <trkpt lat="42.90925" lon="1.32622">
        <ele>1069.3</ele>
        <time>2015-08-12T10:49:20.144Z</time>
      </trkpt>
      <trkpt lat="42.90922" lon="1.32611">
        <ele>1068.2</ele>
        <time>2015-08-12T10:49:25.167Z</time>
      </trkpt>
      <trkpt lat="42.90922" lon="1.32608">
        <ele>1067.7</ele>
        <time>2015-08-12T10:49:26.144Z</time>
      </trkpt>
      <trkpt lat="42.90919" lon="1.32599">
        <ele>1065.7</ele>
        <time>2015-08-12T10:49:28.167Z</time>
      </trkpt>
      <trkpt lat="42.90918" lon="1.32594">
        <ele>1064.6</ele>
        <time>2015-08-12T10:49:29.170Z</time>
      </trkpt>
      <trkpt lat="42.90916" lon="1.32585">
        <ele>1062.2</ele>
        <time>2015-08-12T10:49:40.167Z</time>
      </trkpt>
      <trkpt lat="42.90914" lon="1.32581">
        <ele>1060.8</ele>
        <time>2015-08-12T10:49:41.145Z</time>
      </trkpt>
      <trkpt lat="42.90909" lon="1.32572">
        <ele>1060</ele>
        <time>2015-08-12T10:49:57.170Z</time>
      </trkpt>
      <trkpt lat="42.9091" lon="1.3257">
        <ele>1059.9</ele>
        <time>2015-08-12T10:49:58.144Z</time>
      </trkpt>
      <trkpt lat="42.90904" lon="1.32561">
        <ele>1058.8</ele>
        <time>2015-08-12T10:50:05.168Z</time>
      </trkpt>
      <trkpt lat="42.90903" lon="1.3256">
        <ele>1058.6</ele>
        <time>2015-08-12T10:50:06.144Z</time>
      </trkpt>
      <trkpt lat="42.90903" lon="1.3255">
        <ele>1058.2</ele>
        <time>2015-08-12T10:50:11.168Z</time>
      </trkpt>
      <trkpt lat="42.90901" lon="1.32548">
        <ele>1058</ele>
        <time>2015-08-12T10:50:12.144Z</time>
      </trkpt>
      <trkpt lat="42.90897" lon="1.32537">
        <ele>1057.5</ele>
        <time>2015-08-12T10:50:19.168Z</time>
      </trkpt>
      <trkpt lat="42.90897" lon="1.32536">
        <ele>1057.4</ele>
        <time>2015-08-12T10:50:20.144Z</time>
      </trkpt>
      <trkpt lat="42.90895" lon="1.32526">
        <ele>1057.1</ele>
        <time>2015-08-12T10:50:27.170Z</time>
      </trkpt>
      <trkpt lat="42.90894" lon="1.32524">
        <ele>1057</ele>
        <time>2015-08-12T10:50:28.144Z</time>
      </trkpt>
      <trkpt lat="42.90889" lon="1.32517">
        <ele>1056.1</ele>
        <time>2015-08-12T10:50:31.167Z</time>
      </trkpt>
      <trkpt lat="42.90888" lon="1.32515">
        <ele>1056</ele>
        <time>2015-08-12T10:50:32.144Z</time>
      </trkpt>
      <trkpt lat="42.90884" lon="1.32505">
        <ele>1055.3</ele>
        <time>2015-08-12T10:50:37.167Z</time>
      </trkpt>
      <trkpt lat="42.90883" lon="1.32502">
        <ele>1054.7</ele>
        <time>2015-08-12T10:50:38.144Z</time>
      </trkpt>
      <trkpt lat="42.9088" lon="1.32491">
        <ele>1054.1</ele>
        <time>2015-08-12T10:50:45.170Z</time>
      </trkpt>
      <trkpt lat="42.90879" lon="1.32489">
        <ele>1054.1</ele>
        <time>2015-08-12T10:50:46.144Z</time>
      </trkpt>
      <trkpt lat="42.90876" lon="1.32484">
        <ele>1053.5</ele>
        <time>2015-08-12T10:50:47.167Z</time>
      </trkpt>
      <trkpt lat="42.90872" lon="1.32479">
        <ele>1052.8</ele>
        <time>2015-08-12T10:50:48.144Z</time>
      </trkpt>
      <trkpt lat="42.90868" lon="1.32468">
        <ele>1051.7</ele>
        <time>2015-08-12T10:50:52.167Z</time>
      </trkpt>
      <trkpt lat="42.90869" lon="1.32466">
        <ele>1051.5</ele>
        <time>2015-08-12T10:50:53.144Z</time>
      </trkpt>
      <trkpt lat="42.90867" lon="1.32454">
        <ele>1050.4</ele>
        <time>2015-08-12T10:51:00.167Z</time>
      </trkpt>
      <trkpt lat="42.90866" lon="1.32452">
        <ele>1050.2</ele>
        <time>2015-08-12T10:51:01.144Z</time>
      </trkpt>
      <trkpt lat="42.90866" lon="1.32441">
        <ele>1049.1</ele>
        <time>2015-08-12T10:51:07.167Z</time>
      </trkpt>
      <trkpt lat="42.90867" lon="1.32439">
        <ele>1049</ele>
        <time>2015-08-12T10:51:08.144Z</time>
      </trkpt>
      <trkpt lat="42.90865" lon="1.3243">
        <ele>1048.2</ele>
        <time>2015-08-12T10:51:13.167Z</time>
      </trkpt>
      <trkpt lat="42.90864" lon="1.32427">
        <ele>1048.1</ele>
        <time>2015-08-12T10:51:14.145Z</time>
      </trkpt>
      <trkpt lat="42.90865" lon="1.32417">
        <ele>1047.5</ele>
        <time>2015-08-12T10:51:18.167Z</time>
      </trkpt>
      <trkpt lat="42.90866" lon="1.32414">
        <ele>1047.3</ele>
        <time>2015-08-12T10:51:19.145Z</time>
      </trkpt>
      <trkpt lat="42.90869" lon="1.32404">
        <ele>1046.8</ele>
        <time>2015-08-12T10:51:25.167Z</time>
      </trkpt>
      <trkpt lat="42.90869" lon="1.32402">
        <ele>1046.7</ele>
        <time>2015-08-12T10:51:26.144Z</time>
      </trkpt>
      <trkpt lat="42.90869" lon="1.32391">
        <ele>1046.5</ele>
        <time>2015-08-12T10:51:30.167Z</time>
      </trkpt>
      <trkpt lat="42.9087" lon="1.32389">
        <ele>1046.6</ele>
        <time>2015-08-12T10:51:31.144Z</time>
      </trkpt>
      <trkpt lat="42.90872" lon="1.32377">
        <ele>1046.5</ele>
        <time>2015-08-12T10:51:36.168Z</time>
      </trkpt>
      <trkpt lat="42.9087" lon="1.32374">
        <ele>1046.3</ele>
        <time>2015-08-12T10:51:37.144Z</time>
      </trkpt>
      <trkpt lat="42.90872" lon="1.32364">
        <ele>1046.3</ele>
        <time>2015-08-12T10:51:42.167Z</time>
      </trkpt>
      <trkpt lat="42.90872" lon="1.32362">
        <ele>1046.3</ele>
        <time>2015-08-12T10:51:43.144Z</time>
      </trkpt>
      <trkpt lat="42.90873" lon="1.32351">
        <ele>1046</ele>
        <time>2015-08-12T10:51:48.167Z</time>
      </trkpt>
      <trkpt lat="42.90873" lon="1.3235">
        <ele>1046</ele>
        <time>2015-08-12T10:51:49.157Z</time>
      </trkpt>
      <trkpt lat="42.90872" lon="1.32338">
        <ele>1045.5</ele>
        <time>2015-08-12T10:51:55.167Z</time>
      </trkpt>
      <trkpt lat="42.90873" lon="1.32334">
        <ele>1045.3</ele>
        <time>2015-08-12T10:51:56.144Z</time>
      </trkpt>
      <trkpt lat="42.90873" lon="1.32323">
        <ele>1044.8</ele>
        <time>2015-08-12T10:52:01.168Z</time>
      </trkpt>
      <trkpt lat="42.90873" lon="1.32321">
        <ele>1044.8</ele>
        <time>2015-08-12T10:52:02.144Z</time>
      </trkpt>
      <trkpt lat="42.90875" lon="1.3231">
        <ele>1045.3</ele>
        <time>2015-08-12T10:52:10.180Z</time>
      </trkpt>
      <trkpt lat="42.90874" lon="1.32307">
        <ele>1045.4</ele>
        <time>2015-08-12T10:52:11.145Z</time>
      </trkpt>
      <trkpt lat="42.90871" lon="1.32296">
        <ele>1045.2</ele>
        <time>2015-08-12T10:52:16.168Z</time>
      </trkpt>
      <trkpt lat="42.90871" lon="1.32293">
        <ele>1045.2</ele>
        <time>2015-08-12T10:52:17.145Z</time>
      </trkpt>
      <trkpt lat="42.90869" lon="1.32281">
        <ele>1045.2</ele>
        <time>2015-08-12T10:52:23.167Z</time>
      </trkpt>
      <trkpt lat="42.90868" lon="1.3228">
        <ele>1045.1</ele>
        <time>2015-08-12T10:52:24.145Z</time>
      </trkpt>
      <trkpt lat="42.90869" lon="1.3227">
        <ele>1044.7</ele>
        <time>2015-08-12T10:52:28.167Z</time>
      </trkpt>
      <trkpt lat="42.9087" lon="1.32267">
        <ele>1044.6</ele>
        <time>2015-08-12T10:52:29.144Z</time>
      </trkpt>
      <trkpt lat="42.9087" lon="1.32257">
        <ele>1044.3</ele>
        <time>2015-08-12T10:52:33.170Z</time>
      </trkpt>
      <trkpt lat="42.9087" lon="1.32254">
        <ele>1044.3</ele>
        <time>2015-08-12T10:52:34.144Z</time>
      </trkpt>
      <trkpt lat="42.90871" lon="1.32245">
        <ele>1043.7</ele>
        <time>2015-08-12T10:52:37.167Z</time>
      </trkpt>
      <trkpt lat="42.9087" lon="1.32241">
        <ele>1043.6</ele>
        <time>2015-08-12T10:52:38.144Z</time>
      </trkpt>
      <trkpt lat="42.9087" lon="1.3223">
        <ele>1043</ele>
        <time>2015-08-12T10:52:41.168Z</time>
      </trkpt>
      <trkpt lat="42.90871" lon="1.32227">
        <ele>1042.9</ele>
        <time>2015-08-12T10:52:42.145Z</time>
      </trkpt>
      <trkpt lat="42.9087" lon="1.32216">
        <ele>1042.4</ele>
        <time>2015-08-12T10:52:46.167Z</time>
      </trkpt>
      <trkpt lat="42.9087" lon="1.32212">
        <ele>1042.3</ele>
        <time>2015-08-12T10:52:47.144Z</time>
      </trkpt>
      <trkpt lat="42.90869" lon="1.32202">
        <ele>1041.8</ele>
        <time>2015-08-12T10:52:50.168Z</time>
      </trkpt>
      <trkpt lat="42.90868" lon="1.32199">
        <ele>1041.8</ele>
        <time>2015-08-12T10:52:51.146Z</time>
      </trkpt>
      <trkpt lat="42.90867" lon="1.32188">
        <ele>1041</ele>
        <time>2015-08-12T10:52:55.167Z</time>
      </trkpt>
      <trkpt lat="42.90865" lon="1.32184">
        <ele>1040.5</ele>
        <time>2015-08-12T10:52:56.145Z</time>
      </trkpt>
      <trkpt lat="42.90865" lon="1.32172">
        <ele>1039.2</ele>
        <time>2015-08-12T10:53:01.168Z</time>
      </trkpt>
      <trkpt lat="42.90866" lon="1.32171">
        <ele>1039.1</ele>
        <time>2015-08-12T10:53:02.145Z</time>
      </trkpt>
      <trkpt lat="42.9087" lon="1.32164">
        <ele>1038</ele>
        <time>2015-08-12T10:53:10.168Z</time>
      </trkpt>
      <trkpt lat="42.90873" lon="1.32162">
        <ele>1038</ele>
        <time>2015-08-12T10:53:11.144Z</time>
      </trkpt>
      <trkpt lat="42.90879" lon="1.32156">
        <ele>1038.2</ele>
        <time>2015-08-12T10:53:15.169Z</time>
      </trkpt>
      <trkpt lat="42.90881" lon="1.32155">
        <ele>1038</ele>
        <time>2015-08-12T10:53:16.144Z</time>
      </trkpt>
      <trkpt lat="42.90889" lon="1.32154">
        <ele>1037.7</ele>
        <time>2015-08-12T10:53:21.170Z</time>
      </trkpt>
      <trkpt lat="42.90891" lon="1.32154">
        <ele>1037.6</ele>
        <time>2015-08-12T10:53:22.251Z</time>
      </trkpt>
      <trkpt lat="42.90897" lon="1.32153">
        <ele>1037.6</ele>
        <time>2015-08-12T10:53:25.167Z</time>
      </trkpt>
      <trkpt lat="42.909" lon="1.32154">
        <ele>1037.7</ele>
        <time>2015-08-12T10:53:26.145Z</time>
      </trkpt>
      <trkpt lat="42.90907" lon="1.32156">
        <ele>1037.3</ele>
        <time>2015-08-12T10:53:31.239Z</time>
      </trkpt>
      <trkpt lat="42.90909" lon="1.32157">
        <ele>1037.2</ele>
        <time>2015-08-12T10:53:32.144Z</time>
      </trkpt>
      <trkpt lat="42.90917" lon="1.32161">
        <ele>1037</ele>
        <time>2015-08-12T10:53:38.167Z</time>
      </trkpt>
      <trkpt lat="42.90918" lon="1.32162">
        <ele>1036.9</ele>
        <time>2015-08-12T10:53:39.147Z</time>
      </trkpt>
      <trkpt lat="42.90926" lon="1.32165">
        <ele>1036.9</ele>
        <time>2015-08-12T10:53:44.168Z</time>
      </trkpt>
      <trkpt lat="42.90928" lon="1.32166">
        <ele>1036.9</ele>
        <time>2015-08-12T10:53:45.146Z</time>
      </trkpt>
      <trkpt lat="42.90936" lon="1.32171">
        <ele>1037.1</ele>
        <time>2015-08-12T10:53:51.170Z</time>
      </trkpt>
      <trkpt lat="42.90938" lon="1.32171">
        <ele>1037.2</ele>
        <time>2015-08-12T10:53:52.145Z</time>
      </trkpt>
      <trkpt lat="42.90946" lon="1.32175">
        <ele>1037</ele>
        <time>2015-08-12T10:53:59.168Z</time>
      </trkpt>
      <trkpt lat="42.90947" lon="1.32176">
        <ele>1036.9</ele>
        <time>2015-08-12T10:54:00.145Z</time>
      </trkpt>
      <trkpt lat="42.90956" lon="1.32176">
        <ele>1036.7</ele>
        <time>2015-08-12T10:54:06.167Z</time>
      </trkpt>
      <trkpt lat="42.90957" lon="1.32176">
        <ele>1036.7</ele>
        <time>2015-08-12T10:54:07.144Z</time>
      </trkpt>
      <trkpt lat="42.90965" lon="1.32175">
        <ele>1035.8</ele>
        <time>2015-08-12T10:54:15.169Z</time>
      </trkpt>
      <trkpt lat="42.90966" lon="1.32175">
        <ele>1035.7</ele>
        <time>2015-08-12T10:54:16.144Z</time>
      </trkpt>
      <trkpt lat="42.90974" lon="1.32175">
        <ele>1034.9</ele>
        <time>2015-08-12T10:54:22.167Z</time>
      </trkpt>
      <trkpt lat="42.90976" lon="1.32174">
        <ele>1034.7</ele>
        <time>2015-08-12T10:54:23.145Z</time>
      </trkpt>
      <trkpt lat="42.90984" lon="1.32174">
        <ele>1034</ele>
        <time>2015-08-12T10:54:29.193Z</time>
      </trkpt>
      <trkpt lat="42.90986" lon="1.32174">
        <ele>1033.8</ele>
        <time>2015-08-12T10:54:30.144Z</time>
      </trkpt>
      <trkpt lat="42.90994" lon="1.32173">
        <ele>1032.6</ele>
        <time>2015-08-12T10:54:36.169Z</time>
      </trkpt>
      <trkpt lat="42.90996" lon="1.32172">
        <ele>1032.3</ele>
        <time>2015-08-12T10:54:37.145Z</time>
      </trkpt>
      <trkpt lat="42.91004" lon="1.32172">
        <ele>1031.3</ele>
        <time>2015-08-12T10:54:43.180Z</time>
      </trkpt>
      <trkpt lat="42.91005" lon="1.32172">
        <ele>1031</ele>
        <time>2015-08-12T10:54:44.144Z</time>
      </trkpt>
      <trkpt lat="42.91014" lon="1.32172">
        <ele>1029.9</ele>
        <time>2015-08-12T10:54:48.167Z</time>
      </trkpt>
      <trkpt lat="42.91015" lon="1.32172">
        <ele>1029.7</ele>
        <time>2015-08-12T10:54:49.145Z</time>
      </trkpt>
      <trkpt lat="42.91024" lon="1.32172">
        <ele>1028.5</ele>
        <time>2015-08-12T10:54:55.167Z</time>
      </trkpt>
      <trkpt lat="42.91025" lon="1.32171">
        <ele>1028.3</ele>
        <time>2015-08-12T10:54:56.144Z</time>
      </trkpt>
      <trkpt lat="42.91033" lon="1.32169">
        <ele>1027.4</ele>
        <time>2015-08-12T10:55:01.167Z</time>
      </trkpt>
      <trkpt lat="42.91035" lon="1.3217">
        <ele>1026.9</ele>
        <time>2015-08-12T10:55:02.144Z</time>
      </trkpt>
      <trkpt lat="42.91043" lon="1.3217">
        <ele>1024.4</ele>
        <time>2015-08-12T10:55:08.167Z</time>
      </trkpt>
      <trkpt lat="42.91045" lon="1.32169">
        <ele>1023.9</ele>
        <time>2015-08-12T10:55:09.147Z</time>
      </trkpt>
      <trkpt lat="42.91053" lon="1.3217">
        <ele>1022.5</ele>
        <time>2015-08-12T10:55:14.167Z</time>
      </trkpt>
      <trkpt lat="42.91055" lon="1.3217">
        <ele>1022.3</ele>
        <time>2015-08-12T10:55:15.147Z</time>
      </trkpt>
      <trkpt lat="42.91062" lon="1.32169">
        <ele>1021.9</ele>
        <time>2015-08-12T10:55:19.168Z</time>
      </trkpt>
      <trkpt lat="42.91064" lon="1.32167">
        <ele>1021.8</ele>
        <time>2015-08-12T10:55:20.144Z</time>
      </trkpt>
      <trkpt lat="42.91073" lon="1.32163">
        <ele>1020.5</ele>
        <time>2015-08-12T10:55:29.168Z</time>
      </trkpt>
      <trkpt lat="42.91075" lon="1.32163">
        <ele>1020.3</ele>
        <time>2015-08-12T10:55:30.144Z</time>
      </trkpt>
      <trkpt lat="42.91083" lon="1.32161">
        <ele>1019.2</ele>
        <time>2015-08-12T10:55:36.169Z</time>
      </trkpt>
      <trkpt lat="42.91085" lon="1.32161">
        <ele>1019.1</ele>
        <time>2015-08-12T10:55:37.144Z</time>
      </trkpt>
      <trkpt lat="42.91093" lon="1.32158">
        <ele>1018.4</ele>
        <time>2015-08-12T10:55:43.167Z</time>
      </trkpt>
      <trkpt lat="42.91094" lon="1.32158">
        <ele>1018.3</ele>
        <time>2015-08-12T10:55:44.144Z</time>
      </trkpt>
      <trkpt lat="42.91102" lon="1.32158">
        <ele>1018.2</ele>
        <time>2015-08-12T10:55:47.168Z</time>
      </trkpt>
      <trkpt lat="42.91104" lon="1.32158">
        <ele>1018</ele>
        <time>2015-08-12T10:55:48.144Z</time>
      </trkpt>
      <trkpt lat="42.91111" lon="1.32158">
        <ele>1017.1</ele>
        <time>2015-08-12T10:55:53.168Z</time>
      </trkpt>
      <trkpt lat="42.91113" lon="1.32159">
        <ele>1016.9</ele>
        <time>2015-08-12T10:55:54.144Z</time>
      </trkpt>
      <trkpt lat="42.91121" lon="1.32158">
        <ele>1016.7</ele>
        <time>2015-08-12T10:55:58.167Z</time>
      </trkpt>
      <trkpt lat="42.91123" lon="1.32158">
        <ele>1016.2</ele>
        <time>2015-08-12T10:55:59.145Z</time>
      </trkpt>
      <trkpt lat="42.91131" lon="1.32158">
        <ele>1015.6</ele>
        <time>2015-08-12T10:56:05.168Z</time>
      </trkpt>
      <trkpt lat="42.91133" lon="1.32157">
        <ele>1015.7</ele>
        <time>2015-08-12T10:56:06.144Z</time>
      </trkpt>
      <trkpt lat="42.91141" lon="1.32156">
        <ele>1016.7</ele>
        <time>2015-08-12T10:56:12.167Z</time>
      </trkpt>
      <trkpt lat="42.91143" lon="1.32155">
        <ele>1016.9</ele>
        <time>2015-08-12T10:56:13.145Z</time>
      </trkpt>
      <trkpt lat="42.91151" lon="1.32156">
        <ele>1018.1</ele>
        <time>2015-08-12T10:56:18.167Z</time>
      </trkpt>
      <trkpt lat="42.91153" lon="1.32155">
        <ele>1018.5</ele>
        <time>2015-08-12T10:56:19.144Z</time>
      </trkpt>
      <trkpt lat="42.91158" lon="1.32152">
        <ele>1019.2</ele>
        <time>2015-08-12T10:56:22.167Z</time>
      </trkpt>
      <trkpt lat="42.91161" lon="1.3215">
        <ele>1020.4</ele>
        <time>2015-08-12T10:56:23.145Z</time>
      </trkpt>
      <trkpt lat="42.91169" lon="1.32145">
        <ele>1023.2</ele>
        <time>2015-08-12T10:56:28.167Z</time>
      </trkpt>
      <trkpt lat="42.91171" lon="1.32146">
        <ele>1023.6</ele>
        <time>2015-08-12T10:56:29.155Z</time>
      </trkpt>
      <trkpt lat="42.91179" lon="1.32146">
        <ele>1024.9</ele>
        <time>2015-08-12T10:56:35.168Z</time>
      </trkpt>
      <trkpt lat="42.9118" lon="1.32147">
        <ele>1025</ele>
        <time>2015-08-12T10:56:36.144Z</time>
      </trkpt>
      <trkpt lat="42.91188" lon="1.32151">
        <ele>1025.8</ele>
        <time>2015-08-12T10:56:42.167Z</time>
      </trkpt>
      <trkpt lat="42.91189" lon="1.32151">
        <ele>1026</ele>
        <time>2015-08-12T10:56:43.157Z</time>
      </trkpt>
      <trkpt lat="42.91197" lon="1.32154">
        <ele>1027.8</ele>
        <time>2015-08-12T10:56:51.169Z</time>
      </trkpt>
      <trkpt lat="42.91198" lon="1.32155">
        <ele>1028</ele>
        <time>2015-08-12T10:56:52.145Z</time>
      </trkpt>
      <trkpt lat="42.91201" lon="1.32143">
        <ele>1032.6</ele>
        <time>2015-08-12T10:57:02.168Z</time>
      </trkpt>
      <trkpt lat="42.912" lon="1.32142">
        <ele>1032.6</ele>
        <time>2015-08-12T10:57:03.147Z</time>
      </trkpt>
      <trkpt lat="42.91194" lon="1.32134">
        <ele>1032.3</ele>
        <time>2015-08-12T10:57:08.167Z</time>
      </trkpt>
      <trkpt lat="42.91193" lon="1.32133">
        <ele>1031.5</ele>
        <time>2015-08-12T10:57:09.147Z</time>
      </trkpt>
      <trkpt lat="42.91185" lon="1.32129">
        <ele>1030.9</ele>
        <time>2015-08-12T10:57:17.167Z</time>
      </trkpt>
      <trkpt lat="42.91183" lon="1.32129">
        <ele>1030.8</ele>
        <time>2015-08-12T10:57:18.145Z</time>
      </trkpt>
      <trkpt lat="42.91175" lon="1.32126">
        <ele>1030.3</ele>
        <time>2015-08-12T10:57:23.167Z</time>
      </trkpt>
      <trkpt lat="42.91174" lon="1.32125">
        <ele>1030.2</ele>
        <time>2015-08-12T10:57:24.248Z</time>
      </trkpt>
      <trkpt lat="42.91167" lon="1.32123">
        <ele>1029.8</ele>
        <time>2015-08-12T10:57:27.170Z</time>
      </trkpt>
      <trkpt lat="42.91164" lon="1.32122">
        <ele>1029.7</ele>
        <time>2015-08-12T10:57:28.144Z</time>
      </trkpt>
      <trkpt lat="42.91156" lon="1.32122">
        <ele>1029.2</ele>
        <time>2015-08-12T10:57:31.196Z</time>
      </trkpt>
      <trkpt lat="42.91152" lon="1.32121">
        <ele>1029.1</ele>
        <time>2015-08-12T10:57:32.144Z</time>
      </trkpt>
      <trkpt lat="42.91145" lon="1.3212">
        <ele>1028.9</ele>
        <time>2015-08-12T10:57:34.167Z</time>
      </trkpt>
      <trkpt lat="42.91142" lon="1.3212">
        <ele>1028.9</ele>
        <time>2015-08-12T10:57:35.145Z</time>
      </trkpt>
      <trkpt lat="42.91136" lon="1.32119">
        <ele>1028.7</ele>
        <time>2015-08-12T10:57:37.167Z</time>
      </trkpt>
      <trkpt lat="42.91133" lon="1.32119">
        <ele>1028.7</ele>
        <time>2015-08-12T10:57:38.144Z</time>
      </trkpt>
      <trkpt lat="42.91127" lon="1.32121">
        <ele>1028.1</ele>
        <time>2015-08-12T10:57:40.167Z</time>
      </trkpt>
      <trkpt lat="42.91124" lon="1.32121">
        <ele>1027.8</ele>
        <time>2015-08-12T10:57:41.145Z</time>
      </trkpt>
      <trkpt lat="42.91115" lon="1.32122">
        <ele>1027.2</ele>
        <time>2015-08-12T10:57:44.179Z</time>
      </trkpt>
      <trkpt lat="42.91112" lon="1.32122">
        <ele>1027.1</ele>
        <time>2015-08-12T10:57:45.146Z</time>
      </trkpt>
      <trkpt lat="42.91105" lon="1.32123">
        <ele>1026.2</ele>
        <time>2015-08-12T10:57:48.167Z</time>
      </trkpt>
      <trkpt lat="42.91103" lon="1.32124">
        <ele>1026</ele>
        <time>2015-08-12T10:57:49.144Z</time>
      </trkpt>
      <trkpt lat="42.91095" lon="1.32129">
        <ele>1024.6</ele>
        <time>2015-08-12T10:57:52.166Z</time>
      </trkpt>
      <trkpt lat="42.91092" lon="1.32129">
        <ele>1024.3</ele>
        <time>2015-08-12T10:57:53.145Z</time>
      </trkpt>
      <trkpt lat="42.91083" lon="1.3213">
        <ele>1023.1</ele>
        <time>2015-08-12T10:57:56.167Z</time>
      </trkpt>
      <trkpt lat="42.9108" lon="1.32129">
        <ele>1022.8</ele>
        <time>2015-08-12T10:57:57.146Z</time>
      </trkpt>
      <trkpt lat="42.91072" lon="1.32127">
        <ele>1022</ele>
        <time>2015-08-12T10:58:00.167Z</time>
      </trkpt>
      <trkpt lat="42.9107" lon="1.32126">
        <ele>1021.9</ele>
        <time>2015-08-12T10:58:01.144Z</time>
      </trkpt>
      <trkpt lat="42.91063" lon="1.32126">
        <ele>1021.1</ele>
        <time>2015-08-12T10:58:04.167Z</time>
      </trkpt>
      <trkpt lat="42.91059" lon="1.32126">
        <ele>1020.4</ele>
        <time>2015-08-12T10:58:05.145Z</time>
      </trkpt>
      <trkpt lat="42.91052" lon="1.32125">
        <ele>1019.9</ele>
        <time>2015-08-12T10:58:08.217Z</time>
      </trkpt>
      <trkpt lat="42.91049" lon="1.32124">
        <ele>1019.8</ele>
        <time>2015-08-12T10:58:09.209Z</time>
      </trkpt>
      <trkpt lat="42.91042" lon="1.32122">
        <ele>1019.6</ele>
        <time>2015-08-12T10:58:11.167Z</time>
      </trkpt>
      <trkpt lat="42.9104" lon="1.32122">
        <ele>1019.4</ele>
        <time>2015-08-12T10:58:12.145Z</time>
      </trkpt>
      <trkpt lat="42.91032" lon="1.32119">
        <ele>1018.8</ele>
        <time>2015-08-12T10:58:15.171Z</time>
      </trkpt>
      <trkpt lat="42.9103" lon="1.32118">
        <ele>1018.6</ele>
        <time>2015-08-12T10:58:16.145Z</time>
      </trkpt>
      <trkpt lat="42.91023" lon="1.32114">
        <ele>1018.2</ele>
        <time>2015-08-12T10:58:18.167Z</time>
      </trkpt>
      <trkpt lat="42.91021" lon="1.32112">
        <ele>1018</ele>
        <time>2015-08-12T10:58:19.145Z</time>
      </trkpt>
      <trkpt lat="42.91015" lon="1.32108">
        <ele>1017.3</ele>
        <time>2015-08-12T10:58:21.169Z</time>
      </trkpt>
      <trkpt lat="42.91011" lon="1.32107">
        <ele>1016.9</ele>
        <time>2015-08-12T10:58:22.144Z</time>
      </trkpt>
      <trkpt lat="42.91004" lon="1.32102">
        <ele>1016.3</ele>
        <time>2015-08-12T10:58:25.167Z</time>
      </trkpt>
      <trkpt lat="42.91" lon="1.32101">
        <ele>1016</ele>
        <time>2015-08-12T10:58:26.157Z</time>
      </trkpt>
      <trkpt lat="42.90993" lon="1.32095">
        <ele>1015.5</ele>
        <time>2015-08-12T10:58:28.222Z</time>
      </trkpt>
      <trkpt lat="42.90991" lon="1.32096">
        <ele>1015.1</ele>
        <time>2015-08-12T10:58:29.145Z</time>
      </trkpt>
      <trkpt lat="42.90986" lon="1.32091">
        <ele>1014.9</ele>
        <time>2015-08-12T10:58:31.198Z</time>
      </trkpt>
      <trkpt lat="42.90984" lon="1.32088">
        <ele>1014.9</ele>
        <time>2015-08-12T10:58:32.144Z</time>
      </trkpt>
      <trkpt lat="42.90978" lon="1.32082">
        <ele>1014.5</ele>
        <time>2015-08-12T10:58:34.168Z</time>
      </trkpt>
      <trkpt lat="42.90974" lon="1.32079">
        <ele>1014.2</ele>
        <time>2015-08-12T10:58:35.145Z</time>
      </trkpt>
      <trkpt lat="42.90966" lon="1.32074">
        <ele>1013.5</ele>
        <time>2015-08-12T10:58:38.167Z</time>
      </trkpt>
      <trkpt lat="42.90963" lon="1.32072">
        <ele>1013.3</ele>
        <time>2015-08-12T10:58:39.146Z</time>
      </trkpt>
      <trkpt lat="42.90956" lon="1.32066">
        <ele>1012.4</ele>
        <time>2015-08-12T10:58:42.167Z</time>
      </trkpt>
      <trkpt lat="42.90953" lon="1.32064">
        <ele>1012.3</ele>
        <time>2015-08-12T10:58:43.144Z</time>
      </trkpt>
      <trkpt lat="42.90948" lon="1.32057">
        <ele>1012.2</ele>
        <time>2015-08-12T10:58:45.169Z</time>
      </trkpt>
      <trkpt lat="42.90945" lon="1.32054">
        <ele>1012.1</ele>
        <time>2015-08-12T10:58:46.144Z</time>
      </trkpt>
      <trkpt lat="42.90941" lon="1.32047">
        <ele>1011.7</ele>
        <time>2015-08-12T10:58:48.167Z</time>
      </trkpt>
      <trkpt lat="42.90939" lon="1.32044">
        <ele>1011.5</ele>
        <time>2015-08-12T10:58:49.144Z</time>
      </trkpt>
      <trkpt lat="42.90935" lon="1.32034">
        <ele>1011</ele>
        <time>2015-08-12T10:58:52.179Z</time>
      </trkpt>
      <trkpt lat="42.90935" lon="1.32031">
        <ele>1010.9</ele>
        <time>2015-08-12T10:58:53.145Z</time>
      </trkpt>
      <trkpt lat="42.90933" lon="1.3202">
        <ele>1009.6</ele>
        <time>2015-08-12T10:58:59.168Z</time>
      </trkpt>
      <trkpt lat="42.90932" lon="1.32018">
        <ele>1009.4</ele>
        <time>2015-08-12T10:59:00.145Z</time>
      </trkpt>
      <trkpt lat="42.90931" lon="1.32008">
        <ele>1008.6</ele>
        <time>2015-08-12T10:59:04.167Z</time>
      </trkpt>
      <trkpt lat="42.9093" lon="1.32005">
        <ele>1008.5</ele>
        <time>2015-08-12T10:59:05.144Z</time>
      </trkpt>
      <trkpt lat="42.9093" lon="1.31995">
        <ele>1007.9</ele>
        <time>2015-08-12T10:59:08.167Z</time>
      </trkpt>
      <trkpt lat="42.90929" lon="1.31992">
        <ele>1007.6</ele>
        <time>2015-08-12T10:59:09.147Z</time>
      </trkpt>
      <trkpt lat="42.90928" lon="1.3198">
        <ele>1007.1</ele>
        <time>2015-08-12T10:59:15.168Z</time>
      </trkpt>
      <trkpt lat="42.90928" lon="1.31979">
        <ele>1006.9</ele>
        <time>2015-08-12T10:59:16.144Z</time>
      </trkpt>
      <trkpt lat="42.90925" lon="1.31968">
        <ele>1005.8</ele>
        <time>2015-08-12T10:59:22.167Z</time>
      </trkpt>
      <trkpt lat="42.90925" lon="1.31967">
        <ele>1005.6</ele>
        <time>2015-08-12T10:59:23.144Z</time>
      </trkpt>
      <trkpt lat="42.90922" lon="1.31955">
        <ele>1003.7</ele>
        <time>2015-08-12T10:59:29.167Z</time>
      </trkpt>
      <trkpt lat="42.90922" lon="1.31953">
        <ele>1003.5</ele>
        <time>2015-08-12T10:59:30.145Z</time>
      </trkpt>
      <trkpt lat="42.90921" lon="1.31943">
        <ele>1002.9</ele>
        <time>2015-08-12T10:59:35.167Z</time>
      </trkpt>
      <trkpt lat="42.90921" lon="1.31941">
        <ele>1002.7</ele>
        <time>2015-08-12T10:59:36.144Z</time>
      </trkpt>
      <trkpt lat="42.9092" lon="1.3193">
        <ele>1002.2</ele>
        <time>2015-08-12T10:59:41.167Z</time>
      </trkpt>
      <trkpt lat="42.9092" lon="1.31926">
        <ele>1001.9</ele>
        <time>2015-08-12T10:59:42.144Z</time>
      </trkpt>
      <trkpt lat="42.90917" lon="1.31915">
        <ele>1000.9</ele>
        <time>2015-08-12T10:59:46.168Z</time>
      </trkpt>
      <trkpt lat="42.90918" lon="1.31913">
        <ele>1000.7</ele>
        <time>2015-08-12T10:59:47.144Z</time>
      </trkpt>
      <trkpt lat="42.90916" lon="1.31903">
        <ele>999.9</ele>
        <time>2015-08-12T10:59:51.169Z</time>
      </trkpt>
      <trkpt lat="42.90915" lon="1.31899">
        <ele>999.6</ele>
        <time>2015-08-12T10:59:52.144Z</time>
      </trkpt>
      <trkpt lat="42.90915" lon="1.31888">
        <ele>998.4</ele>
        <time>2015-08-12T10:59:57.169Z</time>
      </trkpt>
      <trkpt lat="42.90915" lon="1.31886">
        <ele>998.2</ele>
        <time>2015-08-12T10:59:58.145Z</time>
      </trkpt>
      <trkpt lat="42.90915" lon="1.31874">
        <ele>997.5</ele>
        <time>2015-08-12T11:00:04.167Z</time>
      </trkpt>
      <trkpt lat="42.90915" lon="1.31871">
        <ele>997.4</ele>
        <time>2015-08-12T11:00:05.145Z</time>
      </trkpt>
      <trkpt lat="42.90916" lon="1.3186">
        <ele>996.6</ele>
        <time>2015-08-12T11:00:11.167Z</time>
      </trkpt>
      <trkpt lat="42.90915" lon="1.31858">
        <ele>996.5</ele>
        <time>2015-08-12T11:00:12.144Z</time>
      </trkpt>
      <trkpt lat="42.90916" lon="1.31847">
        <ele>996</ele>
        <time>2015-08-12T11:00:18.167Z</time>
      </trkpt>
      <trkpt lat="42.90916" lon="1.31844">
        <ele>995.9</ele>
        <time>2015-08-12T11:00:19.144Z</time>
      </trkpt>
      <trkpt lat="42.90918" lon="1.31833">
        <ele>994.7</ele>
        <time>2015-08-12T11:00:24.167Z</time>
      </trkpt>
      <trkpt lat="42.90918" lon="1.31829">
        <ele>994.6</ele>
        <time>2015-08-12T11:00:25.157Z</time>
      </trkpt>
      <trkpt lat="42.90921" lon="1.31818">
        <ele>993.2</ele>
        <time>2015-08-12T11:00:30.166Z</time>
      </trkpt>
      <trkpt lat="42.90921" lon="1.31817">
        <ele>993</ele>
        <time>2015-08-12T11:00:31.144Z</time>
      </trkpt>
      <trkpt lat="42.90923" lon="1.31806">
        <ele>991.1</ele>
        <time>2015-08-12T11:00:38.167Z</time>
      </trkpt>
      <trkpt lat="42.90923" lon="1.31802">
        <ele>990.6</ele>
        <time>2015-08-12T11:00:39.146Z</time>
      </trkpt>
      <trkpt lat="42.90921" lon="1.3179">
        <ele>989</ele>
        <time>2015-08-12T11:00:44.167Z</time>
      </trkpt>
      <trkpt lat="42.9092" lon="1.31788">
        <ele>988.7</ele>
        <time>2015-08-12T11:00:45.146Z</time>
      </trkpt>
      <trkpt lat="42.90921" lon="1.31777">
        <ele>986.8</ele>
        <time>2015-08-12T11:00:50.167Z</time>
      </trkpt>
      <trkpt lat="42.90921" lon="1.31775">
        <ele>986.5</ele>
        <time>2015-08-12T11:00:51.146Z</time>
      </trkpt>
      <trkpt lat="42.90918" lon="1.31764">
        <ele>984.7</ele>
        <time>2015-08-12T11:00:57.168Z</time>
      </trkpt>
      <trkpt lat="42.90918" lon="1.31762">
        <ele>984.3</ele>
        <time>2015-08-12T11:00:58.144Z</time>
      </trkpt>
      <trkpt lat="42.90915" lon="1.31753">
        <ele>982.8</ele>
        <time>2015-08-12T11:01:02.231Z</time>
      </trkpt>
      <trkpt lat="42.90914" lon="1.3175">
        <ele>982.7</ele>
        <time>2015-08-12T11:01:03.146Z</time>
      </trkpt>
      <trkpt lat="42.90911" lon="1.31739">
        <ele>981.8</ele>
        <time>2015-08-12T11:01:08.167Z</time>
      </trkpt>
      <trkpt lat="42.9091" lon="1.31737">
        <ele>981.5</ele>
        <time>2015-08-12T11:01:09.146Z</time>
      </trkpt>
      <trkpt lat="42.9091" lon="1.31726">
        <ele>980.8</ele>
        <time>2015-08-12T11:01:14.167Z</time>
      </trkpt>
      <trkpt lat="42.90909" lon="1.31724">
        <ele>980.3</ele>
        <time>2015-08-12T11:01:15.146Z</time>
      </trkpt>
      <trkpt lat="42.90904" lon="1.31717">
        <ele>978.9</ele>
        <time>2015-08-12T11:01:18.188Z</time>
      </trkpt>
      <trkpt lat="42.90903" lon="1.31715">
        <ele>978.7</ele>
        <time>2015-08-12T11:01:19.144Z</time>
      </trkpt>
      <trkpt lat="42.90897" lon="1.31705">
        <ele>976.9</ele>
        <time>2015-08-12T11:01:24.167Z</time>
      </trkpt>
      <trkpt lat="42.90896" lon="1.31704">
        <ele>976.7</ele>
        <time>2015-08-12T11:01:25.144Z</time>
      </trkpt>
      <trkpt lat="42.90893" lon="1.31694">
        <ele>976.3</ele>
        <time>2015-08-12T11:01:28.170Z</time>
      </trkpt>
      <trkpt lat="42.90893" lon="1.31692">
        <ele>976.1</ele>
        <time>2015-08-12T11:01:29.144Z</time>
      </trkpt>
      <trkpt lat="42.90888" lon="1.31683">
        <ele>974.9</ele>
        <time>2015-08-12T11:01:35.168Z</time>
      </trkpt>
      <trkpt lat="42.90887" lon="1.3168">
        <ele>974.4</ele>
        <time>2015-08-12T11:01:36.145Z</time>
      </trkpt>
      <trkpt lat="42.90882" lon="1.3167">
        <ele>973.5</ele>
        <time>2015-08-12T11:01:41.167Z</time>
      </trkpt>
      <trkpt lat="42.90881" lon="1.31668">
        <ele>973.2</ele>
        <time>2015-08-12T11:01:42.159Z</time>
      </trkpt>
      <trkpt lat="42.90876" lon="1.3166">
        <ele>971.9</ele>
        <time>2015-08-12T11:01:46.167Z</time>
      </trkpt>
      <trkpt lat="42.90874" lon="1.31658">
        <ele>971.7</ele>
        <time>2015-08-12T11:01:47.144Z</time>
      </trkpt>
      <trkpt lat="42.9087" lon="1.3165">
        <ele>970.8</ele>
        <time>2015-08-12T11:01:52.167Z</time>
      </trkpt>
      <trkpt lat="42.90868" lon="1.31648">
        <ele>970.5</ele>
        <time>2015-08-12T11:01:53.145Z</time>
      </trkpt>
      <trkpt lat="42.90864" lon="1.3164">
        <ele>968.5</ele>
        <time>2015-08-12T11:01:58.167Z</time>
      </trkpt>
      <trkpt lat="42.90863" lon="1.31638">
        <ele>967.8</ele>
        <time>2015-08-12T11:01:59.145Z</time>
      </trkpt>
      <trkpt lat="42.90856" lon="1.3163">
        <ele>964.9</ele>
        <time>2015-08-12T11:02:06.167Z</time>
      </trkpt>
      <trkpt lat="42.90856" lon="1.31628">
        <ele>964.7</ele>
        <time>2015-08-12T11:02:07.144Z</time>
      </trkpt>
      <trkpt lat="42.90853" lon="1.31619">
        <ele>964</ele>
        <time>2015-08-12T11:02:12.167Z</time>
      </trkpt>
      <trkpt lat="42.90852" lon="1.31617">
        <ele>963.7</ele>
        <time>2015-08-12T11:02:13.144Z</time>
      </trkpt>
      <trkpt lat="42.90849" lon="1.3161">
        <ele>962.9</ele>
        <time>2015-08-12T11:02:17.167Z</time>
      </trkpt>
      <trkpt lat="42.90847" lon="1.31607">
        <ele>962.7</ele>
        <time>2015-08-12T11:02:18.144Z</time>
      </trkpt>
      <trkpt lat="42.90841" lon="1.31598">
        <ele>961.1</ele>
        <time>2015-08-12T11:02:24.167Z</time>
      </trkpt>
      <trkpt lat="42.9084" lon="1.31597">
        <ele>960.6</ele>
        <time>2015-08-12T11:02:25.144Z</time>
      </trkpt>
      <trkpt lat="42.90835" lon="1.31591">
        <ele>958.8</ele>
        <time>2015-08-12T11:02:29.167Z</time>
      </trkpt>
      <trkpt lat="42.90833" lon="1.31589">
        <ele>958.6</ele>
        <time>2015-08-12T11:02:30.144Z</time>
      </trkpt>
      <trkpt lat="42.9083" lon="1.3158">
        <ele>957.4</ele>
        <time>2015-08-12T11:02:35.167Z</time>
      </trkpt>
      <trkpt lat="42.90828" lon="1.31578">
        <ele>957.2</ele>
        <time>2015-08-12T11:02:36.144Z</time>
      </trkpt>
      <trkpt lat="42.90822" lon="1.31569">
        <ele>955.2</ele>
        <time>2015-08-12T11:02:42.167Z</time>
      </trkpt>
      <trkpt lat="42.90822" lon="1.31567">
        <ele>955.2</ele>
        <time>2015-08-12T11:02:43.144Z</time>
      </trkpt>
      <trkpt lat="42.90816" lon="1.3156">
        <ele>953.6</ele>
        <time>2015-08-12T11:02:49.167Z</time>
      </trkpt>
      <trkpt lat="42.90814" lon="1.31559">
        <ele>953.2</ele>
        <time>2015-08-12T11:02:50.144Z</time>
      </trkpt>
      <trkpt lat="42.90807" lon="1.31553">
        <ele>950.9</ele>
        <time>2015-08-12T11:02:56.167Z</time>
      </trkpt>
      <trkpt lat="42.90807" lon="1.31552">
        <ele>950.7</ele>
        <time>2015-08-12T11:02:57.145Z</time>
      </trkpt>
      <trkpt lat="42.90806" lon="1.31551">
        <ele>950.5</ele>
        <time>2015-08-12T11:02:58.167Z</time>
      </trkpt>
      <trkpt lat="42.90804" lon="1.31549">
        <ele>950.1</ele>
        <time>2015-08-12T11:02:59.145Z</time>
      </trkpt>
      <trkpt lat="42.90797" lon="1.31542">
        <ele>948.8</ele>
        <time>2015-08-12T11:03:05.166Z</time>
      </trkpt>
      <trkpt lat="42.90795" lon="1.31541">
        <ele>948.5</ele>
        <time>2015-08-12T11:03:06.144Z</time>
      </trkpt>
      <trkpt lat="42.90787" lon="1.31536">
        <ele>947.4</ele>
        <time>2015-08-12T11:03:11.167Z</time>
      </trkpt>
      <trkpt lat="42.90785" lon="1.31535">
        <ele>947.2</ele>
        <time>2015-08-12T11:03:12.144Z</time>
      </trkpt>
      <trkpt lat="42.90778" lon="1.31534">
        <ele>945.9</ele>
        <time>2015-08-12T11:03:17.167Z</time>
      </trkpt>
      <trkpt lat="42.90776" lon="1.31533">
        <ele>945.6</ele>
        <time>2015-08-12T11:03:18.144Z</time>
      </trkpt>
      <trkpt lat="42.9077" lon="1.31528">
        <ele>944.8</ele>
        <time>2015-08-12T11:03:22.167Z</time>
      </trkpt>
      <trkpt lat="42.90769" lon="1.31525">
        <ele>944.8</ele>
        <time>2015-08-12T11:03:23.145Z</time>
      </trkpt>
      <trkpt lat="42.90762" lon="1.31519">
        <ele>944</ele>
        <time>2015-08-12T11:03:28.167Z</time>
      </trkpt>
      <trkpt lat="42.9076" lon="1.31519">
        <ele>943.8</ele>
        <time>2015-08-12T11:03:29.145Z</time>
      </trkpt>
      <trkpt lat="42.90753" lon="1.31515">
        <ele>942.6</ele>
        <time>2015-08-12T11:03:34.167Z</time>
      </trkpt>
      <trkpt lat="42.90752" lon="1.31514">
        <ele>942.4</ele>
        <time>2015-08-12T11:03:35.144Z</time>
      </trkpt>
      <trkpt lat="42.90744" lon="1.3151">
        <ele>941.2</ele>
        <time>2015-08-12T11:03:40.168Z</time>
      </trkpt>
      <trkpt lat="42.90742" lon="1.31509">
        <ele>941</ele>
        <time>2015-08-12T11:03:41.145Z</time>
      </trkpt>
      <trkpt lat="42.90734" lon="1.31507">
        <ele>940.2</ele>
        <time>2015-08-12T11:03:46.167Z</time>
      </trkpt>
      <trkpt lat="42.90732" lon="1.31506">
        <ele>940.1</ele>
        <time>2015-08-12T11:03:47.145Z</time>
      </trkpt>
      <trkpt lat="42.90737" lon="1.31498">
        <ele>939</ele>
        <time>2015-08-12T11:03:58.167Z</time>
      </trkpt>
      <trkpt lat="42.90739" lon="1.31498">
        <ele>939</ele>
        <time>2015-08-12T11:03:59.146Z</time>
      </trkpt>
      <trkpt lat="42.90747" lon="1.315">
        <ele>938.9</ele>
        <time>2015-08-12T11:04:04.167Z</time>
      </trkpt>
      <trkpt lat="42.90749" lon="1.315">
        <ele>938.7</ele>
        <time>2015-08-12T11:04:05.145Z</time>
      </trkpt>
      <trkpt lat="42.90756" lon="1.31502">
        <ele>938</ele>
        <time>2015-08-12T11:04:09.169Z</time>
      </trkpt>
      <trkpt lat="42.90758" lon="1.31503">
        <ele>937.8</ele>
        <time>2015-08-12T11:04:10.145Z</time>
      </trkpt>
      <trkpt lat="42.90766" lon="1.31507">
        <ele>936.8</ele>
        <time>2015-08-12T11:04:15.169Z</time>
      </trkpt>
      <trkpt lat="42.90767" lon="1.31507">
        <ele>936.6</ele>
        <time>2015-08-12T11:04:16.145Z</time>
      </trkpt>
      <trkpt lat="42.90775" lon="1.3151">
        <ele>935.9</ele>
        <time>2015-08-12T11:04:20.168Z</time>
      </trkpt>
      <trkpt lat="42.90777" lon="1.3151">
        <ele>935.6</ele>
        <time>2015-08-12T11:04:21.146Z</time>
      </trkpt>
      <trkpt lat="42.90782" lon="1.31518">
        <ele>934.5</ele>
        <time>2015-08-12T11:04:28.171Z</time>
      </trkpt>
      <trkpt lat="42.90783" lon="1.31519">
        <ele>934.4</ele>
        <time>2015-08-12T11:04:29.145Z</time>
      </trkpt>
      <trkpt lat="42.90791" lon="1.3152">
        <ele>934</ele>
        <time>2015-08-12T11:04:33.169Z</time>
      </trkpt>
      <trkpt lat="42.90793" lon="1.31521">
        <ele>933.9</ele>
        <time>2015-08-12T11:04:34.145Z</time>
      </trkpt>
      <trkpt lat="42.908" lon="1.31527">
        <ele>933.2</ele>
        <time>2015-08-12T11:04:41.184Z</time>
      </trkpt>
      <trkpt lat="42.90801" lon="1.31527">
        <ele>933.1</ele>
        <time>2015-08-12T11:04:42.144Z</time>
      </trkpt>
      <trkpt lat="42.90809" lon="1.31528">
        <ele>932.6</ele>
        <time>2015-08-12T11:04:46.168Z</time>
      </trkpt>
      <trkpt lat="42.90811" lon="1.31529">
        <ele>932.4</ele>
        <time>2015-08-12T11:04:47.145Z</time>
      </trkpt>
      <trkpt lat="42.90818" lon="1.31531">
        <ele>931.9</ele>
        <time>2015-08-12T11:04:52.179Z</time>
      </trkpt>
      <trkpt lat="42.9082" lon="1.31532">
        <ele>931.8</ele>
        <time>2015-08-12T11:04:53.145Z</time>
      </trkpt>
      <trkpt lat="42.90827" lon="1.31539">
        <ele>930.8</ele>
        <time>2015-08-12T11:05:00.168Z</time>
      </trkpt>
      <trkpt lat="42.90828" lon="1.31539">
        <ele>930.7</ele>
        <time>2015-08-12T11:05:01.145Z</time>
      </trkpt>
      <trkpt lat="42.90836" lon="1.31541">
        <ele>929.5</ele>
        <time>2015-08-12T11:05:07.167Z</time>
      </trkpt>
      <trkpt lat="42.90837" lon="1.31542">
        <ele>929.4</ele>
        <time>2015-08-12T11:05:08.145Z</time>
      </trkpt>
      <trkpt lat="42.90845" lon="1.31546">
        <ele>928.5</ele>
        <time>2015-08-12T11:05:14.167Z</time>
      </trkpt>
      <trkpt lat="42.90846" lon="1.31546">
        <ele>928.4</ele>
        <time>2015-08-12T11:05:15.146Z</time>
      </trkpt>
      <trkpt lat="42.90854" lon="1.31552">
        <ele>927.6</ele>
        <time>2015-08-12T11:05:21.169Z</time>
      </trkpt>
      <trkpt lat="42.90856" lon="1.31553">
        <ele>927.5</ele>
        <time>2015-08-12T11:05:22.144Z</time>
      </trkpt>
      <trkpt lat="42.90863" lon="1.31559">
        <ele>926.1</ele>
        <time>2015-08-12T11:05:29.184Z</time>
      </trkpt>
      <trkpt lat="42.90864" lon="1.3156">
        <ele>925.9</ele>
        <time>2015-08-12T11:05:30.144Z</time>
      </trkpt>
      <trkpt lat="42.90873" lon="1.31564">
        <ele>925.4</ele>
        <time>2015-08-12T11:05:34.205Z</time>
      </trkpt>
      <trkpt lat="42.90875" lon="1.31565">
        <ele>925.3</ele>
        <time>2015-08-12T11:05:35.145Z</time>
      </trkpt>
      <trkpt lat="42.90882" lon="1.31569">
        <ele>924.6</ele>
        <time>2015-08-12T11:05:40.166Z</time>
      </trkpt>
      <trkpt lat="42.90884" lon="1.31569">
        <ele>924.5</ele>
        <time>2015-08-12T11:05:41.146Z</time>
      </trkpt>
      <trkpt lat="42.90887" lon="1.31558">
        <ele>923.7</ele>
        <time>2015-08-12T11:05:46.167Z</time>
      </trkpt>
      <trkpt lat="42.90887" lon="1.31556">
        <ele>923.8</ele>
        <time>2015-08-12T11:05:47.145Z</time>
      </trkpt>
      <trkpt lat="42.90882" lon="1.31548">
        <ele>924.1</ele>
        <time>2015-08-12T11:05:51.169Z</time>
      </trkpt>
      <trkpt lat="42.90881" lon="1.31546">
        <ele>924.4</ele>
        <time>2015-08-12T11:05:52.145Z</time>
      </trkpt>
      <trkpt lat="42.90875" lon="1.3154">
        <ele>924.4</ele>
        <time>2015-08-12T11:05:56.167Z</time>
      </trkpt>
      <trkpt lat="42.90873" lon="1.31539">
        <ele>924.6</ele>
        <time>2015-08-12T11:05:57.146Z</time>
      </trkpt>
      <trkpt lat="42.90867" lon="1.31534">
        <ele>924.5</ele>
        <time>2015-08-12T11:06:01.168Z</time>
      </trkpt>
      <trkpt lat="42.90865" lon="1.31533">
        <ele>924.5</ele>
        <time>2015-08-12T11:06:02.145Z</time>
      </trkpt>
      <trkpt lat="42.90859" lon="1.31527">
        <ele>924.3</ele>
        <time>2015-08-12T11:06:06.168Z</time>
      </trkpt>
      <trkpt lat="42.90857" lon="1.31526">
        <ele>924.1</ele>
        <time>2015-08-12T11:06:07.145Z</time>
      </trkpt>
      <trkpt lat="42.9085" lon="1.31519">
        <ele>923.7</ele>
        <time>2015-08-12T11:06:14.178Z</time>
      </trkpt>
      <trkpt lat="42.90849" lon="1.31519">
        <ele>923.6</ele>
        <time>2015-08-12T11:06:15.147Z</time>
      </trkpt>
      <trkpt lat="42.90842" lon="1.31514">
        <ele>922.9</ele>
        <time>2015-08-12T11:06:20.167Z</time>
      </trkpt>
      <trkpt lat="42.9084" lon="1.31513">
        <ele>922.5</ele>
        <time>2015-08-12T11:06:21.161Z</time>
      </trkpt>
      <trkpt lat="42.90833" lon="1.3151">
        <ele>921.7</ele>
        <time>2015-08-12T11:06:26.198Z</time>
      </trkpt>
      <trkpt lat="42.90831" lon="1.31509">
        <ele>921.5</ele>
        <time>2015-08-12T11:06:27.146Z</time>
      </trkpt>
      <trkpt lat="42.90825" lon="1.315">
        <ele>920.1</ele>
        <time>2015-08-12T11:06:33.169Z</time>
      </trkpt>
      <trkpt lat="42.90825" lon="1.31499">
        <ele>919.8</ele>
        <time>2015-08-12T11:06:34.145Z</time>
      </trkpt>
      <trkpt lat="42.90819" lon="1.3149">
        <ele>918.9</ele>
        <time>2015-08-12T11:06:40.168Z</time>
      </trkpt>
      <trkpt lat="42.90817" lon="1.31489">
        <ele>918.7</ele>
        <time>2015-08-12T11:06:41.146Z</time>
      </trkpt>
      <trkpt lat="42.90811" lon="1.31481">
        <ele>918</ele>
        <time>2015-08-12T11:06:45.182Z</time>
      </trkpt>
      <trkpt lat="42.90809" lon="1.3148">
        <ele>917.8</ele>
        <time>2015-08-12T11:06:46.145Z</time>
      </trkpt>
      <trkpt lat="42.90802" lon="1.31474">
        <ele>917</ele>
        <time>2015-08-12T11:06:50.179Z</time>
      </trkpt>
      <trkpt lat="42.908" lon="1.31473">
        <ele>916.8</ele>
        <time>2015-08-12T11:06:51.147Z</time>
      </trkpt>
      <trkpt lat="42.90794" lon="1.31467">
        <ele>916.3</ele>
        <time>2015-08-12T11:06:55.167Z</time>
      </trkpt>
      <trkpt lat="42.90792" lon="1.31465">
        <ele>916.2</ele>
        <time>2015-08-12T11:06:56.145Z</time>
      </trkpt>
      <trkpt lat="42.90787" lon="1.31457">
        <ele>916</ele>
        <time>2015-08-12T11:07:00.168Z</time>
      </trkpt>
      <trkpt lat="42.90785" lon="1.31456">
        <ele>915.8</ele>
        <time>2015-08-12T11:07:01.145Z</time>
      </trkpt>
      <trkpt lat="42.9078" lon="1.31447">
        <ele>914.7</ele>
        <time>2015-08-12T11:07:06.167Z</time>
      </trkpt>
      <trkpt lat="42.90779" lon="1.31446">
        <ele>914.5</ele>
        <time>2015-08-12T11:07:07.144Z</time>
      </trkpt>
      <trkpt lat="42.90772" lon="1.31441">
        <ele>913.2</ele>
        <time>2015-08-12T11:07:12.169Z</time>
      </trkpt>
      <trkpt lat="42.90771" lon="1.3144">
        <ele>913</ele>
        <time>2015-08-12T11:07:13.145Z</time>
      </trkpt>
      <trkpt lat="42.90765" lon="1.31434">
        <ele>912.2</ele>
        <time>2015-08-12T11:07:18.167Z</time>
      </trkpt>
      <trkpt lat="42.90764" lon="1.31432">
        <ele>912.1</ele>
        <time>2015-08-12T11:07:19.145Z</time>
      </trkpt>
      <trkpt lat="42.90757" lon="1.31427">
        <ele>911.5</ele>
        <time>2015-08-12T11:07:23.168Z</time>
      </trkpt>
      <trkpt lat="42.90756" lon="1.31426">
        <ele>911.2</ele>
        <time>2015-08-12T11:07:24.145Z</time>
      </trkpt>
      <trkpt lat="42.90748" lon="1.31421">
        <ele>910.2</ele>
        <time>2015-08-12T11:07:29.283Z</time>
      </trkpt>
      <trkpt lat="42.90746" lon="1.3142">
        <ele>910</ele>
        <time>2015-08-12T11:07:30.145Z</time>
      </trkpt>
      <trkpt lat="42.90738" lon="1.31417">
        <ele>908.9</ele>
        <time>2015-08-12T11:07:38.167Z</time>
      </trkpt>
      <trkpt lat="42.90736" lon="1.31417">
        <ele>908.8</ele>
        <time>2015-08-12T11:07:39.148Z</time>
      </trkpt>
      <trkpt lat="42.90729" lon="1.31411">
        <ele>908.5</ele>
        <time>2015-08-12T11:07:45.170Z</time>
      </trkpt>
      <trkpt lat="42.90728" lon="1.31409">
        <ele>908.7</ele>
        <time>2015-08-12T11:07:46.145Z</time>
      </trkpt>
      <trkpt lat="42.90721" lon="1.31401">
        <ele>908.4</ele>
        <time>2015-08-12T11:07:51.170Z</time>
      </trkpt>
      <trkpt lat="42.9072" lon="1.314">
        <ele>908.5</ele>
        <time>2015-08-12T11:07:52.145Z</time>
      </trkpt>
      <trkpt lat="42.90713" lon="1.31395">
        <ele>908.2</ele>
        <time>2015-08-12T11:07:57.169Z</time>
      </trkpt>
      <trkpt lat="42.90711" lon="1.31395">
        <ele>908</ele>
        <time>2015-08-12T11:07:58.145Z</time>
      </trkpt>
      <trkpt lat="42.90703" lon="1.31394">
        <ele>907.3</ele>
        <time>2015-08-12T11:08:02.167Z</time>
      </trkpt>
      <trkpt lat="42.907" lon="1.31393">
        <ele>907.1</ele>
        <time>2015-08-12T11:08:03.147Z</time>
      </trkpt>
      <trkpt lat="42.90691" lon="1.31392">
        <ele>906.2</ele>
        <time>2015-08-12T11:08:09.170Z</time>
      </trkpt>
      <trkpt lat="42.90689" lon="1.31391">
        <ele>906</ele>
        <time>2015-08-12T11:08:10.145Z</time>
      </trkpt>
      <trkpt lat="42.90681" lon="1.31392">
        <ele>904.8</ele>
        <time>2015-08-12T11:08:15.170Z</time>
      </trkpt>
      <trkpt lat="42.9068" lon="1.31391">
        <ele>904.7</ele>
        <time>2015-08-12T11:08:16.145Z</time>
      </trkpt>
      <trkpt lat="42.90671" lon="1.31389">
        <ele>904.3</ele>
        <time>2015-08-12T11:08:20.168Z</time>
      </trkpt>
      <trkpt lat="42.90669" lon="1.31388">
        <ele>904.1</ele>
        <time>2015-08-12T11:08:21.148Z</time>
      </trkpt>
      <trkpt lat="42.90661" lon="1.31387">
        <ele>903.2</ele>
        <time>2015-08-12T11:08:26.194Z</time>
      </trkpt>
      <trkpt lat="42.90659" lon="1.31387">
        <ele>903.1</ele>
        <time>2015-08-12T11:08:27.147Z</time>
      </trkpt>
      <trkpt lat="42.90651" lon="1.31386">
        <ele>902.4</ele>
        <time>2015-08-12T11:08:32.167Z</time>
      </trkpt>
      <trkpt lat="42.90649" lon="1.31385">
        <ele>902.2</ele>
        <time>2015-08-12T11:08:33.147Z</time>
      </trkpt>
      <trkpt lat="42.90642" lon="1.31378">
        <ele>901.7</ele>
        <time>2015-08-12T11:08:39.169Z</time>
      </trkpt>
      <trkpt lat="42.90641" lon="1.31377">
        <ele>901.6</ele>
        <time>2015-08-12T11:08:40.144Z</time>
      </trkpt>
      <trkpt lat="42.90633" lon="1.31372">
        <ele>901</ele>
        <time>2015-08-12T11:08:45.169Z</time>
      </trkpt>
      <trkpt lat="42.90632" lon="1.31372">
        <ele>901</ele>
        <time>2015-08-12T11:08:46.144Z</time>
      </trkpt>
      <trkpt lat="42.90624" lon="1.31371">
        <ele>900.4</ele>
        <time>2015-08-12T11:08:50.166Z</time>
      </trkpt>
      <trkpt lat="42.90622" lon="1.3137">
        <ele>900.2</ele>
        <time>2015-08-12T11:08:51.147Z</time>
      </trkpt>
      <trkpt lat="42.90614" lon="1.31365">
        <ele>899.7</ele>
        <time>2015-08-12T11:08:58.168Z</time>
      </trkpt>
      <trkpt lat="42.90613" lon="1.31364">
        <ele>899.6</ele>
        <time>2015-08-12T11:08:59.144Z</time>
      </trkpt>
      <trkpt lat="42.90607" lon="1.31359">
        <ele>899.3</ele>
        <time>2015-08-12T11:09:03.169Z</time>
      </trkpt>
      <trkpt lat="42.90605" lon="1.31357">
        <ele>899.2</ele>
        <time>2015-08-12T11:09:04.145Z</time>
      </trkpt>
      <trkpt lat="42.90598" lon="1.31351">
        <ele>898.9</ele>
        <time>2015-08-12T11:09:07.166Z</time>
      </trkpt>
      <trkpt lat="42.90597" lon="1.31349">
        <ele>899</ele>
        <time>2015-08-12T11:09:08.144Z</time>
      </trkpt>
      <trkpt lat="42.90589" lon="1.31346">
        <ele>898.7</ele>
        <time>2015-08-12T11:09:15.170Z</time>
      </trkpt>
      <trkpt lat="42.90588" lon="1.31346">
        <ele>898.7</ele>
        <time>2015-08-12T11:09:16.145Z</time>
      </trkpt>
      <trkpt lat="42.90579" lon="1.31351">
        <ele>898.7</ele>
        <time>2015-08-12T11:09:22.166Z</time>
      </trkpt>
      <trkpt lat="42.90579" lon="1.31352">
        <ele>898.6</ele>
        <time>2015-08-12T11:09:23.145Z</time>
      </trkpt>
      <trkpt lat="42.90577" lon="1.31363">
        <ele>897.8</ele>
        <time>2015-08-12T11:09:29.345Z</time>
      </trkpt>
      <trkpt lat="42.90578" lon="1.31366">
        <ele>897.6</ele>
        <time>2015-08-12T11:09:30.144Z</time>
      </trkpt>
      <trkpt lat="42.9058" lon="1.31377">
        <ele>896.8</ele>
        <time>2015-08-12T11:09:35.167Z</time>
      </trkpt>
      <trkpt lat="42.9058" lon="1.31379">
        <ele>896.7</ele>
        <time>2015-08-12T11:09:36.144Z</time>
      </trkpt>
      <trkpt lat="42.90579" lon="1.3139">
        <ele>896</ele>
        <time>2015-08-12T11:09:40.167Z</time>
      </trkpt>
      <trkpt lat="42.90579" lon="1.31392">
        <ele>895.7</ele>
        <time>2015-08-12T11:09:41.145Z</time>
      </trkpt>
      <trkpt lat="42.90575" lon="1.31402">
        <ele>894.4</ele>
        <time>2015-08-12T11:09:47.167Z</time>
      </trkpt>
      <trkpt lat="42.90575" lon="1.31403">
        <ele>894.3</ele>
        <time>2015-08-12T11:09:48.144Z</time>
      </trkpt>
      <trkpt lat="42.90576" lon="1.31413">
        <ele>893.5</ele>
        <time>2015-08-12T11:09:52.167Z</time>
      </trkpt>
      <trkpt lat="42.90575" lon="1.31416">
        <ele>893.3</ele>
        <time>2015-08-12T11:09:53.145Z</time>
      </trkpt>
      <trkpt lat="42.9057" lon="1.31425">
        <ele>892</ele>
        <time>2015-08-12T11:09:57.170Z</time>
      </trkpt>
      <trkpt lat="42.90569" lon="1.31427">
        <ele>891.7</ele>
        <time>2015-08-12T11:09:58.144Z</time>
      </trkpt>
      <trkpt lat="42.90567" lon="1.31436">
        <ele>890.9</ele>
        <time>2015-08-12T11:10:02.167Z</time>
      </trkpt>
      <trkpt lat="42.90565" lon="1.31439">
        <ele>890.7</ele>
        <time>2015-08-12T11:10:03.147Z</time>
      </trkpt>
      <trkpt lat="42.90562" lon="1.3145">
        <ele>890.5</ele>
        <time>2015-08-12T11:10:07.166Z</time>
      </trkpt>
      <trkpt lat="42.90561" lon="1.31452">
        <ele>890.4</ele>
        <time>2015-08-12T11:10:08.144Z</time>
      </trkpt>
      <trkpt lat="42.90558" lon="1.31461">
        <ele>890.4</ele>
        <time>2015-08-12T11:10:12.179Z</time>
      </trkpt>
      <trkpt lat="42.90557" lon="1.31463">
        <ele>890.5</ele>
        <time>2015-08-12T11:10:13.144Z</time>
      </trkpt>
      <trkpt lat="42.90554" lon="1.31475">
        <ele>890.6</ele>
        <time>2015-08-12T11:10:18.167Z</time>
      </trkpt>
      <trkpt lat="42.90554" lon="1.31477">
        <ele>890.7</ele>
        <time>2015-08-12T11:10:19.156Z</time>
      </trkpt>
      <trkpt lat="42.9055" lon="1.31487">
        <ele>890.4</ele>
        <time>2015-08-12T11:10:24.178Z</time>
      </trkpt>
      <trkpt lat="42.90549" lon="1.31489">
        <ele>890.3</ele>
        <time>2015-08-12T11:10:25.144Z</time>
      </trkpt>
      <trkpt lat="42.90546" lon="1.31499">
        <ele>890.1</ele>
        <time>2015-08-12T11:10:30.167Z</time>
      </trkpt>
      <trkpt lat="42.90546" lon="1.31502">
        <ele>890</ele>
        <time>2015-08-12T11:10:31.149Z</time>
      </trkpt>
      <trkpt lat="42.90546" lon="1.31512">
        <ele>890.2</ele>
        <time>2015-08-12T11:10:36.168Z</time>
      </trkpt>
      <trkpt lat="42.90546" lon="1.31514">
        <ele>890.1</ele>
        <time>2015-08-12T11:10:37.144Z</time>
      </trkpt>
      <trkpt lat="42.90545" lon="1.31524">
        <ele>890.1</ele>
        <time>2015-08-12T11:10:41.167Z</time>
      </trkpt>
      <trkpt lat="42.90545" lon="1.31527">
        <ele>890.1</ele>
        <time>2015-08-12T11:10:42.144Z</time>
      </trkpt>
      <trkpt lat="42.9054" lon="1.31537">
        <ele>890.2</ele>
        <time>2015-08-12T11:10:47.167Z</time>
      </trkpt>
      <trkpt lat="42.90539" lon="1.31539">
        <ele>890.2</ele>
        <time>2015-08-12T11:10:48.145Z</time>
      </trkpt>
      <trkpt lat="42.90534" lon="1.31547">
        <ele>890.6</ele>
        <time>2015-08-12T11:10:53.166Z</time>
      </trkpt>
      <trkpt lat="42.90533" lon="1.31549">
        <ele>890.7</ele>
        <time>2015-08-12T11:10:54.146Z</time>
      </trkpt>
      <trkpt lat="42.90528" lon="1.31559">
        <ele>891.5</ele>
        <time>2015-08-12T11:10:58.167Z</time>
      </trkpt>
      <trkpt lat="42.90527" lon="1.31561">
        <ele>891.5</ele>
        <time>2015-08-12T11:10:59.144Z</time>
      </trkpt>
      <trkpt lat="42.90524" lon="1.3157">
        <ele>891.5</ele>
        <time>2015-08-12T11:11:03.172Z</time>
      </trkpt>
      <trkpt lat="42.90523" lon="1.31572">
        <ele>891.6</ele>
        <time>2015-08-12T11:11:04.144Z</time>
      </trkpt>
      <trkpt lat="42.90519" lon="1.31581">
        <ele>892.3</ele>
        <time>2015-08-12T11:11:08.167Z</time>
      </trkpt>
      <trkpt lat="42.90518" lon="1.31583">
        <ele>892.4</ele>
        <time>2015-08-12T11:11:09.147Z</time>
      </trkpt>
      <trkpt lat="42.90514" lon="1.31593">
        <ele>892.3</ele>
        <time>2015-08-12T11:11:14.205Z</time>
      </trkpt>
      <trkpt lat="42.90514" lon="1.31594">
        <ele>892.2</ele>
        <time>2015-08-12T11:11:15.147Z</time>
      </trkpt>
      <trkpt lat="42.90512" lon="1.31605">
        <ele>891.9</ele>
        <time>2015-08-12T11:11:21.197Z</time>
      </trkpt>
      <trkpt lat="42.90511" lon="1.31607">
        <ele>892.2</ele>
        <time>2015-08-12T11:11:22.144Z</time>
      </trkpt>
      <trkpt lat="42.90508" lon="1.31617">
        <ele>892.1</ele>
        <time>2015-08-12T11:11:27.170Z</time>
      </trkpt>
      <trkpt lat="42.90507" lon="1.31619">
        <ele>892.1</ele>
        <time>2015-08-12T11:11:28.144Z</time>
      </trkpt>
      <trkpt lat="42.90504" lon="1.31628">
        <ele>891.9</ele>
        <time>2015-08-12T11:11:34.167Z</time>
      </trkpt>
      <trkpt lat="42.90502" lon="1.3163">
        <ele>891.9</ele>
        <time>2015-08-12T11:11:35.144Z</time>
      </trkpt>
      <trkpt lat="42.90498" lon="1.3164">
        <ele>891.5</ele>
        <time>2015-08-12T11:11:40.167Z</time>
      </trkpt>
      <trkpt lat="42.90497" lon="1.31641">
        <ele>891.5</ele>
        <time>2015-08-12T11:11:41.145Z</time>
      </trkpt>
      <trkpt lat="42.9049" lon="1.31649">
        <ele>891.6</ele>
        <time>2015-08-12T11:11:46.166Z</time>
      </trkpt>
      <trkpt lat="42.90488" lon="1.31651">
        <ele>891.8</ele>
        <time>2015-08-12T11:11:47.144Z</time>
      </trkpt>
      <trkpt lat="42.90481" lon="1.31658">
        <ele>891.7</ele>
        <time>2015-08-12T11:11:52.167Z</time>
      </trkpt>
      <trkpt lat="42.9048" lon="1.31659">
        <ele>891.7</ele>
        <time>2015-08-12T11:11:53.144Z</time>
      </trkpt>
      <trkpt lat="42.90473" lon="1.31666">
        <ele>891.6</ele>
        <time>2015-08-12T11:11:58.167Z</time>
      </trkpt>
      <trkpt lat="42.90471" lon="1.31667">
        <ele>891.7</ele>
        <time>2015-08-12T11:11:59.166Z</time>
      </trkpt>
      <trkpt lat="42.90467" lon="1.31671">
        <ele>891</ele>
        <time>2015-08-12T11:12:02.167Z</time>
      </trkpt>
      <trkpt lat="42.90463" lon="1.31673">
        <ele>890.6</ele>
        <time>2015-08-12T11:12:03.147Z</time>
      </trkpt>
      <trkpt lat="42.9046" lon="1.31684">
        <ele>889.7</ele>
        <time>2015-08-12T11:12:11.167Z</time>
      </trkpt>
      <trkpt lat="42.90459" lon="1.31685">
        <ele>889.6</ele>
        <time>2015-08-12T11:12:12.145Z</time>
      </trkpt>
      <trkpt lat="42.90452" lon="1.31691">
        <ele>888.7</ele>
        <time>2015-08-12T11:12:17.167Z</time>
      </trkpt>
      <trkpt lat="42.90452" lon="1.31693">
        <ele>888.6</ele>
        <time>2015-08-12T11:12:18.144Z</time>
      </trkpt>
      <trkpt lat="42.90446" lon="1.31703">
        <ele>887.7</ele>
        <time>2015-08-12T11:12:24.189Z</time>
      </trkpt>
      <trkpt lat="42.90446" lon="1.31705">
        <ele>887.4</ele>
        <time>2015-08-12T11:12:25.145Z</time>
      </trkpt>
      <trkpt lat="42.90439" lon="1.31714">
        <ele>886.4</ele>
        <time>2015-08-12T11:12:30.167Z</time>
      </trkpt>
      <trkpt lat="42.90438" lon="1.31715">
        <ele>886.2</ele>
        <time>2015-08-12T11:12:31.149Z</time>
      </trkpt>
      <trkpt lat="42.90432" lon="1.31723">
        <ele>885.5</ele>
        <time>2015-08-12T11:12:35.167Z</time>
      </trkpt>
      <trkpt lat="42.9043" lon="1.31725">
        <ele>885.3</ele>
        <time>2015-08-12T11:12:36.145Z</time>
      </trkpt>
      <trkpt lat="42.90425" lon="1.31732">
        <ele>884.2</ele>
        <time>2015-08-12T11:12:41.167Z</time>
      </trkpt>
      <trkpt lat="42.90424" lon="1.31734">
        <ele>884</ele>
        <time>2015-08-12T11:12:42.144Z</time>
      </trkpt>
      <trkpt lat="42.90419" lon="1.31744">
        <ele>883.2</ele>
        <time>2015-08-12T11:12:48.167Z</time>
      </trkpt>
      <trkpt lat="42.90418" lon="1.31746">
        <ele>882.9</ele>
        <time>2015-08-12T11:12:49.145Z</time>
      </trkpt>
      <trkpt lat="42.90413" lon="1.31737">
        <ele>881.5</ele>
        <time>2015-08-12T11:12:56.168Z</time>
      </trkpt>
      <trkpt lat="42.90413" lon="1.31735">
        <ele>881.5</ele>
        <time>2015-08-12T11:12:57.147Z</time>
      </trkpt>
      <trkpt lat="42.90416" lon="1.31724">
        <ele>880.7</ele>
        <time>2015-08-12T11:13:03.280Z</time>
      </trkpt>
      <trkpt lat="42.90416" lon="1.31723">
        <ele>880.6</ele>
        <time>2015-08-12T11:13:04.145Z</time>
      </trkpt>
      <trkpt lat="42.90421" lon="1.31713">
        <ele>879.5</ele>
        <time>2015-08-12T11:13:10.167Z</time>
      </trkpt>
      <trkpt lat="42.90422" lon="1.31712">
        <ele>879.4</ele>
        <time>2015-08-12T11:13:11.145Z</time>
      </trkpt>
      <trkpt lat="42.90425" lon="1.31701">
        <ele>878.3</ele>
        <time>2015-08-12T11:13:18.167Z</time>
      </trkpt>
      <trkpt lat="42.90425" lon="1.31699">
        <ele>878.1</ele>
        <time>2015-08-12T11:13:19.174Z</time>
      </trkpt>
      <trkpt lat="42.9043" lon="1.31689">
        <ele>877.7</ele>
        <time>2015-08-12T11:13:24.190Z</time>
      </trkpt>
      <trkpt lat="42.90431" lon="1.31686">
        <ele>878</ele>
        <time>2015-08-12T11:13:25.144Z</time>
      </trkpt>
      <trkpt lat="42.90435" lon="1.31676">
        <ele>877.9</ele>
        <time>2015-08-12T11:13:31.190Z</time>
      </trkpt>
      <trkpt lat="42.90436" lon="1.31675">
        <ele>877.7</ele>
        <time>2015-08-12T11:13:32.144Z</time>
      </trkpt>
      <trkpt lat="42.90436" lon="1.31665">
        <ele>876.6</ele>
        <time>2015-08-12T11:13:39.172Z</time>
      </trkpt>
      <trkpt lat="42.90437" lon="1.31662">
        <ele>876.4</ele>
        <time>2015-08-12T11:13:40.143Z</time>
      </trkpt>
      <trkpt lat="42.90439" lon="1.31652">
        <ele>876.1</ele>
        <time>2015-08-12T11:13:44.167Z</time>
      </trkpt>
      <trkpt lat="42.9044" lon="1.3165">
        <ele>875.9</ele>
        <time>2015-08-12T11:13:45.146Z</time>
      </trkpt>
      <trkpt lat="42.90445" lon="1.31642">
        <ele>875.1</ele>
        <time>2015-08-12T11:13:50.278Z</time>
      </trkpt>
      <trkpt lat="42.90446" lon="1.3164">
        <ele>874.9</ele>
        <time>2015-08-12T11:13:51.146Z</time>
      </trkpt>
      <trkpt lat="42.90449" lon="1.3163">
        <ele>874</ele>
        <time>2015-08-12T11:13:56.167Z</time>
      </trkpt>
      <trkpt lat="42.9045" lon="1.31627">
        <ele>873.7</ele>
        <time>2015-08-12T11:13:57.146Z</time>
      </trkpt>
      <trkpt lat="42.90456" lon="1.31618">
        <ele>872.1</ele>
        <time>2015-08-12T11:14:01.166Z</time>
      </trkpt>
      <trkpt lat="42.90457" lon="1.31616">
        <ele>871.7</ele>
        <time>2015-08-12T11:14:02.144Z</time>
      </trkpt>
      <trkpt lat="42.90461" lon="1.31607">
        <ele>869.8</ele>
        <time>2015-08-12T11:14:06.167Z</time>
      </trkpt>
      <trkpt lat="42.90462" lon="1.31605">
        <ele>869.4</ele>
        <time>2015-08-12T11:14:07.144Z</time>
      </trkpt>
      <trkpt lat="42.90465" lon="1.31595">
        <ele>868.4</ele>
        <time>2015-08-12T11:14:12.167Z</time>
      </trkpt>
      <trkpt lat="42.90466" lon="1.31592">
        <ele>868.3</ele>
        <time>2015-08-12T11:14:13.144Z</time>
      </trkpt>
      <trkpt lat="42.90469" lon="1.31581">
        <ele>867.7</ele>
        <time>2015-08-12T11:14:18.278Z</time>
      </trkpt>
      <trkpt lat="42.90469" lon="1.31578">
        <ele>867.6</ele>
        <time>2015-08-12T11:14:19.144Z</time>
      </trkpt>
      <trkpt lat="42.9047" lon="1.31567">
        <ele>867</ele>
        <time>2015-08-12T11:14:23.167Z</time>
      </trkpt>
      <trkpt lat="42.9047" lon="1.31565">
        <ele>866.5</ele>
        <time>2015-08-12T11:14:24.145Z</time>
      </trkpt>
      <trkpt lat="42.90472" lon="1.31554">
        <ele>864.8</ele>
        <time>2015-08-12T11:14:29.167Z</time>
      </trkpt>
      <trkpt lat="42.90473" lon="1.31552">
        <ele>864.6</ele>
        <time>2015-08-12T11:14:30.144Z</time>
      </trkpt>
      <trkpt lat="42.90477" lon="1.31542">
        <ele>864.1</ele>
        <time>2015-08-12T11:14:35.167Z</time>
      </trkpt>
      <trkpt lat="42.90478" lon="1.31539">
        <ele>864.1</ele>
        <time>2015-08-12T11:14:36.144Z</time>
      </trkpt>
      <trkpt lat="42.90483" lon="1.31531">
        <ele>863.6</ele>
        <time>2015-08-12T11:14:40.166Z</time>
      </trkpt>
      <trkpt lat="42.90484" lon="1.31529">
        <ele>863.4</ele>
        <time>2015-08-12T11:14:41.157Z</time>
      </trkpt>
      <trkpt lat="42.90484" lon="1.31518">
        <ele>861.6</ele>
        <time>2015-08-12T11:14:48.166Z</time>
      </trkpt>
      <trkpt lat="42.90484" lon="1.31516">
        <ele>861.4</ele>
        <time>2015-08-12T11:14:49.144Z</time>
      </trkpt>
      <trkpt lat="42.90482" lon="1.31506">
        <ele>860.4</ele>
        <time>2015-08-12T11:14:53.167Z</time>
      </trkpt>
      <trkpt lat="42.90482" lon="1.31504">
        <ele>860.2</ele>
        <time>2015-08-12T11:14:54.144Z</time>
      </trkpt>
      <trkpt lat="42.90481" lon="1.31492">
        <ele>859.5</ele>
        <time>2015-08-12T11:14:58.166Z</time>
      </trkpt>
      <trkpt lat="42.90481" lon="1.31491">
        <ele>859.3</ele>
        <time>2015-08-12T11:14:59.144Z</time>
      </trkpt>
      <trkpt lat="42.90482" lon="1.31479">
        <ele>858.5</ele>
        <time>2015-08-12T11:15:05.167Z</time>
      </trkpt>
      <trkpt lat="42.90482" lon="1.31477">
        <ele>858.4</ele>
        <time>2015-08-12T11:15:06.144Z</time>
      </trkpt>
      <trkpt lat="42.90485" lon="1.31466">
        <ele>857.6</ele>
        <time>2015-08-12T11:15:12.166Z</time>
      </trkpt>
      <trkpt lat="42.90485" lon="1.31464">
        <ele>857.5</ele>
        <time>2015-08-12T11:15:13.144Z</time>
      </trkpt>
      <trkpt lat="42.90488" lon="1.31453">
        <ele>856.8</ele>
        <time>2015-08-12T11:15:18.167Z</time>
      </trkpt>
      <trkpt lat="42.90488" lon="1.31451">
        <ele>856.7</ele>
        <time>2015-08-12T11:15:19.144Z</time>
      </trkpt>
      <trkpt lat="42.90489" lon="1.3144">
        <ele>855.8</ele>
        <time>2015-08-12T11:15:25.167Z</time>
      </trkpt>
      <trkpt lat="42.9049" lon="1.31439">
        <ele>855.7</ele>
        <time>2015-08-12T11:15:26.143Z</time>
      </trkpt>
      <trkpt lat="42.90492" lon="1.31427">
        <ele>854.9</ele>
        <time>2015-08-12T11:15:31.166Z</time>
      </trkpt>
      <trkpt lat="42.90492" lon="1.31425">
        <ele>854.7</ele>
        <time>2015-08-12T11:15:32.144Z</time>
      </trkpt>
      <trkpt lat="42.90486" lon="1.31418">
        <ele>854.2</ele>
        <time>2015-08-12T11:15:36.167Z</time>
      </trkpt>
      <trkpt lat="42.90485" lon="1.31417">
        <ele>854.2</ele>
        <time>2015-08-12T11:15:37.143Z</time>
      </trkpt>
      <trkpt lat="42.90481" lon="1.31428">
        <ele>853.1</ele>
        <time>2015-08-12T11:15:44.167Z</time>
      </trkpt>
      <trkpt lat="42.90482" lon="1.31431">
        <ele>852.9</ele>
        <time>2015-08-12T11:15:45.146Z</time>
      </trkpt>
      <trkpt lat="42.9048" lon="1.31441">
        <ele>852.3</ele>
        <time>2015-08-12T11:15:50.167Z</time>
      </trkpt>
      <trkpt lat="42.90479" lon="1.31443">
        <ele>852.1</ele>
        <time>2015-08-12T11:15:51.146Z</time>
      </trkpt>
      <trkpt lat="42.90476" lon="1.31454">
        <ele>851.8</ele>
        <time>2015-08-12T11:15:56.166Z</time>
      </trkpt>
      <trkpt lat="42.90475" lon="1.31457">
        <ele>851.7</ele>
        <time>2015-08-12T11:15:57.146Z</time>
      </trkpt>
      <trkpt lat="42.90471" lon="1.31465">
        <ele>851.6</ele>
        <time>2015-08-12T11:16:01.167Z</time>
      </trkpt>
      <trkpt lat="42.9047" lon="1.31467">
        <ele>851.6</ele>
        <time>2015-08-12T11:16:02.144Z</time>
      </trkpt>
      <trkpt lat="42.90466" lon="1.31478">
        <ele>850.5</ele>
        <time>2015-08-12T11:16:08.167Z</time>
      </trkpt>
      <trkpt lat="42.90466" lon="1.31479">
        <ele>850.5</ele>
        <time>2015-08-12T11:16:09.165Z</time>
      </trkpt>
      <trkpt lat="42.90462" lon="1.31489">
        <ele>849.7</ele>
        <time>2015-08-12T11:16:15.169Z</time>
      </trkpt>
      <trkpt lat="42.9046" lon="1.3149">
        <ele>849.6</ele>
        <time>2015-08-12T11:16:16.165Z</time>
      </trkpt>
      <trkpt lat="42.90454" lon="1.31494">
        <ele>848.9</ele>
        <time>2015-08-12T11:16:19.191Z</time>
      </trkpt>
      <trkpt lat="42.90452" lon="1.31495">
        <ele>848.6</ele>
        <time>2015-08-12T11:16:20.144Z</time>
      </trkpt>
      <trkpt lat="42.90444" lon="1.31501">
        <ele>847.3</ele>
        <time>2015-08-12T11:16:25.167Z</time>
      </trkpt>
      <trkpt lat="42.90443" lon="1.31503">
        <ele>847.2</ele>
        <time>2015-08-12T11:16:26.144Z</time>
      </trkpt>
      <trkpt lat="42.90437" lon="1.31509">
        <ele>846.8</ele>
        <time>2015-08-12T11:16:31.167Z</time>
      </trkpt>
      <trkpt lat="42.90436" lon="1.31511">
        <ele>846.7</ele>
        <time>2015-08-12T11:16:32.144Z</time>
      </trkpt>
      <trkpt lat="42.90435" lon="1.31521">
        <ele>846.2</ele>
        <time>2015-08-12T11:16:37.166Z</time>
      </trkpt>
      <trkpt lat="42.90434" lon="1.31523">
        <ele>846.3</ele>
        <time>2015-08-12T11:16:38.144Z</time>
      </trkpt>
      <trkpt lat="42.90431" lon="1.31533">
        <ele>845.7</ele>
        <time>2015-08-12T11:16:44.167Z</time>
      </trkpt>
      <trkpt lat="42.90431" lon="1.31536">
        <ele>845.5</ele>
        <time>2015-08-12T11:16:45.158Z</time>
      </trkpt>
      <trkpt lat="42.90423" lon="1.31541">
        <ele>845.1</ele>
        <time>2015-08-12T11:16:50.179Z</time>
      </trkpt>
      <trkpt lat="42.90421" lon="1.31543">
        <ele>845</ele>
        <time>2015-08-12T11:16:51.146Z</time>
      </trkpt>
      <trkpt lat="42.90415" lon="1.31548">
        <ele>844.1</ele>
        <time>2015-08-12T11:16:56.279Z</time>
      </trkpt>
      <trkpt lat="42.90413" lon="1.3155">
        <ele>844</ele>
        <time>2015-08-12T11:16:57.146Z</time>
      </trkpt>
      <trkpt lat="42.90409" lon="1.31558">
        <ele>843.8</ele>
        <time>2015-08-12T11:17:01.167Z</time>
      </trkpt>
      <trkpt lat="42.90406" lon="1.31559">
        <ele>843.5</ele>
        <time>2015-08-12T11:17:02.144Z</time>
      </trkpt>
      <trkpt lat="42.904" lon="1.31566">
        <ele>842.9</ele>
        <time>2015-08-12T11:17:07.166Z</time>
      </trkpt>
      <trkpt lat="42.90399" lon="1.31567">
        <ele>842.8</ele>
        <time>2015-08-12T11:17:08.144Z</time>
      </trkpt>
      <trkpt lat="42.90392" lon="1.31575">
        <ele>841.9</ele>
        <time>2015-08-12T11:17:13.166Z</time>
      </trkpt>
      <trkpt lat="42.90392" lon="1.31575">
        <ele>841.8</ele>
        <time>2015-08-12T11:17:14.144Z</time>
      </trkpt>
      <trkpt lat="42.90385" lon="1.31584">
        <ele>840.4</ele>
        <time>2015-08-12T11:17:19.167Z</time>
      </trkpt>
      <trkpt lat="42.90384" lon="1.31585">
        <ele>840.1</ele>
        <time>2015-08-12T11:17:20.144Z</time>
      </trkpt>
      <trkpt lat="42.90376" lon="1.31591">
        <ele>838.2</ele>
        <time>2015-08-12T11:17:25.167Z</time>
      </trkpt>
      <trkpt lat="42.90375" lon="1.31592">
        <ele>837.9</ele>
        <time>2015-08-12T11:17:26.144Z</time>
      </trkpt>
      <trkpt lat="42.9037" lon="1.31601">
        <ele>836.3</ele>
        <time>2015-08-12T11:17:32.167Z</time>
      </trkpt>
      <trkpt lat="42.90369" lon="1.31603">
        <ele>836</ele>
        <time>2015-08-12T11:17:33.145Z</time>
      </trkpt>
      <trkpt lat="42.90363" lon="1.31608">
        <ele>835</ele>
        <time>2015-08-12T11:17:38.167Z</time>
      </trkpt>
      <trkpt lat="42.9036" lon="1.31609">
        <ele>834.9</ele>
        <time>2015-08-12T11:17:39.146Z</time>
      </trkpt>
      <trkpt lat="42.90355" lon="1.31617">
        <ele>834.1</ele>
        <time>2015-08-12T11:17:44.167Z</time>
      </trkpt>
      <trkpt lat="42.90354" lon="1.31618">
        <ele>834</ele>
        <time>2015-08-12T11:17:45.146Z</time>
      </trkpt>
      <trkpt lat="42.9035" lon="1.31627">
        <ele>833.7</ele>
        <time>2015-08-12T11:17:49.167Z</time>
      </trkpt>
      <trkpt lat="42.90349" lon="1.31629">
        <ele>833.6</ele>
        <time>2015-08-12T11:17:50.144Z</time>
      </trkpt>
      <trkpt lat="42.90341" lon="1.31636">
        <ele>832.7</ele>
        <time>2015-08-12T11:17:55.167Z</time>
      </trkpt>
      <trkpt lat="42.9034" lon="1.31637">
        <ele>832.6</ele>
        <time>2015-08-12T11:17:56.144Z</time>
      </trkpt>
      <trkpt lat="42.90334" lon="1.31645">
        <ele>831.6</ele>
        <time>2015-08-12T11:18:01.167Z</time>
      </trkpt>
      <trkpt lat="42.90333" lon="1.31646">
        <ele>831.3</ele>
        <time>2015-08-12T11:18:02.144Z</time>
      </trkpt>
      <trkpt lat="42.90326" lon="1.31653">
        <ele>829.6</ele>
        <time>2015-08-12T11:18:08.167Z</time>
      </trkpt>
      <trkpt lat="42.90325" lon="1.31655">
        <ele>829.2</ele>
        <time>2015-08-12T11:18:09.146Z</time>
      </trkpt>
      <trkpt lat="42.90322" lon="1.31666">
        <ele>827.7</ele>
        <time>2015-08-12T11:18:15.169Z</time>
      </trkpt>
      <trkpt lat="42.90321" lon="1.31667">
        <ele>827.5</ele>
        <time>2015-08-12T11:18:16.144Z</time>
      </trkpt>
      <trkpt lat="42.90318" lon="1.31677">
        <ele>826.8</ele>
        <time>2015-08-12T11:18:21.169Z</time>
      </trkpt>
      <trkpt lat="42.90317" lon="1.31678">
        <ele>826.7</ele>
        <time>2015-08-12T11:18:22.144Z</time>
      </trkpt>
      <trkpt lat="42.90314" lon="1.31688">
        <ele>826.5</ele>
        <time>2015-08-12T11:18:27.172Z</time>
      </trkpt>
      <trkpt lat="42.90313" lon="1.3169">
        <ele>826.6</ele>
        <time>2015-08-12T11:18:28.144Z</time>
      </trkpt>
      <trkpt lat="42.9031" lon="1.31701">
        <ele>825.8</ele>
        <time>2015-08-12T11:18:34.167Z</time>
      </trkpt>
      <trkpt lat="42.9031" lon="1.31703">
        <ele>825.8</ele>
        <time>2015-08-12T11:18:35.144Z</time>
      </trkpt>
      <trkpt lat="42.90307" lon="1.31713">
        <ele>825.5</ele>
        <time>2015-08-12T11:18:40.167Z</time>
      </trkpt>
      <trkpt lat="42.90306" lon="1.31715">
        <ele>825.4</ele>
        <time>2015-08-12T11:18:41.144Z</time>
      </trkpt>
      <trkpt lat="42.90305" lon="1.31726">
        <ele>824.8</ele>
        <time>2015-08-12T11:18:47.167Z</time>
      </trkpt>
      <trkpt lat="42.90304" lon="1.31728">
        <ele>824.7</ele>
        <time>2015-08-12T11:18:48.144Z</time>
      </trkpt>
      <trkpt lat="42.90299" lon="1.31737">
        <ele>823.6</ele>
        <time>2015-08-12T11:18:53.167Z</time>
      </trkpt>
      <trkpt lat="42.90298" lon="1.31738">
        <ele>823.4</ele>
        <time>2015-08-12T11:18:54.144Z</time>
      </trkpt>
      <trkpt lat="42.9029" lon="1.31735">
        <ele>822.1</ele>
        <time>2015-08-12T11:18:59.223Z</time>
      </trkpt>
      <trkpt lat="42.90289" lon="1.31733">
        <ele>821.8</ele>
        <time>2015-08-12T11:19:00.155Z</time>
      </trkpt>
      <trkpt lat="42.90291" lon="1.31721">
        <ele>819.8</ele>
        <time>2015-08-12T11:19:06.167Z</time>
      </trkpt>
      <trkpt lat="42.90292" lon="1.31719">
        <ele>819.5</ele>
        <time>2015-08-12T11:19:07.144Z</time>
      </trkpt>
      <trkpt lat="42.90295" lon="1.31708">
        <ele>817.9</ele>
        <time>2015-08-12T11:19:13.167Z</time>
      </trkpt>
      <trkpt lat="42.90295" lon="1.31706">
        <ele>817.8</ele>
        <time>2015-08-12T11:19:14.156Z</time>
      </trkpt>
      <trkpt lat="42.90297" lon="1.31694">
        <ele>817.1</ele>
        <time>2015-08-12T11:19:20.167Z</time>
      </trkpt>
      <trkpt lat="42.90298" lon="1.31692">
        <ele>817.1</ele>
        <time>2015-08-12T11:19:21.151Z</time>
      </trkpt>
      <trkpt lat="42.903" lon="1.31681">
        <ele>816.6</ele>
        <time>2015-08-12T11:19:27.169Z</time>
      </trkpt>
      <trkpt lat="42.903" lon="1.31678">
        <ele>816.5</ele>
        <time>2015-08-12T11:19:28.144Z</time>
      </trkpt>
      <trkpt lat="42.90297" lon="1.31668">
        <ele>816.2</ele>
        <time>2015-08-12T11:19:33.170Z</time>
      </trkpt>
      <trkpt lat="42.90297" lon="1.31666">
        <ele>816.1</ele>
        <time>2015-08-12T11:19:34.144Z</time>
      </trkpt>
      <trkpt lat="42.90298" lon="1.31656">
        <ele>815.3</ele>
        <time>2015-08-12T11:19:39.169Z</time>
      </trkpt>
      <trkpt lat="42.90299" lon="1.31653">
        <ele>815.2</ele>
        <time>2015-08-12T11:19:40.144Z</time>
      </trkpt>
      <trkpt lat="42.90302" lon="1.31644">
        <ele>814.5</ele>
        <time>2015-08-12T11:19:44.167Z</time>
      </trkpt>
      <trkpt lat="42.90303" lon="1.31642">
        <ele>814.2</ele>
        <time>2015-08-12T11:19:45.159Z</time>
      </trkpt>
      <trkpt lat="42.90307" lon="1.31632">
        <ele>813.7</ele>
        <time>2015-08-12T11:19:48.169Z</time>
      </trkpt>
      <trkpt lat="42.90308" lon="1.31629">
        <ele>813.7</ele>
        <time>2015-08-12T11:19:49.144Z</time>
      </trkpt>
      <trkpt lat="42.90312" lon="1.31619">
        <ele>813.1</ele>
        <time>2015-08-12T11:19:54.167Z</time>
      </trkpt>
      <trkpt lat="42.90313" lon="1.31617">
        <ele>812.9</ele>
        <time>2015-08-12T11:19:55.144Z</time>
      </trkpt>
      <trkpt lat="42.90317" lon="1.31608">
        <ele>812</ele>
        <time>2015-08-12T11:20:01.168Z</time>
      </trkpt>
      <trkpt lat="42.90317" lon="1.31605">
        <ele>811.6</ele>
        <time>2015-08-12T11:20:02.144Z</time>
      </trkpt>
      <trkpt lat="42.90319" lon="1.31595">
        <ele>810.4</ele>
        <time>2015-08-12T11:20:07.168Z</time>
      </trkpt>
      <trkpt lat="42.9032" lon="1.31592">
        <ele>810.3</ele>
        <time>2015-08-12T11:20:08.145Z</time>
      </trkpt>
      <trkpt lat="42.90322" lon="1.31582">
        <ele>810.2</ele>
        <time>2015-08-12T11:20:12.167Z</time>
      </trkpt>
      <trkpt lat="42.90323" lon="1.31579">
        <ele>810.4</ele>
        <time>2015-08-12T11:20:13.144Z</time>
      </trkpt>
      <trkpt lat="42.90326" lon="1.31569">
        <ele>810.1</ele>
        <time>2015-08-12T11:20:18.167Z</time>
      </trkpt>
      <trkpt lat="42.90327" lon="1.31568">
        <ele>810</ele>
        <time>2015-08-12T11:20:19.144Z</time>
      </trkpt>
      <trkpt lat="42.90331" lon="1.31561">
        <ele>809.5</ele>
        <time>2015-08-12T11:20:22.222Z</time>
      </trkpt>
      <trkpt lat="42.90333" lon="1.31558">
        <ele>809.4</ele>
        <time>2015-08-12T11:20:23.145Z</time>
      </trkpt>
      <trkpt lat="42.90337" lon="1.31549">
        <ele>808</ele>
        <time>2015-08-12T11:20:29.186Z</time>
      </trkpt>
      <trkpt lat="42.90338" lon="1.31547">
        <ele>807.7</ele>
        <time>2015-08-12T11:20:30.144Z</time>
      </trkpt>
      <trkpt lat="42.90342" lon="1.31536">
        <ele>806.4</ele>
        <time>2015-08-12T11:20:36.168Z</time>
      </trkpt>
      <trkpt lat="42.90343" lon="1.31534">
        <ele>806</ele>
        <time>2015-08-12T11:20:37.144Z</time>
      </trkpt>
      <trkpt lat="42.90346" lon="1.31523">
        <ele>803.9</ele>
        <time>2015-08-12T11:20:43.167Z</time>
      </trkpt>
      <trkpt lat="42.90347" lon="1.31522">
        <ele>803.7</ele>
        <time>2015-08-12T11:20:44.144Z</time>
      </trkpt>
      <trkpt lat="42.90351" lon="1.31511">
        <ele>802.6</ele>
        <time>2015-08-12T11:20:50.178Z</time>
      </trkpt>
      <trkpt lat="42.90352" lon="1.31508">
        <ele>802.5</ele>
        <time>2015-08-12T11:20:51.146Z</time>
      </trkpt>
      <trkpt lat="42.90356" lon="1.31499">
        <ele>802.3</ele>
        <time>2015-08-12T11:20:54.167Z</time>
      </trkpt>
      <trkpt lat="42.90356" lon="1.31497">
        <ele>802.2</ele>
        <time>2015-08-12T11:20:55.144Z</time>
      </trkpt>
      <trkpt lat="42.90357" lon="1.31487">
        <ele>802.1</ele>
        <time>2015-08-12T11:20:59.167Z</time>
      </trkpt>
      <trkpt lat="42.90358" lon="1.31484">
        <ele>802.3</ele>
        <time>2015-08-12T11:21:00.145Z</time>
      </trkpt>
      <trkpt lat="42.90358" lon="1.31473">
        <ele>802.1</ele>
        <time>2015-08-12T11:21:05.224Z</time>
      </trkpt>
      <trkpt lat="42.90359" lon="1.31471">
        <ele>801.9</ele>
        <time>2015-08-12T11:21:06.144Z</time>
      </trkpt>
      <trkpt lat="42.90359" lon="1.31461">
        <ele>801.1</ele>
        <time>2015-08-12T11:21:11.168Z</time>
      </trkpt>
      <trkpt lat="42.90359" lon="1.31458">
        <ele>801</ele>
        <time>2015-08-12T11:21:12.144Z</time>
      </trkpt>
      <trkpt lat="42.90361" lon="1.31447">
        <ele>801.1</ele>
        <time>2015-08-12T11:21:16.164Z</time>
      </trkpt>
      <trkpt lat="42.90362" lon="1.31445">
        <ele>801</ele>
        <time>2015-08-12T11:21:17.145Z</time>
      </trkpt>
      <trkpt lat="42.90366" lon="1.31435">
        <ele>800.1</ele>
        <time>2015-08-12T11:21:25.167Z</time>
      </trkpt>
      <trkpt lat="42.90367" lon="1.31433">
        <ele>800</ele>
        <time>2015-08-12T11:21:26.181Z</time>
      </trkpt>
      <trkpt lat="42.90372" lon="1.31425">
        <ele>799.5</ele>
        <time>2015-08-12T11:21:30.167Z</time>
      </trkpt>
      <trkpt lat="42.90373" lon="1.3142">
        <ele>799.5</ele>
        <time>2015-08-12T11:21:31.144Z</time>
      </trkpt>
      <trkpt lat="42.90376" lon="1.31409">
        <ele>799.3</ele>
        <time>2015-08-12T11:21:35.167Z</time>
      </trkpt>
      <trkpt lat="42.90376" lon="1.31407">
        <ele>799.2</ele>
        <time>2015-08-12T11:21:36.145Z</time>
      </trkpt>
      <trkpt lat="42.90379" lon="1.31395">
        <ele>798.3</ele>
        <time>2015-08-12T11:21:43.179Z</time>
      </trkpt>
      <trkpt lat="42.90378" lon="1.31394">
        <ele>798.2</ele>
        <time>2015-08-12T11:21:44.144Z</time>
      </trkpt>
      <trkpt lat="42.90377" lon="1.31383">
        <ele>797.7</ele>
        <time>2015-08-12T11:21:49.168Z</time>
      </trkpt>
      <trkpt lat="42.90378" lon="1.31381">
        <ele>797.7</ele>
        <time>2015-08-12T11:21:50.148Z</time>
      </trkpt>
      <trkpt lat="42.90374" lon="1.31372">
        <ele>797.2</ele>
        <time>2015-08-12T11:21:55.172Z</time>
      </trkpt>
      <trkpt lat="42.90373" lon="1.3137">
        <ele>797.2</ele>
        <time>2015-08-12T11:21:56.790Z</time>
      </trkpt>
      <trkpt lat="42.90374" lon="1.31358">
        <ele>796.8</ele>
        <time>2015-08-12T11:22:02.191Z</time>
      </trkpt>
      <trkpt lat="42.90374" lon="1.31357">
        <ele>796.7</ele>
        <time>2015-08-12T11:22:03.164Z</time>
      </trkpt>
      <trkpt lat="42.9037" lon="1.31348">
        <ele>796.3</ele>
        <time>2015-08-12T11:22:09.583Z</time>
      </trkpt>
      <trkpt lat="42.9037" lon="1.31346">
        <ele>796.2</ele>
        <time>2015-08-12T11:22:10.146Z</time>
      </trkpt>
      <trkpt lat="42.90371" lon="1.31335">
        <ele>795.7</ele>
        <time>2015-08-12T11:22:14.168Z</time>
      </trkpt>
      <trkpt lat="42.90372" lon="1.31334">
        <ele>795.4</ele>
        <time>2015-08-12T11:22:15.149Z</time>
      </trkpt>
      <trkpt lat="42.90374" lon="1.31322">
        <ele>794.5</ele>
        <time>2015-08-12T11:22:20.183Z</time>
      </trkpt>
      <trkpt lat="42.90373" lon="1.3132">
        <ele>794.3</ele>
        <time>2015-08-12T11:22:21.147Z</time>
      </trkpt>
      <trkpt lat="42.90372" lon="1.3131">
        <ele>793.1</ele>
        <time>2015-08-12T11:22:25.168Z</time>
      </trkpt>
      <trkpt lat="42.90372" lon="1.31307">
        <ele>792.9</ele>
        <time>2015-08-12T11:22:26.145Z</time>
      </trkpt>
      <trkpt lat="42.90371" lon="1.31295">
        <ele>792.2</ele>
        <time>2015-08-12T11:22:32.169Z</time>
      </trkpt>
      <trkpt lat="42.9037" lon="1.31294">
        <ele>792.1</ele>
        <time>2015-08-12T11:22:33.148Z</time>
      </trkpt>
      <trkpt lat="42.90366" lon="1.31284">
        <ele>791.4</ele>
        <time>2015-08-12T11:22:40.169Z</time>
      </trkpt>
      <trkpt lat="42.90366" lon="1.31282">
        <ele>791.3</ele>
        <time>2015-08-12T11:22:41.251Z</time>
      </trkpt>
      <trkpt lat="42.90364" lon="1.3127">
        <ele>790.9</ele>
        <time>2015-08-12T11:22:46.168Z</time>
      </trkpt>
      <trkpt lat="42.90364" lon="1.31268">
        <ele>790.8</ele>
        <time>2015-08-12T11:22:47.145Z</time>
      </trkpt>
      <trkpt lat="42.90364" lon="1.31257">
        <ele>790.7</ele>
        <time>2015-08-12T11:22:52.184Z</time>
      </trkpt>
      <trkpt lat="42.90364" lon="1.31255">
        <ele>790.7</ele>
        <time>2015-08-12T11:22:53.145Z</time>
      </trkpt>
      <trkpt lat="42.90363" lon="1.31245">
        <ele>790.8</ele>
        <time>2015-08-12T11:22:59.170Z</time>
      </trkpt>
      <trkpt lat="42.90363" lon="1.31242">
        <ele>790.8</ele>
        <time>2015-08-12T11:23:00.146Z</time>
      </trkpt>
      <trkpt lat="42.90365" lon="1.31233">
        <ele>790.5</ele>
        <time>2015-08-12T11:23:03.169Z</time>
      </trkpt>
      <trkpt lat="42.90365" lon="1.3123">
        <ele>790.4</ele>
        <time>2015-08-12T11:23:04.146Z</time>
      </trkpt>
      <trkpt lat="42.90362" lon="1.3122">
        <ele>786.6</ele>
        <time>2015-08-12T11:23:29.168Z</time>
      </trkpt>
      <trkpt lat="42.90361" lon="1.31218">
        <ele>786.4</ele>
        <time>2015-08-12T11:23:30.145Z</time>
      </trkpt>
      <trkpt lat="42.9036" lon="1.31209">
        <ele>785.3</ele>
        <time>2015-08-12T11:23:35.168Z</time>
      </trkpt>
      <trkpt lat="42.9036" lon="1.31206">
        <ele>785.4</ele>
        <time>2015-08-12T11:23:36.145Z</time>
      </trkpt>
      <trkpt lat="42.90358" lon="1.31196">
        <ele>784.5</ele>
        <time>2015-08-12T11:23:41.168Z</time>
      </trkpt>
      <trkpt lat="42.90358" lon="1.31194">
        <ele>784.2</ele>
        <time>2015-08-12T11:23:42.144Z</time>
      </trkpt>
      <trkpt lat="42.90358" lon="1.31182">
        <ele>782</ele>
        <time>2015-08-12T11:23:48.182Z</time>
      </trkpt>
      <trkpt lat="42.90358" lon="1.3118">
        <ele>781.9</ele>
        <time>2015-08-12T11:23:49.146Z</time>
      </trkpt>
      <trkpt lat="42.90358" lon="1.31168">
        <ele>780.4</ele>
        <time>2015-08-12T11:23:55.169Z</time>
      </trkpt>
      <trkpt lat="42.90358" lon="1.31166">
        <ele>780.3</ele>
        <time>2015-08-12T11:23:56.191Z</time>
      </trkpt>
      <trkpt lat="42.90358" lon="1.31155">
        <ele>780.8</ele>
        <time>2015-08-12T11:24:01.182Z</time>
      </trkpt>
      <trkpt lat="42.90358" lon="1.31153">
        <ele>780.9</ele>
        <time>2015-08-12T11:24:02.145Z</time>
      </trkpt>
      <trkpt lat="42.90353" lon="1.31159">
        <ele>780.6</ele>
        <time>2015-08-12T11:24:11.168Z</time>
      </trkpt>
      <trkpt lat="42.90351" lon="1.31162">
        <ele>780.4</ele>
        <time>2015-08-12T11:24:12.251Z</time>
      </trkpt>
      <trkpt lat="42.90346" lon="1.3117">
        <ele>780.1</ele>
        <time>2015-08-12T11:24:18.168Z</time>
      </trkpt>
      <trkpt lat="42.90345" lon="1.31172">
        <ele>780.1</ele>
        <time>2015-08-12T11:24:19.146Z</time>
      </trkpt>
      <trkpt lat="42.90337" lon="1.31172">
        <ele>779.1</ele>
        <time>2015-08-12T11:24:27.169Z</time>
      </trkpt>
      <trkpt lat="42.90336" lon="1.31173">
        <ele>778.9</ele>
        <time>2015-08-12T11:24:28.146Z</time>
      </trkpt>
      <trkpt lat="42.90327" lon="1.31174">
        <ele>777.9</ele>
        <time>2015-08-12T11:24:34.169Z</time>
      </trkpt>
      <trkpt lat="42.90326" lon="1.31174">
        <ele>777.8</ele>
        <time>2015-08-12T11:24:35.146Z</time>
      </trkpt>
      <trkpt lat="42.90318" lon="1.31174">
        <ele>776.7</ele>
        <time>2015-08-12T11:24:40.168Z</time>
      </trkpt>
      <trkpt lat="42.90317" lon="1.31174">
        <ele>776.4</ele>
        <time>2015-08-12T11:24:41.312Z</time>
      </trkpt>
      <trkpt lat="42.90308" lon="1.31173">
        <ele>774.2</ele>
        <time>2015-08-12T11:24:46.169Z</time>
      </trkpt>
      <trkpt lat="42.90307" lon="1.31172">
        <ele>773.9</ele>
        <time>2015-08-12T11:24:47.147Z</time>
      </trkpt>
      <trkpt lat="42.90298" lon="1.31171">
        <ele>772.5</ele>
        <time>2015-08-12T11:24:52.168Z</time>
      </trkpt>
      <trkpt lat="42.90296" lon="1.3117">
        <ele>772.3</ele>
        <time>2015-08-12T11:24:53.146Z</time>
      </trkpt>
      <trkpt lat="42.90288" lon="1.31167">
        <ele>771.2</ele>
        <time>2015-08-12T11:24:59.168Z</time>
      </trkpt>
      <trkpt lat="42.90286" lon="1.31165">
        <ele>771</ele>
        <time>2015-08-12T11:25:00.145Z</time>
      </trkpt>
      <trkpt lat="42.90279" lon="1.31161">
        <ele>770.4</ele>
        <time>2015-08-12T11:25:04.168Z</time>
      </trkpt>
      <trkpt lat="42.90277" lon="1.3116">
        <ele>770</ele>
        <time>2015-08-12T11:25:05.146Z</time>
      </trkpt>
      <trkpt lat="42.90272" lon="1.31153">
        <ele>768.3</ele>
        <time>2015-08-12T11:25:09.171Z</time>
      </trkpt>
      <trkpt lat="42.90271" lon="1.31149">
        <ele>767.6</ele>
        <time>2015-08-12T11:25:10.146Z</time>
      </trkpt>
      <trkpt lat="42.90266" lon="1.3114">
        <ele>765.2</ele>
        <time>2015-08-12T11:25:16.167Z</time>
      </trkpt>
      <trkpt lat="42.90266" lon="1.31137">
        <ele>764.9</ele>
        <time>2015-08-12T11:25:17.145Z</time>
      </trkpt>
      <trkpt lat="42.90266" lon="1.31126">
        <ele>762.7</ele>
        <time>2015-08-12T11:25:25.169Z</time>
      </trkpt>
      <trkpt lat="42.90266" lon="1.31124">
        <ele>762.4</ele>
        <time>2015-08-12T11:25:26.145Z</time>
      </trkpt>
      <trkpt lat="42.90271" lon="1.31115">
        <ele>760.2</ele>
        <time>2015-08-12T11:25:31.189Z</time>
      </trkpt>
      <trkpt lat="42.90272" lon="1.31113">
        <ele>759.6</ele>
        <time>2015-08-12T11:25:32.152Z</time>
      </trkpt>
      <trkpt lat="42.90274" lon="1.31102">
        <ele>756.8</ele>
        <time>2015-08-12T11:25:37.196Z</time>
      </trkpt>
      <trkpt lat="42.90274" lon="1.311">
        <ele>756.3</ele>
        <time>2015-08-12T11:25:38.145Z</time>
      </trkpt>
      <trkpt lat="42.90278" lon="1.3109">
        <ele>755.2</ele>
        <time>2015-08-12T11:25:42.174Z</time>
      </trkpt>
      <trkpt lat="42.90278" lon="1.31088">
        <ele>754.9</ele>
        <time>2015-08-12T11:25:43.145Z</time>
      </trkpt>
      <trkpt lat="42.9028" lon="1.31076">
        <ele>753.4</ele>
        <time>2015-08-12T11:25:48.167Z</time>
      </trkpt>
      <trkpt lat="42.90281" lon="1.31074">
        <ele>753.1</ele>
        <time>2015-08-12T11:25:49.146Z</time>
      </trkpt>
      <trkpt lat="42.90284" lon="1.31065">
        <ele>750.9</ele>
        <time>2015-08-12T11:25:54.168Z</time>
      </trkpt>
      <trkpt lat="42.90285" lon="1.31063">
        <ele>750.5</ele>
        <time>2015-08-12T11:25:55.145Z</time>
      </trkpt>
      <trkpt lat="42.90289" lon="1.31053">
        <ele>748.4</ele>
        <time>2015-08-12T11:26:00.168Z</time>
      </trkpt>
      <trkpt lat="42.9029" lon="1.31051">
        <ele>748.1</ele>
        <time>2015-08-12T11:26:01.146Z</time>
      </trkpt>
      <trkpt lat="42.90292" lon="1.3104">
        <ele>745.8</ele>
        <time>2015-08-12T11:26:07.233Z</time>
      </trkpt>
      <trkpt lat="42.90292" lon="1.31037">
        <ele>745.3</ele>
        <time>2015-08-12T11:26:08.145Z</time>
      </trkpt>
      <trkpt lat="42.90297" lon="1.31029">
        <ele>744.5</ele>
        <time>2015-08-12T11:26:12.174Z</time>
      </trkpt>
      <trkpt lat="42.90298" lon="1.31027">
        <ele>744.3</ele>
        <time>2015-08-12T11:26:13.145Z</time>
      </trkpt>
      <trkpt lat="42.90293" lon="1.31019">
        <ele>739.2</ele>
        <time>2015-08-12T11:26:27.169Z</time>
      </trkpt>
      <trkpt lat="42.90291" lon="1.31019">
        <ele>738.9</ele>
        <time>2015-08-12T11:26:28.157Z</time>
      </trkpt>
      <trkpt lat="42.90284" lon="1.31017">
        <ele>737.1</ele>
        <time>2015-08-12T11:26:33.232Z</time>
      </trkpt>
      <trkpt lat="42.90282" lon="1.31016">
        <ele>736.7</ele>
        <time>2015-08-12T11:26:34.145Z</time>
      </trkpt>
      <trkpt lat="42.90273" lon="1.31013">
        <ele>735.1</ele>
        <time>2015-08-12T11:26:39.169Z</time>
      </trkpt>
      <trkpt lat="42.90272" lon="1.31014">
        <ele>734.8</ele>
        <time>2015-08-12T11:26:40.145Z</time>
      </trkpt>
      <trkpt lat="42.90266" lon="1.31015">
        <ele>733.6</ele>
        <time>2015-08-12T11:26:44.169Z</time>
      </trkpt>
      <trkpt lat="42.90263" lon="1.31017">
        <ele>733.3</ele>
        <time>2015-08-12T11:26:45.147Z</time>
      </trkpt>
      <trkpt lat="42.90255" lon="1.31019">
        <ele>732.2</ele>
        <time>2015-08-12T11:26:49.169Z</time>
      </trkpt>
      <trkpt lat="42.90254" lon="1.31019">
        <ele>731.8</ele>
        <time>2015-08-12T11:26:50.145Z</time>
      </trkpt>
      <trkpt lat="42.90246" lon="1.31022">
        <ele>730.1</ele>
        <time>2015-08-12T11:26:55.168Z</time>
      </trkpt>
      <trkpt lat="42.90245" lon="1.31023">
        <ele>729.8</ele>
        <time>2015-08-12T11:26:56.145Z</time>
      </trkpt>
      <trkpt lat="42.90238" lon="1.31028">
        <ele>727.9</ele>
        <time>2015-08-12T11:27:01.385Z</time>
      </trkpt>
      <trkpt lat="42.90236" lon="1.31029">
        <ele>727.4</ele>
        <time>2015-08-12T11:27:02.151Z</time>
      </trkpt>
      <trkpt lat="42.90229" lon="1.31034">
        <ele>725.3</ele>
        <time>2015-08-12T11:27:07.168Z</time>
      </trkpt>
      <trkpt lat="42.90227" lon="1.31035">
        <ele>724.7</ele>
        <time>2015-08-12T11:27:08.157Z</time>
      </trkpt>
      <trkpt lat="42.90221" lon="1.31043">
        <ele>722.4</ele>
        <time>2015-08-12T11:27:14.181Z</time>
      </trkpt>
      <trkpt lat="42.90219" lon="1.31045">
        <ele>722</ele>
        <time>2015-08-12T11:27:15.147Z</time>
      </trkpt>
      <trkpt lat="42.90213" lon="1.31054">
        <ele>719.5</ele>
        <time>2015-08-12T11:27:21.170Z</time>
      </trkpt>
      <trkpt lat="42.90212" lon="1.31056">
        <ele>719</ele>
        <time>2015-08-12T11:27:22.145Z</time>
      </trkpt>
      <trkpt lat="42.90206" lon="1.31063">
        <ele>717</ele>
        <time>2015-08-12T11:27:26.167Z</time>
      </trkpt>
      <trkpt lat="42.90205" lon="1.31065">
        <ele>716.6</ele>
        <time>2015-08-12T11:27:27.147Z</time>
      </trkpt>
      <trkpt lat="42.902" lon="1.31072">
        <ele>715</ele>
        <time>2015-08-12T11:27:31.168Z</time>
      </trkpt>
      <trkpt lat="42.90198" lon="1.31074">
        <ele>714.7</ele>
        <time>2015-08-12T11:27:32.145Z</time>
      </trkpt>
      <trkpt lat="42.90192" lon="1.31079">
        <ele>713.5</ele>
        <time>2015-08-12T11:27:36.168Z</time>
      </trkpt>
      <trkpt lat="42.9019" lon="1.3108">
        <ele>713.2</ele>
        <time>2015-08-12T11:27:37.145Z</time>
      </trkpt>
      <trkpt lat="42.90183" lon="1.31086">
        <ele>711</ele>
        <time>2015-08-12T11:27:41.168Z</time>
      </trkpt>
      <trkpt lat="42.90182" lon="1.31087">
        <ele>710.3</ele>
        <time>2015-08-12T11:27:42.145Z</time>
      </trkpt>
      <trkpt lat="42.90175" lon="1.31095">
        <ele>707.1</ele>
        <time>2015-08-12T11:27:47.168Z</time>
      </trkpt>
      <trkpt lat="42.90174" lon="1.31097">
        <ele>706.8</ele>
        <time>2015-08-12T11:27:48.145Z</time>
      </trkpt>
      <trkpt lat="42.90168" lon="1.31103">
        <ele>705.1</ele>
        <time>2015-08-12T11:27:53.167Z</time>
      </trkpt>
      <trkpt lat="42.90167" lon="1.31104">
        <ele>704.9</ele>
        <time>2015-08-12T11:27:54.146Z</time>
      </trkpt>
      <trkpt lat="42.90161" lon="1.31112">
        <ele>702.9</ele>
        <time>2015-08-12T11:27:59.196Z</time>
      </trkpt>
      <trkpt lat="42.90159" lon="1.31114">
        <ele>702.3</ele>
        <time>2015-08-12T11:28:00.146Z</time>
      </trkpt>
      <trkpt lat="42.90156" lon="1.31122">
        <ele>701.1</ele>
        <time>2015-08-12T11:28:03.168Z</time>
      </trkpt>
      <trkpt lat="42.90154" lon="1.31125">
        <ele>700.7</ele>
        <time>2015-08-12T11:28:04.145Z</time>
      </trkpt>
      <trkpt lat="42.90147" lon="1.31132">
        <ele>699.6</ele>
        <time>2015-08-12T11:28:07.168Z</time>
      </trkpt>
      <trkpt lat="42.90146" lon="1.31134">
        <ele>699.1</ele>
        <time>2015-08-12T11:28:08.145Z</time>
      </trkpt>
      <trkpt lat="42.9014" lon="1.31142">
        <ele>695.9</ele>
        <time>2015-08-12T11:28:15.170Z</time>
      </trkpt>
      <trkpt lat="42.90139" lon="1.31144">
        <ele>695.5</ele>
        <time>2015-08-12T11:28:16.146Z</time>
      </trkpt>
      <trkpt lat="42.90134" lon="1.31154">
        <ele>692.8</ele>
        <time>2015-08-12T11:28:23.168Z</time>
      </trkpt>
      <trkpt lat="42.90133" lon="1.31155">
        <ele>692.4</ele>
        <time>2015-08-12T11:28:24.146Z</time>
      </trkpt>
      <trkpt lat="42.9013" lon="1.31165">
        <ele>690.1</ele>
        <time>2015-08-12T11:28:29.168Z</time>
      </trkpt>
      <trkpt lat="42.90131" lon="1.31167">
        <ele>689.8</ele>
        <time>2015-08-12T11:28:30.145Z</time>
      </trkpt>
      <trkpt lat="42.90133" lon="1.31178">
        <ele>687</ele>
        <time>2015-08-12T11:28:38.168Z</time>
      </trkpt>
      <trkpt lat="42.90133" lon="1.31179">
        <ele>686.6</ele>
        <time>2015-08-12T11:28:39.147Z</time>
      </trkpt>
      <trkpt lat="42.90137" lon="1.31189">
        <ele>684.6</ele>
        <time>2015-08-12T11:28:45.170Z</time>
      </trkpt>
      <trkpt lat="42.90137" lon="1.3119">
        <ele>684.3</ele>
        <time>2015-08-12T11:28:46.145Z</time>
      </trkpt>
      <trkpt lat="42.90137" lon="1.31201">
        <ele>682.1</ele>
        <time>2015-08-12T11:28:52.168Z</time>
      </trkpt>
      <trkpt lat="42.90138" lon="1.31204">
        <ele>681.7</ele>
        <time>2015-08-12T11:28:53.145Z</time>
      </trkpt>
      <trkpt lat="42.9014" lon="1.31214">
        <ele>680.3</ele>
        <time>2015-08-12T11:28:57.170Z</time>
      </trkpt>
      <trkpt lat="42.90141" lon="1.31217">
        <ele>680.1</ele>
        <time>2015-08-12T11:28:58.145Z</time>
      </trkpt>
      <trkpt lat="42.90144" lon="1.31228">
        <ele>678.8</ele>
        <time>2015-08-12T11:29:02.168Z</time>
      </trkpt>
      <trkpt lat="42.90144" lon="1.3123">
        <ele>678.5</ele>
        <time>2015-08-12T11:29:03.147Z</time>
      </trkpt>
      <trkpt lat="42.90143" lon="1.31242">
        <ele>677</ele>
        <time>2015-08-12T11:29:08.168Z</time>
      </trkpt>
      <trkpt lat="42.90143" lon="1.31244">
        <ele>676.7</ele>
        <time>2015-08-12T11:29:09.147Z</time>
      </trkpt>
      <trkpt lat="42.90144" lon="1.31255">
        <ele>674.7</ele>
        <time>2015-08-12T11:29:15.170Z</time>
      </trkpt>
      <trkpt lat="42.90146" lon="1.31256">
        <ele>674.3</ele>
        <time>2015-08-12T11:29:16.145Z</time>
      </trkpt>
      <trkpt lat="42.90148" lon="1.31268">
        <ele>672.4</ele>
        <time>2015-08-12T11:29:23.168Z</time>
      </trkpt>
      <trkpt lat="42.90148" lon="1.31269">
        <ele>672.1</ele>
        <time>2015-08-12T11:29:24.145Z</time>
      </trkpt>
      <trkpt lat="42.90151" lon="1.31279">
        <ele>671.3</ele>
        <time>2015-08-12T11:29:28.169Z</time>
      </trkpt>
      <trkpt lat="42.90151" lon="1.31282">
        <ele>671.1</ele>
        <time>2015-08-12T11:29:29.161Z</time>
      </trkpt>
      <trkpt lat="42.90151" lon="1.31293">
        <ele>669.6</ele>
        <time>2015-08-12T11:29:34.190Z</time>
      </trkpt>
      <trkpt lat="42.90151" lon="1.31295">
        <ele>669.4</ele>
        <time>2015-08-12T11:29:35.145Z</time>
      </trkpt>
      <trkpt lat="42.90149" lon="1.31301">
        <ele>669.2</ele>
        <time>2015-08-12T11:29:37.166Z</time>
      </trkpt>
      <trkpt lat="42.90141" lon="1.31312">
        <ele>669.2</ele>
        <time>2015-08-12T11:29:38.144Z</time>
      </trkpt>
      <trkpt lat="42.90135" lon="1.31319">
        <ele>668.5</ele>
        <time>2015-08-12T11:29:42.168Z</time>
      </trkpt>
      <trkpt lat="42.90134" lon="1.3132">
        <ele>668.2</ele>
        <time>2015-08-12T11:29:43.157Z</time>
      </trkpt>
      <trkpt lat="42.90127" lon="1.31326">
        <ele>667.2</ele>
        <time>2015-08-12T11:29:47.168Z</time>
      </trkpt>
      <trkpt lat="42.90126" lon="1.31328">
        <ele>666.9</ele>
        <time>2015-08-12T11:29:48.145Z</time>
      </trkpt>
      <trkpt lat="42.90119" lon="1.31332">
        <ele>665.6</ele>
        <time>2015-08-12T11:29:53.168Z</time>
      </trkpt>
      <trkpt lat="42.90117" lon="1.31332">
        <ele>665.3</ele>
        <time>2015-08-12T11:29:54.145Z</time>
      </trkpt>
      <trkpt lat="42.9011" lon="1.31338">
        <ele>663.4</ele>
        <time>2015-08-12T11:30:01.168Z</time>
      </trkpt>
      <trkpt lat="42.90109" lon="1.31339">
        <ele>663.1</ele>
        <time>2015-08-12T11:30:02.145Z</time>
      </trkpt>
      <trkpt lat="42.90101" lon="1.31342">
        <ele>660.3</ele>
        <time>2015-08-12T11:30:09.193Z</time>
      </trkpt>
      <trkpt lat="42.90099" lon="1.31342">
        <ele>659.9</ele>
        <time>2015-08-12T11:30:10.145Z</time>
      </trkpt>
      <trkpt lat="42.90095" lon="1.31352">
        <ele>657</ele>
        <time>2015-08-12T11:30:21.170Z</time>
      </trkpt>
      <trkpt lat="42.90095" lon="1.31353">
        <ele>656.8</ele>
        <time>2015-08-12T11:30:22.145Z</time>
      </trkpt>
      <trkpt lat="42.9009" lon="1.31357">
        <ele>655.9</ele>
        <time>2015-08-12T11:30:36.168Z</time>
      </trkpt>
      <trkpt lat="42.90086" lon="1.3136">
        <ele>655.7</ele>
        <time>2015-08-12T11:30:37.145Z</time>
      </trkpt>
      <trkpt lat="42.90079" lon="1.31368">
        <ele>655.9</ele>
        <time>2015-08-12T11:30:43.168Z</time>
      </trkpt>
      <trkpt lat="42.90079" lon="1.31369">
        <ele>655.8</ele>
        <time>2015-08-12T11:30:44.145Z</time>
      </trkpt>
      <trkpt lat="42.90075" lon="1.31378">
        <ele>655.9</ele>
        <time>2015-08-12T11:30:52.167Z</time>
      </trkpt>
      <trkpt lat="42.90073" lon="1.31379">
        <ele>655.9</ele>
        <time>2015-08-12T11:30:53.145Z</time>
      </trkpt>
      <trkpt lat="42.9007" lon="1.31389">
        <ele>655.6</ele>
        <time>2015-08-12T11:31:02.168Z</time>
      </trkpt>
      <trkpt lat="42.90069" lon="1.3139">
        <ele>655.6</ele>
        <time>2015-08-12T11:31:03.147Z</time>
      </trkpt>
      <trkpt lat="42.90064" lon="1.31399">
        <ele>655.6</ele>
        <time>2015-08-12T11:31:17.168Z</time>
      </trkpt>
      <trkpt lat="42.90064" lon="1.31401">
        <ele>655.5</ele>
        <time>2015-08-12T11:31:18.145Z</time>
      </trkpt>
      <trkpt lat="42.90056" lon="1.31408">
        <ele>655.2</ele>
        <time>2015-08-12T11:31:28.168Z</time>
      </trkpt>
      <trkpt lat="42.90055" lon="1.31408">
        <ele>655.1</ele>
        <time>2015-08-12T11:31:29.145Z</time>
      </trkpt>
      <trkpt lat="42.90047" lon="1.31413">
        <ele>654.4</ele>
        <time>2015-08-12T11:31:38.167Z</time>
      </trkpt>
      <trkpt lat="42.90047" lon="1.31415">
        <ele>654.4</ele>
        <time>2015-08-12T11:31:39.147Z</time>
      </trkpt>
      <trkpt lat="42.90044" lon="1.31426">
        <ele>654.3</ele>
        <time>2015-08-12T11:31:49.167Z</time>
      </trkpt>
      <trkpt lat="42.90043" lon="1.31428">
        <ele>654.2</ele>
        <time>2015-08-12T11:31:50.145Z</time>
      </trkpt>
      <trkpt lat="42.90037" lon="1.31436">
        <ele>653.8</ele>
        <time>2015-08-12T11:31:55.167Z</time>
      </trkpt>
      <trkpt lat="42.90036" lon="1.31437">
        <ele>653.8</ele>
        <time>2015-08-12T11:31:56.145Z</time>
      </trkpt>
      <trkpt lat="42.90034" lon="1.31448">
        <ele>653.1</ele>
        <time>2015-08-12T11:32:05.168Z</time>
      </trkpt>
      <trkpt lat="42.90034" lon="1.3145">
        <ele>653</ele>
        <time>2015-08-12T11:32:06.145Z</time>
      </trkpt>
      <trkpt lat="42.9003" lon="1.31459">
        <ele>652.2</ele>
        <time>2015-08-12T11:32:11.168Z</time>
      </trkpt>
      <trkpt lat="42.9003" lon="1.31461">
        <ele>652.1</ele>
        <time>2015-08-12T11:32:12.145Z</time>
      </trkpt>
      <trkpt lat="42.9003" lon="1.31473">
        <ele>651.3</ele>
        <time>2015-08-12T11:32:19.181Z</time>
      </trkpt>
      <trkpt lat="42.9003" lon="1.31474">
        <ele>650.8</ele>
        <time>2015-08-12T11:32:20.145Z</time>
      </trkpt>
      <trkpt lat="42.90026" lon="1.31484">
        <ele>650</ele>
        <time>2015-08-12T11:32:26.240Z</time>
      </trkpt>
      <trkpt lat="42.90025" lon="1.31485">
        <ele>650</ele>
        <time>2015-08-12T11:32:27.147Z</time>
      </trkpt>
      <trkpt lat="42.90017" lon="1.31489">
        <ele>649.8</ele>
        <time>2015-08-12T11:32:41.725Z</time>
      </trkpt>
      <trkpt lat="42.90015" lon="1.31493">
        <ele>649.6</ele>
        <time>2015-08-12T11:32:42.145Z</time>
      </trkpt>
      <trkpt lat="42.90011" lon="1.31502">
        <ele>647.6</ele>
        <time>2015-08-12T11:32:50.180Z</time>
      </trkpt>
      <trkpt lat="42.90008" lon="1.31503">
        <ele>647.5</ele>
        <time>2015-08-12T11:32:51.349Z</time>
      </trkpt>
      <trkpt lat="42.90002" lon="1.3151">
        <ele>645.4</ele>
        <time>2015-08-12T11:33:02.168Z</time>
      </trkpt>
      <trkpt lat="42.90001" lon="1.31512">
        <ele>645.2</ele>
        <time>2015-08-12T11:33:03.146Z</time>
      </trkpt>
      <trkpt lat="42.89995" lon="1.31522">
        <ele>643.6</ele>
        <time>2015-08-12T11:33:10.168Z</time>
      </trkpt>
      <trkpt lat="42.89994" lon="1.31523">
        <ele>643.5</ele>
        <time>2015-08-12T11:33:11.145Z</time>
      </trkpt>
      <trkpt lat="42.89992" lon="1.31534">
        <ele>641.9</ele>
        <time>2015-08-12T11:33:20.167Z</time>
      </trkpt>
      <trkpt lat="42.89992" lon="1.31535">
        <ele>641.7</ele>
        <time>2015-08-12T11:33:21.147Z</time>
      </trkpt>
      <trkpt lat="42.89987" lon="1.31543">
        <ele>640.2</ele>
        <time>2015-08-12T11:33:26.168Z</time>
      </trkpt>
      <trkpt lat="42.89985" lon="1.31545">
        <ele>640</ele>
        <time>2015-08-12T11:33:27.147Z</time>
      </trkpt>
      <trkpt lat="42.89984" lon="1.31556">
        <ele>637.7</ele>
        <time>2015-08-12T11:33:32.167Z</time>
      </trkpt>
      <trkpt lat="42.89984" lon="1.31559">
        <ele>637.2</ele>
        <time>2015-08-12T11:33:33.147Z</time>
      </trkpt>
      <trkpt lat="42.89982" lon="1.3157">
        <ele>635.8</ele>
        <time>2015-08-12T11:33:38.193Z</time>
      </trkpt>
      <trkpt lat="42.89981" lon="1.31572">
        <ele>635.4</ele>
        <time>2015-08-12T11:33:39.147Z</time>
      </trkpt>
      <trkpt lat="42.89976" lon="1.31583">
        <ele>634</ele>
        <time>2015-08-12T11:33:44.168Z</time>
      </trkpt>
      <trkpt lat="42.89976" lon="1.31585">
        <ele>633.6</ele>
        <time>2015-08-12T11:33:45.147Z</time>
      </trkpt>
      <trkpt lat="42.89973" lon="1.31596">
        <ele>631.6</ele>
        <time>2015-08-12T11:33:53.167Z</time>
      </trkpt>
      <trkpt lat="42.89973" lon="1.31598">
        <ele>631.4</ele>
        <time>2015-08-12T11:33:54.145Z</time>
      </trkpt>
      <trkpt lat="42.89969" lon="1.31608">
        <ele>630.1</ele>
        <time>2015-08-12T11:34:00.167Z</time>
      </trkpt>
      <trkpt lat="42.89967" lon="1.3161">
        <ele>629.7</ele>
        <time>2015-08-12T11:34:01.145Z</time>
      </trkpt>
      <trkpt lat="42.8996" lon="1.31616">
        <ele>628.6</ele>
        <time>2015-08-12T11:34:04.168Z</time>
      </trkpt>
      <trkpt lat="42.89958" lon="1.31618">
        <ele>628.3</ele>
        <time>2015-08-12T11:34:05.145Z</time>
      </trkpt>
      <trkpt lat="42.89951" lon="1.31623">
        <ele>627.9</ele>
        <time>2015-08-12T11:34:09.168Z</time>
      </trkpt>
      <trkpt lat="42.89949" lon="1.31623">
        <ele>627.7</ele>
        <time>2015-08-12T11:34:10.145Z</time>
      </trkpt>
      <trkpt lat="42.89946" lon="1.31632">
        <ele>625.8</ele>
        <time>2015-08-12T11:34:16.168Z</time>
      </trkpt>
      <trkpt lat="42.89945" lon="1.31636">
        <ele>625.3</ele>
        <time>2015-08-12T11:34:17.145Z</time>
      </trkpt>
      <trkpt lat="42.89942" lon="1.31647">
        <ele>623.4</ele>
        <time>2015-08-12T11:34:22.168Z</time>
      </trkpt>
      <trkpt lat="42.89941" lon="1.3165">
        <ele>623</ele>
        <time>2015-08-12T11:34:23.145Z</time>
      </trkpt>
      <trkpt lat="42.89937" lon="1.31661">
        <ele>618.1</ele>
        <time>2015-08-12T11:34:31.168Z</time>
      </trkpt>
      <trkpt lat="42.89937" lon="1.31662">
        <ele>617.6</ele>
        <time>2015-08-12T11:34:32.145Z</time>
      </trkpt>
      <trkpt lat="42.8993" lon="1.31669">
        <ele>613.8</ele>
        <time>2015-08-12T11:34:38.168Z</time>
      </trkpt>
      <trkpt lat="42.89928" lon="1.31671">
        <ele>613.2</ele>
        <time>2015-08-12T11:34:39.147Z</time>
      </trkpt>
      <trkpt lat="42.89922" lon="1.31677">
        <ele>610.6</ele>
        <time>2015-08-12T11:34:44.168Z</time>
      </trkpt>
      <trkpt lat="42.89921" lon="1.31679">
        <ele>610</ele>
        <time>2015-08-12T11:34:45.147Z</time>
      </trkpt>
      <trkpt lat="42.89914" lon="1.31685">
        <ele>607.5</ele>
        <time>2015-08-12T11:34:50.168Z</time>
      </trkpt>
      <trkpt lat="42.89913" lon="1.31686">
        <ele>607.1</ele>
        <time>2015-08-12T11:34:51.147Z</time>
      </trkpt>
      <trkpt lat="42.89905" lon="1.31686">
        <ele>604.9</ele>
        <time>2015-08-12T11:34:56.168Z</time>
      </trkpt>
      <trkpt lat="42.89903" lon="1.31686">
        <ele>604.5</ele>
        <time>2015-08-12T11:34:57.147Z</time>
      </trkpt>
      <trkpt lat="42.89896" lon="1.31681">
        <ele>602.8</ele>
        <time>2015-08-12T11:35:03.169Z</time>
      </trkpt>
      <trkpt lat="42.89894" lon="1.31681">
        <ele>602.4</ele>
        <time>2015-08-12T11:35:04.147Z</time>
      </trkpt>
      <trkpt lat="42.89886" lon="1.31676">
        <ele>600.5</ele>
        <time>2015-08-12T11:35:09.180Z</time>
      </trkpt>
      <trkpt lat="42.89884" lon="1.31675">
        <ele>600.2</ele>
        <time>2015-08-12T11:35:10.145Z</time>
      </trkpt>
      <trkpt lat="42.89876" lon="1.31671">
        <ele>599</ele>
        <time>2015-08-12T11:35:15.170Z</time>
      </trkpt>
      <trkpt lat="42.89875" lon="1.3167">
        <ele>598.7</ele>
        <time>2015-08-12T11:35:16.145Z</time>
      </trkpt>
      <trkpt lat="42.89868" lon="1.31666">
        <ele>597.3</ele>
        <time>2015-08-12T11:35:22.168Z</time>
      </trkpt>
      <trkpt lat="42.89867" lon="1.31665">
        <ele>597.1</ele>
        <time>2015-08-12T11:35:23.145Z</time>
      </trkpt>
      <trkpt lat="42.89859" lon="1.31662">
        <ele>595.8</ele>
        <time>2015-08-12T11:35:27.170Z</time>
      </trkpt>
      <trkpt lat="42.89857" lon="1.31661">
        <ele>595.6</ele>
        <time>2015-08-12T11:35:28.145Z</time>
      </trkpt>
      <trkpt lat="42.8985" lon="1.31654">
        <ele>595</ele>
        <time>2015-08-12T11:35:34.167Z</time>
      </trkpt>
      <trkpt lat="42.8985" lon="1.31652">
        <ele>595.1</ele>
        <time>2015-08-12T11:35:35.145Z</time>
      </trkpt>
      <trkpt lat="42.89843" lon="1.31644">
        <ele>593.7</ele>
        <time>2015-08-12T11:35:42.168Z</time>
      </trkpt>
      <trkpt lat="42.89843" lon="1.31643">
        <ele>593.5</ele>
        <time>2015-08-12T11:35:43.157Z</time>
      </trkpt>
      <trkpt lat="42.89845" lon="1.31633">
        <ele>592.3</ele>
        <time>2015-08-12T11:35:49.168Z</time>
      </trkpt>
      <trkpt lat="42.89846" lon="1.31631">
        <ele>592.2</ele>
        <time>2015-08-12T11:35:50.145Z</time>
      </trkpt>
      <trkpt lat="42.89849" lon="1.3162">
        <ele>591</ele>
        <time>2015-08-12T11:35:58.168Z</time>
      </trkpt>
      <trkpt lat="42.89849" lon="1.31619">
        <ele>590.9</ele>
        <time>2015-08-12T11:35:59.145Z</time>
      </trkpt>
      <trkpt lat="42.89844" lon="1.3162">
        <ele>590.8</ele>
        <time>2015-08-12T11:37:39.170Z</time>
      </trkpt>
      <trkpt lat="42.8983" lon="1.31643">
        <ele>589.3</ele>
        <time>2015-08-12T11:39:32.154Z</time>
      </trkpt>
      <trkpt lat="42.8983" lon="1.31643">
        <ele>589.3</ele>
        <time>2015-08-12T11:40:34.606Z</time>
      </trkpt>
    </trkseg>
  </trk>
</gpx>